<?xml version="1.0" encoding="UTF-8" standalone="no" ?>
<gpx xmlns="http://www.topografix.com/GPX/1/1" xmlns:xsi="http://www.w3.org/2001/XMLSchema-instance" xsi:schemaLocation="http://www.topografix.com/GPX/1/1 http://www.topografix.com/GPX/1/1/gpx.xsd" version="1.1" creator="VisuGPX - https://www.visugpx.com">
  <metadata>
    <name>Rando Meudon (avec Bernard )</name>
    <desc><![CDATA[balade de l\'après midi avec 20 participants]]></desc>
  </metadata>
  <trk>
    <name><![CDATA[Chaville Course à pied]]></name>
    <trkseg>
      <trkpt lat="48.79797" lon="2.19883">
        <ele>117</ele>
        <time>2015-02-03T13:00:05.000Z</time>
      </trkpt>
      <trkpt lat="48.79795" lon="2.19884">
        <ele>117.40000152588</ele>
        <time>2015-02-03T13:00:09.000Z</time>
      </trkpt>
      <trkpt lat="48.79788" lon="2.1989">
        <ele>117.19999694824</ele>
        <time>2015-02-03T13:00:16.000Z</time>
      </trkpt>
      <trkpt lat="48.79781" lon="2.19897">
        <ele>117.19999694824</ele>
        <time>2015-02-03T13:00:24.000Z</time>
      </trkpt>
      <trkpt lat="48.79777" lon="2.19899">
        <ele>117.40000152588</ele>
        <time>2015-02-03T13:00:30.000Z</time>
      </trkpt>
      <trkpt lat="48.79776" lon="2.19901">
        <ele>117.19999694824</ele>
        <time>2015-02-03T13:00:32.000Z</time>
      </trkpt>
      <trkpt lat="48.79775" lon="2.19901">
        <ele>117.19999694824</ele>
        <time>2015-02-03T13:00:33.000Z</time>
      </trkpt>
      <trkpt lat="48.79771" lon="2.19904">
        <ele>117.40000152588</ele>
        <time>2015-02-03T13:00:39.000Z</time>
      </trkpt>
      <trkpt lat="48.79765" lon="2.19909">
        <ele>117.59999847412</ele>
        <time>2015-02-03T13:00:46.000Z</time>
      </trkpt>
      <trkpt lat="48.7976" lon="2.19914">
        <ele>117.80000305176</ele>
        <time>2015-02-03T13:00:53.000Z</time>
      </trkpt>
      <trkpt lat="48.79755" lon="2.19918">
        <ele>117.80000305176</ele>
        <time>2015-02-03T13:01:00.000Z</time>
      </trkpt>
      <trkpt lat="48.79749" lon="2.19923">
        <ele>118</ele>
        <time>2015-02-03T13:01:08.000Z</time>
      </trkpt>
      <trkpt lat="48.79748" lon="2.19924">
        <ele>118</ele>
        <time>2015-02-03T13:01:09.000Z</time>
      </trkpt>
      <trkpt lat="48.79742" lon="2.19927">
        <ele>117.59999847412</ele>
        <time>2015-02-03T13:01:15.000Z</time>
      </trkpt>
      <trkpt lat="48.79738" lon="2.19929">
        <ele>117.59999847412</ele>
        <time>2015-02-03T13:01:19.000Z</time>
      </trkpt>
      <trkpt lat="48.79738" lon="2.1993">
        <ele>117.59999847412</ele>
        <time>2015-02-03T13:01:21.000Z</time>
      </trkpt>
      <trkpt lat="48.79737" lon="2.1993">
        <ele>117.59999847412</ele>
        <time>2015-02-03T13:01:22.000Z</time>
      </trkpt>
      <trkpt lat="48.79736" lon="2.1993">
        <ele>117.80000305176</ele>
        <time>2015-02-03T13:01:25.000Z</time>
      </trkpt>
      <trkpt lat="48.79733" lon="2.19931">
        <ele>117.59999847412</ele>
        <time>2015-02-03T13:01:28.000Z</time>
      </trkpt>
      <trkpt lat="48.79727" lon="2.19933">
        <ele>117.59999847412</ele>
        <time>2015-02-03T13:01:33.000Z</time>
      </trkpt>
      <trkpt lat="48.79724" lon="2.19934">
        <ele>117.40000152588</ele>
        <time>2015-02-03T13:01:36.000Z</time>
      </trkpt>
      <trkpt lat="48.79721" lon="2.19935">
        <ele>117.40000152588</ele>
        <time>2015-02-03T13:01:39.000Z</time>
      </trkpt>
      <trkpt lat="48.7972" lon="2.19936">
        <ele>117.40000152588</ele>
        <time>2015-02-03T13:01:41.000Z</time>
      </trkpt>
      <trkpt lat="48.79718" lon="2.19937">
        <ele>117.40000152588</ele>
        <time>2015-02-03T13:01:43.000Z</time>
      </trkpt>
      <trkpt lat="48.79715" lon="2.19939">
        <ele>117.59999847412</ele>
        <time>2015-02-03T13:01:46.000Z</time>
      </trkpt>
      <trkpt lat="48.79712" lon="2.19941">
        <ele>117.59999847412</ele>
        <time>2015-02-03T13:01:50.000Z</time>
      </trkpt>
      <trkpt lat="48.79712" lon="2.19942">
        <ele>117.59999847412</ele>
        <time>2015-02-03T13:01:51.000Z</time>
      </trkpt>
      <trkpt lat="48.79708" lon="2.19949">
        <ele>118</ele>
        <time>2015-02-03T13:01:57.000Z</time>
      </trkpt>
      <trkpt lat="48.79707" lon="2.19952">
        <ele>118.19999694824</ele>
        <time>2015-02-03T13:01:59.000Z</time>
      </trkpt>
      <trkpt lat="48.79702" lon="2.1996">
        <ele>118.59999847412</ele>
        <time>2015-02-03T13:02:07.000Z</time>
      </trkpt>
      <trkpt lat="48.797" lon="2.19969">
        <ele>119</ele>
        <time>2015-02-03T13:02:14.000Z</time>
      </trkpt>
      <trkpt lat="48.797" lon="2.1997">
        <ele>119.19999694824</ele>
        <time>2015-02-03T13:02:15.000Z</time>
      </trkpt>
      <trkpt lat="48.79696" lon="2.19974">
        <ele>119.40000152588</ele>
        <time>2015-02-03T13:02:20.000Z</time>
      </trkpt>
      <trkpt lat="48.79691" lon="2.19978">
        <ele>119.40000152588</ele>
        <time>2015-02-03T13:02:26.000Z</time>
      </trkpt>
      <trkpt lat="48.79687" lon="2.19981">
        <ele>119.59999847412</ele>
        <time>2015-02-03T13:02:30.000Z</time>
      </trkpt>
      <trkpt lat="48.79685" lon="2.19983">
        <ele>119.59999847412</ele>
        <time>2015-02-03T13:02:33.000Z</time>
      </trkpt>
      <trkpt lat="48.79684" lon="2.19984">
        <ele>119.59999847412</ele>
        <time>2015-02-03T13:02:34.000Z</time>
      </trkpt>
      <trkpt lat="48.79679" lon="2.19989">
        <ele>119.80000305176</ele>
        <time>2015-02-03T13:02:41.000Z</time>
      </trkpt>
      <trkpt lat="48.79672" lon="2.19997">
        <ele>119.59999847412</ele>
        <time>2015-02-03T13:02:49.000Z</time>
      </trkpt>
      <trkpt lat="48.79666" lon="2.20003">
        <ele>119.80000305176</ele>
        <time>2015-02-03T13:02:55.000Z</time>
      </trkpt>
      <trkpt lat="48.79661" lon="2.20008">
        <ele>119.80000305176</ele>
        <time>2015-02-03T13:03:00.000Z</time>
      </trkpt>
      <trkpt lat="48.79659" lon="2.20009">
        <ele>120</ele>
        <time>2015-02-03T13:03:02.000Z</time>
      </trkpt>
      <trkpt lat="48.79657" lon="2.20011">
        <ele>120.19999694824</ele>
        <time>2015-02-03T13:03:04.000Z</time>
      </trkpt>
      <trkpt lat="48.79653" lon="2.20014">
        <ele>120</ele>
        <time>2015-02-03T13:03:08.000Z</time>
      </trkpt>
      <trkpt lat="48.79651" lon="2.20016">
        <ele>120.19999694824</ele>
        <time>2015-02-03T13:03:11.000Z</time>
      </trkpt>
      <trkpt lat="48.79647" lon="2.20019">
        <ele>120.19999694824</ele>
        <time>2015-02-03T13:03:15.000Z</time>
      </trkpt>
      <trkpt lat="48.79642" lon="2.20025">
        <ele>120.19999694824</ele>
        <time>2015-02-03T13:03:22.000Z</time>
      </trkpt>
      <trkpt lat="48.79638" lon="2.20028">
        <ele>120.40000152588</ele>
        <time>2015-02-03T13:03:27.000Z</time>
      </trkpt>
      <trkpt lat="48.79637" lon="2.20029">
        <ele>120.40000152588</ele>
        <time>2015-02-03T13:03:30.000Z</time>
      </trkpt>
      <trkpt lat="48.79635" lon="2.2003">
        <ele>120.19999694824</ele>
        <time>2015-02-03T13:03:31.000Z</time>
      </trkpt>
      <trkpt lat="48.79634" lon="2.20033">
        <ele>120.19999694824</ele>
        <time>2015-02-03T13:03:34.000Z</time>
      </trkpt>
      <trkpt lat="48.79632" lon="2.20035">
        <ele>120.40000152588</ele>
        <time>2015-02-03T13:03:37.000Z</time>
      </trkpt>
      <trkpt lat="48.79625" lon="2.20041">
        <ele>120.40000152588</ele>
        <time>2015-02-03T13:03:45.000Z</time>
      </trkpt>
      <trkpt lat="48.79619" lon="2.20046">
        <ele>121</ele>
        <time>2015-02-03T13:03:52.000Z</time>
      </trkpt>
      <trkpt lat="48.79612" lon="2.20051">
        <ele>120.80000305176</ele>
        <time>2015-02-03T13:03:59.000Z</time>
      </trkpt>
      <trkpt lat="48.79604" lon="2.20057">
        <ele>121</ele>
        <time>2015-02-03T13:04:08.000Z</time>
      </trkpt>
      <trkpt lat="48.79598" lon="2.2006">
        <ele>121.19999694824</ele>
        <time>2015-02-03T13:04:15.000Z</time>
      </trkpt>
      <trkpt lat="48.7959" lon="2.20067">
        <ele>121.19999694824</ele>
        <time>2015-02-03T13:04:24.000Z</time>
      </trkpt>
      <trkpt lat="48.79584" lon="2.2007">
        <ele>121.19999694824</ele>
        <time>2015-02-03T13:04:31.000Z</time>
      </trkpt>
      <trkpt lat="48.79575" lon="2.20075">
        <ele>121.80000305176</ele>
        <time>2015-02-03T13:04:41.000Z</time>
      </trkpt>
      <trkpt lat="48.7957" lon="2.20078">
        <ele>121.80000305176</ele>
        <time>2015-02-03T13:04:49.000Z</time>
      </trkpt>
      <trkpt lat="48.79564" lon="2.20083">
        <ele>121.59999847412</ele>
        <time>2015-02-03T13:04:57.000Z</time>
      </trkpt>
      <trkpt lat="48.79557" lon="2.20088">
        <ele>121.80000305176</ele>
        <time>2015-02-03T13:05:04.000Z</time>
      </trkpt>
      <trkpt lat="48.79552" lon="2.20092">
        <ele>122.19999694824</ele>
        <time>2015-02-03T13:05:10.000Z</time>
      </trkpt>
      <trkpt lat="48.79546" lon="2.20097">
        <ele>122</ele>
        <time>2015-02-03T13:05:17.000Z</time>
      </trkpt>
      <trkpt lat="48.79542" lon="2.201">
        <ele>122.19999694824</ele>
        <time>2015-02-03T13:05:22.000Z</time>
      </trkpt>
      <trkpt lat="48.79541" lon="2.20101">
        <ele>122.40000152588</ele>
        <time>2015-02-03T13:05:24.000Z</time>
      </trkpt>
      <trkpt lat="48.79536" lon="2.20106">
        <ele>122.40000152588</ele>
        <time>2015-02-03T13:05:30.000Z</time>
      </trkpt>
      <trkpt lat="48.79531" lon="2.20111">
        <ele>122.59999847412</ele>
        <time>2015-02-03T13:05:37.000Z</time>
      </trkpt>
      <trkpt lat="48.79524" lon="2.20117">
        <ele>123</ele>
        <time>2015-02-03T13:05:45.000Z</time>
      </trkpt>
      <trkpt lat="48.79519" lon="2.20123">
        <ele>123.19999694824</ele>
        <time>2015-02-03T13:05:53.000Z</time>
      </trkpt>
      <trkpt lat="48.79513" lon="2.20128">
        <ele>123.80000305176</ele>
        <time>2015-02-03T13:06:00.000Z</time>
      </trkpt>
      <trkpt lat="48.79512" lon="2.20128">
        <ele>123.80000305176</ele>
        <time>2015-02-03T13:06:02.000Z</time>
      </trkpt>
      <trkpt lat="48.79509" lon="2.2013">
        <ele>123.80000305176</ele>
        <time>2015-02-03T13:06:05.000Z</time>
      </trkpt>
      <trkpt lat="48.79509" lon="2.20131">
        <ele>123.80000305176</ele>
        <time>2015-02-03T13:06:06.000Z</time>
      </trkpt>
      <trkpt lat="48.79506" lon="2.20132">
        <ele>124</ele>
        <time>2015-02-03T13:06:09.000Z</time>
      </trkpt>
      <trkpt lat="48.79504" lon="2.20135">
        <ele>124.19999694824</ele>
        <time>2015-02-03T13:06:13.000Z</time>
      </trkpt>
      <trkpt lat="48.795" lon="2.2014">
        <ele>124.59999847412</ele>
        <time>2015-02-03T13:06:20.000Z</time>
      </trkpt>
      <trkpt lat="48.79497" lon="2.20145">
        <ele>125</ele>
        <time>2015-02-03T13:06:24.000Z</time>
      </trkpt>
      <trkpt lat="48.79498" lon="2.20144">
        <ele>125.19999694824</ele>
        <time>2015-02-03T13:06:25.000Z</time>
      </trkpt>
      <trkpt lat="48.79496" lon="2.20147">
        <ele>125.40000152588</ele>
        <time>2015-02-03T13:06:28.000Z</time>
      </trkpt>
      <trkpt lat="48.79494" lon="2.20148">
        <ele>125.59999847412</ele>
        <time>2015-02-03T13:06:31.000Z</time>
      </trkpt>
      <trkpt lat="48.79491" lon="2.20152">
        <ele>125.80000305176</ele>
        <time>2015-02-03T13:06:36.000Z</time>
      </trkpt>
      <trkpt lat="48.79489" lon="2.20158">
        <ele>126.40000152588</ele>
        <time>2015-02-03T13:06:40.000Z</time>
      </trkpt>
      <trkpt lat="48.79488" lon="2.20159">
        <ele>126.40000152588</ele>
        <time>2015-02-03T13:06:41.000Z</time>
      </trkpt>
      <trkpt lat="48.79484" lon="2.2017">
        <ele>127</ele>
        <time>2015-02-03T13:06:48.000Z</time>
      </trkpt>
      <trkpt lat="48.79484" lon="2.20175">
        <ele>127.40000152588</ele>
        <time>2015-02-03T13:06:51.000Z</time>
      </trkpt>
      <trkpt lat="48.79483" lon="2.20177">
        <ele>127.59999847412</ele>
        <time>2015-02-03T13:06:53.000Z</time>
      </trkpt>
      <trkpt lat="48.79478" lon="2.20186">
        <ele>128.39999389648</ele>
        <time>2015-02-03T13:07:00.000Z</time>
      </trkpt>
      <trkpt lat="48.79474" lon="2.20195">
        <ele>129.60000610352</ele>
        <time>2015-02-03T13:07:06.000Z</time>
      </trkpt>
      <trkpt lat="48.79473" lon="2.20196">
        <ele>129.60000610352</ele>
        <time>2015-02-03T13:07:07.000Z</time>
      </trkpt>
      <trkpt lat="48.79467" lon="2.20208">
        <ele>130</ele>
        <time>2015-02-03T13:07:17.000Z</time>
      </trkpt>
      <trkpt lat="48.79462" lon="2.20217">
        <ele>130.60000610352</ele>
        <time>2015-02-03T13:07:24.000Z</time>
      </trkpt>
      <trkpt lat="48.79462" lon="2.20219">
        <ele>130.80000305176</ele>
        <time>2015-02-03T13:07:25.000Z</time>
      </trkpt>
      <trkpt lat="48.7946" lon="2.20224">
        <ele>131</ele>
        <time>2015-02-03T13:07:30.000Z</time>
      </trkpt>
      <trkpt lat="48.79459" lon="2.20223">
        <ele>131.19999694824</ele>
        <time>2015-02-03T13:07:32.000Z</time>
      </trkpt>
      <trkpt lat="48.79456" lon="2.2023">
        <ele>131.60000610352</ele>
        <time>2015-02-03T13:07:38.000Z</time>
      </trkpt>
      <trkpt lat="48.79456" lon="2.20231">
        <ele>131.80000305176</ele>
        <time>2015-02-03T13:07:39.000Z</time>
      </trkpt>
      <trkpt lat="48.79453" lon="2.20238">
        <ele>132.39999389648</ele>
        <time>2015-02-03T13:07:45.000Z</time>
      </trkpt>
      <trkpt lat="48.79451" lon="2.20244">
        <ele>132.60000610352</ele>
        <time>2015-02-03T13:07:49.000Z</time>
      </trkpt>
      <trkpt lat="48.79448" lon="2.20249">
        <ele>133</ele>
        <time>2015-02-03T13:07:53.000Z</time>
      </trkpt>
      <trkpt lat="48.79446" lon="2.20256">
        <ele>133.80000305176</ele>
        <time>2015-02-03T13:07:59.000Z</time>
      </trkpt>
      <trkpt lat="48.79443" lon="2.20263">
        <ele>134</ele>
        <time>2015-02-03T13:08:05.000Z</time>
      </trkpt>
      <trkpt lat="48.79442" lon="2.20267">
        <ele>134.19999694824</ele>
        <time>2015-02-03T13:08:08.000Z</time>
      </trkpt>
      <trkpt lat="48.79441" lon="2.20269">
        <ele>134.19999694824</ele>
        <time>2015-02-03T13:08:10.000Z</time>
      </trkpt>
      <trkpt lat="48.79436" lon="2.20276">
        <ele>134.60000610352</ele>
        <time>2015-02-03T13:08:16.000Z</time>
      </trkpt>
      <trkpt lat="48.79435" lon="2.20277">
        <ele>134.80000305176</ele>
        <time>2015-02-03T13:08:17.000Z</time>
      </trkpt>
      <trkpt lat="48.79434" lon="2.20278">
        <ele>135</ele>
        <time>2015-02-03T13:08:18.000Z</time>
      </trkpt>
      <trkpt lat="48.79429" lon="2.20284">
        <ele>135.39999389648</ele>
        <time>2015-02-03T13:08:23.000Z</time>
      </trkpt>
      <trkpt lat="48.79428" lon="2.20286">
        <ele>135.39999389648</ele>
        <time>2015-02-03T13:08:24.000Z</time>
      </trkpt>
      <trkpt lat="48.79424" lon="2.2029">
        <ele>135.19999694824</ele>
        <time>2015-02-03T13:08:29.000Z</time>
      </trkpt>
      <trkpt lat="48.79422" lon="2.20293">
        <ele>135</ele>
        <time>2015-02-03T13:08:32.000Z</time>
      </trkpt>
      <trkpt lat="48.79419" lon="2.20296">
        <ele>134.60000610352</ele>
        <time>2015-02-03T13:08:36.000Z</time>
      </trkpt>
      <trkpt lat="48.79418" lon="2.20296">
        <ele>134.60000610352</ele>
        <time>2015-02-03T13:08:37.000Z</time>
      </trkpt>
      <trkpt lat="48.79417" lon="2.20298">
        <ele>134.60000610352</ele>
        <time>2015-02-03T13:08:39.000Z</time>
      </trkpt>
      <trkpt lat="48.79415" lon="2.20302">
        <ele>134.80000305176</ele>
        <time>2015-02-03T13:08:42.000Z</time>
      </trkpt>
      <trkpt lat="48.79414" lon="2.20303">
        <ele>134.80000305176</ele>
        <time>2015-02-03T13:08:43.000Z</time>
      </trkpt>
      <trkpt lat="48.7941" lon="2.20307">
        <ele>134.60000610352</ele>
        <time>2015-02-03T13:08:48.000Z</time>
      </trkpt>
      <trkpt lat="48.79407" lon="2.2031">
        <ele>134.60000610352</ele>
        <time>2015-02-03T13:08:51.000Z</time>
      </trkpt>
      <trkpt lat="48.79405" lon="2.20313">
        <ele>134.60000610352</ele>
        <time>2015-02-03T13:08:56.000Z</time>
      </trkpt>
      <trkpt lat="48.79403" lon="2.20315">
        <ele>134.60000610352</ele>
        <time>2015-02-03T13:08:58.000Z</time>
      </trkpt>
      <trkpt lat="48.794" lon="2.20319">
        <ele>134.80000305176</ele>
        <time>2015-02-03T13:09:03.000Z</time>
      </trkpt>
      <trkpt lat="48.79394" lon="2.20326">
        <ele>134.60000610352</ele>
        <time>2015-02-03T13:09:11.000Z</time>
      </trkpt>
      <trkpt lat="48.79393" lon="2.20327">
        <ele>134.60000610352</ele>
        <time>2015-02-03T13:09:12.000Z</time>
      </trkpt>
      <trkpt lat="48.7939" lon="2.2033">
        <ele>134.80000305176</ele>
        <time>2015-02-03T13:09:16.000Z</time>
      </trkpt>
      <trkpt lat="48.79388" lon="2.20332">
        <ele>134.60000610352</ele>
        <time>2015-02-03T13:09:18.000Z</time>
      </trkpt>
      <trkpt lat="48.79387" lon="2.20333">
        <ele>134.60000610352</ele>
        <time>2015-02-03T13:09:20.000Z</time>
      </trkpt>
      <trkpt lat="48.79383" lon="2.20336">
        <ele>134.60000610352</ele>
        <time>2015-02-03T13:09:25.000Z</time>
      </trkpt>
      <trkpt lat="48.79382" lon="2.20336">
        <ele>134.80000305176</ele>
        <time>2015-02-03T13:09:26.000Z</time>
      </trkpt>
      <trkpt lat="48.7938" lon="2.20339">
        <ele>134.39999389648</ele>
        <time>2015-02-03T13:09:30.000Z</time>
      </trkpt>
      <trkpt lat="48.79378" lon="2.20341">
        <ele>134.39999389648</ele>
        <time>2015-02-03T13:09:32.000Z</time>
      </trkpt>
      <trkpt lat="48.79374" lon="2.20345">
        <ele>134.60000610352</ele>
        <time>2015-02-03T13:09:40.000Z</time>
      </trkpt>
      <trkpt lat="48.79368" lon="2.2035">
        <ele>134.39999389648</ele>
        <time>2015-02-03T13:09:47.000Z</time>
      </trkpt>
      <trkpt lat="48.79363" lon="2.20356">
        <ele>134.39999389648</ele>
        <time>2015-02-03T13:09:53.000Z</time>
      </trkpt>
      <trkpt lat="48.79357" lon="2.20362">
        <ele>134.39999389648</ele>
        <time>2015-02-03T13:10:00.000Z</time>
      </trkpt>
      <trkpt lat="48.79356" lon="2.20364">
        <ele>134.39999389648</ele>
        <time>2015-02-03T13:10:01.000Z</time>
      </trkpt>
      <trkpt lat="48.79351" lon="2.20367">
        <ele>134.39999389648</ele>
        <time>2015-02-03T13:10:06.000Z</time>
      </trkpt>
      <trkpt lat="48.79343" lon="2.20374">
        <ele>134.39999389648</ele>
        <time>2015-02-03T13:10:13.000Z</time>
      </trkpt>
      <trkpt lat="48.7934" lon="2.20378">
        <ele>134.39999389648</ele>
        <time>2015-02-03T13:10:17.000Z</time>
      </trkpt>
      <trkpt lat="48.79337" lon="2.20381">
        <ele>134.39999389648</ele>
        <time>2015-02-03T13:10:20.000Z</time>
      </trkpt>
      <trkpt lat="48.7933" lon="2.20389">
        <ele>134.19999694824</ele>
        <time>2015-02-03T13:10:28.000Z</time>
      </trkpt>
      <trkpt lat="48.79324" lon="2.20395">
        <ele>134.19999694824</ele>
        <time>2015-02-03T13:10:36.000Z</time>
      </trkpt>
      <trkpt lat="48.79318" lon="2.20403">
        <ele>134.19999694824</ele>
        <time>2015-02-03T13:10:43.000Z</time>
      </trkpt>
      <trkpt lat="48.79315" lon="2.20408">
        <ele>134.19999694824</ele>
        <time>2015-02-03T13:10:49.000Z</time>
      </trkpt>
      <trkpt lat="48.79312" lon="2.2041">
        <ele>134.19999694824</ele>
        <time>2015-02-03T13:10:53.000Z</time>
      </trkpt>
      <trkpt lat="48.79309" lon="2.20414">
        <ele>134</ele>
        <time>2015-02-03T13:10:57.000Z</time>
      </trkpt>
      <trkpt lat="48.79305" lon="2.20417">
        <ele>134</ele>
        <time>2015-02-03T13:11:01.000Z</time>
      </trkpt>
      <trkpt lat="48.79304" lon="2.20419">
        <ele>134.19999694824</ele>
        <time>2015-02-03T13:11:03.000Z</time>
      </trkpt>
      <trkpt lat="48.79298" lon="2.20424">
        <ele>134.19999694824</ele>
        <time>2015-02-03T13:11:09.000Z</time>
      </trkpt>
      <trkpt lat="48.79298" lon="2.20426">
        <ele>134.19999694824</ele>
        <time>2015-02-03T13:11:10.000Z</time>
      </trkpt>
      <trkpt lat="48.79293" lon="2.20429">
        <ele>134.19999694824</ele>
        <time>2015-02-03T13:11:15.000Z</time>
      </trkpt>
      <trkpt lat="48.79293" lon="2.20429">
        <ele>134.19999694824</ele>
        <time>2015-02-03T13:11:16.000Z</time>
      </trkpt>
      <trkpt lat="48.7929" lon="2.2043">
        <ele>134.19999694824</ele>
        <time>2015-02-03T13:11:19.000Z</time>
      </trkpt>
      <trkpt lat="48.7929" lon="2.20431">
        <ele>134.19999694824</ele>
        <time>2015-02-03T13:11:21.000Z</time>
      </trkpt>
      <trkpt lat="48.79288" lon="2.20432">
        <ele>134.19999694824</ele>
        <time>2015-02-03T13:11:22.000Z</time>
      </trkpt>
      <trkpt lat="48.79286" lon="2.20433">
        <ele>134.19999694824</ele>
        <time>2015-02-03T13:11:25.000Z</time>
      </trkpt>
      <trkpt lat="48.79284" lon="2.20434">
        <ele>134.19999694824</ele>
        <time>2015-02-03T13:11:27.000Z</time>
      </trkpt>
      <trkpt lat="48.79279" lon="2.20438">
        <ele>134.19999694824</ele>
        <time>2015-02-03T13:11:33.000Z</time>
      </trkpt>
      <trkpt lat="48.79275" lon="2.20441">
        <ele>134.39999389648</ele>
        <time>2015-02-03T13:11:39.000Z</time>
      </trkpt>
      <trkpt lat="48.79271" lon="2.20445">
        <ele>134.39999389648</ele>
        <time>2015-02-03T13:11:46.000Z</time>
      </trkpt>
      <trkpt lat="48.79265" lon="2.2045">
        <ele>134.39999389648</ele>
        <time>2015-02-03T13:11:53.000Z</time>
      </trkpt>
      <trkpt lat="48.79262" lon="2.20453">
        <ele>134.60000610352</ele>
        <time>2015-02-03T13:11:57.000Z</time>
      </trkpt>
      <trkpt lat="48.79261" lon="2.20454">
        <ele>134.60000610352</ele>
        <time>2015-02-03T13:11:59.000Z</time>
      </trkpt>
      <trkpt lat="48.79257" lon="2.20458">
        <ele>134.60000610352</ele>
        <time>2015-02-03T13:12:03.000Z</time>
      </trkpt>
      <trkpt lat="48.79254" lon="2.20461">
        <ele>134.80000305176</ele>
        <time>2015-02-03T13:12:06.000Z</time>
      </trkpt>
      <trkpt lat="48.79248" lon="2.20467">
        <ele>135</ele>
        <time>2015-02-03T13:12:13.000Z</time>
      </trkpt>
      <trkpt lat="48.79241" lon="2.20471">
        <ele>135.19999694824</ele>
        <time>2015-02-03T13:12:19.000Z</time>
      </trkpt>
      <trkpt lat="48.79239" lon="2.20473">
        <ele>135.19999694824</ele>
        <time>2015-02-03T13:12:22.000Z</time>
      </trkpt>
      <trkpt lat="48.79238" lon="2.20474">
        <ele>135.19999694824</ele>
        <time>2015-02-03T13:12:23.000Z</time>
      </trkpt>
      <trkpt lat="48.79237" lon="2.20475">
        <ele>135.19999694824</ele>
        <time>2015-02-03T13:12:24.000Z</time>
      </trkpt>
      <trkpt lat="48.79233" lon="2.20476">
        <ele>135.39999389648</ele>
        <time>2015-02-03T13:12:28.000Z</time>
      </trkpt>
      <trkpt lat="48.79232" lon="2.20477">
        <ele>135.39999389648</ele>
        <time>2015-02-03T13:12:29.000Z</time>
      </trkpt>
      <trkpt lat="48.7923" lon="2.20478">
        <ele>135.39999389648</ele>
        <time>2015-02-03T13:12:32.000Z</time>
      </trkpt>
      <trkpt lat="48.79225" lon="2.2048">
        <ele>135.60000610352</ele>
        <time>2015-02-03T13:12:38.000Z</time>
      </trkpt>
      <trkpt lat="48.79219" lon="2.20482">
        <ele>135.60000610352</ele>
        <time>2015-02-03T13:12:44.000Z</time>
      </trkpt>
      <trkpt lat="48.79216" lon="2.20483">
        <ele>135.60000610352</ele>
        <time>2015-02-03T13:12:47.000Z</time>
      </trkpt>
      <trkpt lat="48.79214" lon="2.20484">
        <ele>135.60000610352</ele>
        <time>2015-02-03T13:12:49.000Z</time>
      </trkpt>
      <trkpt lat="48.79208" lon="2.20486">
        <ele>135.60000610352</ele>
        <time>2015-02-03T13:12:55.000Z</time>
      </trkpt>
      <trkpt lat="48.79202" lon="2.20486">
        <ele>135.60000610352</ele>
        <time>2015-02-03T13:13:02.000Z</time>
      </trkpt>
      <trkpt lat="48.79197" lon="2.20487">
        <ele>135.60000610352</ele>
        <time>2015-02-03T13:13:08.000Z</time>
      </trkpt>
      <trkpt lat="48.79196" lon="2.20486">
        <ele>135.60000610352</ele>
        <time>2015-02-03T13:13:09.000Z</time>
      </trkpt>
      <trkpt lat="48.79192" lon="2.20487">
        <ele>135.60000610352</ele>
        <time>2015-02-03T13:13:14.000Z</time>
      </trkpt>
      <trkpt lat="48.79185" lon="2.20487">
        <ele>135.60000610352</ele>
        <time>2015-02-03T13:13:20.000Z</time>
      </trkpt>
      <trkpt lat="48.79178" lon="2.20484">
        <ele>135.60000610352</ele>
        <time>2015-02-03T13:13:28.000Z</time>
      </trkpt>
      <trkpt lat="48.79175" lon="2.20482">
        <ele>135.60000610352</ele>
        <time>2015-02-03T13:13:33.000Z</time>
      </trkpt>
      <trkpt lat="48.79173" lon="2.20482">
        <ele>135.60000610352</ele>
        <time>2015-02-03T13:13:35.000Z</time>
      </trkpt>
      <trkpt lat="48.79171" lon="2.2048">
        <ele>135.60000610352</ele>
        <time>2015-02-03T13:13:38.000Z</time>
      </trkpt>
      <trkpt lat="48.7917" lon="2.2048">
        <ele>135.60000610352</ele>
        <time>2015-02-03T13:13:39.000Z</time>
      </trkpt>
      <trkpt lat="48.79167" lon="2.20478">
        <ele>135.60000610352</ele>
        <time>2015-02-03T13:13:43.000Z</time>
      </trkpt>
      <trkpt lat="48.79162" lon="2.20474">
        <ele>135.60000610352</ele>
        <time>2015-02-03T13:13:50.000Z</time>
      </trkpt>
      <trkpt lat="48.79159" lon="2.2047">
        <ele>135.60000610352</ele>
        <time>2015-02-03T13:13:56.000Z</time>
      </trkpt>
      <trkpt lat="48.79153" lon="2.20462">
        <ele>135.39999389648</ele>
        <time>2015-02-03T13:14:04.000Z</time>
      </trkpt>
      <trkpt lat="48.79153" lon="2.20462">
        <ele>135.39999389648</ele>
        <time>2015-02-03T13:14:05.000Z</time>
      </trkpt>
      <trkpt lat="48.7915" lon="2.20458">
        <ele>135.60000610352</ele>
        <time>2015-02-03T13:14:09.000Z</time>
      </trkpt>
      <trkpt lat="48.79148" lon="2.20457">
        <ele>135.60000610352</ele>
        <time>2015-02-03T13:14:11.000Z</time>
      </trkpt>
      <trkpt lat="48.79146" lon="2.20455">
        <ele>135.60000610352</ele>
        <time>2015-02-03T13:14:14.000Z</time>
      </trkpt>
      <trkpt lat="48.79145" lon="2.20454">
        <ele>135.60000610352</ele>
        <time>2015-02-03T13:14:15.000Z</time>
      </trkpt>
      <trkpt lat="48.79142" lon="2.20451">
        <ele>135.39999389648</ele>
        <time>2015-02-03T13:14:19.000Z</time>
      </trkpt>
      <trkpt lat="48.79139" lon="2.2045">
        <ele>135.39999389648</ele>
        <time>2015-02-03T13:14:22.000Z</time>
      </trkpt>
      <trkpt lat="48.79136" lon="2.20449">
        <ele>135.39999389648</ele>
        <time>2015-02-03T13:14:24.000Z</time>
      </trkpt>
      <trkpt lat="48.79133" lon="2.20447">
        <ele>135.39999389648</ele>
        <time>2015-02-03T13:14:28.000Z</time>
      </trkpt>
      <trkpt lat="48.79131" lon="2.20447">
        <ele>135.39999389648</ele>
        <time>2015-02-03T13:14:29.000Z</time>
      </trkpt>
      <trkpt lat="48.79125" lon="2.20444">
        <ele>135.39999389648</ele>
        <time>2015-02-03T13:14:34.000Z</time>
      </trkpt>
      <trkpt lat="48.79124" lon="2.20443">
        <ele>135.39999389648</ele>
        <time>2015-02-03T13:14:36.000Z</time>
      </trkpt>
      <trkpt lat="48.79119" lon="2.20442">
        <ele>135.39999389648</ele>
        <time>2015-02-03T13:14:41.000Z</time>
      </trkpt>
      <trkpt lat="48.79111" lon="2.20438">
        <ele>135.39999389648</ele>
        <time>2015-02-03T13:14:48.000Z</time>
      </trkpt>
      <trkpt lat="48.79104" lon="2.20435">
        <ele>135.60000610352</ele>
        <time>2015-02-03T13:14:54.000Z</time>
      </trkpt>
      <trkpt lat="48.79097" lon="2.2043">
        <ele>135.80000305176</ele>
        <time>2015-02-03T13:15:01.000Z</time>
      </trkpt>
      <trkpt lat="48.79096" lon="2.2043">
        <ele>135.80000305176</ele>
        <time>2015-02-03T13:15:02.000Z</time>
      </trkpt>
      <trkpt lat="48.79088" lon="2.20427">
        <ele>136.19999694824</ele>
        <time>2015-02-03T13:15:09.000Z</time>
      </trkpt>
      <trkpt lat="48.7908" lon="2.20421">
        <ele>136.39999389648</ele>
        <time>2015-02-03T13:15:17.000Z</time>
      </trkpt>
      <trkpt lat="48.79075" lon="2.20419">
        <ele>136.39999389648</ele>
        <time>2015-02-03T13:15:21.000Z</time>
      </trkpt>
      <trkpt lat="48.79072" lon="2.20419">
        <ele>136.60000610352</ele>
        <time>2015-02-03T13:15:24.000Z</time>
      </trkpt>
      <trkpt lat="48.79064" lon="2.20417">
        <ele>136.60000610352</ele>
        <time>2015-02-03T13:15:30.000Z</time>
      </trkpt>
      <trkpt lat="48.79056" lon="2.20416">
        <ele>136.60000610352</ele>
        <time>2015-02-03T13:15:37.000Z</time>
      </trkpt>
      <trkpt lat="48.79053" lon="2.20416">
        <ele>136.80000305176</ele>
        <time>2015-02-03T13:15:40.000Z</time>
      </trkpt>
      <trkpt lat="48.79048" lon="2.20415">
        <ele>136.60000610352</ele>
        <time>2015-02-03T13:15:44.000Z</time>
      </trkpt>
      <trkpt lat="48.79043" lon="2.20416">
        <ele>136.80000305176</ele>
        <time>2015-02-03T13:15:49.000Z</time>
      </trkpt>
      <trkpt lat="48.79041" lon="2.20417">
        <ele>136.80000305176</ele>
        <time>2015-02-03T13:15:50.000Z</time>
      </trkpt>
      <trkpt lat="48.79037" lon="2.20416">
        <ele>136.80000305176</ele>
        <time>2015-02-03T13:15:54.000Z</time>
      </trkpt>
      <trkpt lat="48.79034" lon="2.20415">
        <ele>136.80000305176</ele>
        <time>2015-02-03T13:15:56.000Z</time>
      </trkpt>
      <trkpt lat="48.79028" lon="2.20416">
        <ele>136.80000305176</ele>
        <time>2015-02-03T13:16:01.000Z</time>
      </trkpt>
      <trkpt lat="48.79026" lon="2.20416">
        <ele>136.80000305176</ele>
        <time>2015-02-03T13:16:02.000Z</time>
      </trkpt>
      <trkpt lat="48.79021" lon="2.20414">
        <ele>136.80000305176</ele>
        <time>2015-02-03T13:16:07.000Z</time>
      </trkpt>
      <trkpt lat="48.79019" lon="2.20414">
        <ele>136.80000305176</ele>
        <time>2015-02-03T13:16:09.000Z</time>
      </trkpt>
      <trkpt lat="48.79017" lon="2.20415">
        <ele>136.80000305176</ele>
        <time>2015-02-03T13:16:10.000Z</time>
      </trkpt>
      <trkpt lat="48.79012" lon="2.20414">
        <ele>137.19999694824</ele>
        <time>2015-02-03T13:16:15.000Z</time>
      </trkpt>
      <trkpt lat="48.7901" lon="2.20414">
        <ele>137.19999694824</ele>
        <time>2015-02-03T13:16:17.000Z</time>
      </trkpt>
      <trkpt lat="48.79004" lon="2.20413">
        <ele>137.39999389648</ele>
        <time>2015-02-03T13:16:22.000Z</time>
      </trkpt>
      <trkpt lat="48.79003" lon="2.20413">
        <ele>137.39999389648</ele>
        <time>2015-02-03T13:16:23.000Z</time>
      </trkpt>
      <trkpt lat="48.78998" lon="2.20412">
        <ele>137.60000610352</ele>
        <time>2015-02-03T13:16:29.000Z</time>
      </trkpt>
      <trkpt lat="48.78995" lon="2.20411">
        <ele>137.80000305176</ele>
        <time>2015-02-03T13:16:33.000Z</time>
      </trkpt>
      <trkpt lat="48.78992" lon="2.20408">
        <ele>138</ele>
        <time>2015-02-03T13:16:36.000Z</time>
      </trkpt>
      <trkpt lat="48.78989" lon="2.20405">
        <ele>138</ele>
        <time>2015-02-03T13:16:40.000Z</time>
      </trkpt>
      <trkpt lat="48.78986" lon="2.20406">
        <ele>138</ele>
        <time>2015-02-03T13:16:42.000Z</time>
      </trkpt>
      <trkpt lat="48.78986" lon="2.20406">
        <ele>138</ele>
        <time>2015-02-03T13:16:43.000Z</time>
      </trkpt>
      <trkpt lat="48.78979" lon="2.20408">
        <ele>138</ele>
        <time>2015-02-03T13:16:49.000Z</time>
      </trkpt>
      <trkpt lat="48.78972" lon="2.20409">
        <ele>138.19999694824</ele>
        <time>2015-02-03T13:16:56.000Z</time>
      </trkpt>
      <trkpt lat="48.78965" lon="2.2041">
        <ele>138.19999694824</ele>
        <time>2015-02-03T13:17:01.000Z</time>
      </trkpt>
      <trkpt lat="48.78964" lon="2.20411">
        <ele>138.19999694824</ele>
        <time>2015-02-03T13:17:02.000Z</time>
      </trkpt>
      <trkpt lat="48.78962" lon="2.2041">
        <ele>138.19999694824</ele>
        <time>2015-02-03T13:17:03.000Z</time>
      </trkpt>
      <trkpt lat="48.78957" lon="2.2041">
        <ele>138.39999389648</ele>
        <time>2015-02-03T13:17:07.000Z</time>
      </trkpt>
      <trkpt lat="48.78954" lon="2.20411">
        <ele>138.39999389648</ele>
        <time>2015-02-03T13:17:10.000Z</time>
      </trkpt>
      <trkpt lat="48.78948" lon="2.2041">
        <ele>138.80000305176</ele>
        <time>2015-02-03T13:17:16.000Z</time>
      </trkpt>
      <trkpt lat="48.78942" lon="2.2041">
        <ele>138.80000305176</ele>
        <time>2015-02-03T13:17:22.000Z</time>
      </trkpt>
      <trkpt lat="48.78941" lon="2.2041">
        <ele>138.80000305176</ele>
        <time>2015-02-03T13:17:23.000Z</time>
      </trkpt>
      <trkpt lat="48.78939" lon="2.2041">
        <ele>139</ele>
        <time>2015-02-03T13:17:25.000Z</time>
      </trkpt>
      <trkpt lat="48.78934" lon="2.20409">
        <ele>139.19999694824</ele>
        <time>2015-02-03T13:17:29.000Z</time>
      </trkpt>
      <trkpt lat="48.78933" lon="2.20408">
        <ele>139.19999694824</ele>
        <time>2015-02-03T13:17:30.000Z</time>
      </trkpt>
      <trkpt lat="48.7893" lon="2.20408">
        <ele>139.19999694824</ele>
        <time>2015-02-03T13:17:33.000Z</time>
      </trkpt>
      <trkpt lat="48.78928" lon="2.20408">
        <ele>139.39999389648</ele>
        <time>2015-02-03T13:17:35.000Z</time>
      </trkpt>
      <trkpt lat="48.78923" lon="2.2041">
        <ele>139.39999389648</ele>
        <time>2015-02-03T13:17:41.000Z</time>
      </trkpt>
      <trkpt lat="48.78917" lon="2.20411">
        <ele>139.60000610352</ele>
        <time>2015-02-03T13:17:47.000Z</time>
      </trkpt>
      <trkpt lat="48.78913" lon="2.20411">
        <ele>139.60000610352</ele>
        <time>2015-02-03T13:17:50.000Z</time>
      </trkpt>
      <trkpt lat="48.78912" lon="2.2041">
        <ele>139.60000610352</ele>
        <time>2015-02-03T13:17:51.000Z</time>
      </trkpt>
      <trkpt lat="48.78902" lon="2.20411">
        <ele>139.80000305176</ele>
        <time>2015-02-03T13:17:58.000Z</time>
      </trkpt>
      <trkpt lat="48.789" lon="2.20411">
        <ele>139.80000305176</ele>
        <time>2015-02-03T13:18:00.000Z</time>
      </trkpt>
      <trkpt lat="48.78896" lon="2.2041">
        <ele>139.80000305176</ele>
        <time>2015-02-03T13:18:04.000Z</time>
      </trkpt>
      <trkpt lat="48.78895" lon="2.20409">
        <ele>140</ele>
        <time>2015-02-03T13:18:06.000Z</time>
      </trkpt>
      <trkpt lat="48.7889" lon="2.20409">
        <ele>140.39999389648</ele>
        <time>2015-02-03T13:18:10.000Z</time>
      </trkpt>
      <trkpt lat="48.78889" lon="2.20409">
        <ele>140.39999389648</ele>
        <time>2015-02-03T13:18:11.000Z</time>
      </trkpt>
      <trkpt lat="48.78886" lon="2.20408">
        <ele>140.39999389648</ele>
        <time>2015-02-03T13:18:14.000Z</time>
      </trkpt>
      <trkpt lat="48.78884" lon="2.20406">
        <ele>140.39999389648</ele>
        <time>2015-02-03T13:18:17.000Z</time>
      </trkpt>
      <trkpt lat="48.78883" lon="2.20405">
        <ele>140.39999389648</ele>
        <time>2015-02-03T13:18:18.000Z</time>
      </trkpt>
      <trkpt lat="48.78882" lon="2.20405">
        <ele>140.39999389648</ele>
        <time>2015-02-03T13:18:19.000Z</time>
      </trkpt>
      <trkpt lat="48.78881" lon="2.20406">
        <ele>140.39999389648</ele>
        <time>2015-02-03T13:18:22.000Z</time>
      </trkpt>
      <trkpt lat="48.78879" lon="2.20403">
        <ele>140.39999389648</ele>
        <time>2015-02-03T13:18:24.000Z</time>
      </trkpt>
      <trkpt lat="48.78876" lon="2.204">
        <ele>140.39999389648</ele>
        <time>2015-02-03T13:18:27.000Z</time>
      </trkpt>
      <trkpt lat="48.78871" lon="2.20396">
        <ele>140.60000610352</ele>
        <time>2015-02-03T13:18:32.000Z</time>
      </trkpt>
      <trkpt lat="48.7887" lon="2.20395">
        <ele>140.60000610352</ele>
        <time>2015-02-03T13:18:33.000Z</time>
      </trkpt>
      <trkpt lat="48.78865" lon="2.20393">
        <ele>140.80000305176</ele>
        <time>2015-02-03T13:18:37.000Z</time>
      </trkpt>
      <trkpt lat="48.78863" lon="2.20391">
        <ele>140.80000305176</ele>
        <time>2015-02-03T13:18:39.000Z</time>
      </trkpt>
      <trkpt lat="48.78856" lon="2.20385">
        <ele>140.80000305176</ele>
        <time>2015-02-03T13:18:45.000Z</time>
      </trkpt>
      <trkpt lat="48.78855" lon="2.20384">
        <ele>140.80000305176</ele>
        <time>2015-02-03T13:18:46.000Z</time>
      </trkpt>
      <trkpt lat="48.78854" lon="2.20381">
        <ele>141</ele>
        <time>2015-02-03T13:18:48.000Z</time>
      </trkpt>
      <trkpt lat="48.78848" lon="2.20374">
        <ele>141.19999694824</ele>
        <time>2015-02-03T13:18:54.000Z</time>
      </trkpt>
      <trkpt lat="48.78842" lon="2.20368">
        <ele>141.19999694824</ele>
        <time>2015-02-03T13:19:00.000Z</time>
      </trkpt>
      <trkpt lat="48.78837" lon="2.20365">
        <ele>141.39999389648</ele>
        <time>2015-02-03T13:19:05.000Z</time>
      </trkpt>
      <trkpt lat="48.78836" lon="2.20363">
        <ele>141.39999389648</ele>
        <time>2015-02-03T13:19:07.000Z</time>
      </trkpt>
      <trkpt lat="48.7883" lon="2.20356">
        <ele>141.39999389648</ele>
        <time>2015-02-03T13:19:14.000Z</time>
      </trkpt>
      <trkpt lat="48.78828" lon="2.20356">
        <ele>141.39999389648</ele>
        <time>2015-02-03T13:19:15.000Z</time>
      </trkpt>
      <trkpt lat="48.78824" lon="2.20351">
        <ele>141.60000610352</ele>
        <time>2015-02-03T13:19:20.000Z</time>
      </trkpt>
      <trkpt lat="48.7882" lon="2.20345">
        <ele>141.80000305176</ele>
        <time>2015-02-03T13:19:25.000Z</time>
      </trkpt>
      <trkpt lat="48.78817" lon="2.20341">
        <ele>142</ele>
        <time>2015-02-03T13:19:29.000Z</time>
      </trkpt>
      <trkpt lat="48.78816" lon="2.2034">
        <ele>142</ele>
        <time>2015-02-03T13:19:30.000Z</time>
      </trkpt>
      <trkpt lat="48.78814" lon="2.20338">
        <ele>142.19999694824</ele>
        <time>2015-02-03T13:19:32.000Z</time>
      </trkpt>
      <trkpt lat="48.78813" lon="2.20337">
        <ele>142.19999694824</ele>
        <time>2015-02-03T13:19:34.000Z</time>
      </trkpt>
      <trkpt lat="48.78809" lon="2.20333">
        <ele>142.39999389648</ele>
        <time>2015-02-03T13:19:38.000Z</time>
      </trkpt>
      <trkpt lat="48.78802" lon="2.20325">
        <ele>143</ele>
        <time>2015-02-03T13:19:46.000Z</time>
      </trkpt>
      <trkpt lat="48.78801" lon="2.20324">
        <ele>143</ele>
        <time>2015-02-03T13:19:47.000Z</time>
      </trkpt>
      <trkpt lat="48.78794" lon="2.20318">
        <ele>143.60000610352</ele>
        <time>2015-02-03T13:19:54.000Z</time>
      </trkpt>
      <trkpt lat="48.7879" lon="2.20315">
        <ele>144</ele>
        <time>2015-02-03T13:19:59.000Z</time>
      </trkpt>
      <trkpt lat="48.78786" lon="2.20312">
        <ele>144.19999694824</ele>
        <time>2015-02-03T13:20:02.000Z</time>
      </trkpt>
      <trkpt lat="48.7878" lon="2.20304">
        <ele>145.19999694824</ele>
        <time>2015-02-03T13:20:09.000Z</time>
      </trkpt>
      <trkpt lat="48.78779" lon="2.20302">
        <ele>145.39999389648</ele>
        <time>2015-02-03T13:20:11.000Z</time>
      </trkpt>
      <trkpt lat="48.78777" lon="2.203">
        <ele>145.60000610352</ele>
        <time>2015-02-03T13:20:14.000Z</time>
      </trkpt>
      <trkpt lat="48.78776" lon="2.20299">
        <ele>145.80000305176</ele>
        <time>2015-02-03T13:20:17.000Z</time>
      </trkpt>
      <trkpt lat="48.78776" lon="2.20299">
        <ele>146</ele>
        <time>2015-02-03T13:20:19.000Z</time>
      </trkpt>
      <trkpt lat="48.78771" lon="2.20294">
        <ele>146</ele>
        <time>2015-02-03T13:20:29.000Z</time>
      </trkpt>
      <trkpt lat="48.78769" lon="2.20293">
        <ele>146</ele>
        <time>2015-02-03T13:20:36.000Z</time>
      </trkpt>
      <trkpt lat="48.78764" lon="2.20288">
        <ele>146</ele>
        <time>2015-02-03T13:20:47.000Z</time>
      </trkpt>
      <trkpt lat="48.78761" lon="2.20285">
        <ele>146.19999694824</ele>
        <time>2015-02-03T13:20:51.000Z</time>
      </trkpt>
      <trkpt lat="48.78758" lon="2.20282">
        <ele>146.19999694824</ele>
        <time>2015-02-03T13:20:55.000Z</time>
      </trkpt>
      <trkpt lat="48.78754" lon="2.20277">
        <ele>146</ele>
        <time>2015-02-03T13:21:02.000Z</time>
      </trkpt>
      <trkpt lat="48.78754" lon="2.20276">
        <ele>146</ele>
        <time>2015-02-03T13:21:03.000Z</time>
      </trkpt>
      <trkpt lat="48.78754" lon="2.20276">
        <ele>145.80000305176</ele>
        <time>2015-02-03T13:21:09.000Z</time>
      </trkpt>
      <trkpt lat="48.78754" lon="2.20275">
        <ele>145.80000305176</ele>
        <time>2015-02-03T13:21:15.000Z</time>
      </trkpt>
      <trkpt lat="48.78752" lon="2.20274">
        <ele>146</ele>
        <time>2015-02-03T13:21:22.000Z</time>
      </trkpt>
      <trkpt lat="48.7875" lon="2.2027">
        <ele>145.80000305176</ele>
        <time>2015-02-03T13:21:31.000Z</time>
      </trkpt>
      <trkpt lat="48.7875" lon="2.20271">
        <ele>145.60000610352</ele>
        <time>2015-02-03T13:21:38.000Z</time>
      </trkpt>
      <trkpt lat="48.7875" lon="2.20269">
        <ele>145.60000610352</ele>
        <time>2015-02-03T13:21:46.000Z</time>
      </trkpt>
      <trkpt lat="48.78745" lon="2.20264">
        <ele>145.60000610352</ele>
        <time>2015-02-03T13:21:54.000Z</time>
      </trkpt>
      <trkpt lat="48.78743" lon="2.20261">
        <ele>145.60000610352</ele>
        <time>2015-02-03T13:22:03.000Z</time>
      </trkpt>
      <trkpt lat="48.78743" lon="2.20255">
        <ele>145.39999389648</ele>
        <time>2015-02-03T13:22:07.000Z</time>
      </trkpt>
      <trkpt lat="48.78741" lon="2.2025">
        <ele>145.39999389648</ele>
        <time>2015-02-03T13:22:14.000Z</time>
      </trkpt>
      <trkpt lat="48.78739" lon="2.20246">
        <ele>145.19999694824</ele>
        <time>2015-02-03T13:22:18.000Z</time>
      </trkpt>
      <trkpt lat="48.78738" lon="2.20244">
        <ele>145</ele>
        <time>2015-02-03T13:22:21.000Z</time>
      </trkpt>
      <trkpt lat="48.78734" lon="2.20238">
        <ele>144.80000305176</ele>
        <time>2015-02-03T13:22:30.000Z</time>
      </trkpt>
      <trkpt lat="48.78732" lon="2.20234">
        <ele>144.60000610352</ele>
        <time>2015-02-03T13:22:36.000Z</time>
      </trkpt>
      <trkpt lat="48.7873" lon="2.20229">
        <ele>144.80000305176</ele>
        <time>2015-02-03T13:22:42.000Z</time>
      </trkpt>
      <trkpt lat="48.78725" lon="2.20221">
        <ele>144.80000305176</ele>
        <time>2015-02-03T13:22:51.000Z</time>
      </trkpt>
      <trkpt lat="48.78725" lon="2.20215">
        <ele>144.80000305176</ele>
        <time>2015-02-03T13:22:56.000Z</time>
      </trkpt>
      <trkpt lat="48.78723" lon="2.20208">
        <ele>145</ele>
        <time>2015-02-03T13:23:02.000Z</time>
      </trkpt>
      <trkpt lat="48.78721" lon="2.20206">
        <ele>145</ele>
        <time>2015-02-03T13:23:05.000Z</time>
      </trkpt>
      <trkpt lat="48.78718" lon="2.20202">
        <ele>145</ele>
        <time>2015-02-03T13:23:10.000Z</time>
      </trkpt>
      <trkpt lat="48.78714" lon="2.20194">
        <ele>145.60000610352</ele>
        <time>2015-02-03T13:23:17.000Z</time>
      </trkpt>
      <trkpt lat="48.78714" lon="2.20193">
        <ele>145.80000305176</ele>
        <time>2015-02-03T13:23:18.000Z</time>
      </trkpt>
      <trkpt lat="48.78713" lon="2.20188">
        <ele>146</ele>
        <time>2015-02-03T13:23:22.000Z</time>
      </trkpt>
      <trkpt lat="48.78713" lon="2.20187">
        <ele>146</ele>
        <time>2015-02-03T13:23:23.000Z</time>
      </trkpt>
      <trkpt lat="48.78712" lon="2.20186">
        <ele>146.19999694824</ele>
        <time>2015-02-03T13:23:24.000Z</time>
      </trkpt>
      <trkpt lat="48.78709" lon="2.20179">
        <ele>146.80000305176</ele>
        <time>2015-02-03T13:23:29.000Z</time>
      </trkpt>
      <trkpt lat="48.78707" lon="2.20176">
        <ele>147.19999694824</ele>
        <time>2015-02-03T13:23:32.000Z</time>
      </trkpt>
      <trkpt lat="48.78706" lon="2.20175">
        <ele>147.39999389648</ele>
        <time>2015-02-03T13:23:33.000Z</time>
      </trkpt>
      <trkpt lat="48.78704" lon="2.20171">
        <ele>147.80000305176</ele>
        <time>2015-02-03T13:23:36.000Z</time>
      </trkpt>
      <trkpt lat="48.787" lon="2.20165">
        <ele>148.39999389648</ele>
        <time>2015-02-03T13:23:41.000Z</time>
      </trkpt>
      <trkpt lat="48.78698" lon="2.20161">
        <ele>148.60000610352</ele>
        <time>2015-02-03T13:23:44.000Z</time>
      </trkpt>
      <trkpt lat="48.78693" lon="2.20151">
        <ele>149.39999389648</ele>
        <time>2015-02-03T13:23:52.000Z</time>
      </trkpt>
      <trkpt lat="48.78692" lon="2.20149">
        <ele>149.39999389648</ele>
        <time>2015-02-03T13:23:53.000Z</time>
      </trkpt>
      <trkpt lat="48.78687" lon="2.20139">
        <ele>150.39999389648</ele>
        <time>2015-02-03T13:24:02.000Z</time>
      </trkpt>
      <trkpt lat="48.78685" lon="2.20133">
        <ele>151.19999694824</ele>
        <time>2015-02-03T13:24:09.000Z</time>
      </trkpt>
      <trkpt lat="48.78684" lon="2.2013">
        <ele>151.60000610352</ele>
        <time>2015-02-03T13:24:12.000Z</time>
      </trkpt>
      <trkpt lat="48.78681" lon="2.20121">
        <ele>152.60000610352</ele>
        <time>2015-02-03T13:24:20.000Z</time>
      </trkpt>
      <trkpt lat="48.78677" lon="2.20111">
        <ele>153.60000610352</ele>
        <time>2015-02-03T13:24:28.000Z</time>
      </trkpt>
      <trkpt lat="48.78677" lon="2.20109">
        <ele>153.80000305176</ele>
        <time>2015-02-03T13:24:29.000Z</time>
      </trkpt>
      <trkpt lat="48.78674" lon="2.20102">
        <ele>154.19999694824</ele>
        <time>2015-02-03T13:24:34.000Z</time>
      </trkpt>
      <trkpt lat="48.78672" lon="2.20095">
        <ele>154.80000305176</ele>
        <time>2015-02-03T13:24:39.000Z</time>
      </trkpt>
      <trkpt lat="48.78669" lon="2.20087">
        <ele>155.19999694824</ele>
        <time>2015-02-03T13:24:44.000Z</time>
      </trkpt>
      <trkpt lat="48.78668" lon="2.2008">
        <ele>155.39999389648</ele>
        <time>2015-02-03T13:24:48.000Z</time>
      </trkpt>
      <trkpt lat="48.78668" lon="2.20076">
        <ele>155.60000610352</ele>
        <time>2015-02-03T13:24:50.000Z</time>
      </trkpt>
      <trkpt lat="48.78667" lon="2.20073">
        <ele>156</ele>
        <time>2015-02-03T13:24:52.000Z</time>
      </trkpt>
      <trkpt lat="48.78665" lon="2.20063">
        <ele>156.39999389648</ele>
        <time>2015-02-03T13:24:59.000Z</time>
      </trkpt>
      <trkpt lat="48.78662" lon="2.20048">
        <ele>156.80000305176</ele>
        <time>2015-02-03T13:25:08.000Z</time>
      </trkpt>
      <trkpt lat="48.78661" lon="2.20047">
        <ele>156.80000305176</ele>
        <time>2015-02-03T13:25:09.000Z</time>
      </trkpt>
      <trkpt lat="48.78661" lon="2.20045">
        <ele>157</ele>
        <time>2015-02-03T13:25:11.000Z</time>
      </trkpt>
      <trkpt lat="48.78659" lon="2.20037">
        <ele>157.39999389648</ele>
        <time>2015-02-03T13:25:15.000Z</time>
      </trkpt>
      <trkpt lat="48.78656" lon="2.20027">
        <ele>157.60000610352</ele>
        <time>2015-02-03T13:25:22.000Z</time>
      </trkpt>
      <trkpt lat="48.78653" lon="2.20017">
        <ele>158</ele>
        <time>2015-02-03T13:25:29.000Z</time>
      </trkpt>
      <trkpt lat="48.78651" lon="2.20014">
        <ele>158</ele>
        <time>2015-02-03T13:25:31.000Z</time>
      </trkpt>
      <trkpt lat="48.78648" lon="2.20003">
        <ele>158.60000610352</ele>
        <time>2015-02-03T13:25:38.000Z</time>
      </trkpt>
      <trkpt lat="48.78648" lon="2.20003">
        <ele>158.60000610352</ele>
        <time>2015-02-03T13:25:39.000Z</time>
      </trkpt>
      <trkpt lat="48.78648" lon="2.20001">
        <ele>158.60000610352</ele>
        <time>2015-02-03T13:25:46.000Z</time>
      </trkpt>
      <trkpt lat="48.78645" lon="2.19992">
        <ele>159</ele>
        <time>2015-02-03T13:25:52.000Z</time>
      </trkpt>
      <trkpt lat="48.78643" lon="2.19989">
        <ele>159</ele>
        <time>2015-02-03T13:25:54.000Z</time>
      </trkpt>
      <trkpt lat="48.7864" lon="2.19981">
        <ele>159.19999694824</ele>
        <time>2015-02-03T13:25:59.000Z</time>
      </trkpt>
      <trkpt lat="48.78634" lon="2.1997">
        <ele>159.60000610352</ele>
        <time>2015-02-03T13:26:06.000Z</time>
      </trkpt>
      <trkpt lat="48.78628" lon="2.19961">
        <ele>159.60000610352</ele>
        <time>2015-02-03T13:26:13.000Z</time>
      </trkpt>
      <trkpt lat="48.78624" lon="2.19949">
        <ele>159.80000305176</ele>
        <time>2015-02-03T13:26:20.000Z</time>
      </trkpt>
      <trkpt lat="48.78624" lon="2.19944">
        <ele>159.80000305176</ele>
        <time>2015-02-03T13:26:23.000Z</time>
      </trkpt>
      <trkpt lat="48.78622" lon="2.1994">
        <ele>160</ele>
        <time>2015-02-03T13:26:26.000Z</time>
      </trkpt>
      <trkpt lat="48.7862" lon="2.19936">
        <ele>160</ele>
        <time>2015-02-03T13:26:29.000Z</time>
      </trkpt>
      <trkpt lat="48.78618" lon="2.19929">
        <ele>160.39999389648</ele>
        <time>2015-02-03T13:26:35.000Z</time>
      </trkpt>
      <trkpt lat="48.78616" lon="2.19925">
        <ele>160.60000610352</ele>
        <time>2015-02-03T13:26:38.000Z</time>
      </trkpt>
      <trkpt lat="48.78615" lon="2.1992">
        <ele>160.60000610352</ele>
        <time>2015-02-03T13:26:41.000Z</time>
      </trkpt>
      <trkpt lat="48.78613" lon="2.19914">
        <ele>160.80000305176</ele>
        <time>2015-02-03T13:26:45.000Z</time>
      </trkpt>
      <trkpt lat="48.7861" lon="2.1991">
        <ele>160.60000610352</ele>
        <time>2015-02-03T13:26:49.000Z</time>
      </trkpt>
      <trkpt lat="48.78604" lon="2.19902">
        <ele>160.19999694824</ele>
        <time>2015-02-03T13:26:56.000Z</time>
      </trkpt>
      <trkpt lat="48.786" lon="2.19898">
        <ele>160</ele>
        <time>2015-02-03T13:27:01.000Z</time>
      </trkpt>
      <trkpt lat="48.78594" lon="2.19892">
        <ele>159.80000305176</ele>
        <time>2015-02-03T13:27:08.000Z</time>
      </trkpt>
      <trkpt lat="48.78587" lon="2.19887">
        <ele>159.60000610352</ele>
        <time>2015-02-03T13:27:15.000Z</time>
      </trkpt>
      <trkpt lat="48.78582" lon="2.19882">
        <ele>159.60000610352</ele>
        <time>2015-02-03T13:27:22.000Z</time>
      </trkpt>
      <trkpt lat="48.78577" lon="2.19871">
        <ele>159.39999389648</ele>
        <time>2015-02-03T13:27:29.000Z</time>
      </trkpt>
      <trkpt lat="48.78577" lon="2.19866">
        <ele>159.19999694824</ele>
        <time>2015-02-03T13:27:31.000Z</time>
      </trkpt>
      <trkpt lat="48.78577" lon="2.19864">
        <ele>159</ele>
        <time>2015-02-03T13:27:32.000Z</time>
      </trkpt>
      <trkpt lat="48.78578" lon="2.1986">
        <ele>158.80000305176</ele>
        <time>2015-02-03T13:27:34.000Z</time>
      </trkpt>
      <trkpt lat="48.78578" lon="2.19858">
        <ele>158.60000610352</ele>
        <time>2015-02-03T13:27:35.000Z</time>
      </trkpt>
      <trkpt lat="48.78578" lon="2.19856">
        <ele>158.39999389648</ele>
        <time>2015-02-03T13:27:36.000Z</time>
      </trkpt>
      <trkpt lat="48.78578" lon="2.1985">
        <ele>158</ele>
        <time>2015-02-03T13:27:40.000Z</time>
      </trkpt>
      <trkpt lat="48.78579" lon="2.19849">
        <ele>157.80000305176</ele>
        <time>2015-02-03T13:27:41.000Z</time>
      </trkpt>
      <trkpt lat="48.78579" lon="2.1984">
        <ele>156.80000305176</ele>
        <time>2015-02-03T13:27:47.000Z</time>
      </trkpt>
      <trkpt lat="48.7858" lon="2.19838">
        <ele>156.60000610352</ele>
        <time>2015-02-03T13:27:49.000Z</time>
      </trkpt>
      <trkpt lat="48.78581" lon="2.19835">
        <ele>156.39999389648</ele>
        <time>2015-02-03T13:27:51.000Z</time>
      </trkpt>
      <trkpt lat="48.78583" lon="2.19832">
        <ele>156.19999694824</ele>
        <time>2015-02-03T13:27:55.000Z</time>
      </trkpt>
      <trkpt lat="48.78584" lon="2.19832">
        <ele>156.19999694824</ele>
        <time>2015-02-03T13:27:56.000Z</time>
      </trkpt>
      <trkpt lat="48.78587" lon="2.19831">
        <ele>155.80000305176</ele>
        <time>2015-02-03T13:28:00.000Z</time>
      </trkpt>
      <trkpt lat="48.78588" lon="2.1983">
        <ele>155.80000305176</ele>
        <time>2015-02-03T13:28:01.000Z</time>
      </trkpt>
      <trkpt lat="48.78588" lon="2.19829">
        <ele>155.60000610352</ele>
        <time>2015-02-03T13:28:03.000Z</time>
      </trkpt>
      <trkpt lat="48.78588" lon="2.19828">
        <ele>155.39999389648</ele>
        <time>2015-02-03T13:28:08.000Z</time>
      </trkpt>
      <trkpt lat="48.78588" lon="2.19829">
        <ele>155.60000610352</ele>
        <time>2015-02-03T13:28:24.000Z</time>
      </trkpt>
      <trkpt lat="48.78588" lon="2.19829">
        <ele>155.60000610352</ele>
        <time>2015-02-03T13:28:33.000Z</time>
      </trkpt>
      <trkpt lat="48.78587" lon="2.19827">
        <ele>155.60000610352</ele>
        <time>2015-02-03T13:28:45.000Z</time>
      </trkpt>
      <trkpt lat="48.78588" lon="2.19826">
        <ele>155.39999389648</ele>
        <time>2015-02-03T13:28:52.000Z</time>
      </trkpt>
      <trkpt lat="48.78589" lon="2.19825">
        <ele>155.39999389648</ele>
        <time>2015-02-03T13:29:00.000Z</time>
      </trkpt>
      <trkpt lat="48.78592" lon="2.19823">
        <ele>155.19999694824</ele>
        <time>2015-02-03T13:29:07.000Z</time>
      </trkpt>
      <trkpt lat="48.78597" lon="2.19822">
        <ele>155</ele>
        <time>2015-02-03T13:29:14.000Z</time>
      </trkpt>
      <trkpt lat="48.786" lon="2.1982">
        <ele>154.80000305176</ele>
        <time>2015-02-03T13:29:21.000Z</time>
      </trkpt>
      <trkpt lat="48.78601" lon="2.1982">
        <ele>154.80000305176</ele>
        <time>2015-02-03T13:29:22.000Z</time>
      </trkpt>
      <trkpt lat="48.78606" lon="2.19824">
        <ele>154.60000610352</ele>
        <time>2015-02-03T13:29:28.000Z</time>
      </trkpt>
      <trkpt lat="48.78609" lon="2.19828">
        <ele>154.60000610352</ele>
        <time>2015-02-03T13:29:35.000Z</time>
      </trkpt>
      <trkpt lat="48.78613" lon="2.19835">
        <ele>154.39999389648</ele>
        <time>2015-02-03T13:29:42.000Z</time>
      </trkpt>
      <trkpt lat="48.78615" lon="2.19841">
        <ele>154.39999389648</ele>
        <time>2015-02-03T13:29:49.000Z</time>
      </trkpt>
      <trkpt lat="48.78615" lon="2.19841">
        <ele>154.39999389648</ele>
        <time>2015-02-03T13:29:50.000Z</time>
      </trkpt>
      <trkpt lat="48.78617" lon="2.19843">
        <ele>154.39999389648</ele>
        <time>2015-02-03T13:29:57.000Z</time>
      </trkpt>
      <trkpt lat="48.7862" lon="2.19847">
        <ele>154.39999389648</ele>
        <time>2015-02-03T13:30:07.000Z</time>
      </trkpt>
      <trkpt lat="48.78622" lon="2.19847">
        <ele>154.39999389648</ele>
        <time>2015-02-03T13:30:17.000Z</time>
      </trkpt>
      <trkpt lat="48.78625" lon="2.19848">
        <ele>154.39999389648</ele>
        <time>2015-02-03T13:30:25.000Z</time>
      </trkpt>
      <trkpt lat="48.78626" lon="2.19847">
        <ele>154.80000305176</ele>
        <time>2015-02-03T13:30:32.000Z</time>
      </trkpt>
      <trkpt lat="48.7863" lon="2.19847">
        <ele>155</ele>
        <time>2015-02-03T13:30:39.000Z</time>
      </trkpt>
      <trkpt lat="48.78632" lon="2.19851">
        <ele>154.80000305176</ele>
        <time>2015-02-03T13:30:44.000Z</time>
      </trkpt>
      <trkpt lat="48.78634" lon="2.19856">
        <ele>155.39999389648</ele>
        <time>2015-02-03T13:30:50.000Z</time>
      </trkpt>
      <trkpt lat="48.78634" lon="2.19857">
        <ele>156</ele>
        <time>2015-02-03T13:30:52.000Z</time>
      </trkpt>
      <trkpt lat="48.78636" lon="2.19859">
        <ele>156.80000305176</ele>
        <time>2015-02-03T13:30:56.000Z</time>
      </trkpt>
      <trkpt lat="48.78637" lon="2.19859">
        <ele>157</ele>
        <time>2015-02-03T13:30:57.000Z</time>
      </trkpt>
      <trkpt lat="48.78643" lon="2.19857">
        <ele>157.39999389648</ele>
        <time>2015-02-03T13:31:03.000Z</time>
      </trkpt>
      <trkpt lat="48.78652" lon="2.19853">
        <ele>157.19999694824</ele>
        <time>2015-02-03T13:31:12.000Z</time>
      </trkpt>
      <trkpt lat="48.78659" lon="2.19848">
        <ele>157.19999694824</ele>
        <time>2015-02-03T13:31:20.000Z</time>
      </trkpt>
      <trkpt lat="48.78662" lon="2.19845">
        <ele>157.39999389648</ele>
        <time>2015-02-03T13:31:24.000Z</time>
      </trkpt>
      <trkpt lat="48.78665" lon="2.19843">
        <ele>157.39999389648</ele>
        <time>2015-02-03T13:31:27.000Z</time>
      </trkpt>
      <trkpt lat="48.78665" lon="2.19842">
        <ele>157.39999389648</ele>
        <time>2015-02-03T13:31:28.000Z</time>
      </trkpt>
      <trkpt lat="48.78667" lon="2.19839">
        <ele>157.19999694824</ele>
        <time>2015-02-03T13:31:31.000Z</time>
      </trkpt>
      <trkpt lat="48.7867" lon="2.19833">
        <ele>157.19999694824</ele>
        <time>2015-02-03T13:31:36.000Z</time>
      </trkpt>
      <trkpt lat="48.78672" lon="2.19826">
        <ele>157.19999694824</ele>
        <time>2015-02-03T13:31:44.000Z</time>
      </trkpt>
      <trkpt lat="48.78672" lon="2.19824">
        <ele>157</ele>
        <time>2015-02-03T13:31:54.000Z</time>
      </trkpt>
      <trkpt lat="48.78671" lon="2.19822">
        <ele>157.60000610352</ele>
        <time>2015-02-03T13:32:13.000Z</time>
      </trkpt>
      <trkpt lat="48.78672" lon="2.19822">
        <ele>157.39999389648</ele>
        <time>2015-02-03T13:32:25.000Z</time>
      </trkpt>
      <trkpt lat="48.78675" lon="2.19821">
        <ele>156.80000305176</ele>
        <time>2015-02-03T13:32:34.000Z</time>
      </trkpt>
      <trkpt lat="48.78675" lon="2.19819">
        <ele>157</ele>
        <time>2015-02-03T13:32:42.000Z</time>
      </trkpt>
      <trkpt lat="48.78675" lon="2.1982">
        <ele>157</ele>
        <time>2015-02-03T13:32:52.000Z</time>
      </trkpt>
      <trkpt lat="48.78675" lon="2.19821">
        <ele>156.80000305176</ele>
        <time>2015-02-03T13:33:09.000Z</time>
      </trkpt>
      <trkpt lat="48.78675" lon="2.19821">
        <ele>157</ele>
        <time>2015-02-03T13:33:22.000Z</time>
      </trkpt>
      <trkpt lat="48.78678" lon="2.19822">
        <ele>157</ele>
        <time>2015-02-03T13:33:33.000Z</time>
      </trkpt>
      <trkpt lat="48.78682" lon="2.19821">
        <ele>157</ele>
        <time>2015-02-03T13:33:39.000Z</time>
      </trkpt>
      <trkpt lat="48.7869" lon="2.19812">
        <ele>156.80000305176</ele>
        <time>2015-02-03T13:33:49.000Z</time>
      </trkpt>
      <trkpt lat="48.78695" lon="2.19806">
        <ele>157</ele>
        <time>2015-02-03T13:33:56.000Z</time>
      </trkpt>
      <trkpt lat="48.78698" lon="2.19802">
        <ele>157</ele>
        <time>2015-02-03T13:34:00.000Z</time>
      </trkpt>
      <trkpt lat="48.787" lon="2.19803">
        <ele>157</ele>
        <time>2015-02-03T13:34:03.000Z</time>
      </trkpt>
      <trkpt lat="48.78703" lon="2.19803">
        <ele>157</ele>
        <time>2015-02-03T13:34:09.000Z</time>
      </trkpt>
      <trkpt lat="48.78705" lon="2.19804">
        <ele>157.80000305176</ele>
        <time>2015-02-03T13:34:14.000Z</time>
      </trkpt>
      <trkpt lat="48.78706" lon="2.19803">
        <ele>158.19999694824</ele>
        <time>2015-02-03T13:34:17.000Z</time>
      </trkpt>
      <trkpt lat="48.78708" lon="2.19803">
        <ele>158.60000610352</ele>
        <time>2015-02-03T13:34:21.000Z</time>
      </trkpt>
      <trkpt lat="48.78713" lon="2.19799">
        <ele>159.39999389648</ele>
        <time>2015-02-03T13:34:30.000Z</time>
      </trkpt>
      <trkpt lat="48.78713" lon="2.19799">
        <ele>159.39999389648</ele>
        <time>2015-02-03T13:34:31.000Z</time>
      </trkpt>
      <trkpt lat="48.78718" lon="2.19794">
        <ele>159.60000610352</ele>
        <time>2015-02-03T13:34:36.000Z</time>
      </trkpt>
      <trkpt lat="48.7872" lon="2.19786">
        <ele>160.19999694824</ele>
        <time>2015-02-03T13:34:43.000Z</time>
      </trkpt>
      <trkpt lat="48.78723" lon="2.19782">
        <ele>160.39999389648</ele>
        <time>2015-02-03T13:34:47.000Z</time>
      </trkpt>
      <trkpt lat="48.78723" lon="2.19781">
        <ele>160.39999389648</ele>
        <time>2015-02-03T13:34:48.000Z</time>
      </trkpt>
      <trkpt lat="48.78723" lon="2.19781">
        <ele>160.60000610352</ele>
        <time>2015-02-03T13:34:52.000Z</time>
      </trkpt>
      <trkpt lat="48.78725" lon="2.1978">
        <ele>161</ele>
        <time>2015-02-03T13:35:00.000Z</time>
      </trkpt>
      <trkpt lat="48.78726" lon="2.19779">
        <ele>161.39999389648</ele>
        <time>2015-02-03T13:35:03.000Z</time>
      </trkpt>
      <trkpt lat="48.78728" lon="2.19778">
        <ele>161.60000610352</ele>
        <time>2015-02-03T13:35:06.000Z</time>
      </trkpt>
      <trkpt lat="48.78728" lon="2.19774">
        <ele>161.80000305176</ele>
        <time>2015-02-03T13:35:12.000Z</time>
      </trkpt>
      <trkpt lat="48.78728" lon="2.1977">
        <ele>162.39999389648</ele>
        <time>2015-02-03T13:35:17.000Z</time>
      </trkpt>
      <trkpt lat="48.7873" lon="2.19769">
        <ele>162.39999389648</ele>
        <time>2015-02-03T13:35:18.000Z</time>
      </trkpt>
      <trkpt lat="48.7873" lon="2.19764">
        <ele>163</ele>
        <time>2015-02-03T13:35:22.000Z</time>
      </trkpt>
      <trkpt lat="48.78733" lon="2.1976">
        <ele>163.19999694824</ele>
        <time>2015-02-03T13:35:28.000Z</time>
      </trkpt>
      <trkpt lat="48.78732" lon="2.19757">
        <ele>163.60000610352</ele>
        <time>2015-02-03T13:35:32.000Z</time>
      </trkpt>
      <trkpt lat="48.78732" lon="2.19757">
        <ele>163.60000610352</ele>
        <time>2015-02-03T13:35:34.000Z</time>
      </trkpt>
      <trkpt lat="48.78734" lon="2.19752">
        <ele>164.19999694824</ele>
        <time>2015-02-03T13:35:40.000Z</time>
      </trkpt>
      <trkpt lat="48.78734" lon="2.19749">
        <ele>164.60000610352</ele>
        <time>2015-02-03T13:35:44.000Z</time>
      </trkpt>
      <trkpt lat="48.78735" lon="2.19748">
        <ele>164.80000305176</ele>
        <time>2015-02-03T13:35:48.000Z</time>
      </trkpt>
      <trkpt lat="48.78736" lon="2.19743">
        <ele>165.19999694824</ele>
        <time>2015-02-03T13:35:55.000Z</time>
      </trkpt>
      <trkpt lat="48.78737" lon="2.19741">
        <ele>165.60000610352</ele>
        <time>2015-02-03T13:35:57.000Z</time>
      </trkpt>
      <trkpt lat="48.7874" lon="2.19735">
        <ele>166.60000610352</ele>
        <time>2015-02-03T13:36:04.000Z</time>
      </trkpt>
      <trkpt lat="48.78741" lon="2.19735">
        <ele>166.80000305176</ele>
        <time>2015-02-03T13:36:05.000Z</time>
      </trkpt>
      <trkpt lat="48.78743" lon="2.19731">
        <ele>166.80000305176</ele>
        <time>2015-02-03T13:36:10.000Z</time>
      </trkpt>
      <trkpt lat="48.78745" lon="2.19721">
        <ele>167.80000305176</ele>
        <time>2015-02-03T13:36:19.000Z</time>
      </trkpt>
      <trkpt lat="48.78746" lon="2.19716">
        <ele>168.60000610352</ele>
        <time>2015-02-03T13:36:28.000Z</time>
      </trkpt>
      <trkpt lat="48.78749" lon="2.19713">
        <ele>168.80000305176</ele>
        <time>2015-02-03T13:36:31.000Z</time>
      </trkpt>
      <trkpt lat="48.7875" lon="2.19711">
        <ele>169.19999694824</ele>
        <time>2015-02-03T13:36:34.000Z</time>
      </trkpt>
      <trkpt lat="48.78753" lon="2.19705">
        <ele>169.60000610352</ele>
        <time>2015-02-03T13:36:40.000Z</time>
      </trkpt>
      <trkpt lat="48.78752" lon="2.19704">
        <ele>169.80000305176</ele>
        <time>2015-02-03T13:36:43.000Z</time>
      </trkpt>
      <trkpt lat="48.78755" lon="2.19697">
        <ele>170.19999694824</ele>
        <time>2015-02-03T13:36:49.000Z</time>
      </trkpt>
      <trkpt lat="48.78757" lon="2.19691">
        <ele>170.60000610352</ele>
        <time>2015-02-03T13:36:55.000Z</time>
      </trkpt>
      <trkpt lat="48.7876" lon="2.19686">
        <ele>171</ele>
        <time>2015-02-03T13:37:02.000Z</time>
      </trkpt>
      <trkpt lat="48.7876" lon="2.19685">
        <ele>171</ele>
        <time>2015-02-03T13:37:03.000Z</time>
      </trkpt>
      <trkpt lat="48.78762" lon="2.19677">
        <ele>171.60000610352</ele>
        <time>2015-02-03T13:37:10.000Z</time>
      </trkpt>
      <trkpt lat="48.78765" lon="2.19669">
        <ele>172</ele>
        <time>2015-02-03T13:37:18.000Z</time>
      </trkpt>
      <trkpt lat="48.78766" lon="2.19668">
        <ele>172.19999694824</ele>
        <time>2015-02-03T13:37:19.000Z</time>
      </trkpt>
      <trkpt lat="48.78768" lon="2.19661">
        <ele>172.39999389648</ele>
        <time>2015-02-03T13:37:26.000Z</time>
      </trkpt>
      <trkpt lat="48.78768" lon="2.19654">
        <ele>173</ele>
        <time>2015-02-03T13:37:33.000Z</time>
      </trkpt>
      <trkpt lat="48.78768" lon="2.19653">
        <ele>173</ele>
        <time>2015-02-03T13:37:34.000Z</time>
      </trkpt>
      <trkpt lat="48.78771" lon="2.19647">
        <ele>173.39999389648</ele>
        <time>2015-02-03T13:37:40.000Z</time>
      </trkpt>
      <trkpt lat="48.78776" lon="2.19638">
        <ele>174</ele>
        <time>2015-02-03T13:37:48.000Z</time>
      </trkpt>
      <trkpt lat="48.78777" lon="2.19637">
        <ele>174</ele>
        <time>2015-02-03T13:37:49.000Z</time>
      </trkpt>
      <trkpt lat="48.78778" lon="2.19636">
        <ele>174</ele>
        <time>2015-02-03T13:37:50.000Z</time>
      </trkpt>
      <trkpt lat="48.78779" lon="2.19633">
        <ele>174.19999694824</ele>
        <time>2015-02-03T13:37:52.000Z</time>
      </trkpt>
      <trkpt lat="48.78781" lon="2.19629">
        <ele>174.39999389648</ele>
        <time>2015-02-03T13:37:55.000Z</time>
      </trkpt>
      <trkpt lat="48.78782" lon="2.19624">
        <ele>174.80000305176</ele>
        <time>2015-02-03T13:37:59.000Z</time>
      </trkpt>
      <trkpt lat="48.78783" lon="2.1962">
        <ele>174.80000305176</ele>
        <time>2015-02-03T13:38:03.000Z</time>
      </trkpt>
      <trkpt lat="48.78784" lon="2.19616">
        <ele>175</ele>
        <time>2015-02-03T13:38:08.000Z</time>
      </trkpt>
      <trkpt lat="48.78785" lon="2.19614">
        <ele>175.19999694824</ele>
        <time>2015-02-03T13:38:11.000Z</time>
      </trkpt>
      <trkpt lat="48.78784" lon="2.19606">
        <ele>175.19999694824</ele>
        <time>2015-02-03T13:38:19.000Z</time>
      </trkpt>
      <trkpt lat="48.78786" lon="2.19599">
        <ele>175.19999694824</ele>
        <time>2015-02-03T13:38:25.000Z</time>
      </trkpt>
      <trkpt lat="48.7879" lon="2.19591">
        <ele>175.39999389648</ele>
        <time>2015-02-03T13:38:34.000Z</time>
      </trkpt>
      <trkpt lat="48.7879" lon="2.19586">
        <ele>175.39999389648</ele>
        <time>2015-02-03T13:38:40.000Z</time>
      </trkpt>
      <trkpt lat="48.78787" lon="2.19581">
        <ele>175.60000610352</ele>
        <time>2015-02-03T13:38:47.000Z</time>
      </trkpt>
      <trkpt lat="48.78788" lon="2.19574">
        <ele>175.39999389648</ele>
        <time>2015-02-03T13:38:53.000Z</time>
      </trkpt>
      <trkpt lat="48.7879" lon="2.19569">
        <ele>175.60000610352</ele>
        <time>2015-02-03T13:38:57.000Z</time>
      </trkpt>
      <trkpt lat="48.7879" lon="2.19566">
        <ele>175.60000610352</ele>
        <time>2015-02-03T13:38:59.000Z</time>
      </trkpt>
      <trkpt lat="48.78791" lon="2.19563">
        <ele>175.60000610352</ele>
        <time>2015-02-03T13:39:02.000Z</time>
      </trkpt>
      <trkpt lat="48.78793" lon="2.19558">
        <ele>175.60000610352</ele>
        <time>2015-02-03T13:39:05.000Z</time>
      </trkpt>
      <trkpt lat="48.78794" lon="2.19557">
        <ele>175.60000610352</ele>
        <time>2015-02-03T13:39:07.000Z</time>
      </trkpt>
      <trkpt lat="48.78795" lon="2.19553">
        <ele>175.80000305176</ele>
        <time>2015-02-03T13:39:11.000Z</time>
      </trkpt>
      <trkpt lat="48.78796" lon="2.19551">
        <ele>176</ele>
        <time>2015-02-03T13:39:12.000Z</time>
      </trkpt>
      <trkpt lat="48.78798" lon="2.19547">
        <ele>176</ele>
        <time>2015-02-03T13:39:16.000Z</time>
      </trkpt>
      <trkpt lat="48.788" lon="2.19544">
        <ele>175.80000305176</ele>
        <time>2015-02-03T13:39:18.000Z</time>
      </trkpt>
      <trkpt lat="48.788" lon="2.1954">
        <ele>175.80000305176</ele>
        <time>2015-02-03T13:39:22.000Z</time>
      </trkpt>
      <trkpt lat="48.788" lon="2.19539">
        <ele>175.80000305176</ele>
        <time>2015-02-03T13:39:23.000Z</time>
      </trkpt>
      <trkpt lat="48.78801" lon="2.19535">
        <ele>175.80000305176</ele>
        <time>2015-02-03T13:39:27.000Z</time>
      </trkpt>
      <trkpt lat="48.78802" lon="2.19535">
        <ele>175.80000305176</ele>
        <time>2015-02-03T13:39:28.000Z</time>
      </trkpt>
      <trkpt lat="48.78804" lon="2.19529">
        <ele>176</ele>
        <time>2015-02-03T13:39:36.000Z</time>
      </trkpt>
      <trkpt lat="48.78805" lon="2.19525">
        <ele>175.80000305176</ele>
        <time>2015-02-03T13:39:41.000Z</time>
      </trkpt>
      <trkpt lat="48.78807" lon="2.19521">
        <ele>175.80000305176</ele>
        <time>2015-02-03T13:39:46.000Z</time>
      </trkpt>
      <trkpt lat="48.78811" lon="2.19518">
        <ele>175.60000610352</ele>
        <time>2015-02-03T13:39:51.000Z</time>
      </trkpt>
      <trkpt lat="48.78814" lon="2.19515">
        <ele>175.80000305176</ele>
        <time>2015-02-03T13:39:56.000Z</time>
      </trkpt>
      <trkpt lat="48.78818" lon="2.19511">
        <ele>176</ele>
        <time>2015-02-03T13:40:03.000Z</time>
      </trkpt>
      <trkpt lat="48.78822" lon="2.19505">
        <ele>175.80000305176</ele>
        <time>2015-02-03T13:40:10.000Z</time>
      </trkpt>
      <trkpt lat="48.78825" lon="2.19501">
        <ele>175.60000610352</ele>
        <time>2015-02-03T13:40:16.000Z</time>
      </trkpt>
      <trkpt lat="48.78829" lon="2.19495">
        <ele>175.39999389648</ele>
        <time>2015-02-03T13:40:23.000Z</time>
      </trkpt>
      <trkpt lat="48.78828" lon="2.19488">
        <ele>175.19999694824</ele>
        <time>2015-02-03T13:40:28.000Z</time>
      </trkpt>
      <trkpt lat="48.78829" lon="2.19487">
        <ele>175.19999694824</ele>
        <time>2015-02-03T13:40:29.000Z</time>
      </trkpt>
      <trkpt lat="48.78831" lon="2.19481">
        <ele>175.19999694824</ele>
        <time>2015-02-03T13:40:34.000Z</time>
      </trkpt>
      <trkpt lat="48.78833" lon="2.1948">
        <ele>175.19999694824</ele>
        <time>2015-02-03T13:40:35.000Z</time>
      </trkpt>
      <trkpt lat="48.78834" lon="2.19475">
        <ele>175.39999389648</ele>
        <time>2015-02-03T13:40:40.000Z</time>
      </trkpt>
      <trkpt lat="48.78834" lon="2.19473">
        <ele>175.19999694824</ele>
        <time>2015-02-03T13:40:41.000Z</time>
      </trkpt>
      <trkpt lat="48.78835" lon="2.19467">
        <ele>175.19999694824</ele>
        <time>2015-02-03T13:40:45.000Z</time>
      </trkpt>
      <trkpt lat="48.78835" lon="2.19465">
        <ele>175.19999694824</ele>
        <time>2015-02-03T13:40:46.000Z</time>
      </trkpt>
      <trkpt lat="48.78833" lon="2.19457">
        <ele>175.39999389648</ele>
        <time>2015-02-03T13:40:52.000Z</time>
      </trkpt>
      <trkpt lat="48.78833" lon="2.19451">
        <ele>175.60000610352</ele>
        <time>2015-02-03T13:40:56.000Z</time>
      </trkpt>
      <trkpt lat="48.78834" lon="2.19448">
        <ele>175.60000610352</ele>
        <time>2015-02-03T13:40:58.000Z</time>
      </trkpt>
      <trkpt lat="48.78835" lon="2.1944">
        <ele>175.80000305176</ele>
        <time>2015-02-03T13:41:03.000Z</time>
      </trkpt>
      <trkpt lat="48.78836" lon="2.19439">
        <ele>175.80000305176</ele>
        <time>2015-02-03T13:41:04.000Z</time>
      </trkpt>
      <trkpt lat="48.78838" lon="2.19429">
        <ele>175.80000305176</ele>
        <time>2015-02-03T13:41:10.000Z</time>
      </trkpt>
      <trkpt lat="48.78838" lon="2.19428">
        <ele>175.80000305176</ele>
        <time>2015-02-03T13:41:11.000Z</time>
      </trkpt>
      <trkpt lat="48.78841" lon="2.19417">
        <ele>175.80000305176</ele>
        <time>2015-02-03T13:41:19.000Z</time>
      </trkpt>
      <trkpt lat="48.78843" lon="2.19408">
        <ele>175.60000610352</ele>
        <time>2015-02-03T13:41:25.000Z</time>
      </trkpt>
      <trkpt lat="48.78843" lon="2.19405">
        <ele>175.60000610352</ele>
        <time>2015-02-03T13:41:27.000Z</time>
      </trkpt>
      <trkpt lat="48.78843" lon="2.19401">
        <ele>175.60000610352</ele>
        <time>2015-02-03T13:41:30.000Z</time>
      </trkpt>
      <trkpt lat="48.78844" lon="2.194">
        <ele>175.60000610352</ele>
        <time>2015-02-03T13:41:31.000Z</time>
      </trkpt>
      <trkpt lat="48.78845" lon="2.19396">
        <ele>175.60000610352</ele>
        <time>2015-02-03T13:41:34.000Z</time>
      </trkpt>
      <trkpt lat="48.78851" lon="2.19385">
        <ele>175.60000610352</ele>
        <time>2015-02-03T13:41:43.000Z</time>
      </trkpt>
      <trkpt lat="48.78852" lon="2.19382">
        <ele>175.39999389648</ele>
        <time>2015-02-03T13:41:45.000Z</time>
      </trkpt>
      <trkpt lat="48.78853" lon="2.1938">
        <ele>175.39999389648</ele>
        <time>2015-02-03T13:41:47.000Z</time>
      </trkpt>
      <trkpt lat="48.78854" lon="2.19376">
        <ele>175.39999389648</ele>
        <time>2015-02-03T13:41:50.000Z</time>
      </trkpt>
      <trkpt lat="48.78857" lon="2.19368">
        <ele>175.19999694824</ele>
        <time>2015-02-03T13:41:57.000Z</time>
      </trkpt>
      <trkpt lat="48.78861" lon="2.19357">
        <ele>175.19999694824</ele>
        <time>2015-02-03T13:42:05.000Z</time>
      </trkpt>
      <trkpt lat="48.78862" lon="2.19354">
        <ele>175</ele>
        <time>2015-02-03T13:42:08.000Z</time>
      </trkpt>
      <trkpt lat="48.78863" lon="2.19351">
        <ele>175</ele>
        <time>2015-02-03T13:42:11.000Z</time>
      </trkpt>
      <trkpt lat="48.78865" lon="2.19346">
        <ele>175</ele>
        <time>2015-02-03T13:42:15.000Z</time>
      </trkpt>
      <trkpt lat="48.78866" lon="2.19343">
        <ele>174.80000305176</ele>
        <time>2015-02-03T13:42:18.000Z</time>
      </trkpt>
      <trkpt lat="48.78866" lon="2.19341">
        <ele>174.80000305176</ele>
        <time>2015-02-03T13:42:20.000Z</time>
      </trkpt>
      <trkpt lat="48.78865" lon="2.19337">
        <ele>174.60000610352</ele>
        <time>2015-02-03T13:42:24.000Z</time>
      </trkpt>
      <trkpt lat="48.78864" lon="2.19335">
        <ele>174.80000305176</ele>
        <time>2015-02-03T13:42:30.000Z</time>
      </trkpt>
      <trkpt lat="48.78863" lon="2.19333">
        <ele>174.80000305176</ele>
        <time>2015-02-03T13:42:38.000Z</time>
      </trkpt>
      <trkpt lat="48.78865" lon="2.19327">
        <ele>174.39999389648</ele>
        <time>2015-02-03T13:42:45.000Z</time>
      </trkpt>
      <trkpt lat="48.78867" lon="2.1932">
        <ele>174.60000610352</ele>
        <time>2015-02-03T13:42:52.000Z</time>
      </trkpt>
      <trkpt lat="48.78865" lon="2.19313">
        <ele>174.80000305176</ele>
        <time>2015-02-03T13:42:59.000Z</time>
      </trkpt>
      <trkpt lat="48.78864" lon="2.19307">
        <ele>175.39999389648</ele>
        <time>2015-02-03T13:43:07.000Z</time>
      </trkpt>
      <trkpt lat="48.78864" lon="2.19305">
        <ele>175.39999389648</ele>
        <time>2015-02-03T13:43:20.000Z</time>
      </trkpt>
      <trkpt lat="48.78865" lon="2.19303">
        <ele>175.60000610352</ele>
        <time>2015-02-03T13:43:31.000Z</time>
      </trkpt>
      <trkpt lat="48.78864" lon="2.19301">
        <ele>175.80000305176</ele>
        <time>2015-02-03T13:43:36.000Z</time>
      </trkpt>
      <trkpt lat="48.78865" lon="2.19301">
        <ele>176</ele>
        <time>2015-02-03T13:43:46.000Z</time>
      </trkpt>
      <trkpt lat="48.78867" lon="2.193">
        <ele>176</ele>
        <time>2015-02-03T13:43:56.000Z</time>
      </trkpt>
      <trkpt lat="48.78867" lon="2.19296">
        <ele>176.19999694824</ele>
        <time>2015-02-03T13:44:00.000Z</time>
      </trkpt>
      <trkpt lat="48.78867" lon="2.19295">
        <ele>176.19999694824</ele>
        <time>2015-02-03T13:44:01.000Z</time>
      </trkpt>
      <trkpt lat="48.78866" lon="2.19288">
        <ele>176.39999389648</ele>
        <time>2015-02-03T13:44:08.000Z</time>
      </trkpt>
      <trkpt lat="48.78864" lon="2.1928">
        <ele>176.80000305176</ele>
        <time>2015-02-03T13:44:15.000Z</time>
      </trkpt>
      <trkpt lat="48.78863" lon="2.19276">
        <ele>177</ele>
        <time>2015-02-03T13:44:19.000Z</time>
      </trkpt>
      <trkpt lat="48.78862" lon="2.19271">
        <ele>177.19999694824</ele>
        <time>2015-02-03T13:44:24.000Z</time>
      </trkpt>
      <trkpt lat="48.78861" lon="2.19268">
        <ele>177.19999694824</ele>
        <time>2015-02-03T13:44:26.000Z</time>
      </trkpt>
      <trkpt lat="48.78858" lon="2.19261">
        <ele>177.39999389648</ele>
        <time>2015-02-03T13:44:31.000Z</time>
      </trkpt>
      <trkpt lat="48.78856" lon="2.19255">
        <ele>177.60000610352</ele>
        <time>2015-02-03T13:44:36.000Z</time>
      </trkpt>
      <trkpt lat="48.78856" lon="2.19253">
        <ele>177.60000610352</ele>
        <time>2015-02-03T13:44:38.000Z</time>
      </trkpt>
      <trkpt lat="48.78855" lon="2.19246">
        <ele>178</ele>
        <time>2015-02-03T13:44:45.000Z</time>
      </trkpt>
      <trkpt lat="48.78855" lon="2.19241">
        <ele>178</ele>
        <time>2015-02-03T13:44:50.000Z</time>
      </trkpt>
      <trkpt lat="48.78855" lon="2.19235">
        <ele>178</ele>
        <time>2015-02-03T13:44:56.000Z</time>
      </trkpt>
      <trkpt lat="48.78855" lon="2.19233">
        <ele>178</ele>
        <time>2015-02-03T13:45:02.000Z</time>
      </trkpt>
      <trkpt lat="48.78852" lon="2.19221">
        <ele>178</ele>
        <time>2015-02-03T13:45:09.000Z</time>
      </trkpt>
      <trkpt lat="48.78851" lon="2.19219">
        <ele>178</ele>
        <time>2015-02-03T13:45:11.000Z</time>
      </trkpt>
      <trkpt lat="48.78849" lon="2.19215">
        <ele>178.19999694824</ele>
        <time>2015-02-03T13:45:14.000Z</time>
      </trkpt>
      <trkpt lat="48.78848" lon="2.19213">
        <ele>178.19999694824</ele>
        <time>2015-02-03T13:45:16.000Z</time>
      </trkpt>
      <trkpt lat="48.78848" lon="2.19212">
        <ele>178.39999389648</ele>
        <time>2015-02-03T13:45:17.000Z</time>
      </trkpt>
      <trkpt lat="48.78846" lon="2.19207">
        <ele>178.39999389648</ele>
        <time>2015-02-03T13:45:23.000Z</time>
      </trkpt>
      <trkpt lat="48.78846" lon="2.19205">
        <ele>178.60000610352</ele>
        <time>2015-02-03T13:45:28.000Z</time>
      </trkpt>
      <trkpt lat="48.78844" lon="2.19198">
        <ele>178.80000305176</ele>
        <time>2015-02-03T13:45:34.000Z</time>
      </trkpt>
      <trkpt lat="48.78843" lon="2.19191">
        <ele>178.80000305176</ele>
        <time>2015-02-03T13:45:40.000Z</time>
      </trkpt>
      <trkpt lat="48.78842" lon="2.19185">
        <ele>179</ele>
        <time>2015-02-03T13:45:46.000Z</time>
      </trkpt>
      <trkpt lat="48.78842" lon="2.19179">
        <ele>179</ele>
        <time>2015-02-03T13:45:52.000Z</time>
      </trkpt>
      <trkpt lat="48.78842" lon="2.19175">
        <ele>179.19999694824</ele>
        <time>2015-02-03T13:45:55.000Z</time>
      </trkpt>
      <trkpt lat="48.78842" lon="2.1917">
        <ele>179.19999694824</ele>
        <time>2015-02-03T13:45:59.000Z</time>
      </trkpt>
      <trkpt lat="48.78841" lon="2.19164">
        <ele>179.39999389648</ele>
        <time>2015-02-03T13:46:05.000Z</time>
      </trkpt>
      <trkpt lat="48.7884" lon="2.19162">
        <ele>179.39999389648</ele>
        <time>2015-02-03T13:46:11.000Z</time>
      </trkpt>
      <trkpt lat="48.78842" lon="2.1916">
        <ele>179.60000610352</ele>
        <time>2015-02-03T13:46:19.000Z</time>
      </trkpt>
      <trkpt lat="48.78842" lon="2.19151">
        <ele>179.39999389648</ele>
        <time>2015-02-03T13:46:26.000Z</time>
      </trkpt>
      <trkpt lat="48.78842" lon="2.19146">
        <ele>179.39999389648</ele>
        <time>2015-02-03T13:46:30.000Z</time>
      </trkpt>
      <trkpt lat="48.78842" lon="2.19145">
        <ele>179.39999389648</ele>
        <time>2015-02-03T13:46:31.000Z</time>
      </trkpt>
      <trkpt lat="48.78843" lon="2.1914">
        <ele>179.39999389648</ele>
        <time>2015-02-03T13:46:34.000Z</time>
      </trkpt>
      <trkpt lat="48.78843" lon="2.19139">
        <ele>179.39999389648</ele>
        <time>2015-02-03T13:46:35.000Z</time>
      </trkpt>
      <trkpt lat="48.78843" lon="2.19137">
        <ele>179.60000610352</ele>
        <time>2015-02-03T13:46:37.000Z</time>
      </trkpt>
      <trkpt lat="48.78844" lon="2.19134">
        <ele>179.60000610352</ele>
        <time>2015-02-03T13:46:39.000Z</time>
      </trkpt>
      <trkpt lat="48.78844" lon="2.1913">
        <ele>179.60000610352</ele>
        <time>2015-02-03T13:46:43.000Z</time>
      </trkpt>
      <trkpt lat="48.78845" lon="2.19127">
        <ele>179.60000610352</ele>
        <time>2015-02-03T13:46:45.000Z</time>
      </trkpt>
      <trkpt lat="48.78844" lon="2.19124">
        <ele>179.60000610352</ele>
        <time>2015-02-03T13:46:48.000Z</time>
      </trkpt>
      <trkpt lat="48.78844" lon="2.19118">
        <ele>179.80000305176</ele>
        <time>2015-02-03T13:46:53.000Z</time>
      </trkpt>
      <trkpt lat="48.78844" lon="2.19115">
        <ele>180</ele>
        <time>2015-02-03T13:46:55.000Z</time>
      </trkpt>
      <trkpt lat="48.78844" lon="2.19108">
        <ele>180</ele>
        <time>2015-02-03T13:47:03.000Z</time>
      </trkpt>
      <trkpt lat="48.78845" lon="2.19101">
        <ele>179.80000305176</ele>
        <time>2015-02-03T13:47:10.000Z</time>
      </trkpt>
      <trkpt lat="48.78843" lon="2.19093">
        <ele>179.80000305176</ele>
        <time>2015-02-03T13:47:17.000Z</time>
      </trkpt>
      <trkpt lat="48.78842" lon="2.19085">
        <ele>179.80000305176</ele>
        <time>2015-02-03T13:47:24.000Z</time>
      </trkpt>
      <trkpt lat="48.78841" lon="2.19083">
        <ele>179.80000305176</ele>
        <time>2015-02-03T13:47:26.000Z</time>
      </trkpt>
      <trkpt lat="48.78841" lon="2.19079">
        <ele>180</ele>
        <time>2015-02-03T13:47:30.000Z</time>
      </trkpt>
      <trkpt lat="48.7884" lon="2.19075">
        <ele>180</ele>
        <time>2015-02-03T13:47:37.000Z</time>
      </trkpt>
      <trkpt lat="48.78839" lon="2.1907">
        <ele>179.80000305176</ele>
        <time>2015-02-03T13:47:42.000Z</time>
      </trkpt>
      <trkpt lat="48.78839" lon="2.19062">
        <ele>180</ele>
        <time>2015-02-03T13:47:50.000Z</time>
      </trkpt>
      <trkpt lat="48.78839" lon="2.19059">
        <ele>180</ele>
        <time>2015-02-03T13:47:56.000Z</time>
      </trkpt>
      <trkpt lat="48.78841" lon="2.19051">
        <ele>179.80000305176</ele>
        <time>2015-02-03T13:48:02.000Z</time>
      </trkpt>
      <trkpt lat="48.78842" lon="2.19044">
        <ele>180</ele>
        <time>2015-02-03T13:48:09.000Z</time>
      </trkpt>
      <trkpt lat="48.78844" lon="2.19037">
        <ele>180.19999694824</ele>
        <time>2015-02-03T13:48:16.000Z</time>
      </trkpt>
      <trkpt lat="48.78846" lon="2.19035">
        <ele>180.19999694824</ele>
        <time>2015-02-03T13:48:21.000Z</time>
      </trkpt>
      <trkpt lat="48.78849" lon="2.1903">
        <ele>180</ele>
        <time>2015-02-03T13:48:28.000Z</time>
      </trkpt>
      <trkpt lat="48.78851" lon="2.19025">
        <ele>180.19999694824</ele>
        <time>2015-02-03T13:48:35.000Z</time>
      </trkpt>
      <trkpt lat="48.78854" lon="2.19019">
        <ele>180.19999694824</ele>
        <time>2015-02-03T13:48:43.000Z</time>
      </trkpt>
      <trkpt lat="48.78857" lon="2.19017">
        <ele>180.19999694824</ele>
        <time>2015-02-03T13:48:50.000Z</time>
      </trkpt>
      <trkpt lat="48.78858" lon="2.19016">
        <ele>180</ele>
        <time>2015-02-03T13:48:56.000Z</time>
      </trkpt>
      <trkpt lat="48.7886" lon="2.19012">
        <ele>179.80000305176</ele>
        <time>2015-02-03T13:49:02.000Z</time>
      </trkpt>
      <trkpt lat="48.78863" lon="2.19006">
        <ele>180.19999694824</ele>
        <time>2015-02-03T13:49:10.000Z</time>
      </trkpt>
      <trkpt lat="48.78866" lon="2.19002">
        <ele>180.19999694824</ele>
        <time>2015-02-03T13:49:16.000Z</time>
      </trkpt>
      <trkpt lat="48.78868" lon="2.19001">
        <ele>180</ele>
        <time>2015-02-03T13:49:21.000Z</time>
      </trkpt>
      <trkpt lat="48.78871" lon="2.18999">
        <ele>179.80000305176</ele>
        <time>2015-02-03T13:49:27.000Z</time>
      </trkpt>
      <trkpt lat="48.78878" lon="2.18994">
        <ele>179.80000305176</ele>
        <time>2015-02-03T13:49:34.000Z</time>
      </trkpt>
      <trkpt lat="48.7888" lon="2.18992">
        <ele>179.80000305176</ele>
        <time>2015-02-03T13:49:37.000Z</time>
      </trkpt>
      <trkpt lat="48.78881" lon="2.18991">
        <ele>180</ele>
        <time>2015-02-03T13:49:39.000Z</time>
      </trkpt>
      <trkpt lat="48.78885" lon="2.18983">
        <ele>180</ele>
        <time>2015-02-03T13:49:47.000Z</time>
      </trkpt>
      <trkpt lat="48.78888" lon="2.18977">
        <ele>179.80000305176</ele>
        <time>2015-02-03T13:49:54.000Z</time>
      </trkpt>
      <trkpt lat="48.7889" lon="2.18971">
        <ele>180</ele>
        <time>2015-02-03T13:50:01.000Z</time>
      </trkpt>
      <trkpt lat="48.78892" lon="2.18966">
        <ele>180</ele>
        <time>2015-02-03T13:50:06.000Z</time>
      </trkpt>
      <trkpt lat="48.78895" lon="2.18961">
        <ele>179.80000305176</ele>
        <time>2015-02-03T13:50:12.000Z</time>
      </trkpt>
      <trkpt lat="48.78897" lon="2.18958">
        <ele>179.80000305176</ele>
        <time>2015-02-03T13:50:17.000Z</time>
      </trkpt>
      <trkpt lat="48.78899" lon="2.18952">
        <ele>179.60000610352</ele>
        <time>2015-02-03T13:50:23.000Z</time>
      </trkpt>
      <trkpt lat="48.789" lon="2.18947">
        <ele>179.39999389648</ele>
        <time>2015-02-03T13:50:31.000Z</time>
      </trkpt>
      <trkpt lat="48.78901" lon="2.18943">
        <ele>179.39999389648</ele>
        <time>2015-02-03T13:50:37.000Z</time>
      </trkpt>
      <trkpt lat="48.78905" lon="2.18938">
        <ele>179.19999694824</ele>
        <time>2015-02-03T13:50:43.000Z</time>
      </trkpt>
      <trkpt lat="48.78907" lon="2.18932">
        <ele>179.19999694824</ele>
        <time>2015-02-03T13:50:48.000Z</time>
      </trkpt>
      <trkpt lat="48.7891" lon="2.18929">
        <ele>179.19999694824</ele>
        <time>2015-02-03T13:50:53.000Z</time>
      </trkpt>
      <trkpt lat="48.78911" lon="2.18928">
        <ele>179</ele>
        <time>2015-02-03T13:50:54.000Z</time>
      </trkpt>
      <trkpt lat="48.78913" lon="2.18925">
        <ele>179</ele>
        <time>2015-02-03T13:50:59.000Z</time>
      </trkpt>
      <trkpt lat="48.78915" lon="2.18924">
        <ele>178.39999389648</ele>
        <time>2015-02-03T13:51:06.000Z</time>
      </trkpt>
      <trkpt lat="48.78918" lon="2.1892">
        <ele>178.60000610352</ele>
        <time>2015-02-03T13:51:13.000Z</time>
      </trkpt>
      <trkpt lat="48.7892" lon="2.18917">
        <ele>178.60000610352</ele>
        <time>2015-02-03T13:51:19.000Z</time>
      </trkpt>
      <trkpt lat="48.78921" lon="2.18913">
        <ele>178.19999694824</ele>
        <time>2015-02-03T13:51:24.000Z</time>
      </trkpt>
      <trkpt lat="48.7892" lon="2.18905">
        <ele>178</ele>
        <time>2015-02-03T13:51:31.000Z</time>
      </trkpt>
      <trkpt lat="48.78919" lon="2.18903">
        <ele>178.19999694824</ele>
        <time>2015-02-03T13:51:37.000Z</time>
      </trkpt>
      <trkpt lat="48.78918" lon="2.189">
        <ele>178.39999389648</ele>
        <time>2015-02-03T13:51:42.000Z</time>
      </trkpt>
      <trkpt lat="48.78918" lon="2.18897">
        <ele>178.60000610352</ele>
        <time>2015-02-03T13:51:49.000Z</time>
      </trkpt>
      <trkpt lat="48.78919" lon="2.18892">
        <ele>178.80000305176</ele>
        <time>2015-02-03T13:51:55.000Z</time>
      </trkpt>
      <trkpt lat="48.7892" lon="2.18886">
        <ele>178.80000305176</ele>
        <time>2015-02-03T13:52:02.000Z</time>
      </trkpt>
      <trkpt lat="48.78919" lon="2.18881">
        <ele>178.60000610352</ele>
        <time>2015-02-03T13:52:09.000Z</time>
      </trkpt>
      <trkpt lat="48.78919" lon="2.18875">
        <ele>179</ele>
        <time>2015-02-03T13:52:16.000Z</time>
      </trkpt>
      <trkpt lat="48.78919" lon="2.18874">
        <ele>179.19999694824</ele>
        <time>2015-02-03T13:52:18.000Z</time>
      </trkpt>
      <trkpt lat="48.78919" lon="2.18871">
        <ele>179.19999694824</ele>
        <time>2015-02-03T13:52:22.000Z</time>
      </trkpt>
      <trkpt lat="48.78922" lon="2.18867">
        <ele>179.19999694824</ele>
        <time>2015-02-03T13:52:28.000Z</time>
      </trkpt>
      <trkpt lat="48.78925" lon="2.18866">
        <ele>179</ele>
        <time>2015-02-03T13:52:34.000Z</time>
      </trkpt>
      <trkpt lat="48.78929" lon="2.1886">
        <ele>178.80000305176</ele>
        <time>2015-02-03T13:52:40.000Z</time>
      </trkpt>
      <trkpt lat="48.7893" lon="2.18858">
        <ele>178.80000305176</ele>
        <time>2015-02-03T13:52:42.000Z</time>
      </trkpt>
      <trkpt lat="48.78932" lon="2.18853">
        <ele>178.80000305176</ele>
        <time>2015-02-03T13:52:46.000Z</time>
      </trkpt>
      <trkpt lat="48.78933" lon="2.18849">
        <ele>178.60000610352</ele>
        <time>2015-02-03T13:52:49.000Z</time>
      </trkpt>
      <trkpt lat="48.78935" lon="2.18846">
        <ele>178.80000305176</ele>
        <time>2015-02-03T13:52:52.000Z</time>
      </trkpt>
      <trkpt lat="48.78937" lon="2.18837">
        <ele>178.39999389648</ele>
        <time>2015-02-03T13:52:59.000Z</time>
      </trkpt>
      <trkpt lat="48.78937" lon="2.18834">
        <ele>178.39999389648</ele>
        <time>2015-02-03T13:53:01.000Z</time>
      </trkpt>
      <trkpt lat="48.78938" lon="2.18832">
        <ele>178.39999389648</ele>
        <time>2015-02-03T13:53:02.000Z</time>
      </trkpt>
      <trkpt lat="48.78939" lon="2.18828">
        <ele>178.39999389648</ele>
        <time>2015-02-03T13:53:05.000Z</time>
      </trkpt>
      <trkpt lat="48.78943" lon="2.18821">
        <ele>178.19999694824</ele>
        <time>2015-02-03T13:53:12.000Z</time>
      </trkpt>
      <trkpt lat="48.78943" lon="2.1882">
        <ele>178.19999694824</ele>
        <time>2015-02-03T13:53:13.000Z</time>
      </trkpt>
      <trkpt lat="48.78946" lon="2.18815">
        <ele>178.19999694824</ele>
        <time>2015-02-03T13:53:17.000Z</time>
      </trkpt>
      <trkpt lat="48.78946" lon="2.18814">
        <ele>178.19999694824</ele>
        <time>2015-02-03T13:53:18.000Z</time>
      </trkpt>
      <trkpt lat="48.78947" lon="2.18812">
        <ele>178.19999694824</ele>
        <time>2015-02-03T13:53:20.000Z</time>
      </trkpt>
      <trkpt lat="48.78947" lon="2.18811">
        <ele>178.19999694824</ele>
        <time>2015-02-03T13:53:21.000Z</time>
      </trkpt>
      <trkpt lat="48.78947" lon="2.18809">
        <ele>178.19999694824</ele>
        <time>2015-02-03T13:53:22.000Z</time>
      </trkpt>
      <trkpt lat="48.78948" lon="2.18802">
        <ele>178.19999694824</ele>
        <time>2015-02-03T13:53:27.000Z</time>
      </trkpt>
      <trkpt lat="48.78951" lon="2.18795">
        <ele>178</ele>
        <time>2015-02-03T13:53:33.000Z</time>
      </trkpt>
      <trkpt lat="48.78952" lon="2.1879">
        <ele>178</ele>
        <time>2015-02-03T13:53:37.000Z</time>
      </trkpt>
      <trkpt lat="48.78953" lon="2.18787">
        <ele>178</ele>
        <time>2015-02-03T13:53:39.000Z</time>
      </trkpt>
      <trkpt lat="48.78953" lon="2.18785">
        <ele>178</ele>
        <time>2015-02-03T13:53:41.000Z</time>
      </trkpt>
      <trkpt lat="48.78953" lon="2.18779">
        <ele>178</ele>
        <time>2015-02-03T13:53:46.000Z</time>
      </trkpt>
      <trkpt lat="48.78954" lon="2.18775">
        <ele>178.19999694824</ele>
        <time>2015-02-03T13:53:54.000Z</time>
      </trkpt>
      <trkpt lat="48.78954" lon="2.18768">
        <ele>178</ele>
        <time>2015-02-03T13:54:01.000Z</time>
      </trkpt>
      <trkpt lat="48.78954" lon="2.18761">
        <ele>178.60000610352</ele>
        <time>2015-02-03T13:54:06.000Z</time>
      </trkpt>
      <trkpt lat="48.78952" lon="2.18754">
        <ele>179</ele>
        <time>2015-02-03T13:54:13.000Z</time>
      </trkpt>
      <trkpt lat="48.78951" lon="2.18752">
        <ele>179.19999694824</ele>
        <time>2015-02-03T13:54:16.000Z</time>
      </trkpt>
      <trkpt lat="48.7895" lon="2.18749">
        <ele>179.39999389648</ele>
        <time>2015-02-03T13:54:18.000Z</time>
      </trkpt>
      <trkpt lat="48.78949" lon="2.18742">
        <ele>179.60000610352</ele>
        <time>2015-02-03T13:54:24.000Z</time>
      </trkpt>
      <trkpt lat="48.78947" lon="2.18735">
        <ele>179.80000305176</ele>
        <time>2015-02-03T13:54:30.000Z</time>
      </trkpt>
      <trkpt lat="48.78947" lon="2.18735">
        <ele>179.80000305176</ele>
        <time>2015-02-03T13:54:31.000Z</time>
      </trkpt>
      <trkpt lat="48.78946" lon="2.18728">
        <ele>180</ele>
        <time>2015-02-03T13:54:37.000Z</time>
      </trkpt>
      <trkpt lat="48.78944" lon="2.18722">
        <ele>180</ele>
        <time>2015-02-03T13:54:43.000Z</time>
      </trkpt>
      <trkpt lat="48.7894" lon="2.18714">
        <ele>180</ele>
        <time>2015-02-03T13:54:50.000Z</time>
      </trkpt>
      <trkpt lat="48.7894" lon="2.18712">
        <ele>180</ele>
        <time>2015-02-03T13:54:52.000Z</time>
      </trkpt>
      <trkpt lat="48.78938" lon="2.18707">
        <ele>180.19999694824</ele>
        <time>2015-02-03T13:54:56.000Z</time>
      </trkpt>
      <trkpt lat="48.78935" lon="2.18702">
        <ele>180.19999694824</ele>
        <time>2015-02-03T13:55:01.000Z</time>
      </trkpt>
      <trkpt lat="48.78934" lon="2.18698">
        <ele>180.19999694824</ele>
        <time>2015-02-03T13:55:04.000Z</time>
      </trkpt>
      <trkpt lat="48.7893" lon="2.18689">
        <ele>180.39999389648</ele>
        <time>2015-02-03T13:55:12.000Z</time>
      </trkpt>
      <trkpt lat="48.78929" lon="2.18686">
        <ele>180.39999389648</ele>
        <time>2015-02-03T13:55:14.000Z</time>
      </trkpt>
      <trkpt lat="48.78926" lon="2.1868">
        <ele>180.39999389648</ele>
        <time>2015-02-03T13:55:19.000Z</time>
      </trkpt>
      <trkpt lat="48.78925" lon="2.18679">
        <ele>180.60000610352</ele>
        <time>2015-02-03T13:55:20.000Z</time>
      </trkpt>
      <trkpt lat="48.78923" lon="2.18674">
        <ele>180.60000610352</ele>
        <time>2015-02-03T13:55:24.000Z</time>
      </trkpt>
      <trkpt lat="48.78923" lon="2.18673">
        <ele>180.60000610352</ele>
        <time>2015-02-03T13:55:25.000Z</time>
      </trkpt>
      <trkpt lat="48.78921" lon="2.18667">
        <ele>180.60000610352</ele>
        <time>2015-02-03T13:55:29.000Z</time>
      </trkpt>
      <trkpt lat="48.7892" lon="2.18665">
        <ele>180.60000610352</ele>
        <time>2015-02-03T13:55:31.000Z</time>
      </trkpt>
      <trkpt lat="48.78919" lon="2.18662">
        <ele>180.80000305176</ele>
        <time>2015-02-03T13:55:33.000Z</time>
      </trkpt>
      <trkpt lat="48.78917" lon="2.18657">
        <ele>180.80000305176</ele>
        <time>2015-02-03T13:55:37.000Z</time>
      </trkpt>
      <trkpt lat="48.78916" lon="2.18656">
        <ele>181</ele>
        <time>2015-02-03T13:55:38.000Z</time>
      </trkpt>
      <trkpt lat="48.78915" lon="2.18653">
        <ele>181</ele>
        <time>2015-02-03T13:55:40.000Z</time>
      </trkpt>
      <trkpt lat="48.78913" lon="2.18649">
        <ele>181</ele>
        <time>2015-02-03T13:55:45.000Z</time>
      </trkpt>
      <trkpt lat="48.78912" lon="2.18646">
        <ele>181</ele>
        <time>2015-02-03T13:55:47.000Z</time>
      </trkpt>
      <trkpt lat="48.78909" lon="2.18641">
        <ele>181</ele>
        <time>2015-02-03T13:55:51.000Z</time>
      </trkpt>
      <trkpt lat="48.78908" lon="2.18636">
        <ele>181.39999389648</ele>
        <time>2015-02-03T13:55:55.000Z</time>
      </trkpt>
      <trkpt lat="48.78907" lon="2.18636">
        <ele>181.39999389648</ele>
        <time>2015-02-03T13:55:56.000Z</time>
      </trkpt>
      <trkpt lat="48.78907" lon="2.18635">
        <ele>181.60000610352</ele>
        <time>2015-02-03T13:55:57.000Z</time>
      </trkpt>
      <trkpt lat="48.78903" lon="2.18626">
        <ele>181.39999389648</ele>
        <time>2015-02-03T13:56:04.000Z</time>
      </trkpt>
      <trkpt lat="48.789" lon="2.18618">
        <ele>181.60000610352</ele>
        <time>2015-02-03T13:56:11.000Z</time>
      </trkpt>
      <trkpt lat="48.789" lon="2.18617">
        <ele>181.60000610352</ele>
        <time>2015-02-03T13:56:12.000Z</time>
      </trkpt>
      <trkpt lat="48.78898" lon="2.18612">
        <ele>181.80000305176</ele>
        <time>2015-02-03T13:56:17.000Z</time>
      </trkpt>
      <trkpt lat="48.78898" lon="2.18609">
        <ele>181.80000305176</ele>
        <time>2015-02-03T13:56:19.000Z</time>
      </trkpt>
      <trkpt lat="48.78896" lon="2.18605">
        <ele>182</ele>
        <time>2015-02-03T13:56:23.000Z</time>
      </trkpt>
      <trkpt lat="48.78894" lon="2.186">
        <ele>182</ele>
        <time>2015-02-03T13:56:28.000Z</time>
      </trkpt>
      <trkpt lat="48.78893" lon="2.18599">
        <ele>182</ele>
        <time>2015-02-03T13:56:29.000Z</time>
      </trkpt>
      <trkpt lat="48.78891" lon="2.18594">
        <ele>182.19999694824</ele>
        <time>2015-02-03T13:56:33.000Z</time>
      </trkpt>
      <trkpt lat="48.7889" lon="2.18592">
        <ele>182.19999694824</ele>
        <time>2015-02-03T13:56:35.000Z</time>
      </trkpt>
      <trkpt lat="48.7889" lon="2.18591">
        <ele>182.19999694824</ele>
        <time>2015-02-03T13:56:36.000Z</time>
      </trkpt>
      <trkpt lat="48.78889" lon="2.18589">
        <ele>182.39999389648</ele>
        <time>2015-02-03T13:56:38.000Z</time>
      </trkpt>
      <trkpt lat="48.78886" lon="2.18583">
        <ele>182.80000305176</ele>
        <time>2015-02-03T13:56:43.000Z</time>
      </trkpt>
      <trkpt lat="48.78885" lon="2.1858">
        <ele>182.80000305176</ele>
        <time>2015-02-03T13:56:45.000Z</time>
      </trkpt>
      <trkpt lat="48.78884" lon="2.18575">
        <ele>182.80000305176</ele>
        <time>2015-02-03T13:56:50.000Z</time>
      </trkpt>
      <trkpt lat="48.78883" lon="2.18573">
        <ele>183</ele>
        <time>2015-02-03T13:56:52.000Z</time>
      </trkpt>
      <trkpt lat="48.7888" lon="2.18569">
        <ele>182.80000305176</ele>
        <time>2015-02-03T13:56:58.000Z</time>
      </trkpt>
      <trkpt lat="48.78877" lon="2.18563">
        <ele>182.80000305176</ele>
        <time>2015-02-03T13:57:03.000Z</time>
      </trkpt>
      <trkpt lat="48.78874" lon="2.18555">
        <ele>183</ele>
        <time>2015-02-03T13:57:10.000Z</time>
      </trkpt>
      <trkpt lat="48.78869" lon="2.18547">
        <ele>183.19999694824</ele>
        <time>2015-02-03T13:57:18.000Z</time>
      </trkpt>
      <trkpt lat="48.78865" lon="2.18538">
        <ele>183.19999694824</ele>
        <time>2015-02-03T13:57:25.000Z</time>
      </trkpt>
      <trkpt lat="48.78865" lon="2.18537">
        <ele>183.19999694824</ele>
        <time>2015-02-03T13:57:26.000Z</time>
      </trkpt>
      <trkpt lat="48.78862" lon="2.18531">
        <ele>183</ele>
        <time>2015-02-03T13:57:31.000Z</time>
      </trkpt>
      <trkpt lat="48.78859" lon="2.18524">
        <ele>183</ele>
        <time>2015-02-03T13:57:38.000Z</time>
      </trkpt>
      <trkpt lat="48.78854" lon="2.18514">
        <ele>183.19999694824</ele>
        <time>2015-02-03T13:57:45.000Z</time>
      </trkpt>
      <trkpt lat="48.78852" lon="2.18511">
        <ele>183.19999694824</ele>
        <time>2015-02-03T13:57:48.000Z</time>
      </trkpt>
      <trkpt lat="48.7885" lon="2.18505">
        <ele>183.19999694824</ele>
        <time>2015-02-03T13:57:52.000Z</time>
      </trkpt>
      <trkpt lat="48.78848" lon="2.18497">
        <ele>183.19999694824</ele>
        <time>2015-02-03T13:57:59.000Z</time>
      </trkpt>
      <trkpt lat="48.78845" lon="2.18488">
        <ele>183.19999694824</ele>
        <time>2015-02-03T13:58:07.000Z</time>
      </trkpt>
      <trkpt lat="48.78841" lon="2.18479">
        <ele>183.19999694824</ele>
        <time>2015-02-03T13:58:14.000Z</time>
      </trkpt>
      <trkpt lat="48.78839" lon="2.18475">
        <ele>183.39999389648</ele>
        <time>2015-02-03T13:58:18.000Z</time>
      </trkpt>
      <trkpt lat="48.78838" lon="2.18473">
        <ele>183.39999389648</ele>
        <time>2015-02-03T13:58:19.000Z</time>
      </trkpt>
      <trkpt lat="48.78837" lon="2.18471">
        <ele>183.39999389648</ele>
        <time>2015-02-03T13:58:21.000Z</time>
      </trkpt>
      <trkpt lat="48.78834" lon="2.18463">
        <ele>183.39999389648</ele>
        <time>2015-02-03T13:58:27.000Z</time>
      </trkpt>
      <trkpt lat="48.78834" lon="2.18462">
        <ele>183.39999389648</ele>
        <time>2015-02-03T13:58:28.000Z</time>
      </trkpt>
      <trkpt lat="48.7883" lon="2.18453">
        <ele>183.39999389648</ele>
        <time>2015-02-03T13:58:35.000Z</time>
      </trkpt>
      <trkpt lat="48.78827" lon="2.18447">
        <ele>183.39999389648</ele>
        <time>2015-02-03T13:58:41.000Z</time>
      </trkpt>
      <trkpt lat="48.78826" lon="2.18446">
        <ele>183.39999389648</ele>
        <time>2015-02-03T13:58:42.000Z</time>
      </trkpt>
      <trkpt lat="48.78822" lon="2.18436">
        <ele>183.39999389648</ele>
        <time>2015-02-03T13:58:50.000Z</time>
      </trkpt>
      <trkpt lat="48.7882" lon="2.18433">
        <ele>183.39999389648</ele>
        <time>2015-02-03T13:58:52.000Z</time>
      </trkpt>
      <trkpt lat="48.7882" lon="2.18432">
        <ele>183.39999389648</ele>
        <time>2015-02-03T13:58:53.000Z</time>
      </trkpt>
      <trkpt lat="48.78818" lon="2.18428">
        <ele>183.39999389648</ele>
        <time>2015-02-03T13:58:57.000Z</time>
      </trkpt>
      <trkpt lat="48.78818" lon="2.18426">
        <ele>183.39999389648</ele>
        <time>2015-02-03T13:58:58.000Z</time>
      </trkpt>
      <trkpt lat="48.78817" lon="2.18422">
        <ele>183.60000610352</ele>
        <time>2015-02-03T13:59:02.000Z</time>
      </trkpt>
      <trkpt lat="48.78816" lon="2.1842">
        <ele>183.60000610352</ele>
        <time>2015-02-03T13:59:04.000Z</time>
      </trkpt>
      <trkpt lat="48.78811" lon="2.18409">
        <ele>183.80000305176</ele>
        <time>2015-02-03T13:59:13.000Z</time>
      </trkpt>
      <trkpt lat="48.78808" lon="2.18403">
        <ele>183.80000305176</ele>
        <time>2015-02-03T13:59:19.000Z</time>
      </trkpt>
      <trkpt lat="48.78808" lon="2.18402">
        <ele>184</ele>
        <time>2015-02-03T13:59:20.000Z</time>
      </trkpt>
      <trkpt lat="48.78807" lon="2.18395">
        <ele>184</ele>
        <time>2015-02-03T13:59:26.000Z</time>
      </trkpt>
      <trkpt lat="48.78805" lon="2.18391">
        <ele>184.19999694824</ele>
        <time>2015-02-03T13:59:29.000Z</time>
      </trkpt>
      <trkpt lat="48.78804" lon="2.18388">
        <ele>184.19999694824</ele>
        <time>2015-02-03T13:59:32.000Z</time>
      </trkpt>
      <trkpt lat="48.78802" lon="2.18385">
        <ele>184.19999694824</ele>
        <time>2015-02-03T13:59:34.000Z</time>
      </trkpt>
      <trkpt lat="48.78801" lon="2.18382">
        <ele>184.19999694824</ele>
        <time>2015-02-03T13:59:37.000Z</time>
      </trkpt>
      <trkpt lat="48.78798" lon="2.18375">
        <ele>184</ele>
        <time>2015-02-03T13:59:43.000Z</time>
      </trkpt>
      <trkpt lat="48.78798" lon="2.18374">
        <ele>184</ele>
        <time>2015-02-03T13:59:44.000Z</time>
      </trkpt>
      <trkpt lat="48.78795" lon="2.18366">
        <ele>184</ele>
        <time>2015-02-03T13:59:50.000Z</time>
      </trkpt>
      <trkpt lat="48.78794" lon="2.18364">
        <ele>184</ele>
        <time>2015-02-03T13:59:52.000Z</time>
      </trkpt>
      <trkpt lat="48.78791" lon="2.18358">
        <ele>184</ele>
        <time>2015-02-03T13:59:57.000Z</time>
      </trkpt>
      <trkpt lat="48.7879" lon="2.18353">
        <ele>184</ele>
        <time>2015-02-03T14:00:01.000Z</time>
      </trkpt>
      <trkpt lat="48.78786" lon="2.18342">
        <ele>184</ele>
        <time>2015-02-03T14:00:09.000Z</time>
      </trkpt>
      <trkpt lat="48.78785" lon="2.18341">
        <ele>184</ele>
        <time>2015-02-03T14:00:10.000Z</time>
      </trkpt>
      <trkpt lat="48.78783" lon="2.18335">
        <ele>184</ele>
        <time>2015-02-03T14:00:14.000Z</time>
      </trkpt>
      <trkpt lat="48.78781" lon="2.18333">
        <ele>184.19999694824</ele>
        <time>2015-02-03T14:00:16.000Z</time>
      </trkpt>
      <trkpt lat="48.78777" lon="2.18326">
        <ele>184</ele>
        <time>2015-02-03T14:00:22.000Z</time>
      </trkpt>
      <trkpt lat="48.78777" lon="2.18325">
        <ele>184</ele>
        <time>2015-02-03T14:00:23.000Z</time>
      </trkpt>
      <trkpt lat="48.78774" lon="2.18321">
        <ele>184.19999694824</ele>
        <time>2015-02-03T14:00:28.000Z</time>
      </trkpt>
      <trkpt lat="48.78774" lon="2.18321">
        <ele>184.39999389648</ele>
        <time>2015-02-03T14:00:31.000Z</time>
      </trkpt>
      <trkpt lat="48.78773" lon="2.1832">
        <ele>184.39999389648</ele>
        <time>2015-02-03T14:00:33.000Z</time>
      </trkpt>
      <trkpt lat="48.78771" lon="2.18319">
        <ele>184.60000610352</ele>
        <time>2015-02-03T14:00:37.000Z</time>
      </trkpt>
      <trkpt lat="48.78771" lon="2.18318">
        <ele>184.39999389648</ele>
        <time>2015-02-03T14:00:44.000Z</time>
      </trkpt>
      <trkpt lat="48.78769" lon="2.18315">
        <ele>184.60000610352</ele>
        <time>2015-02-03T14:00:57.000Z</time>
      </trkpt>
      <trkpt lat="48.78769" lon="2.18315">
        <ele>184.60000610352</ele>
        <time>2015-02-03T14:01:03.000Z</time>
      </trkpt>
      <trkpt lat="48.78769" lon="2.18313">
        <ele>184.39999389648</ele>
        <time>2015-02-03T14:01:11.000Z</time>
      </trkpt>
      <trkpt lat="48.78766" lon="2.18312">
        <ele>184.39999389648</ele>
        <time>2015-02-03T14:01:22.000Z</time>
      </trkpt>
      <trkpt lat="48.78766" lon="2.1831">
        <ele>184.60000610352</ele>
        <time>2015-02-03T14:01:34.000Z</time>
      </trkpt>
      <trkpt lat="48.78766" lon="2.18308">
        <ele>184.39999389648</ele>
        <time>2015-02-03T14:01:41.000Z</time>
      </trkpt>
      <trkpt lat="48.78768" lon="2.18296">
        <ele>184.19999694824</ele>
        <time>2015-02-03T14:01:52.000Z</time>
      </trkpt>
      <trkpt lat="48.7877" lon="2.1829">
        <ele>184.19999694824</ele>
        <time>2015-02-03T14:01:59.000Z</time>
      </trkpt>
      <trkpt lat="48.7877" lon="2.18283">
        <ele>184.19999694824</ele>
        <time>2015-02-03T14:02:05.000Z</time>
      </trkpt>
      <trkpt lat="48.78771" lon="2.18277">
        <ele>184.19999694824</ele>
        <time>2015-02-03T14:02:09.000Z</time>
      </trkpt>
      <trkpt lat="48.78771" lon="2.18275">
        <ele>184.19999694824</ele>
        <time>2015-02-03T14:02:11.000Z</time>
      </trkpt>
      <trkpt lat="48.78773" lon="2.18265">
        <ele>184.19999694824</ele>
        <time>2015-02-03T14:02:18.000Z</time>
      </trkpt>
      <trkpt lat="48.78773" lon="2.18263">
        <ele>184.19999694824</ele>
        <time>2015-02-03T14:02:19.000Z</time>
      </trkpt>
      <trkpt lat="48.78775" lon="2.18259">
        <ele>184.19999694824</ele>
        <time>2015-02-03T14:02:22.000Z</time>
      </trkpt>
      <trkpt lat="48.78775" lon="2.18255">
        <ele>184.19999694824</ele>
        <time>2015-02-03T14:02:25.000Z</time>
      </trkpt>
      <trkpt lat="48.78776" lon="2.18249">
        <ele>184</ele>
        <time>2015-02-03T14:02:29.000Z</time>
      </trkpt>
      <trkpt lat="48.78777" lon="2.18245">
        <ele>184</ele>
        <time>2015-02-03T14:02:32.000Z</time>
      </trkpt>
      <trkpt lat="48.7878" lon="2.18229">
        <ele>183.80000305176</ele>
        <time>2015-02-03T14:02:42.000Z</time>
      </trkpt>
      <trkpt lat="48.7878" lon="2.18227">
        <ele>183.80000305176</ele>
        <time>2015-02-03T14:02:43.000Z</time>
      </trkpt>
      <trkpt lat="48.78781" lon="2.18221">
        <ele>183.80000305176</ele>
        <time>2015-02-03T14:02:47.000Z</time>
      </trkpt>
      <trkpt lat="48.78782" lon="2.18218">
        <ele>183.80000305176</ele>
        <time>2015-02-03T14:02:49.000Z</time>
      </trkpt>
      <trkpt lat="48.78783" lon="2.18209">
        <ele>183.80000305176</ele>
        <time>2015-02-03T14:02:55.000Z</time>
      </trkpt>
      <trkpt lat="48.78783" lon="2.18207">
        <ele>183.80000305176</ele>
        <time>2015-02-03T14:02:56.000Z</time>
      </trkpt>
      <trkpt lat="48.78784" lon="2.18206">
        <ele>183.80000305176</ele>
        <time>2015-02-03T14:02:57.000Z</time>
      </trkpt>
      <trkpt lat="48.78786" lon="2.18199">
        <ele>183.60000610352</ele>
        <time>2015-02-03T14:03:02.000Z</time>
      </trkpt>
      <trkpt lat="48.78787" lon="2.18186">
        <ele>183.60000610352</ele>
        <time>2015-02-03T14:03:10.000Z</time>
      </trkpt>
      <trkpt lat="48.78789" lon="2.18175">
        <ele>183.80000305176</ele>
        <time>2015-02-03T14:03:17.000Z</time>
      </trkpt>
      <trkpt lat="48.78791" lon="2.18162">
        <ele>183.60000610352</ele>
        <time>2015-02-03T14:03:25.000Z</time>
      </trkpt>
      <trkpt lat="48.78793" lon="2.18149">
        <ele>183.60000610352</ele>
        <time>2015-02-03T14:03:33.000Z</time>
      </trkpt>
      <trkpt lat="48.78794" lon="2.18142">
        <ele>183.39999389648</ele>
        <time>2015-02-03T14:03:37.000Z</time>
      </trkpt>
      <trkpt lat="48.78795" lon="2.18134">
        <ele>183.39999389648</ele>
        <time>2015-02-03T14:03:42.000Z</time>
      </trkpt>
      <trkpt lat="48.78795" lon="2.18121">
        <ele>183.39999389648</ele>
        <time>2015-02-03T14:03:49.000Z</time>
      </trkpt>
      <trkpt lat="48.78796" lon="2.18118">
        <ele>183.39999389648</ele>
        <time>2015-02-03T14:03:51.000Z</time>
      </trkpt>
      <trkpt lat="48.78797" lon="2.18109">
        <ele>183</ele>
        <time>2015-02-03T14:03:57.000Z</time>
      </trkpt>
      <trkpt lat="48.78797" lon="2.18107">
        <ele>183</ele>
        <time>2015-02-03T14:03:58.000Z</time>
      </trkpt>
      <trkpt lat="48.78798" lon="2.181">
        <ele>183</ele>
        <time>2015-02-03T14:04:03.000Z</time>
      </trkpt>
      <trkpt lat="48.78799" lon="2.18098">
        <ele>183</ele>
        <time>2015-02-03T14:04:04.000Z</time>
      </trkpt>
      <trkpt lat="48.788" lon="2.18084">
        <ele>182.80000305176</ele>
        <time>2015-02-03T14:04:13.000Z</time>
      </trkpt>
      <trkpt lat="48.78802" lon="2.18069">
        <ele>182.60000610352</ele>
        <time>2015-02-03T14:04:22.000Z</time>
      </trkpt>
      <trkpt lat="48.78805" lon="2.18053">
        <ele>182.39999389648</ele>
        <time>2015-02-03T14:04:32.000Z</time>
      </trkpt>
      <trkpt lat="48.78807" lon="2.18044">
        <ele>182.39999389648</ele>
        <time>2015-02-03T14:04:37.000Z</time>
      </trkpt>
      <trkpt lat="48.78807" lon="2.18043">
        <ele>182.39999389648</ele>
        <time>2015-02-03T14:04:38.000Z</time>
      </trkpt>
      <trkpt lat="48.7881" lon="2.18032">
        <ele>182.19999694824</ele>
        <time>2015-02-03T14:04:45.000Z</time>
      </trkpt>
      <trkpt lat="48.78813" lon="2.18023">
        <ele>181.80000305176</ele>
        <time>2015-02-03T14:04:51.000Z</time>
      </trkpt>
      <trkpt lat="48.78817" lon="2.18012">
        <ele>181.39999389648</ele>
        <time>2015-02-03T14:04:58.000Z</time>
      </trkpt>
      <trkpt lat="48.7882" lon="2.18005">
        <ele>181.39999389648</ele>
        <time>2015-02-03T14:05:03.000Z</time>
      </trkpt>
      <trkpt lat="48.78823" lon="2.17998">
        <ele>181.19999694824</ele>
        <time>2015-02-03T14:05:08.000Z</time>
      </trkpt>
      <trkpt lat="48.78827" lon="2.17987">
        <ele>180.80000305176</ele>
        <time>2015-02-03T14:05:15.000Z</time>
      </trkpt>
      <trkpt lat="48.78831" lon="2.17978">
        <ele>180.39999389648</ele>
        <time>2015-02-03T14:05:22.000Z</time>
      </trkpt>
      <trkpt lat="48.78832" lon="2.17977">
        <ele>180.19999694824</ele>
        <time>2015-02-03T14:05:23.000Z</time>
      </trkpt>
      <trkpt lat="48.78834" lon="2.17972">
        <ele>180</ele>
        <time>2015-02-03T14:05:27.000Z</time>
      </trkpt>
      <trkpt lat="48.78835" lon="2.17967">
        <ele>179.80000305176</ele>
        <time>2015-02-03T14:05:30.000Z</time>
      </trkpt>
      <trkpt lat="48.78835" lon="2.17966">
        <ele>179.60000610352</ele>
        <time>2015-02-03T14:05:31.000Z</time>
      </trkpt>
      <trkpt lat="48.78836" lon="2.17955">
        <ele>179.39999389648</ele>
        <time>2015-02-03T14:05:38.000Z</time>
      </trkpt>
      <trkpt lat="48.78838" lon="2.17946">
        <ele>179.39999389648</ele>
        <time>2015-02-03T14:05:44.000Z</time>
      </trkpt>
      <trkpt lat="48.78839" lon="2.17944">
        <ele>179.19999694824</ele>
        <time>2015-02-03T14:05:45.000Z</time>
      </trkpt>
      <trkpt lat="48.78841" lon="2.17934">
        <ele>179.19999694824</ele>
        <time>2015-02-03T14:05:53.000Z</time>
      </trkpt>
      <trkpt lat="48.78841" lon="2.17934">
        <ele>179.19999694824</ele>
        <time>2015-02-03T14:05:59.000Z</time>
      </trkpt>
      <trkpt lat="48.78842" lon="2.17932">
        <ele>179.19999694824</ele>
        <time>2015-02-03T14:06:05.000Z</time>
      </trkpt>
      <trkpt lat="48.78841" lon="2.17931">
        <ele>179</ele>
        <time>2015-02-03T14:06:12.000Z</time>
      </trkpt>
      <trkpt lat="48.78841" lon="2.17925">
        <ele>179.19999694824</ele>
        <time>2015-02-03T14:06:19.000Z</time>
      </trkpt>
      <trkpt lat="48.78843" lon="2.17914">
        <ele>179</ele>
        <time>2015-02-03T14:06:26.000Z</time>
      </trkpt>
      <trkpt lat="48.78844" lon="2.17907">
        <ele>178.60000610352</ele>
        <time>2015-02-03T14:06:33.000Z</time>
      </trkpt>
      <trkpt lat="48.78845" lon="2.17904">
        <ele>178.80000305176</ele>
        <time>2015-02-03T14:06:40.000Z</time>
      </trkpt>
      <trkpt lat="48.78844" lon="2.17904">
        <ele>178.60000610352</ele>
        <time>2015-02-03T14:06:55.000Z</time>
      </trkpt>
      <trkpt lat="48.78844" lon="2.179">
        <ele>178.80000305176</ele>
        <time>2015-02-03T14:07:03.000Z</time>
      </trkpt>
      <trkpt lat="48.78843" lon="2.17896">
        <ele>179</ele>
        <time>2015-02-03T14:07:10.000Z</time>
      </trkpt>
      <trkpt lat="48.78843" lon="2.17892">
        <ele>179.19999694824</ele>
        <time>2015-02-03T14:07:14.000Z</time>
      </trkpt>
      <trkpt lat="48.78844" lon="2.17881">
        <ele>179.80000305176</ele>
        <time>2015-02-03T14:07:23.000Z</time>
      </trkpt>
      <trkpt lat="48.78849" lon="2.17871">
        <ele>180</ele>
        <time>2015-02-03T14:07:32.000Z</time>
      </trkpt>
      <trkpt lat="48.78852" lon="2.17861">
        <ele>180.19999694824</ele>
        <time>2015-02-03T14:07:40.000Z</time>
      </trkpt>
      <trkpt lat="48.78856" lon="2.17855">
        <ele>180.19999694824</ele>
        <time>2015-02-03T14:07:47.000Z</time>
      </trkpt>
      <trkpt lat="48.7886" lon="2.17848">
        <ele>180.39999389648</ele>
        <time>2015-02-03T14:07:54.000Z</time>
      </trkpt>
      <trkpt lat="48.78862" lon="2.17838">
        <ele>180.39999389648</ele>
        <time>2015-02-03T14:08:01.000Z</time>
      </trkpt>
      <trkpt lat="48.78862" lon="2.17834">
        <ele>180.60000610352</ele>
        <time>2015-02-03T14:08:04.000Z</time>
      </trkpt>
      <trkpt lat="48.78863" lon="2.1783">
        <ele>180.60000610352</ele>
        <time>2015-02-03T14:08:07.000Z</time>
      </trkpt>
      <trkpt lat="48.78867" lon="2.17823">
        <ele>180.60000610352</ele>
        <time>2015-02-03T14:08:14.000Z</time>
      </trkpt>
      <trkpt lat="48.78867" lon="2.17821">
        <ele>180.60000610352</ele>
        <time>2015-02-03T14:08:15.000Z</time>
      </trkpt>
      <trkpt lat="48.78868" lon="2.17818">
        <ele>180.60000610352</ele>
        <time>2015-02-03T14:08:17.000Z</time>
      </trkpt>
      <trkpt lat="48.7887" lon="2.17813">
        <ele>180.60000610352</ele>
        <time>2015-02-03T14:08:21.000Z</time>
      </trkpt>
      <trkpt lat="48.78873" lon="2.17805">
        <ele>180.80000305176</ele>
        <time>2015-02-03T14:08:27.000Z</time>
      </trkpt>
      <trkpt lat="48.78873" lon="2.17804">
        <ele>180.80000305176</ele>
        <time>2015-02-03T14:08:28.000Z</time>
      </trkpt>
      <trkpt lat="48.78874" lon="2.17801">
        <ele>180.80000305176</ele>
        <time>2015-02-03T14:08:31.000Z</time>
      </trkpt>
      <trkpt lat="48.78875" lon="2.17798">
        <ele>180.80000305176</ele>
        <time>2015-02-03T14:08:34.000Z</time>
      </trkpt>
      <trkpt lat="48.78876" lon="2.17792">
        <ele>181</ele>
        <time>2015-02-03T14:08:39.000Z</time>
      </trkpt>
      <trkpt lat="48.78877" lon="2.17784">
        <ele>181</ele>
        <time>2015-02-03T14:08:45.000Z</time>
      </trkpt>
      <trkpt lat="48.78878" lon="2.17782">
        <ele>181</ele>
        <time>2015-02-03T14:08:47.000Z</time>
      </trkpt>
      <trkpt lat="48.78881" lon="2.17775">
        <ele>181.19999694824</ele>
        <time>2015-02-03T14:08:53.000Z</time>
      </trkpt>
      <trkpt lat="48.78881" lon="2.17774">
        <ele>181.19999694824</ele>
        <time>2015-02-03T14:08:54.000Z</time>
      </trkpt>
      <trkpt lat="48.78883" lon="2.1777">
        <ele>181.19999694824</ele>
        <time>2015-02-03T14:08:58.000Z</time>
      </trkpt>
      <trkpt lat="48.78885" lon="2.17766">
        <ele>181.19999694824</ele>
        <time>2015-02-03T14:09:02.000Z</time>
      </trkpt>
      <trkpt lat="48.78887" lon="2.17757">
        <ele>181.39999389648</ele>
        <time>2015-02-03T14:09:09.000Z</time>
      </trkpt>
      <trkpt lat="48.78888" lon="2.17755">
        <ele>181.39999389648</ele>
        <time>2015-02-03T14:09:11.000Z</time>
      </trkpt>
      <trkpt lat="48.78888" lon="2.17753">
        <ele>181.39999389648</ele>
        <time>2015-02-03T14:09:12.000Z</time>
      </trkpt>
      <trkpt lat="48.78889" lon="2.17751">
        <ele>181.39999389648</ele>
        <time>2015-02-03T14:09:14.000Z</time>
      </trkpt>
      <trkpt lat="48.7889" lon="2.17748">
        <ele>181.39999389648</ele>
        <time>2015-02-03T14:09:16.000Z</time>
      </trkpt>
      <trkpt lat="48.78892" lon="2.17741">
        <ele>181.39999389648</ele>
        <time>2015-02-03T14:09:22.000Z</time>
      </trkpt>
      <trkpt lat="48.78893" lon="2.17737">
        <ele>181.39999389648</ele>
        <time>2015-02-03T14:09:27.000Z</time>
      </trkpt>
      <trkpt lat="48.78897" lon="2.17728">
        <ele>181.60000610352</ele>
        <time>2015-02-03T14:09:34.000Z</time>
      </trkpt>
      <trkpt lat="48.78897" lon="2.17727">
        <ele>181.60000610352</ele>
        <time>2015-02-03T14:09:35.000Z</time>
      </trkpt>
      <trkpt lat="48.78899" lon="2.17721">
        <ele>181.60000610352</ele>
        <time>2015-02-03T14:09:39.000Z</time>
      </trkpt>
      <trkpt lat="48.789" lon="2.1772">
        <ele>181.60000610352</ele>
        <time>2015-02-03T14:09:40.000Z</time>
      </trkpt>
      <trkpt lat="48.78901" lon="2.17717">
        <ele>181.80000305176</ele>
        <time>2015-02-03T14:09:43.000Z</time>
      </trkpt>
      <trkpt lat="48.78902" lon="2.17712">
        <ele>181.80000305176</ele>
        <time>2015-02-03T14:09:47.000Z</time>
      </trkpt>
      <trkpt lat="48.78905" lon="2.17706">
        <ele>181.80000305176</ele>
        <time>2015-02-03T14:09:53.000Z</time>
      </trkpt>
      <trkpt lat="48.78905" lon="2.17705">
        <ele>182</ele>
        <time>2015-02-03T14:09:54.000Z</time>
      </trkpt>
      <trkpt lat="48.78906" lon="2.17703">
        <ele>182</ele>
        <time>2015-02-03T14:09:56.000Z</time>
      </trkpt>
      <trkpt lat="48.78907" lon="2.177">
        <ele>182</ele>
        <time>2015-02-03T14:09:59.000Z</time>
      </trkpt>
      <trkpt lat="48.7891" lon="2.17692">
        <ele>182.19999694824</ele>
        <time>2015-02-03T14:10:06.000Z</time>
      </trkpt>
      <trkpt lat="48.78913" lon="2.17681">
        <ele>182.39999389648</ele>
        <time>2015-02-03T14:10:14.000Z</time>
      </trkpt>
      <trkpt lat="48.78913" lon="2.17679">
        <ele>182.39999389648</ele>
        <time>2015-02-03T14:10:15.000Z</time>
      </trkpt>
      <trkpt lat="48.78918" lon="2.17669">
        <ele>182.60000610352</ele>
        <time>2015-02-03T14:10:23.000Z</time>
      </trkpt>
      <trkpt lat="48.78921" lon="2.17664">
        <ele>182.60000610352</ele>
        <time>2015-02-03T14:10:28.000Z</time>
      </trkpt>
      <trkpt lat="48.78922" lon="2.1766">
        <ele>182.80000305176</ele>
        <time>2015-02-03T14:10:31.000Z</time>
      </trkpt>
      <trkpt lat="48.78923" lon="2.17657">
        <ele>182.80000305176</ele>
        <time>2015-02-03T14:10:33.000Z</time>
      </trkpt>
      <trkpt lat="48.78925" lon="2.17654">
        <ele>182.80000305176</ele>
        <time>2015-02-03T14:10:36.000Z</time>
      </trkpt>
      <trkpt lat="48.78926" lon="2.17651">
        <ele>183</ele>
        <time>2015-02-03T14:10:38.000Z</time>
      </trkpt>
      <trkpt lat="48.78926" lon="2.17647">
        <ele>183</ele>
        <time>2015-02-03T14:10:41.000Z</time>
      </trkpt>
      <trkpt lat="48.78926" lon="2.17645">
        <ele>183</ele>
        <time>2015-02-03T14:10:42.000Z</time>
      </trkpt>
      <trkpt lat="48.78929" lon="2.17637">
        <ele>183</ele>
        <time>2015-02-03T14:10:48.000Z</time>
      </trkpt>
      <trkpt lat="48.7893" lon="2.17631">
        <ele>183.19999694824</ele>
        <time>2015-02-03T14:10:52.000Z</time>
      </trkpt>
      <trkpt lat="48.78931" lon="2.17628">
        <ele>183.39999389648</ele>
        <time>2015-02-03T14:10:54.000Z</time>
      </trkpt>
      <trkpt lat="48.78931" lon="2.17625">
        <ele>183.39999389648</ele>
        <time>2015-02-03T14:10:56.000Z</time>
      </trkpt>
      <trkpt lat="48.78932" lon="2.17612">
        <ele>183.39999389648</ele>
        <time>2015-02-03T14:11:04.000Z</time>
      </trkpt>
      <trkpt lat="48.78932" lon="2.17607">
        <ele>183.19999694824</ele>
        <time>2015-02-03T14:11:08.000Z</time>
      </trkpt>
      <trkpt lat="48.78934" lon="2.17601">
        <ele>183.19999694824</ele>
        <time>2015-02-03T14:11:13.000Z</time>
      </trkpt>
      <trkpt lat="48.78937" lon="2.17594">
        <ele>183.19999694824</ele>
        <time>2015-02-03T14:11:19.000Z</time>
      </trkpt>
      <trkpt lat="48.7894" lon="2.17587">
        <ele>183.39999389648</ele>
        <time>2015-02-03T14:11:25.000Z</time>
      </trkpt>
      <trkpt lat="48.78941" lon="2.17585">
        <ele>183.39999389648</ele>
        <time>2015-02-03T14:11:27.000Z</time>
      </trkpt>
      <trkpt lat="48.78944" lon="2.17578">
        <ele>183.19999694824</ele>
        <time>2015-02-03T14:11:33.000Z</time>
      </trkpt>
      <trkpt lat="48.78948" lon="2.17568">
        <ele>183.19999694824</ele>
        <time>2015-02-03T14:11:40.000Z</time>
      </trkpt>
      <trkpt lat="48.78948" lon="2.17567">
        <ele>183.19999694824</ele>
        <time>2015-02-03T14:11:41.000Z</time>
      </trkpt>
      <trkpt lat="48.7895" lon="2.17562">
        <ele>183.19999694824</ele>
        <time>2015-02-03T14:11:45.000Z</time>
      </trkpt>
      <trkpt lat="48.78955" lon="2.17554">
        <ele>183.19999694824</ele>
        <time>2015-02-03T14:11:52.000Z</time>
      </trkpt>
      <trkpt lat="48.78956" lon="2.17552">
        <ele>183.19999694824</ele>
        <time>2015-02-03T14:11:59.000Z</time>
      </trkpt>
      <trkpt lat="48.78957" lon="2.17552">
        <ele>183</ele>
        <time>2015-02-03T14:12:06.000Z</time>
      </trkpt>
      <trkpt lat="48.78956" lon="2.17551">
        <ele>183.39999389648</ele>
        <time>2015-02-03T14:12:13.000Z</time>
      </trkpt>
      <trkpt lat="48.78962" lon="2.17543">
        <ele>183.39999389648</ele>
        <time>2015-02-03T14:12:19.000Z</time>
      </trkpt>
      <trkpt lat="48.78965" lon="2.17537">
        <ele>183.19999694824</ele>
        <time>2015-02-03T14:12:25.000Z</time>
      </trkpt>
      <trkpt lat="48.7897" lon="2.17532">
        <ele>183</ele>
        <time>2015-02-03T14:12:30.000Z</time>
      </trkpt>
      <trkpt lat="48.78971" lon="2.17531">
        <ele>183.19999694824</ele>
        <time>2015-02-03T14:12:31.000Z</time>
      </trkpt>
      <trkpt lat="48.78975" lon="2.17526">
        <ele>183</ele>
        <time>2015-02-03T14:12:36.000Z</time>
      </trkpt>
      <trkpt lat="48.78976" lon="2.17525">
        <ele>183</ele>
        <time>2015-02-03T14:12:37.000Z</time>
      </trkpt>
      <trkpt lat="48.78979" lon="2.17521">
        <ele>183</ele>
        <time>2015-02-03T14:12:41.000Z</time>
      </trkpt>
      <trkpt lat="48.78982" lon="2.17518">
        <ele>182.80000305176</ele>
        <time>2015-02-03T14:12:44.000Z</time>
      </trkpt>
      <trkpt lat="48.78982" lon="2.17517">
        <ele>182.80000305176</ele>
        <time>2015-02-03T14:12:45.000Z</time>
      </trkpt>
      <trkpt lat="48.78986" lon="2.17514">
        <ele>182.80000305176</ele>
        <time>2015-02-03T14:12:49.000Z</time>
      </trkpt>
      <trkpt lat="48.78988" lon="2.17513">
        <ele>182.80000305176</ele>
        <time>2015-02-03T14:12:50.000Z</time>
      </trkpt>
      <trkpt lat="48.78988" lon="2.17512">
        <ele>182.60000610352</ele>
        <time>2015-02-03T14:12:51.000Z</time>
      </trkpt>
      <trkpt lat="48.78991" lon="2.17508">
        <ele>182.60000610352</ele>
        <time>2015-02-03T14:12:54.000Z</time>
      </trkpt>
      <trkpt lat="48.78992" lon="2.17507">
        <ele>182.39999389648</ele>
        <time>2015-02-03T14:12:55.000Z</time>
      </trkpt>
      <trkpt lat="48.78993" lon="2.17505">
        <ele>182.39999389648</ele>
        <time>2015-02-03T14:12:57.000Z</time>
      </trkpt>
      <trkpt lat="48.78996" lon="2.17502">
        <ele>182.39999389648</ele>
        <time>2015-02-03T14:13:00.000Z</time>
      </trkpt>
      <trkpt lat="48.78997" lon="2.175">
        <ele>182.39999389648</ele>
        <time>2015-02-03T14:13:02.000Z</time>
      </trkpt>
      <trkpt lat="48.79002" lon="2.17494">
        <ele>182.19999694824</ele>
        <time>2015-02-03T14:13:08.000Z</time>
      </trkpt>
      <trkpt lat="48.79007" lon="2.17488">
        <ele>182</ele>
        <time>2015-02-03T14:13:14.000Z</time>
      </trkpt>
      <trkpt lat="48.79009" lon="2.17487">
        <ele>182</ele>
        <time>2015-02-03T14:13:16.000Z</time>
      </trkpt>
      <trkpt lat="48.79013" lon="2.17483">
        <ele>182</ele>
        <time>2015-02-03T14:13:20.000Z</time>
      </trkpt>
      <trkpt lat="48.79014" lon="2.1748">
        <ele>182</ele>
        <time>2015-02-03T14:13:22.000Z</time>
      </trkpt>
      <trkpt lat="48.79016" lon="2.17475">
        <ele>181.80000305176</ele>
        <time>2015-02-03T14:13:26.000Z</time>
      </trkpt>
      <trkpt lat="48.79017" lon="2.17473">
        <ele>181.80000305176</ele>
        <time>2015-02-03T14:13:28.000Z</time>
      </trkpt>
      <trkpt lat="48.79017" lon="2.17471">
        <ele>181.80000305176</ele>
        <time>2015-02-03T14:13:29.000Z</time>
      </trkpt>
      <trkpt lat="48.79018" lon="2.17469">
        <ele>181.80000305176</ele>
        <time>2015-02-03T14:13:31.000Z</time>
      </trkpt>
      <trkpt lat="48.7902" lon="2.17465">
        <ele>181.60000610352</ele>
        <time>2015-02-03T14:13:34.000Z</time>
      </trkpt>
      <trkpt lat="48.79023" lon="2.17462">
        <ele>181.60000610352</ele>
        <time>2015-02-03T14:13:37.000Z</time>
      </trkpt>
      <trkpt lat="48.79025" lon="2.17454">
        <ele>181.80000305176</ele>
        <time>2015-02-03T14:13:43.000Z</time>
      </trkpt>
      <trkpt lat="48.79028" lon="2.17445">
        <ele>181.80000305176</ele>
        <time>2015-02-03T14:13:50.000Z</time>
      </trkpt>
      <trkpt lat="48.79031" lon="2.17437">
        <ele>181.60000610352</ele>
        <time>2015-02-03T14:13:56.000Z</time>
      </trkpt>
      <trkpt lat="48.79032" lon="2.17431">
        <ele>181.60000610352</ele>
        <time>2015-02-03T14:13:59.000Z</time>
      </trkpt>
      <trkpt lat="48.79032" lon="2.17429">
        <ele>181.60000610352</ele>
        <time>2015-02-03T14:14:00.000Z</time>
      </trkpt>
      <trkpt lat="48.79032" lon="2.17428">
        <ele>181.60000610352</ele>
        <time>2015-02-03T14:14:01.000Z</time>
      </trkpt>
      <trkpt lat="48.79032" lon="2.17427">
        <ele>181.60000610352</ele>
        <time>2015-02-03T14:14:02.000Z</time>
      </trkpt>
      <trkpt lat="48.79034" lon="2.17417">
        <ele>181.39999389648</ele>
        <time>2015-02-03T14:14:08.000Z</time>
      </trkpt>
      <trkpt lat="48.79034" lon="2.17415">
        <ele>181.39999389648</ele>
        <time>2015-02-03T14:14:09.000Z</time>
      </trkpt>
      <trkpt lat="48.79035" lon="2.17414">
        <ele>181.39999389648</ele>
        <time>2015-02-03T14:14:10.000Z</time>
      </trkpt>
      <trkpt lat="48.79038" lon="2.17408">
        <ele>181.39999389648</ele>
        <time>2015-02-03T14:14:14.000Z</time>
      </trkpt>
      <trkpt lat="48.79038" lon="2.17405">
        <ele>181.19999694824</ele>
        <time>2015-02-03T14:14:16.000Z</time>
      </trkpt>
      <trkpt lat="48.7904" lon="2.174">
        <ele>181.19999694824</ele>
        <time>2015-02-03T14:14:19.000Z</time>
      </trkpt>
      <trkpt lat="48.79042" lon="2.17395">
        <ele>181.19999694824</ele>
        <time>2015-02-03T14:14:22.000Z</time>
      </trkpt>
      <trkpt lat="48.79042" lon="2.17394">
        <ele>181</ele>
        <time>2015-02-03T14:14:23.000Z</time>
      </trkpt>
      <trkpt lat="48.79043" lon="2.17389">
        <ele>181</ele>
        <time>2015-02-03T14:14:26.000Z</time>
      </trkpt>
      <trkpt lat="48.79047" lon="2.17381">
        <ele>180.80000305176</ele>
        <time>2015-02-03T14:14:31.000Z</time>
      </trkpt>
      <trkpt lat="48.79047" lon="2.17375">
        <ele>181</ele>
        <time>2015-02-03T14:14:35.000Z</time>
      </trkpt>
      <trkpt lat="48.79049" lon="2.17366">
        <ele>180.60000610352</ele>
        <time>2015-02-03T14:14:41.000Z</time>
      </trkpt>
      <trkpt lat="48.79051" lon="2.17359">
        <ele>180.60000610352</ele>
        <time>2015-02-03T14:14:45.000Z</time>
      </trkpt>
      <trkpt lat="48.79051" lon="2.17357">
        <ele>180.60000610352</ele>
        <time>2015-02-03T14:14:47.000Z</time>
      </trkpt>
      <trkpt lat="48.79052" lon="2.17354">
        <ele>180.60000610352</ele>
        <time>2015-02-03T14:14:49.000Z</time>
      </trkpt>
      <trkpt lat="48.79055" lon="2.17349">
        <ele>180.60000610352</ele>
        <time>2015-02-03T14:14:52.000Z</time>
      </trkpt>
      <trkpt lat="48.79058" lon="2.17341">
        <ele>180.39999389648</ele>
        <time>2015-02-03T14:14:57.000Z</time>
      </trkpt>
      <trkpt lat="48.79059" lon="2.17338">
        <ele>180.39999389648</ele>
        <time>2015-02-03T14:14:59.000Z</time>
      </trkpt>
      <trkpt lat="48.7906" lon="2.17336">
        <ele>180.39999389648</ele>
        <time>2015-02-03T14:15:00.000Z</time>
      </trkpt>
      <trkpt lat="48.79063" lon="2.17333">
        <ele>180.39999389648</ele>
        <time>2015-02-03T14:15:02.000Z</time>
      </trkpt>
      <trkpt lat="48.79067" lon="2.17328">
        <ele>180.19999694824</ele>
        <time>2015-02-03T14:15:06.000Z</time>
      </trkpt>
      <trkpt lat="48.79069" lon="2.17319">
        <ele>180</ele>
        <time>2015-02-03T14:15:12.000Z</time>
      </trkpt>
      <trkpt lat="48.7907" lon="2.17317">
        <ele>180</ele>
        <time>2015-02-03T14:15:13.000Z</time>
      </trkpt>
      <trkpt lat="48.79072" lon="2.17311">
        <ele>180</ele>
        <time>2015-02-03T14:15:17.000Z</time>
      </trkpt>
      <trkpt lat="48.79072" lon="2.17308">
        <ele>179.80000305176</ele>
        <time>2015-02-03T14:15:19.000Z</time>
      </trkpt>
      <trkpt lat="48.79072" lon="2.17306">
        <ele>179.80000305176</ele>
        <time>2015-02-03T14:15:20.000Z</time>
      </trkpt>
      <trkpt lat="48.79072" lon="2.173">
        <ele>180</ele>
        <time>2015-02-03T14:15:23.000Z</time>
      </trkpt>
      <trkpt lat="48.79072" lon="2.17292">
        <ele>179.80000305176</ele>
        <time>2015-02-03T14:15:28.000Z</time>
      </trkpt>
      <trkpt lat="48.79074" lon="2.17283">
        <ele>179.80000305176</ele>
        <time>2015-02-03T14:15:33.000Z</time>
      </trkpt>
      <trkpt lat="48.79075" lon="2.17279">
        <ele>179.80000305176</ele>
        <time>2015-02-03T14:15:35.000Z</time>
      </trkpt>
      <trkpt lat="48.79075" lon="2.17278">
        <ele>179.80000305176</ele>
        <time>2015-02-03T14:15:36.000Z</time>
      </trkpt>
      <trkpt lat="48.79076" lon="2.17275">
        <ele>179.80000305176</ele>
        <time>2015-02-03T14:15:38.000Z</time>
      </trkpt>
      <trkpt lat="48.79076" lon="2.17273">
        <ele>179.80000305176</ele>
        <time>2015-02-03T14:15:39.000Z</time>
      </trkpt>
      <trkpt lat="48.7908" lon="2.17262">
        <ele>179.60000610352</ele>
        <time>2015-02-03T14:15:46.000Z</time>
      </trkpt>
      <trkpt lat="48.7908" lon="2.17261">
        <ele>179.60000610352</ele>
        <time>2015-02-03T14:15:47.000Z</time>
      </trkpt>
      <trkpt lat="48.79083" lon="2.17255">
        <ele>179.60000610352</ele>
        <time>2015-02-03T14:15:52.000Z</time>
      </trkpt>
      <trkpt lat="48.79083" lon="2.17253">
        <ele>179.60000610352</ele>
        <time>2015-02-03T14:15:53.000Z</time>
      </trkpt>
      <trkpt lat="48.79085" lon="2.17246">
        <ele>179.60000610352</ele>
        <time>2015-02-03T14:15:57.000Z</time>
      </trkpt>
      <trkpt lat="48.79086" lon="2.17243">
        <ele>179.60000610352</ele>
        <time>2015-02-03T14:15:59.000Z</time>
      </trkpt>
      <trkpt lat="48.79087" lon="2.1724">
        <ele>179.60000610352</ele>
        <time>2015-02-03T14:16:01.000Z</time>
      </trkpt>
      <trkpt lat="48.79087" lon="2.17235">
        <ele>179.60000610352</ele>
        <time>2015-02-03T14:16:04.000Z</time>
      </trkpt>
      <trkpt lat="48.79088" lon="2.17231">
        <ele>179.60000610352</ele>
        <time>2015-02-03T14:16:06.000Z</time>
      </trkpt>
      <trkpt lat="48.7909" lon="2.17222">
        <ele>179.39999389648</ele>
        <time>2015-02-03T14:16:12.000Z</time>
      </trkpt>
      <trkpt lat="48.79091" lon="2.17215">
        <ele>179.39999389648</ele>
        <time>2015-02-03T14:16:16.000Z</time>
      </trkpt>
      <trkpt lat="48.79092" lon="2.17212">
        <ele>179.39999389648</ele>
        <time>2015-02-03T14:16:18.000Z</time>
      </trkpt>
      <trkpt lat="48.79093" lon="2.17204">
        <ele>179.39999389648</ele>
        <time>2015-02-03T14:16:24.000Z</time>
      </trkpt>
      <trkpt lat="48.79096" lon="2.17198">
        <ele>179.19999694824</ele>
        <time>2015-02-03T14:16:30.000Z</time>
      </trkpt>
      <trkpt lat="48.79097" lon="2.17195">
        <ele>179.19999694824</ele>
        <time>2015-02-03T14:16:32.000Z</time>
      </trkpt>
      <trkpt lat="48.79099" lon="2.17189">
        <ele>179.19999694824</ele>
        <time>2015-02-03T14:16:36.000Z</time>
      </trkpt>
      <trkpt lat="48.791" lon="2.17185">
        <ele>179.19999694824</ele>
        <time>2015-02-03T14:16:39.000Z</time>
      </trkpt>
      <trkpt lat="48.79101" lon="2.17181">
        <ele>179.39999389648</ele>
        <time>2015-02-03T14:16:42.000Z</time>
      </trkpt>
      <trkpt lat="48.79101" lon="2.17178">
        <ele>179.19999694824</ele>
        <time>2015-02-03T14:16:44.000Z</time>
      </trkpt>
      <trkpt lat="48.79102" lon="2.17172">
        <ele>179.19999694824</ele>
        <time>2015-02-03T14:16:48.000Z</time>
      </trkpt>
      <trkpt lat="48.79102" lon="2.1717">
        <ele>179.19999694824</ele>
        <time>2015-02-03T14:16:50.000Z</time>
      </trkpt>
      <trkpt lat="48.79103" lon="2.17164">
        <ele>179</ele>
        <time>2015-02-03T14:16:56.000Z</time>
      </trkpt>
      <trkpt lat="48.79104" lon="2.17158">
        <ele>179</ele>
        <time>2015-02-03T14:17:02.000Z</time>
      </trkpt>
      <trkpt lat="48.79105" lon="2.17152">
        <ele>179</ele>
        <time>2015-02-03T14:17:07.000Z</time>
      </trkpt>
      <trkpt lat="48.79108" lon="2.17148">
        <ele>179</ele>
        <time>2015-02-03T14:17:13.000Z</time>
      </trkpt>
      <trkpt lat="48.79109" lon="2.17145">
        <ele>179</ele>
        <time>2015-02-03T14:17:14.000Z</time>
      </trkpt>
      <trkpt lat="48.7911" lon="2.17139">
        <ele>179</ele>
        <time>2015-02-03T14:17:18.000Z</time>
      </trkpt>
      <trkpt lat="48.7911" lon="2.17138">
        <ele>179.19999694824</ele>
        <time>2015-02-03T14:17:19.000Z</time>
      </trkpt>
      <trkpt lat="48.79111" lon="2.17133">
        <ele>179.19999694824</ele>
        <time>2015-02-03T14:17:22.000Z</time>
      </trkpt>
      <trkpt lat="48.79113" lon="2.17128">
        <ele>179.19999694824</ele>
        <time>2015-02-03T14:17:25.000Z</time>
      </trkpt>
      <trkpt lat="48.79114" lon="2.17122">
        <ele>179.19999694824</ele>
        <time>2015-02-03T14:17:29.000Z</time>
      </trkpt>
      <trkpt lat="48.79115" lon="2.17118">
        <ele>179</ele>
        <time>2015-02-03T14:17:32.000Z</time>
      </trkpt>
      <trkpt lat="48.79116" lon="2.1711">
        <ele>179</ele>
        <time>2015-02-03T14:17:38.000Z</time>
      </trkpt>
      <trkpt lat="48.79116" lon="2.17108">
        <ele>179</ele>
        <time>2015-02-03T14:17:39.000Z</time>
      </trkpt>
      <trkpt lat="48.79116" lon="2.17106">
        <ele>179</ele>
        <time>2015-02-03T14:17:41.000Z</time>
      </trkpt>
      <trkpt lat="48.79118" lon="2.17103">
        <ele>178.80000305176</ele>
        <time>2015-02-03T14:17:43.000Z</time>
      </trkpt>
      <trkpt lat="48.79119" lon="2.171">
        <ele>178.80000305176</ele>
        <time>2015-02-03T14:17:45.000Z</time>
      </trkpt>
      <trkpt lat="48.79119" lon="2.17097">
        <ele>178.80000305176</ele>
        <time>2015-02-03T14:17:47.000Z</time>
      </trkpt>
      <trkpt lat="48.79121" lon="2.17095">
        <ele>178.80000305176</ele>
        <time>2015-02-03T14:17:50.000Z</time>
      </trkpt>
      <trkpt lat="48.79122" lon="2.17092">
        <ele>178.80000305176</ele>
        <time>2015-02-03T14:17:53.000Z</time>
      </trkpt>
      <trkpt lat="48.79125" lon="2.17086">
        <ele>179</ele>
        <time>2015-02-03T14:17:58.000Z</time>
      </trkpt>
      <trkpt lat="48.79126" lon="2.17085">
        <ele>178.80000305176</ele>
        <time>2015-02-03T14:17:59.000Z</time>
      </trkpt>
      <trkpt lat="48.79127" lon="2.17078">
        <ele>178.80000305176</ele>
        <time>2015-02-03T14:18:04.000Z</time>
      </trkpt>
      <trkpt lat="48.79128" lon="2.17077">
        <ele>178.80000305176</ele>
        <time>2015-02-03T14:18:05.000Z</time>
      </trkpt>
      <trkpt lat="48.79129" lon="2.17069">
        <ele>178.80000305176</ele>
        <time>2015-02-03T14:18:10.000Z</time>
      </trkpt>
      <trkpt lat="48.79131" lon="2.17063">
        <ele>179</ele>
        <time>2015-02-03T14:18:15.000Z</time>
      </trkpt>
      <trkpt lat="48.79132" lon="2.17055">
        <ele>179</ele>
        <time>2015-02-03T14:18:21.000Z</time>
      </trkpt>
      <trkpt lat="48.79135" lon="2.17047">
        <ele>179</ele>
        <time>2015-02-03T14:18:28.000Z</time>
      </trkpt>
      <trkpt lat="48.79137" lon="2.17041">
        <ele>179.19999694824</ele>
        <time>2015-02-03T14:18:33.000Z</time>
      </trkpt>
      <trkpt lat="48.79138" lon="2.17035">
        <ele>179.39999389648</ele>
        <time>2015-02-03T14:18:38.000Z</time>
      </trkpt>
      <trkpt lat="48.79139" lon="2.17033">
        <ele>179.39999389648</ele>
        <time>2015-02-03T14:18:40.000Z</time>
      </trkpt>
      <trkpt lat="48.79139" lon="2.17032">
        <ele>179.39999389648</ele>
        <time>2015-02-03T14:18:41.000Z</time>
      </trkpt>
      <trkpt lat="48.79139" lon="2.17028">
        <ele>179.39999389648</ele>
        <time>2015-02-03T14:18:45.000Z</time>
      </trkpt>
      <trkpt lat="48.7914" lon="2.17025">
        <ele>179.39999389648</ele>
        <time>2015-02-03T14:18:54.000Z</time>
      </trkpt>
      <trkpt lat="48.79139" lon="2.1702">
        <ele>179.39999389648</ele>
        <time>2015-02-03T14:19:04.000Z</time>
      </trkpt>
      <trkpt lat="48.79139" lon="2.17014">
        <ele>179.39999389648</ele>
        <time>2015-02-03T14:19:10.000Z</time>
      </trkpt>
      <trkpt lat="48.79138" lon="2.17006">
        <ele>179.60000610352</ele>
        <time>2015-02-03T14:19:17.000Z</time>
      </trkpt>
      <trkpt lat="48.79139" lon="2.17003">
        <ele>179.39999389648</ele>
        <time>2015-02-03T14:19:22.000Z</time>
      </trkpt>
      <trkpt lat="48.79139" lon="2.16996">
        <ele>179.80000305176</ele>
        <time>2015-02-03T14:19:29.000Z</time>
      </trkpt>
      <trkpt lat="48.79138" lon="2.1699">
        <ele>179.80000305176</ele>
        <time>2015-02-03T14:19:37.000Z</time>
      </trkpt>
      <trkpt lat="48.79138" lon="2.16984">
        <ele>179.80000305176</ele>
        <time>2015-02-03T14:19:43.000Z</time>
      </trkpt>
      <trkpt lat="48.79136" lon="2.16979">
        <ele>179.80000305176</ele>
        <time>2015-02-03T14:19:48.000Z</time>
      </trkpt>
      <trkpt lat="48.79136" lon="2.16973">
        <ele>180</ele>
        <time>2015-02-03T14:19:55.000Z</time>
      </trkpt>
      <trkpt lat="48.79136" lon="2.16966">
        <ele>179.80000305176</ele>
        <time>2015-02-03T14:20:02.000Z</time>
      </trkpt>
      <trkpt lat="48.79136" lon="2.16962">
        <ele>180</ele>
        <time>2015-02-03T14:20:07.000Z</time>
      </trkpt>
      <trkpt lat="48.79135" lon="2.16954">
        <ele>180</ele>
        <time>2015-02-03T14:20:15.000Z</time>
      </trkpt>
      <trkpt lat="48.79134" lon="2.16947">
        <ele>180</ele>
        <time>2015-02-03T14:20:20.000Z</time>
      </trkpt>
      <trkpt lat="48.79134" lon="2.16945">
        <ele>180</ele>
        <time>2015-02-03T14:20:21.000Z</time>
      </trkpt>
      <trkpt lat="48.79133" lon="2.16939">
        <ele>180</ele>
        <time>2015-02-03T14:20:25.000Z</time>
      </trkpt>
      <trkpt lat="48.79133" lon="2.16939">
        <ele>180</ele>
        <time>2015-02-03T14:20:26.000Z</time>
      </trkpt>
      <trkpt lat="48.7913" lon="2.1693">
        <ele>180</ele>
        <time>2015-02-03T14:20:31.000Z</time>
      </trkpt>
      <trkpt lat="48.79126" lon="2.16919">
        <ele>180</ele>
        <time>2015-02-03T14:20:38.000Z</time>
      </trkpt>
      <trkpt lat="48.79125" lon="2.16918">
        <ele>180</ele>
        <time>2015-02-03T14:20:39.000Z</time>
      </trkpt>
      <trkpt lat="48.79124" lon="2.16908">
        <ele>180</ele>
        <time>2015-02-03T14:20:45.000Z</time>
      </trkpt>
      <trkpt lat="48.79122" lon="2.16905">
        <ele>179.80000305176</ele>
        <time>2015-02-03T14:20:48.000Z</time>
      </trkpt>
      <trkpt lat="48.7912" lon="2.169">
        <ele>179.60000610352</ele>
        <time>2015-02-03T14:20:51.000Z</time>
      </trkpt>
      <trkpt lat="48.79116" lon="2.1689">
        <ele>179.60000610352</ele>
        <time>2015-02-03T14:20:58.000Z</time>
      </trkpt>
      <trkpt lat="48.79115" lon="2.16885">
        <ele>179.19999694824</ele>
        <time>2015-02-03T14:21:02.000Z</time>
      </trkpt>
      <trkpt lat="48.79114" lon="2.16884">
        <ele>179.19999694824</ele>
        <time>2015-02-03T14:21:03.000Z</time>
      </trkpt>
      <trkpt lat="48.7911" lon="2.16871">
        <ele>178.60000610352</ele>
        <time>2015-02-03T14:21:11.000Z</time>
      </trkpt>
      <trkpt lat="48.79109" lon="2.16867">
        <ele>178.39999389648</ele>
        <time>2015-02-03T14:21:15.000Z</time>
      </trkpt>
      <trkpt lat="48.79107" lon="2.16861">
        <ele>178.19999694824</ele>
        <time>2015-02-03T14:21:20.000Z</time>
      </trkpt>
      <trkpt lat="48.79104" lon="2.16855">
        <ele>177.80000305176</ele>
        <time>2015-02-03T14:21:27.000Z</time>
      </trkpt>
      <trkpt lat="48.79102" lon="2.16848">
        <ele>177.80000305176</ele>
        <time>2015-02-03T14:21:34.000Z</time>
      </trkpt>
      <trkpt lat="48.79101" lon="2.16844">
        <ele>177.80000305176</ele>
        <time>2015-02-03T14:21:41.000Z</time>
      </trkpt>
      <trkpt lat="48.79101" lon="2.16841">
        <ele>177.39999389648</ele>
        <time>2015-02-03T14:21:47.000Z</time>
      </trkpt>
      <trkpt lat="48.79101" lon="2.16834">
        <ele>176.19999694824</ele>
        <time>2015-02-03T14:21:54.000Z</time>
      </trkpt>
      <trkpt lat="48.79101" lon="2.16832">
        <ele>176</ele>
        <time>2015-02-03T14:21:56.000Z</time>
      </trkpt>
      <trkpt lat="48.79102" lon="2.16826">
        <ele>175.19999694824</ele>
        <time>2015-02-03T14:22:01.000Z</time>
      </trkpt>
      <trkpt lat="48.79101" lon="2.16824">
        <ele>174.80000305176</ele>
        <time>2015-02-03T14:22:03.000Z</time>
      </trkpt>
      <trkpt lat="48.79103" lon="2.16819">
        <ele>174.39999389648</ele>
        <time>2015-02-03T14:22:07.000Z</time>
      </trkpt>
      <trkpt lat="48.79105" lon="2.16816">
        <ele>174</ele>
        <time>2015-02-03T14:22:09.000Z</time>
      </trkpt>
      <trkpt lat="48.79107" lon="2.16808">
        <ele>173.19999694824</ele>
        <time>2015-02-03T14:22:16.000Z</time>
      </trkpt>
      <trkpt lat="48.79107" lon="2.16807">
        <ele>173</ele>
        <time>2015-02-03T14:22:17.000Z</time>
      </trkpt>
      <trkpt lat="48.79107" lon="2.16806">
        <ele>172.80000305176</ele>
        <time>2015-02-03T14:22:18.000Z</time>
      </trkpt>
      <trkpt lat="48.79109" lon="2.16801">
        <ele>172.19999694824</ele>
        <time>2015-02-03T14:22:23.000Z</time>
      </trkpt>
      <trkpt lat="48.7911" lon="2.168">
        <ele>172</ele>
        <time>2015-02-03T14:22:24.000Z</time>
      </trkpt>
      <trkpt lat="48.7911" lon="2.16798">
        <ele>171.80000305176</ele>
        <time>2015-02-03T14:22:26.000Z</time>
      </trkpt>
      <trkpt lat="48.79111" lon="2.16795">
        <ele>171.60000610352</ele>
        <time>2015-02-03T14:22:28.000Z</time>
      </trkpt>
      <trkpt lat="48.79111" lon="2.16794">
        <ele>171.60000610352</ele>
        <time>2015-02-03T14:22:29.000Z</time>
      </trkpt>
      <trkpt lat="48.79112" lon="2.1679">
        <ele>171.19999694824</ele>
        <time>2015-02-03T14:22:33.000Z</time>
      </trkpt>
      <trkpt lat="48.79112" lon="2.16788">
        <ele>171</ele>
        <time>2015-02-03T14:22:35.000Z</time>
      </trkpt>
      <trkpt lat="48.79112" lon="2.16787">
        <ele>170.80000305176</ele>
        <time>2015-02-03T14:22:36.000Z</time>
      </trkpt>
      <trkpt lat="48.79112" lon="2.16781">
        <ele>170</ele>
        <time>2015-02-03T14:22:41.000Z</time>
      </trkpt>
      <trkpt lat="48.79111" lon="2.16777">
        <ele>169.80000305176</ele>
        <time>2015-02-03T14:22:44.000Z</time>
      </trkpt>
      <trkpt lat="48.79111" lon="2.16771">
        <ele>169.39999389648</ele>
        <time>2015-02-03T14:22:49.000Z</time>
      </trkpt>
      <trkpt lat="48.79111" lon="2.1677">
        <ele>169.19999694824</ele>
        <time>2015-02-03T14:22:50.000Z</time>
      </trkpt>
      <trkpt lat="48.79111" lon="2.16769">
        <ele>169.19999694824</ele>
        <time>2015-02-03T14:22:51.000Z</time>
      </trkpt>
      <trkpt lat="48.7911" lon="2.16765">
        <ele>168.60000610352</ele>
        <time>2015-02-03T14:22:55.000Z</time>
      </trkpt>
      <trkpt lat="48.79111" lon="2.16764">
        <ele>168.60000610352</ele>
        <time>2015-02-03T14:22:56.000Z</time>
      </trkpt>
      <trkpt lat="48.79109" lon="2.16758">
        <ele>168</ele>
        <time>2015-02-03T14:23:01.000Z</time>
      </trkpt>
      <trkpt lat="48.79108" lon="2.16756">
        <ele>167.80000305176</ele>
        <time>2015-02-03T14:23:02.000Z</time>
      </trkpt>
      <trkpt lat="48.79108" lon="2.16752">
        <ele>167.60000610352</ele>
        <time>2015-02-03T14:23:05.000Z</time>
      </trkpt>
      <trkpt lat="48.79107" lon="2.16748">
        <ele>167.39999389648</ele>
        <time>2015-02-03T14:23:08.000Z</time>
      </trkpt>
      <trkpt lat="48.79107" lon="2.16743">
        <ele>166.60000610352</ele>
        <time>2015-02-03T14:23:13.000Z</time>
      </trkpt>
      <trkpt lat="48.79107" lon="2.16741">
        <ele>166.39999389648</ele>
        <time>2015-02-03T14:23:14.000Z</time>
      </trkpt>
      <trkpt lat="48.79107" lon="2.16734">
        <ele>165.60000610352</ele>
        <time>2015-02-03T14:23:20.000Z</time>
      </trkpt>
      <trkpt lat="48.79107" lon="2.16733">
        <ele>165.60000610352</ele>
        <time>2015-02-03T14:23:21.000Z</time>
      </trkpt>
      <trkpt lat="48.79106" lon="2.16726">
        <ele>165</ele>
        <time>2015-02-03T14:23:26.000Z</time>
      </trkpt>
      <trkpt lat="48.79106" lon="2.16725">
        <ele>165</ele>
        <time>2015-02-03T14:23:27.000Z</time>
      </trkpt>
      <trkpt lat="48.79105" lon="2.16722">
        <ele>164.60000610352</ele>
        <time>2015-02-03T14:23:30.000Z</time>
      </trkpt>
      <trkpt lat="48.79105" lon="2.1672">
        <ele>164.39999389648</ele>
        <time>2015-02-03T14:23:31.000Z</time>
      </trkpt>
      <trkpt lat="48.79105" lon="2.16717">
        <ele>163.80000305176</ele>
        <time>2015-02-03T14:23:34.000Z</time>
      </trkpt>
      <trkpt lat="48.79106" lon="2.16714">
        <ele>163.39999389648</ele>
        <time>2015-02-03T14:23:36.000Z</time>
      </trkpt>
      <trkpt lat="48.79106" lon="2.16711">
        <ele>163</ele>
        <time>2015-02-03T14:23:39.000Z</time>
      </trkpt>
      <trkpt lat="48.79106" lon="2.16709">
        <ele>162.80000305176</ele>
        <time>2015-02-03T14:23:40.000Z</time>
      </trkpt>
      <trkpt lat="48.79105" lon="2.16707">
        <ele>162.39999389648</ele>
        <time>2015-02-03T14:23:42.000Z</time>
      </trkpt>
      <trkpt lat="48.79106" lon="2.16697">
        <ele>161.39999389648</ele>
        <time>2015-02-03T14:23:49.000Z</time>
      </trkpt>
      <trkpt lat="48.79106" lon="2.16696">
        <ele>161.39999389648</ele>
        <time>2015-02-03T14:23:50.000Z</time>
      </trkpt>
      <trkpt lat="48.79105" lon="2.16691">
        <ele>161.19999694824</ele>
        <time>2015-02-03T14:23:53.000Z</time>
      </trkpt>
      <trkpt lat="48.79104" lon="2.16687">
        <ele>160.60000610352</ele>
        <time>2015-02-03T14:23:57.000Z</time>
      </trkpt>
      <trkpt lat="48.79104" lon="2.16685">
        <ele>160.19999694824</ele>
        <time>2015-02-03T14:23:59.000Z</time>
      </trkpt>
      <trkpt lat="48.79104" lon="2.16682">
        <ele>159.80000305176</ele>
        <time>2015-02-03T14:24:01.000Z</time>
      </trkpt>
      <trkpt lat="48.79104" lon="2.1668">
        <ele>159.39999389648</ele>
        <time>2015-02-03T14:24:03.000Z</time>
      </trkpt>
      <trkpt lat="48.79104" lon="2.16679">
        <ele>159.19999694824</ele>
        <time>2015-02-03T14:24:04.000Z</time>
      </trkpt>
      <trkpt lat="48.79104" lon="2.16671">
        <ele>158.39999389648</ele>
        <time>2015-02-03T14:24:10.000Z</time>
      </trkpt>
      <trkpt lat="48.79104" lon="2.16668">
        <ele>158</ele>
        <time>2015-02-03T14:24:12.000Z</time>
      </trkpt>
      <trkpt lat="48.79105" lon="2.16667">
        <ele>157.80000305176</ele>
        <time>2015-02-03T14:24:13.000Z</time>
      </trkpt>
      <trkpt lat="48.79105" lon="2.16664">
        <ele>157.39999389648</ele>
        <time>2015-02-03T14:24:16.000Z</time>
      </trkpt>
      <trkpt lat="48.79105" lon="2.1666">
        <ele>156.80000305176</ele>
        <time>2015-02-03T14:24:19.000Z</time>
      </trkpt>
      <trkpt lat="48.79105" lon="2.16656">
        <ele>156.39999389648</ele>
        <time>2015-02-03T14:24:22.000Z</time>
      </trkpt>
      <trkpt lat="48.79105" lon="2.16651">
        <ele>155.80000305176</ele>
        <time>2015-02-03T14:24:27.000Z</time>
      </trkpt>
      <trkpt lat="48.79105" lon="2.16649">
        <ele>155.39999389648</ele>
        <time>2015-02-03T14:24:29.000Z</time>
      </trkpt>
      <trkpt lat="48.79105" lon="2.16645">
        <ele>154.60000610352</ele>
        <time>2015-02-03T14:24:32.000Z</time>
      </trkpt>
      <trkpt lat="48.79105" lon="2.16643">
        <ele>154.19999694824</ele>
        <time>2015-02-03T14:24:34.000Z</time>
      </trkpt>
      <trkpt lat="48.79105" lon="2.16639">
        <ele>153.60000610352</ele>
        <time>2015-02-03T14:24:39.000Z</time>
      </trkpt>
      <trkpt lat="48.79105" lon="2.16636">
        <ele>153.39999389648</ele>
        <time>2015-02-03T14:24:41.000Z</time>
      </trkpt>
      <trkpt lat="48.79105" lon="2.16629">
        <ele>152.80000305176</ele>
        <time>2015-02-03T14:24:47.000Z</time>
      </trkpt>
      <trkpt lat="48.79105" lon="2.16625">
        <ele>152.39999389648</ele>
        <time>2015-02-03T14:24:50.000Z</time>
      </trkpt>
      <trkpt lat="48.79105" lon="2.16621">
        <ele>152</ele>
        <time>2015-02-03T14:24:54.000Z</time>
      </trkpt>
      <trkpt lat="48.79105" lon="2.1662">
        <ele>151.80000305176</ele>
        <time>2015-02-03T14:24:55.000Z</time>
      </trkpt>
      <trkpt lat="48.79106" lon="2.16615">
        <ele>151.39999389648</ele>
        <time>2015-02-03T14:24:59.000Z</time>
      </trkpt>
      <trkpt lat="48.79105" lon="2.16613">
        <ele>151.19999694824</ele>
        <time>2015-02-03T14:25:01.000Z</time>
      </trkpt>
      <trkpt lat="48.79105" lon="2.16612">
        <ele>151</ele>
        <time>2015-02-03T14:25:02.000Z</time>
      </trkpt>
      <trkpt lat="48.79106" lon="2.16604">
        <ele>150.39999389648</ele>
        <time>2015-02-03T14:25:09.000Z</time>
      </trkpt>
      <trkpt lat="48.79106" lon="2.16602">
        <ele>150.39999389648</ele>
        <time>2015-02-03T14:25:10.000Z</time>
      </trkpt>
      <trkpt lat="48.79106" lon="2.16596">
        <ele>149.60000610352</ele>
        <time>2015-02-03T14:25:16.000Z</time>
      </trkpt>
      <trkpt lat="48.79106" lon="2.16594">
        <ele>149.19999694824</ele>
        <time>2015-02-03T14:25:19.000Z</time>
      </trkpt>
      <trkpt lat="48.79105" lon="2.16587">
        <ele>148.60000610352</ele>
        <time>2015-02-03T14:25:23.000Z</time>
      </trkpt>
      <trkpt lat="48.79105" lon="2.16583">
        <ele>148.19999694824</ele>
        <time>2015-02-03T14:25:27.000Z</time>
      </trkpt>
      <trkpt lat="48.79105" lon="2.1658">
        <ele>147.60000610352</ele>
        <time>2015-02-03T14:25:30.000Z</time>
      </trkpt>
      <trkpt lat="48.79105" lon="2.16578">
        <ele>147.19999694824</ele>
        <time>2015-02-03T14:25:33.000Z</time>
      </trkpt>
      <trkpt lat="48.79105" lon="2.16572">
        <ele>146.39999389648</ele>
        <time>2015-02-03T14:25:38.000Z</time>
      </trkpt>
      <trkpt lat="48.79103" lon="2.16568">
        <ele>146</ele>
        <time>2015-02-03T14:25:41.000Z</time>
      </trkpt>
      <trkpt lat="48.79104" lon="2.16568">
        <ele>145.80000305176</ele>
        <time>2015-02-03T14:25:43.000Z</time>
      </trkpt>
      <trkpt lat="48.79102" lon="2.16561">
        <ele>145.19999694824</ele>
        <time>2015-02-03T14:25:48.000Z</time>
      </trkpt>
      <trkpt lat="48.79101" lon="2.16557">
        <ele>145</ele>
        <time>2015-02-03T14:25:50.000Z</time>
      </trkpt>
      <trkpt lat="48.791" lon="2.16553">
        <ele>144.60000610352</ele>
        <time>2015-02-03T14:25:53.000Z</time>
      </trkpt>
      <trkpt lat="48.791" lon="2.16552">
        <ele>144.39999389648</ele>
        <time>2015-02-03T14:25:54.000Z</time>
      </trkpt>
      <trkpt lat="48.791" lon="2.16549">
        <ele>144</ele>
        <time>2015-02-03T14:25:57.000Z</time>
      </trkpt>
      <trkpt lat="48.791" lon="2.16548">
        <ele>143.80000305176</ele>
        <time>2015-02-03T14:25:58.000Z</time>
      </trkpt>
      <trkpt lat="48.791" lon="2.16545">
        <ele>143.60000610352</ele>
        <time>2015-02-03T14:26:00.000Z</time>
      </trkpt>
      <trkpt lat="48.79099" lon="2.1654">
        <ele>143.19999694824</ele>
        <time>2015-02-03T14:26:05.000Z</time>
      </trkpt>
      <trkpt lat="48.79098" lon="2.16537">
        <ele>143</ele>
        <time>2015-02-03T14:26:07.000Z</time>
      </trkpt>
      <trkpt lat="48.79099" lon="2.16534">
        <ele>142.80000305176</ele>
        <time>2015-02-03T14:26:09.000Z</time>
      </trkpt>
      <trkpt lat="48.79099" lon="2.16532">
        <ele>142.60000610352</ele>
        <time>2015-02-03T14:26:11.000Z</time>
      </trkpt>
      <trkpt lat="48.79097" lon="2.16524">
        <ele>142.19999694824</ele>
        <time>2015-02-03T14:26:17.000Z</time>
      </trkpt>
      <trkpt lat="48.79096" lon="2.16522">
        <ele>142.19999694824</ele>
        <time>2015-02-03T14:26:18.000Z</time>
      </trkpt>
      <trkpt lat="48.79096" lon="2.16521">
        <ele>142</ele>
        <time>2015-02-03T14:26:19.000Z</time>
      </trkpt>
      <trkpt lat="48.79096" lon="2.16519">
        <ele>141.80000305176</ele>
        <time>2015-02-03T14:26:20.000Z</time>
      </trkpt>
      <trkpt lat="48.79095" lon="2.16516">
        <ele>141.60000610352</ele>
        <time>2015-02-03T14:26:23.000Z</time>
      </trkpt>
      <trkpt lat="48.79095" lon="2.16515">
        <ele>141.39999389648</ele>
        <time>2015-02-03T14:26:24.000Z</time>
      </trkpt>
      <trkpt lat="48.79095" lon="2.16512">
        <ele>141.19999694824</ele>
        <time>2015-02-03T14:26:26.000Z</time>
      </trkpt>
      <trkpt lat="48.79095" lon="2.16509">
        <ele>141</ele>
        <time>2015-02-03T14:26:29.000Z</time>
      </trkpt>
      <trkpt lat="48.79096" lon="2.16507">
        <ele>140.80000305176</ele>
        <time>2015-02-03T14:26:30.000Z</time>
      </trkpt>
      <trkpt lat="48.79096" lon="2.16506">
        <ele>140.80000305176</ele>
        <time>2015-02-03T14:26:31.000Z</time>
      </trkpt>
      <trkpt lat="48.79096" lon="2.16502">
        <ele>140.60000610352</ele>
        <time>2015-02-03T14:26:36.000Z</time>
      </trkpt>
      <trkpt lat="48.79097" lon="2.165">
        <ele>140.19999694824</ele>
        <time>2015-02-03T14:26:42.000Z</time>
      </trkpt>
      <trkpt lat="48.79094" lon="2.16492">
        <ele>139.80000305176</ele>
        <time>2015-02-03T14:26:47.000Z</time>
      </trkpt>
      <trkpt lat="48.79094" lon="2.16487">
        <ele>139.39999389648</ele>
        <time>2015-02-03T14:26:52.000Z</time>
      </trkpt>
      <trkpt lat="48.79093" lon="2.16481">
        <ele>139</ele>
        <time>2015-02-03T14:26:57.000Z</time>
      </trkpt>
      <trkpt lat="48.79093" lon="2.1648">
        <ele>139</ele>
        <time>2015-02-03T14:26:58.000Z</time>
      </trkpt>
      <trkpt lat="48.79093" lon="2.16476">
        <ele>138.80000305176</ele>
        <time>2015-02-03T14:27:02.000Z</time>
      </trkpt>
      <trkpt lat="48.79093" lon="2.16475">
        <ele>138.80000305176</ele>
        <time>2015-02-03T14:27:03.000Z</time>
      </trkpt>
      <trkpt lat="48.79093" lon="2.16469">
        <ele>138</ele>
        <time>2015-02-03T14:27:09.000Z</time>
      </trkpt>
      <trkpt lat="48.79092" lon="2.16466">
        <ele>137.60000610352</ele>
        <time>2015-02-03T14:27:13.000Z</time>
      </trkpt>
      <trkpt lat="48.79092" lon="2.16466">
        <ele>137.60000610352</ele>
        <time>2015-02-03T14:27:14.000Z</time>
      </trkpt>
      <trkpt lat="48.79092" lon="2.16459">
        <ele>137.19999694824</ele>
        <time>2015-02-03T14:27:21.000Z</time>
      </trkpt>
      <trkpt lat="48.79093" lon="2.16449">
        <ele>136.80000305176</ele>
        <time>2015-02-03T14:27:27.000Z</time>
      </trkpt>
      <trkpt lat="48.79092" lon="2.16447">
        <ele>136.60000610352</ele>
        <time>2015-02-03T14:27:28.000Z</time>
      </trkpt>
      <trkpt lat="48.79092" lon="2.16446">
        <ele>136.60000610352</ele>
        <time>2015-02-03T14:27:29.000Z</time>
      </trkpt>
      <trkpt lat="48.79092" lon="2.1644">
        <ele>136.19999694824</ele>
        <time>2015-02-03T14:27:32.000Z</time>
      </trkpt>
      <trkpt lat="48.79091" lon="2.16434">
        <ele>135.80000305176</ele>
        <time>2015-02-03T14:27:35.000Z</time>
      </trkpt>
      <trkpt lat="48.7909" lon="2.16432">
        <ele>135.80000305176</ele>
        <time>2015-02-03T14:27:36.000Z</time>
      </trkpt>
      <trkpt lat="48.79091" lon="2.1643">
        <ele>135.80000305176</ele>
        <time>2015-02-03T14:27:37.000Z</time>
      </trkpt>
      <trkpt lat="48.7909" lon="2.16425">
        <ele>135.39999389648</ele>
        <time>2015-02-03T14:27:40.000Z</time>
      </trkpt>
      <trkpt lat="48.79089" lon="2.1642">
        <ele>135.19999694824</ele>
        <time>2015-02-03T14:27:43.000Z</time>
      </trkpt>
      <trkpt lat="48.79089" lon="2.16415">
        <ele>134.80000305176</ele>
        <time>2015-02-03T14:27:46.000Z</time>
      </trkpt>
      <trkpt lat="48.79089" lon="2.16412">
        <ele>134.39999389648</ele>
        <time>2015-02-03T14:27:48.000Z</time>
      </trkpt>
      <trkpt lat="48.7909" lon="2.1641">
        <ele>134.39999389648</ele>
        <time>2015-02-03T14:27:49.000Z</time>
      </trkpt>
      <trkpt lat="48.79089" lon="2.16403">
        <ele>134.19999694824</ele>
        <time>2015-02-03T14:27:54.000Z</time>
      </trkpt>
      <trkpt lat="48.7909" lon="2.16399">
        <ele>134</ele>
        <time>2015-02-03T14:27:57.000Z</time>
      </trkpt>
      <trkpt lat="48.7909" lon="2.16397">
        <ele>134</ele>
        <time>2015-02-03T14:27:58.000Z</time>
      </trkpt>
      <trkpt lat="48.79089" lon="2.16395">
        <ele>134</ele>
        <time>2015-02-03T14:28:00.000Z</time>
      </trkpt>
      <trkpt lat="48.79088" lon="2.16394">
        <ele>133.80000305176</ele>
        <time>2015-02-03T14:28:01.000Z</time>
      </trkpt>
      <trkpt lat="48.79087" lon="2.16386">
        <ele>133.39999389648</ele>
        <time>2015-02-03T14:28:07.000Z</time>
      </trkpt>
      <trkpt lat="48.79087" lon="2.16381">
        <ele>133.39999389648</ele>
        <time>2015-02-03T14:28:09.000Z</time>
      </trkpt>
      <trkpt lat="48.79087" lon="2.1638">
        <ele>133.39999389648</ele>
        <time>2015-02-03T14:28:10.000Z</time>
      </trkpt>
      <trkpt lat="48.79086" lon="2.16374">
        <ele>133.19999694824</ele>
        <time>2015-02-03T14:28:13.000Z</time>
      </trkpt>
      <trkpt lat="48.79085" lon="2.16364">
        <ele>133</ele>
        <time>2015-02-03T14:28:18.000Z</time>
      </trkpt>
      <trkpt lat="48.79084" lon="2.16355">
        <ele>132.60000610352</ele>
        <time>2015-02-03T14:28:23.000Z</time>
      </trkpt>
      <trkpt lat="48.79084" lon="2.16352">
        <ele>132.60000610352</ele>
        <time>2015-02-03T14:28:25.000Z</time>
      </trkpt>
      <trkpt lat="48.79084" lon="2.16345">
        <ele>132.60000610352</ele>
        <time>2015-02-03T14:28:29.000Z</time>
      </trkpt>
      <trkpt lat="48.79084" lon="2.16341">
        <ele>132.39999389648</ele>
        <time>2015-02-03T14:28:31.000Z</time>
      </trkpt>
      <trkpt lat="48.79085" lon="2.1634">
        <ele>132.19999694824</ele>
        <time>2015-02-03T14:28:32.000Z</time>
      </trkpt>
      <trkpt lat="48.79085" lon="2.16332">
        <ele>132</ele>
        <time>2015-02-03T14:28:37.000Z</time>
      </trkpt>
      <trkpt lat="48.79085" lon="2.16331">
        <ele>132</ele>
        <time>2015-02-03T14:28:38.000Z</time>
      </trkpt>
      <trkpt lat="48.79086" lon="2.1633">
        <ele>132</ele>
        <time>2015-02-03T14:28:39.000Z</time>
      </trkpt>
      <trkpt lat="48.79086" lon="2.16323">
        <ele>131.60000610352</ele>
        <time>2015-02-03T14:28:44.000Z</time>
      </trkpt>
      <trkpt lat="48.79086" lon="2.16317">
        <ele>131.39999389648</ele>
        <time>2015-02-03T14:28:47.000Z</time>
      </trkpt>
      <trkpt lat="48.79085" lon="2.16312">
        <ele>131.19999694824</ele>
        <time>2015-02-03T14:28:50.000Z</time>
      </trkpt>
      <trkpt lat="48.79083" lon="2.16302">
        <ele>130.80000305176</ele>
        <time>2015-02-03T14:28:55.000Z</time>
      </trkpt>
      <trkpt lat="48.79083" lon="2.16298">
        <ele>130.60000610352</ele>
        <time>2015-02-03T14:28:57.000Z</time>
      </trkpt>
      <trkpt lat="48.79084" lon="2.16297">
        <ele>130.60000610352</ele>
        <time>2015-02-03T14:28:58.000Z</time>
      </trkpt>
      <trkpt lat="48.79083" lon="2.16293">
        <ele>130.39999389648</ele>
        <time>2015-02-03T14:29:00.000Z</time>
      </trkpt>
      <trkpt lat="48.79082" lon="2.16292">
        <ele>130.19999694824</ele>
        <time>2015-02-03T14:29:02.000Z</time>
      </trkpt>
      <trkpt lat="48.79079" lon="2.16284">
        <ele>130.19999694824</ele>
        <time>2015-02-03T14:29:07.000Z</time>
      </trkpt>
      <trkpt lat="48.79073" lon="2.16277">
        <ele>129.60000610352</ele>
        <time>2015-02-03T14:29:15.000Z</time>
      </trkpt>
      <trkpt lat="48.79071" lon="2.16274">
        <ele>129.19999694824</ele>
        <time>2015-02-03T14:29:19.000Z</time>
      </trkpt>
      <trkpt lat="48.79068" lon="2.1627">
        <ele>129</ele>
        <time>2015-02-03T14:29:23.000Z</time>
      </trkpt>
      <trkpt lat="48.79064" lon="2.16267">
        <ele>128.39999389648</ele>
        <time>2015-02-03T14:29:29.000Z</time>
      </trkpt>
      <trkpt lat="48.79064" lon="2.16266">
        <ele>128.19999694824</ele>
        <time>2015-02-03T14:29:31.000Z</time>
      </trkpt>
      <trkpt lat="48.7906" lon="2.16259">
        <ele>127.59999847412</ele>
        <time>2015-02-03T14:29:35.000Z</time>
      </trkpt>
      <trkpt lat="48.79057" lon="2.16253">
        <ele>127.40000152588</ele>
        <time>2015-02-03T14:29:39.000Z</time>
      </trkpt>
      <trkpt lat="48.79056" lon="2.16252">
        <ele>127.59999847412</ele>
        <time>2015-02-03T14:29:41.000Z</time>
      </trkpt>
      <trkpt lat="48.79055" lon="2.1625">
        <ele>127.40000152588</ele>
        <time>2015-02-03T14:29:45.000Z</time>
      </trkpt>
      <trkpt lat="48.79054" lon="2.1625">
        <ele>127.19999694824</ele>
        <time>2015-02-03T14:29:47.000Z</time>
      </trkpt>
      <trkpt lat="48.79052" lon="2.16247">
        <ele>127.40000152588</ele>
        <time>2015-02-03T14:29:52.000Z</time>
      </trkpt>
      <trkpt lat="48.7905" lon="2.16245">
        <ele>127.40000152588</ele>
        <time>2015-02-03T14:30:00.000Z</time>
      </trkpt>
      <trkpt lat="48.79051" lon="2.16244">
        <ele>127.19999694824</ele>
        <time>2015-02-03T14:30:08.000Z</time>
      </trkpt>
      <trkpt lat="48.79051" lon="2.16243">
        <ele>127.40000152588</ele>
        <time>2015-02-03T14:30:17.000Z</time>
      </trkpt>
      <trkpt lat="48.79052" lon="2.16242">
        <ele>127.19999694824</ele>
        <time>2015-02-03T14:30:25.000Z</time>
      </trkpt>
      <trkpt lat="48.79052" lon="2.16242">
        <ele>127.40000152588</ele>
        <time>2015-02-03T14:30:35.000Z</time>
      </trkpt>
      <trkpt lat="48.79058" lon="2.1624">
        <ele>127.19999694824</ele>
        <time>2015-02-03T14:30:47.000Z</time>
      </trkpt>
      <trkpt lat="48.79059" lon="2.16241">
        <ele>127.40000152588</ele>
        <time>2015-02-03T14:30:54.000Z</time>
      </trkpt>
      <trkpt lat="48.79059" lon="2.1624">
        <ele>127.40000152588</ele>
        <time>2015-02-03T14:31:05.000Z</time>
      </trkpt>
      <trkpt lat="48.79058" lon="2.1624">
        <ele>127.40000152588</ele>
        <time>2015-02-03T14:31:15.000Z</time>
      </trkpt>
      <trkpt lat="48.79057" lon="2.16241">
        <ele>127.40000152588</ele>
        <time>2015-02-03T14:31:25.000Z</time>
      </trkpt>
      <trkpt lat="48.79056" lon="2.16241">
        <ele>127.40000152588</ele>
        <time>2015-02-03T14:31:35.000Z</time>
      </trkpt>
      <trkpt lat="48.79057" lon="2.16241">
        <ele>127.40000152588</ele>
        <time>2015-02-03T14:31:43.000Z</time>
      </trkpt>
      <trkpt lat="48.79057" lon="2.16242">
        <ele>127.19999694824</ele>
        <time>2015-02-03T14:31:53.000Z</time>
      </trkpt>
      <trkpt lat="48.79059" lon="2.16242">
        <ele>127.19999694824</ele>
        <time>2015-02-03T14:32:01.000Z</time>
      </trkpt>
      <trkpt lat="48.79058" lon="2.16242">
        <ele>127.19999694824</ele>
        <time>2015-02-03T14:32:12.000Z</time>
      </trkpt>
      <trkpt lat="48.79058" lon="2.16242">
        <ele>127.19999694824</ele>
        <time>2015-02-03T14:32:20.000Z</time>
      </trkpt>
      <trkpt lat="48.79056" lon="2.16241">
        <ele>127.19999694824</ele>
        <time>2015-02-03T14:32:26.000Z</time>
      </trkpt>
      <trkpt lat="48.79056" lon="2.16241">
        <ele>127.19999694824</ele>
        <time>2015-02-03T14:32:36.000Z</time>
      </trkpt>
      <trkpt lat="48.79059" lon="2.1624">
        <ele>127.19999694824</ele>
        <time>2015-02-03T14:32:47.000Z</time>
      </trkpt>
      <trkpt lat="48.79061" lon="2.16238">
        <ele>127.19999694824</ele>
        <time>2015-02-03T14:32:57.000Z</time>
      </trkpt>
      <trkpt lat="48.79062" lon="2.16237">
        <ele>127.19999694824</ele>
        <time>2015-02-03T14:33:06.000Z</time>
      </trkpt>
      <trkpt lat="48.79063" lon="2.16238">
        <ele>127</ele>
        <time>2015-02-03T14:33:22.000Z</time>
      </trkpt>
      <trkpt lat="48.79062" lon="2.16239">
        <ele>126.59999847412</ele>
        <time>2015-02-03T14:33:33.000Z</time>
      </trkpt>
      <trkpt lat="48.79062" lon="2.16239">
        <ele>126.59999847412</ele>
        <time>2015-02-03T14:33:42.000Z</time>
      </trkpt>
      <trkpt lat="48.79061" lon="2.16239">
        <ele>126.80000305176</ele>
        <time>2015-02-03T14:33:51.000Z</time>
      </trkpt>
      <trkpt lat="48.7906" lon="2.16241">
        <ele>127.19999694824</ele>
        <time>2015-02-03T14:34:00.000Z</time>
      </trkpt>
      <trkpt lat="48.79058" lon="2.16237">
        <ele>127</ele>
        <time>2015-02-03T14:34:08.000Z</time>
      </trkpt>
      <trkpt lat="48.79058" lon="2.16237">
        <ele>127</ele>
        <time>2015-02-03T14:34:21.000Z</time>
      </trkpt>
      <trkpt lat="48.79058" lon="2.16237">
        <ele>127.19999694824</ele>
        <time>2015-02-03T14:34:29.000Z</time>
      </trkpt>
      <trkpt lat="48.79059" lon="2.16236">
        <ele>127.19999694824</ele>
        <time>2015-02-03T14:34:39.000Z</time>
      </trkpt>
      <trkpt lat="48.79058" lon="2.16235">
        <ele>127.19999694824</ele>
        <time>2015-02-03T14:34:50.000Z</time>
      </trkpt>
      <trkpt lat="48.79057" lon="2.16235">
        <ele>127.19999694824</ele>
        <time>2015-02-03T14:35:01.000Z</time>
      </trkpt>
      <trkpt lat="48.79057" lon="2.16235">
        <ele>127</ele>
        <time>2015-02-03T14:35:08.000Z</time>
      </trkpt>
      <trkpt lat="48.79056" lon="2.16234">
        <ele>127</ele>
        <time>2015-02-03T14:35:18.000Z</time>
      </trkpt>
      <trkpt lat="48.79056" lon="2.16233">
        <ele>127</ele>
        <time>2015-02-03T14:35:26.000Z</time>
      </trkpt>
      <trkpt lat="48.79055" lon="2.16233">
        <ele>127</ele>
        <time>2015-02-03T14:35:35.000Z</time>
      </trkpt>
      <trkpt lat="48.79053" lon="2.16232">
        <ele>127</ele>
        <time>2015-02-03T14:35:43.000Z</time>
      </trkpt>
      <trkpt lat="48.79052" lon="2.16232">
        <ele>126.80000305176</ele>
        <time>2015-02-03T14:35:53.000Z</time>
      </trkpt>
      <trkpt lat="48.79046" lon="2.16227">
        <ele>127</ele>
        <time>2015-02-03T14:36:04.000Z</time>
      </trkpt>
      <trkpt lat="48.7905" lon="2.16227">
        <ele>126.80000305176</ele>
        <time>2015-02-03T14:36:17.000Z</time>
      </trkpt>
      <trkpt lat="48.79049" lon="2.16227">
        <ele>127</ele>
        <time>2015-02-03T14:36:27.000Z</time>
      </trkpt>
      <trkpt lat="48.79046" lon="2.16224">
        <ele>126.80000305176</ele>
        <time>2015-02-03T14:36:39.000Z</time>
      </trkpt>
      <trkpt lat="48.79046" lon="2.16224">
        <ele>127</ele>
        <time>2015-02-03T14:36:48.000Z</time>
      </trkpt>
      <trkpt lat="48.79046" lon="2.16225">
        <ele>126.80000305176</ele>
        <time>2015-02-03T14:36:56.000Z</time>
      </trkpt>
      <trkpt lat="48.79048" lon="2.16225">
        <ele>126.80000305176</ele>
        <time>2015-02-03T14:37:04.000Z</time>
      </trkpt>
      <trkpt lat="48.79051" lon="2.16227">
        <ele>126.80000305176</ele>
        <time>2015-02-03T14:37:13.000Z</time>
      </trkpt>
      <trkpt lat="48.79048" lon="2.16225">
        <ele>126.80000305176</ele>
        <time>2015-02-03T14:37:22.000Z</time>
      </trkpt>
      <trkpt lat="48.79047" lon="2.16224">
        <ele>126.80000305176</ele>
        <time>2015-02-03T14:37:30.000Z</time>
      </trkpt>
      <trkpt lat="48.79048" lon="2.16225">
        <ele>126.80000305176</ele>
        <time>2015-02-03T14:37:38.000Z</time>
      </trkpt>
      <trkpt lat="48.79049" lon="2.16226">
        <ele>126.80000305176</ele>
        <time>2015-02-03T14:37:45.000Z</time>
      </trkpt>
      <trkpt lat="48.79049" lon="2.16227">
        <ele>126.59999847412</ele>
        <time>2015-02-03T14:37:56.000Z</time>
      </trkpt>
      <trkpt lat="48.79047" lon="2.16229">
        <ele>126.80000305176</ele>
        <time>2015-02-03T14:38:07.000Z</time>
      </trkpt>
      <trkpt lat="48.79045" lon="2.16227">
        <ele>126.80000305176</ele>
        <time>2015-02-03T14:38:09.000Z</time>
      </trkpt>
      <trkpt lat="48.79062" lon="2.1623">
        <ele>126.80000305176</ele>
        <time>2015-02-03T14:38:20.000Z</time>
      </trkpt>
      <trkpt lat="48.79064" lon="2.16232">
        <ele>126.40000152588</ele>
        <time>2015-02-03T14:38:33.000Z</time>
      </trkpt>
      <trkpt lat="48.79064" lon="2.16233">
        <ele>126.40000152588</ele>
        <time>2015-02-03T14:38:44.000Z</time>
      </trkpt>
      <trkpt lat="48.7906" lon="2.16232">
        <ele>126.59999847412</ele>
        <time>2015-02-03T14:38:52.000Z</time>
      </trkpt>
      <trkpt lat="48.79059" lon="2.16232">
        <ele>126.59999847412</ele>
        <time>2015-02-03T14:39:01.000Z</time>
      </trkpt>
      <trkpt lat="48.79058" lon="2.16233">
        <ele>126.40000152588</ele>
        <time>2015-02-03T14:39:15.000Z</time>
      </trkpt>
      <trkpt lat="48.79059" lon="2.16233">
        <ele>126.59999847412</ele>
        <time>2015-02-03T14:39:23.000Z</time>
      </trkpt>
      <trkpt lat="48.7906" lon="2.16234">
        <ele>126.59999847412</ele>
        <time>2015-02-03T14:39:32.000Z</time>
      </trkpt>
      <trkpt lat="48.79059" lon="2.16236">
        <ele>126.59999847412</ele>
        <time>2015-02-03T14:39:39.000Z</time>
      </trkpt>
      <trkpt lat="48.79061" lon="2.16236">
        <ele>126.40000152588</ele>
        <time>2015-02-03T14:39:50.000Z</time>
      </trkpt>
      <trkpt lat="48.7906" lon="2.16236">
        <ele>126.40000152588</ele>
        <time>2015-02-03T14:40:03.000Z</time>
      </trkpt>
      <trkpt lat="48.7906" lon="2.16238">
        <ele>126.40000152588</ele>
        <time>2015-02-03T14:40:21.000Z</time>
      </trkpt>
      <trkpt lat="48.7906" lon="2.16239">
        <ele>126.40000152588</ele>
        <time>2015-02-03T14:40:39.000Z</time>
      </trkpt>
      <trkpt lat="48.79061" lon="2.1624">
        <ele>126.40000152588</ele>
        <time>2015-02-03T14:40:52.000Z</time>
      </trkpt>
      <trkpt lat="48.7906" lon="2.16239">
        <ele>126.59999847412</ele>
        <time>2015-02-03T14:41:00.000Z</time>
      </trkpt>
      <trkpt lat="48.79059" lon="2.16237">
        <ele>126.59999847412</ele>
        <time>2015-02-03T14:41:10.000Z</time>
      </trkpt>
      <trkpt lat="48.79059" lon="2.16238">
        <ele>126.40000152588</ele>
        <time>2015-02-03T14:41:19.000Z</time>
      </trkpt>
      <trkpt lat="48.79059" lon="2.16238">
        <ele>126.40000152588</ele>
        <time>2015-02-03T14:41:28.000Z</time>
      </trkpt>
      <trkpt lat="48.7906" lon="2.16238">
        <ele>126.40000152588</ele>
        <time>2015-02-03T14:41:40.000Z</time>
      </trkpt>
      <trkpt lat="48.79062" lon="2.16236">
        <ele>126.40000152588</ele>
        <time>2015-02-03T14:41:54.000Z</time>
      </trkpt>
      <trkpt lat="48.79063" lon="2.16236">
        <ele>126.40000152588</ele>
        <time>2015-02-03T14:42:01.000Z</time>
      </trkpt>
      <trkpt lat="48.79062" lon="2.16236">
        <ele>126.59999847412</ele>
        <time>2015-02-03T14:42:13.000Z</time>
      </trkpt>
      <trkpt lat="48.79061" lon="2.16236">
        <ele>126.40000152588</ele>
        <time>2015-02-03T14:42:21.000Z</time>
      </trkpt>
      <trkpt lat="48.7906" lon="2.16236">
        <ele>126</ele>
        <time>2015-02-03T14:42:26.000Z</time>
      </trkpt>
      <trkpt lat="48.79061" lon="2.16235">
        <ele>126</ele>
        <time>2015-02-03T14:42:29.000Z</time>
      </trkpt>
      <trkpt lat="48.79061" lon="2.16237">
        <ele>126.40000152588</ele>
        <time>2015-02-03T14:42:36.000Z</time>
      </trkpt>
      <trkpt lat="48.79054" lon="2.16234">
        <ele>126.40000152588</ele>
        <time>2015-02-03T14:42:45.000Z</time>
      </trkpt>
      <trkpt lat="48.79051" lon="2.16229">
        <ele>126.40000152588</ele>
        <time>2015-02-03T14:42:52.000Z</time>
      </trkpt>
      <trkpt lat="48.79048" lon="2.16226">
        <ele>126.19999694824</ele>
        <time>2015-02-03T14:42:59.000Z</time>
      </trkpt>
      <trkpt lat="48.79046" lon="2.16223">
        <ele>126</ele>
        <time>2015-02-03T14:43:08.000Z</time>
      </trkpt>
      <trkpt lat="48.79043" lon="2.16222">
        <ele>125.80000305176</ele>
        <time>2015-02-03T14:43:14.000Z</time>
      </trkpt>
      <trkpt lat="48.7904" lon="2.1622">
        <ele>125.59999847412</ele>
        <time>2015-02-03T14:43:18.000Z</time>
      </trkpt>
      <trkpt lat="48.79042" lon="2.16214">
        <ele>125.59999847412</ele>
        <time>2015-02-03T14:43:24.000Z</time>
      </trkpt>
      <trkpt lat="48.79042" lon="2.16209">
        <ele>125.40000152588</ele>
        <time>2015-02-03T14:43:32.000Z</time>
      </trkpt>
      <trkpt lat="48.79039" lon="2.16208">
        <ele>125.19999694824</ele>
        <time>2015-02-03T14:43:38.000Z</time>
      </trkpt>
      <trkpt lat="48.79039" lon="2.16208">
        <ele>125.40000152588</ele>
        <time>2015-02-03T14:43:45.000Z</time>
      </trkpt>
      <trkpt lat="48.79037" lon="2.16206">
        <ele>125</ele>
        <time>2015-02-03T14:43:53.000Z</time>
      </trkpt>
      <trkpt lat="48.79039" lon="2.16208">
        <ele>125</ele>
        <time>2015-02-03T14:43:56.000Z</time>
      </trkpt>
      <trkpt lat="48.79036" lon="2.16199">
        <ele>125</ele>
        <time>2015-02-03T14:44:21.000Z</time>
      </trkpt>
      <trkpt lat="48.79035" lon="2.16196">
        <ele>125.19999694824</ele>
        <time>2015-02-03T14:44:31.000Z</time>
      </trkpt>
      <trkpt lat="48.79033" lon="2.16194">
        <ele>125.19999694824</ele>
        <time>2015-02-03T14:44:42.000Z</time>
      </trkpt>
      <trkpt lat="48.79033" lon="2.16193">
        <ele>125.19999694824</ele>
        <time>2015-02-03T14:44:55.000Z</time>
      </trkpt>
      <trkpt lat="48.79033" lon="2.16193">
        <ele>125.19999694824</ele>
        <time>2015-02-03T14:45:01.000Z</time>
      </trkpt>
      <trkpt lat="48.79038" lon="2.16197">
        <ele>125.40000152588</ele>
        <time>2015-02-03T14:45:09.000Z</time>
      </trkpt>
      <trkpt lat="48.79042" lon="2.16198">
        <ele>125.19999694824</ele>
        <time>2015-02-03T14:45:16.000Z</time>
      </trkpt>
      <trkpt lat="48.79048" lon="2.16199">
        <ele>125.40000152588</ele>
        <time>2015-02-03T14:45:26.000Z</time>
      </trkpt>
      <trkpt lat="48.79048" lon="2.16207">
        <ele>126</ele>
        <time>2015-02-03T14:45:33.000Z</time>
      </trkpt>
      <trkpt lat="48.79052" lon="2.16212">
        <ele>126</ele>
        <time>2015-02-03T14:45:39.000Z</time>
      </trkpt>
      <trkpt lat="48.79055" lon="2.16216">
        <ele>126.19999694824</ele>
        <time>2015-02-03T14:45:43.000Z</time>
      </trkpt>
      <trkpt lat="48.79055" lon="2.16216">
        <ele>126.19999694824</ele>
        <time>2015-02-03T14:45:44.000Z</time>
      </trkpt>
      <trkpt lat="48.79057" lon="2.16218">
        <ele>126.40000152588</ele>
        <time>2015-02-03T14:45:47.000Z</time>
      </trkpt>
      <trkpt lat="48.79058" lon="2.16219">
        <ele>126.40000152588</ele>
        <time>2015-02-03T14:45:48.000Z</time>
      </trkpt>
      <trkpt lat="48.79062" lon="2.16222">
        <ele>126.40000152588</ele>
        <time>2015-02-03T14:45:54.000Z</time>
      </trkpt>
      <trkpt lat="48.7907" lon="2.16228">
        <ele>127</ele>
        <time>2015-02-03T14:46:03.000Z</time>
      </trkpt>
      <trkpt lat="48.79072" lon="2.16229">
        <ele>127.19999694824</ele>
        <time>2015-02-03T14:46:05.000Z</time>
      </trkpt>
      <trkpt lat="48.79076" lon="2.1623">
        <ele>127.40000152588</ele>
        <time>2015-02-03T14:46:10.000Z</time>
      </trkpt>
      <trkpt lat="48.7908" lon="2.16227">
        <ele>127.40000152588</ele>
        <time>2015-02-03T14:46:18.000Z</time>
      </trkpt>
      <trkpt lat="48.79086" lon="2.16226">
        <ele>127.59999847412</ele>
        <time>2015-02-03T14:46:26.000Z</time>
      </trkpt>
      <trkpt lat="48.79091" lon="2.16226">
        <ele>127.59999847412</ele>
        <time>2015-02-03T14:46:31.000Z</time>
      </trkpt>
      <trkpt lat="48.791" lon="2.16223">
        <ele>128</ele>
        <time>2015-02-03T14:46:40.000Z</time>
      </trkpt>
      <trkpt lat="48.79104" lon="2.16222">
        <ele>128.19999694824</ele>
        <time>2015-02-03T14:46:45.000Z</time>
      </trkpt>
      <trkpt lat="48.79107" lon="2.16221">
        <ele>128.39999389648</ele>
        <time>2015-02-03T14:46:47.000Z</time>
      </trkpt>
      <trkpt lat="48.79114" lon="2.16219">
        <ele>129</ele>
        <time>2015-02-03T14:46:54.000Z</time>
      </trkpt>
      <trkpt lat="48.79115" lon="2.16219">
        <ele>129.19999694824</ele>
        <time>2015-02-03T14:46:55.000Z</time>
      </trkpt>
      <trkpt lat="48.79119" lon="2.16218">
        <ele>129.19999694824</ele>
        <time>2015-02-03T14:46:58.000Z</time>
      </trkpt>
      <trkpt lat="48.79122" lon="2.16218">
        <ele>129.60000610352</ele>
        <time>2015-02-03T14:47:01.000Z</time>
      </trkpt>
      <trkpt lat="48.7913" lon="2.16217">
        <ele>130.39999389648</ele>
        <time>2015-02-03T14:47:07.000Z</time>
      </trkpt>
      <trkpt lat="48.79133" lon="2.16216">
        <ele>130.60000610352</ele>
        <time>2015-02-03T14:47:10.000Z</time>
      </trkpt>
      <trkpt lat="48.79141" lon="2.16215">
        <ele>131</ele>
        <time>2015-02-03T14:47:15.000Z</time>
      </trkpt>
      <trkpt lat="48.79151" lon="2.16213">
        <ele>131.39999389648</ele>
        <time>2015-02-03T14:47:21.000Z</time>
      </trkpt>
      <trkpt lat="48.79152" lon="2.16213">
        <ele>131.39999389648</ele>
        <time>2015-02-03T14:47:22.000Z</time>
      </trkpt>
      <trkpt lat="48.79158" lon="2.16211">
        <ele>131.60000610352</ele>
        <time>2015-02-03T14:47:27.000Z</time>
      </trkpt>
      <trkpt lat="48.79162" lon="2.16211">
        <ele>131.80000305176</ele>
        <time>2015-02-03T14:47:30.000Z</time>
      </trkpt>
      <trkpt lat="48.79166" lon="2.16211">
        <ele>131.80000305176</ele>
        <time>2015-02-03T14:47:33.000Z</time>
      </trkpt>
      <trkpt lat="48.79173" lon="2.16211">
        <ele>132</ele>
        <time>2015-02-03T14:47:38.000Z</time>
      </trkpt>
      <trkpt lat="48.79182" lon="2.1621">
        <ele>132.19999694824</ele>
        <time>2015-02-03T14:47:45.000Z</time>
      </trkpt>
      <trkpt lat="48.7919" lon="2.16209">
        <ele>132.39999389648</ele>
        <time>2015-02-03T14:47:51.000Z</time>
      </trkpt>
      <trkpt lat="48.79196" lon="2.16208">
        <ele>132.39999389648</ele>
        <time>2015-02-03T14:47:57.000Z</time>
      </trkpt>
      <trkpt lat="48.792" lon="2.16208">
        <ele>132.39999389648</ele>
        <time>2015-02-03T14:48:01.000Z</time>
      </trkpt>
      <trkpt lat="48.79202" lon="2.16208">
        <ele>132.39999389648</ele>
        <time>2015-02-03T14:48:03.000Z</time>
      </trkpt>
      <trkpt lat="48.79205" lon="2.16208">
        <ele>132.60000610352</ele>
        <time>2015-02-03T14:48:05.000Z</time>
      </trkpt>
      <trkpt lat="48.79207" lon="2.16208">
        <ele>132.60000610352</ele>
        <time>2015-02-03T14:48:07.000Z</time>
      </trkpt>
      <trkpt lat="48.79208" lon="2.16208">
        <ele>132.60000610352</ele>
        <time>2015-02-03T14:48:10.000Z</time>
      </trkpt>
      <trkpt lat="48.79214" lon="2.16207">
        <ele>132.60000610352</ele>
        <time>2015-02-03T14:48:15.000Z</time>
      </trkpt>
      <trkpt lat="48.79219" lon="2.16207">
        <ele>133</ele>
        <time>2015-02-03T14:48:19.000Z</time>
      </trkpt>
      <trkpt lat="48.79222" lon="2.16207">
        <ele>133</ele>
        <time>2015-02-03T14:48:21.000Z</time>
      </trkpt>
      <trkpt lat="48.79228" lon="2.16209">
        <ele>133</ele>
        <time>2015-02-03T14:48:26.000Z</time>
      </trkpt>
      <trkpt lat="48.79229" lon="2.16209">
        <ele>133</ele>
        <time>2015-02-03T14:48:27.000Z</time>
      </trkpt>
      <trkpt lat="48.79237" lon="2.1621">
        <ele>133.19999694824</ele>
        <time>2015-02-03T14:48:33.000Z</time>
      </trkpt>
      <trkpt lat="48.79245" lon="2.1621">
        <ele>133.39999389648</ele>
        <time>2015-02-03T14:48:40.000Z</time>
      </trkpt>
      <trkpt lat="48.79246" lon="2.1621">
        <ele>133.39999389648</ele>
        <time>2015-02-03T14:48:41.000Z</time>
      </trkpt>
      <trkpt lat="48.79254" lon="2.16212">
        <ele>133.60000610352</ele>
        <time>2015-02-03T14:48:47.000Z</time>
      </trkpt>
      <trkpt lat="48.79257" lon="2.16212">
        <ele>133.60000610352</ele>
        <time>2015-02-03T14:48:50.000Z</time>
      </trkpt>
      <trkpt lat="48.79261" lon="2.16213">
        <ele>133.80000305176</ele>
        <time>2015-02-03T14:48:53.000Z</time>
      </trkpt>
      <trkpt lat="48.79264" lon="2.16214">
        <ele>133.80000305176</ele>
        <time>2015-02-03T14:48:56.000Z</time>
      </trkpt>
      <trkpt lat="48.79268" lon="2.16215">
        <ele>133.80000305176</ele>
        <time>2015-02-03T14:48:59.000Z</time>
      </trkpt>
      <trkpt lat="48.79275" lon="2.16217">
        <ele>133.80000305176</ele>
        <time>2015-02-03T14:49:05.000Z</time>
      </trkpt>
      <trkpt lat="48.79285" lon="2.16221">
        <ele>133.60000610352</ele>
        <time>2015-02-03T14:49:12.000Z</time>
      </trkpt>
      <trkpt lat="48.79287" lon="2.16222">
        <ele>133.60000610352</ele>
        <time>2015-02-03T14:49:14.000Z</time>
      </trkpt>
      <trkpt lat="48.79291" lon="2.16223">
        <ele>133.80000305176</ele>
        <time>2015-02-03T14:49:17.000Z</time>
      </trkpt>
      <trkpt lat="48.79294" lon="2.16224">
        <ele>133.80000305176</ele>
        <time>2015-02-03T14:49:19.000Z</time>
      </trkpt>
      <trkpt lat="48.79299" lon="2.16224">
        <ele>133.60000610352</ele>
        <time>2015-02-03T14:49:23.000Z</time>
      </trkpt>
      <trkpt lat="48.79301" lon="2.16225">
        <ele>133.39999389648</ele>
        <time>2015-02-03T14:49:25.000Z</time>
      </trkpt>
      <trkpt lat="48.79311" lon="2.16226">
        <ele>133.19999694824</ele>
        <time>2015-02-03T14:49:32.000Z</time>
      </trkpt>
      <trkpt lat="48.79313" lon="2.16227">
        <ele>133.19999694824</ele>
        <time>2015-02-03T14:49:34.000Z</time>
      </trkpt>
      <trkpt lat="48.79317" lon="2.16229">
        <ele>133.19999694824</ele>
        <time>2015-02-03T14:49:37.000Z</time>
      </trkpt>
      <trkpt lat="48.79322" lon="2.16232">
        <ele>133.19999694824</ele>
        <time>2015-02-03T14:49:42.000Z</time>
      </trkpt>
      <trkpt lat="48.7933" lon="2.16236">
        <ele>133.19999694824</ele>
        <time>2015-02-03T14:49:48.000Z</time>
      </trkpt>
      <trkpt lat="48.79332" lon="2.16238">
        <ele>133.19999694824</ele>
        <time>2015-02-03T14:49:50.000Z</time>
      </trkpt>
      <trkpt lat="48.79338" lon="2.1624">
        <ele>133.39999389648</ele>
        <time>2015-02-03T14:49:54.000Z</time>
      </trkpt>
      <trkpt lat="48.79339" lon="2.16241">
        <ele>133.39999389648</ele>
        <time>2015-02-03T14:49:55.000Z</time>
      </trkpt>
      <trkpt lat="48.79343" lon="2.16244">
        <ele>133.60000610352</ele>
        <time>2015-02-03T14:49:59.000Z</time>
      </trkpt>
      <trkpt lat="48.79344" lon="2.16245">
        <ele>133.60000610352</ele>
        <time>2015-02-03T14:50:00.000Z</time>
      </trkpt>
      <trkpt lat="48.79347" lon="2.16245">
        <ele>133.80000305176</ele>
        <time>2015-02-03T14:50:04.000Z</time>
      </trkpt>
      <trkpt lat="48.79347" lon="2.16245">
        <ele>133.80000305176</ele>
        <time>2015-02-03T14:50:05.000Z</time>
      </trkpt>
      <trkpt lat="48.79349" lon="2.16245">
        <ele>133.60000610352</ele>
        <time>2015-02-03T14:50:08.000Z</time>
      </trkpt>
      <trkpt lat="48.79351" lon="2.16248">
        <ele>133.60000610352</ele>
        <time>2015-02-03T14:50:12.000Z</time>
      </trkpt>
      <trkpt lat="48.79357" lon="2.16256">
        <ele>134</ele>
        <time>2015-02-03T14:50:19.000Z</time>
      </trkpt>
      <trkpt lat="48.7936" lon="2.16262">
        <ele>134.60000610352</ele>
        <time>2015-02-03T14:50:23.000Z</time>
      </trkpt>
      <trkpt lat="48.79362" lon="2.16265">
        <ele>134.80000305176</ele>
        <time>2015-02-03T14:50:26.000Z</time>
      </trkpt>
      <trkpt lat="48.79364" lon="2.16268">
        <ele>135.19999694824</ele>
        <time>2015-02-03T14:50:29.000Z</time>
      </trkpt>
      <trkpt lat="48.79366" lon="2.16272">
        <ele>135.39999389648</ele>
        <time>2015-02-03T14:50:32.000Z</time>
      </trkpt>
      <trkpt lat="48.79368" lon="2.16274">
        <ele>135.60000610352</ele>
        <time>2015-02-03T14:50:34.000Z</time>
      </trkpt>
      <trkpt lat="48.79373" lon="2.1628">
        <ele>135.80000305176</ele>
        <time>2015-02-03T14:50:39.000Z</time>
      </trkpt>
      <trkpt lat="48.79376" lon="2.16283">
        <ele>136</ele>
        <time>2015-02-03T14:50:41.000Z</time>
      </trkpt>
      <trkpt lat="48.79378" lon="2.16286">
        <ele>136.39999389648</ele>
        <time>2015-02-03T14:50:44.000Z</time>
      </trkpt>
      <trkpt lat="48.7938" lon="2.16288">
        <ele>136.60000610352</ele>
        <time>2015-02-03T14:50:46.000Z</time>
      </trkpt>
      <trkpt lat="48.79384" lon="2.16294">
        <ele>137.19999694824</ele>
        <time>2015-02-03T14:50:52.000Z</time>
      </trkpt>
      <trkpt lat="48.79387" lon="2.163">
        <ele>137.60000610352</ele>
        <time>2015-02-03T14:50:56.000Z</time>
      </trkpt>
      <trkpt lat="48.79387" lon="2.16301">
        <ele>137.80000305176</ele>
        <time>2015-02-03T14:50:57.000Z</time>
      </trkpt>
      <trkpt lat="48.79388" lon="2.16303">
        <ele>137.80000305176</ele>
        <time>2015-02-03T14:50:59.000Z</time>
      </trkpt>
      <trkpt lat="48.79392" lon="2.16308">
        <ele>138.60000610352</ele>
        <time>2015-02-03T14:51:04.000Z</time>
      </trkpt>
      <trkpt lat="48.79392" lon="2.1631">
        <ele>138.80000305176</ele>
        <time>2015-02-03T14:51:05.000Z</time>
      </trkpt>
      <trkpt lat="48.79393" lon="2.16311">
        <ele>138.80000305176</ele>
        <time>2015-02-03T14:51:06.000Z</time>
      </trkpt>
      <trkpt lat="48.79394" lon="2.16314">
        <ele>139.19999694824</ele>
        <time>2015-02-03T14:51:10.000Z</time>
      </trkpt>
      <trkpt lat="48.79396" lon="2.16315">
        <ele>139.60000610352</ele>
        <time>2015-02-03T14:51:12.000Z</time>
      </trkpt>
      <trkpt lat="48.79397" lon="2.16317">
        <ele>139.80000305176</ele>
        <time>2015-02-03T14:51:14.000Z</time>
      </trkpt>
      <trkpt lat="48.794" lon="2.16321">
        <ele>140</ele>
        <time>2015-02-03T14:51:18.000Z</time>
      </trkpt>
      <trkpt lat="48.79403" lon="2.16325">
        <ele>140.39999389648</ele>
        <time>2015-02-03T14:51:22.000Z</time>
      </trkpt>
      <trkpt lat="48.79405" lon="2.16327">
        <ele>140.60000610352</ele>
        <time>2015-02-03T14:51:24.000Z</time>
      </trkpt>
      <trkpt lat="48.79406" lon="2.16328">
        <ele>140.80000305176</ele>
        <time>2015-02-03T14:51:25.000Z</time>
      </trkpt>
      <trkpt lat="48.7941" lon="2.16334">
        <ele>141.60000610352</ele>
        <time>2015-02-03T14:51:31.000Z</time>
      </trkpt>
      <trkpt lat="48.79411" lon="2.16336">
        <ele>141.80000305176</ele>
        <time>2015-02-03T14:51:33.000Z</time>
      </trkpt>
      <trkpt lat="48.79412" lon="2.16337">
        <ele>142</ele>
        <time>2015-02-03T14:51:34.000Z</time>
      </trkpt>
      <trkpt lat="48.79415" lon="2.16343">
        <ele>142.60000610352</ele>
        <time>2015-02-03T14:51:39.000Z</time>
      </trkpt>
      <trkpt lat="48.79416" lon="2.16345">
        <ele>142.80000305176</ele>
        <time>2015-02-03T14:51:41.000Z</time>
      </trkpt>
      <trkpt lat="48.79417" lon="2.16347">
        <ele>143</ele>
        <time>2015-02-03T14:51:43.000Z</time>
      </trkpt>
      <trkpt lat="48.79419" lon="2.1635">
        <ele>143.60000610352</ele>
        <time>2015-02-03T14:51:46.000Z</time>
      </trkpt>
      <trkpt lat="48.79421" lon="2.16352">
        <ele>144</ele>
        <time>2015-02-03T14:51:49.000Z</time>
      </trkpt>
      <trkpt lat="48.79424" lon="2.16356">
        <ele>144.60000610352</ele>
        <time>2015-02-03T14:51:54.000Z</time>
      </trkpt>
      <trkpt lat="48.79426" lon="2.16358">
        <ele>145</ele>
        <time>2015-02-03T14:51:57.000Z</time>
      </trkpt>
      <trkpt lat="48.79431" lon="2.16364">
        <ele>145.80000305176</ele>
        <time>2015-02-03T14:52:04.000Z</time>
      </trkpt>
      <trkpt lat="48.79433" lon="2.16365">
        <ele>146</ele>
        <time>2015-02-03T14:52:06.000Z</time>
      </trkpt>
      <trkpt lat="48.79433" lon="2.16366">
        <ele>146.19999694824</ele>
        <time>2015-02-03T14:52:07.000Z</time>
      </trkpt>
      <trkpt lat="48.79435" lon="2.16369">
        <ele>146.39999389648</ele>
        <time>2015-02-03T14:52:10.000Z</time>
      </trkpt>
      <trkpt lat="48.7944" lon="2.16371">
        <ele>146.80000305176</ele>
        <time>2015-02-03T14:52:15.000Z</time>
      </trkpt>
      <trkpt lat="48.79443" lon="2.16371">
        <ele>146.80000305176</ele>
        <time>2015-02-03T14:52:18.000Z</time>
      </trkpt>
      <trkpt lat="48.79448" lon="2.16374">
        <ele>146.60000610352</ele>
        <time>2015-02-03T14:52:22.000Z</time>
      </trkpt>
      <trkpt lat="48.79456" lon="2.16375">
        <ele>146.60000610352</ele>
        <time>2015-02-03T14:52:29.000Z</time>
      </trkpt>
      <trkpt lat="48.79462" lon="2.16376">
        <ele>146.19999694824</ele>
        <time>2015-02-03T14:52:36.000Z</time>
      </trkpt>
      <trkpt lat="48.79469" lon="2.16377">
        <ele>146.19999694824</ele>
        <time>2015-02-03T14:52:42.000Z</time>
      </trkpt>
      <trkpt lat="48.7947" lon="2.16377">
        <ele>146</ele>
        <time>2015-02-03T14:52:43.000Z</time>
      </trkpt>
      <trkpt lat="48.79476" lon="2.16377">
        <ele>146</ele>
        <time>2015-02-03T14:52:48.000Z</time>
      </trkpt>
      <trkpt lat="48.79483" lon="2.16377">
        <ele>146</ele>
        <time>2015-02-03T14:52:54.000Z</time>
      </trkpt>
      <trkpt lat="48.79485" lon="2.16377">
        <ele>145.80000305176</ele>
        <time>2015-02-03T14:52:56.000Z</time>
      </trkpt>
      <trkpt lat="48.7949" lon="2.16378">
        <ele>145.80000305176</ele>
        <time>2015-02-03T14:53:01.000Z</time>
      </trkpt>
      <trkpt lat="48.79498" lon="2.16376">
        <ele>145.39999389648</ele>
        <time>2015-02-03T14:53:07.000Z</time>
      </trkpt>
      <trkpt lat="48.79501" lon="2.16376">
        <ele>145</ele>
        <time>2015-02-03T14:53:10.000Z</time>
      </trkpt>
      <trkpt lat="48.79506" lon="2.16375">
        <ele>145</ele>
        <time>2015-02-03T14:53:14.000Z</time>
      </trkpt>
      <trkpt lat="48.79511" lon="2.16376">
        <ele>145</ele>
        <time>2015-02-03T14:53:19.000Z</time>
      </trkpt>
      <trkpt lat="48.79518" lon="2.16375">
        <ele>144.60000610352</ele>
        <time>2015-02-03T14:53:25.000Z</time>
      </trkpt>
      <trkpt lat="48.79524" lon="2.16376">
        <ele>144.39999389648</ele>
        <time>2015-02-03T14:53:31.000Z</time>
      </trkpt>
      <trkpt lat="48.79529" lon="2.16376">
        <ele>144</ele>
        <time>2015-02-03T14:53:36.000Z</time>
      </trkpt>
      <trkpt lat="48.7953" lon="2.16376">
        <ele>144</ele>
        <time>2015-02-03T14:53:37.000Z</time>
      </trkpt>
      <trkpt lat="48.79535" lon="2.16376">
        <ele>143.39999389648</ele>
        <time>2015-02-03T14:53:42.000Z</time>
      </trkpt>
      <trkpt lat="48.79538" lon="2.16376">
        <ele>143.19999694824</ele>
        <time>2015-02-03T14:53:45.000Z</time>
      </trkpt>
      <trkpt lat="48.7954" lon="2.16376">
        <ele>143</ele>
        <time>2015-02-03T14:53:47.000Z</time>
      </trkpt>
      <trkpt lat="48.79541" lon="2.16376">
        <ele>142.80000305176</ele>
        <time>2015-02-03T14:53:48.000Z</time>
      </trkpt>
      <trkpt lat="48.79544" lon="2.16376">
        <ele>142.39999389648</ele>
        <time>2015-02-03T14:53:51.000Z</time>
      </trkpt>
      <trkpt lat="48.79547" lon="2.16375">
        <ele>142</ele>
        <time>2015-02-03T14:53:54.000Z</time>
      </trkpt>
      <trkpt lat="48.79549" lon="2.16375">
        <ele>141.80000305176</ele>
        <time>2015-02-03T14:53:56.000Z</time>
      </trkpt>
      <trkpt lat="48.79553" lon="2.16375">
        <ele>141.60000610352</ele>
        <time>2015-02-03T14:54:00.000Z</time>
      </trkpt>
      <trkpt lat="48.79557" lon="2.16375">
        <ele>141.19999694824</ele>
        <time>2015-02-03T14:54:04.000Z</time>
      </trkpt>
      <trkpt lat="48.7956" lon="2.16374">
        <ele>140.80000305176</ele>
        <time>2015-02-03T14:54:07.000Z</time>
      </trkpt>
      <trkpt lat="48.79565" lon="2.16374">
        <ele>140.39999389648</ele>
        <time>2015-02-03T14:54:12.000Z</time>
      </trkpt>
      <trkpt lat="48.79571" lon="2.16373">
        <ele>139.80000305176</ele>
        <time>2015-02-03T14:54:18.000Z</time>
      </trkpt>
      <trkpt lat="48.79573" lon="2.16374">
        <ele>139.60000610352</ele>
        <time>2015-02-03T14:54:20.000Z</time>
      </trkpt>
      <trkpt lat="48.79575" lon="2.16373">
        <ele>139.19999694824</ele>
        <time>2015-02-03T14:54:24.000Z</time>
      </trkpt>
      <trkpt lat="48.79579" lon="2.16373">
        <ele>138.80000305176</ele>
        <time>2015-02-03T14:54:27.000Z</time>
      </trkpt>
      <trkpt lat="48.79579" lon="2.16373">
        <ele>138.80000305176</ele>
        <time>2015-02-03T14:54:28.000Z</time>
      </trkpt>
      <trkpt lat="48.79584" lon="2.16373">
        <ele>138.19999694824</ele>
        <time>2015-02-03T14:54:34.000Z</time>
      </trkpt>
      <trkpt lat="48.79587" lon="2.16373">
        <ele>138</ele>
        <time>2015-02-03T14:54:37.000Z</time>
      </trkpt>
      <trkpt lat="48.79591" lon="2.16372">
        <ele>137.60000610352</ele>
        <time>2015-02-03T14:54:40.000Z</time>
      </trkpt>
      <trkpt lat="48.79598" lon="2.16372">
        <ele>137.19999694824</ele>
        <time>2015-02-03T14:54:47.000Z</time>
      </trkpt>
      <trkpt lat="48.79606" lon="2.16372">
        <ele>136.80000305176</ele>
        <time>2015-02-03T14:54:56.000Z</time>
      </trkpt>
      <trkpt lat="48.79607" lon="2.16372">
        <ele>136.60000610352</ele>
        <time>2015-02-03T14:54:57.000Z</time>
      </trkpt>
      <trkpt lat="48.79614" lon="2.16376">
        <ele>136</ele>
        <time>2015-02-03T14:55:04.000Z</time>
      </trkpt>
      <trkpt lat="48.79614" lon="2.16375">
        <ele>135.60000610352</ele>
        <time>2015-02-03T14:55:07.000Z</time>
      </trkpt>
      <trkpt lat="48.79617" lon="2.16375">
        <ele>135.60000610352</ele>
        <time>2015-02-03T14:55:09.000Z</time>
      </trkpt>
      <trkpt lat="48.79618" lon="2.16376">
        <ele>135.60000610352</ele>
        <time>2015-02-03T14:55:10.000Z</time>
      </trkpt>
      <trkpt lat="48.79619" lon="2.16376">
        <ele>135.39999389648</ele>
        <time>2015-02-03T14:55:16.000Z</time>
      </trkpt>
      <trkpt lat="48.79623" lon="2.16376">
        <ele>135.39999389648</ele>
        <time>2015-02-03T14:55:25.000Z</time>
      </trkpt>
      <trkpt lat="48.79624" lon="2.16377">
        <ele>134.80000305176</ele>
        <time>2015-02-03T14:55:31.000Z</time>
      </trkpt>
      <trkpt lat="48.79628" lon="2.16376">
        <ele>134.60000610352</ele>
        <time>2015-02-03T14:55:33.000Z</time>
      </trkpt>
      <trkpt lat="48.79631" lon="2.16376">
        <ele>134.19999694824</ele>
        <time>2015-02-03T14:55:36.000Z</time>
      </trkpt>
      <trkpt lat="48.79638" lon="2.16374">
        <ele>133.39999389648</ele>
        <time>2015-02-03T14:55:44.000Z</time>
      </trkpt>
      <trkpt lat="48.79645" lon="2.16371">
        <ele>132.60000610352</ele>
        <time>2015-02-03T14:55:50.000Z</time>
      </trkpt>
      <trkpt lat="48.79647" lon="2.1637">
        <ele>132.39999389648</ele>
        <time>2015-02-03T14:55:52.000Z</time>
      </trkpt>
      <trkpt lat="48.79651" lon="2.16368">
        <ele>132</ele>
        <time>2015-02-03T14:55:55.000Z</time>
      </trkpt>
      <trkpt lat="48.79656" lon="2.16364">
        <ele>131.19999694824</ele>
        <time>2015-02-03T14:56:00.000Z</time>
      </trkpt>
      <trkpt lat="48.79658" lon="2.16363">
        <ele>131.19999694824</ele>
        <time>2015-02-03T14:56:01.000Z</time>
      </trkpt>
      <trkpt lat="48.79661" lon="2.1636">
        <ele>130.60000610352</ele>
        <time>2015-02-03T14:56:04.000Z</time>
      </trkpt>
      <trkpt lat="48.79662" lon="2.16358">
        <ele>130.39999389648</ele>
        <time>2015-02-03T14:56:06.000Z</time>
      </trkpt>
      <trkpt lat="48.79663" lon="2.16357">
        <ele>130.19999694824</ele>
        <time>2015-02-03T14:56:07.000Z</time>
      </trkpt>
      <trkpt lat="48.79665" lon="2.16353">
        <ele>129.80000305176</ele>
        <time>2015-02-03T14:56:12.000Z</time>
      </trkpt>
      <trkpt lat="48.79669" lon="2.1635">
        <ele>129.19999694824</ele>
        <time>2015-02-03T14:56:17.000Z</time>
      </trkpt>
      <trkpt lat="48.7967" lon="2.16349">
        <ele>129</ele>
        <time>2015-02-03T14:56:18.000Z</time>
      </trkpt>
      <trkpt lat="48.79672" lon="2.16347">
        <ele>128.60000610352</ele>
        <time>2015-02-03T14:56:20.000Z</time>
      </trkpt>
      <trkpt lat="48.79673" lon="2.16346">
        <ele>128.19999694824</ele>
        <time>2015-02-03T14:56:22.000Z</time>
      </trkpt>
      <trkpt lat="48.79674" lon="2.16346">
        <ele>128.19999694824</ele>
        <time>2015-02-03T14:56:23.000Z</time>
      </trkpt>
      <trkpt lat="48.79674" lon="2.16345">
        <ele>128.19999694824</ele>
        <time>2015-02-03T14:56:24.000Z</time>
      </trkpt>
      <trkpt lat="48.79674" lon="2.16343">
        <ele>128</ele>
        <time>2015-02-03T14:56:30.000Z</time>
      </trkpt>
      <trkpt lat="48.79679" lon="2.16339">
        <ele>127.59999847412</ele>
        <time>2015-02-03T14:56:36.000Z</time>
      </trkpt>
      <trkpt lat="48.79683" lon="2.16336">
        <ele>127</ele>
        <time>2015-02-03T14:56:39.000Z</time>
      </trkpt>
      <trkpt lat="48.79685" lon="2.16335">
        <ele>126.59999847412</ele>
        <time>2015-02-03T14:56:42.000Z</time>
      </trkpt>
      <trkpt lat="48.79691" lon="2.16333">
        <ele>126</ele>
        <time>2015-02-03T14:56:48.000Z</time>
      </trkpt>
      <trkpt lat="48.79692" lon="2.16332">
        <ele>126</ele>
        <time>2015-02-03T14:56:49.000Z</time>
      </trkpt>
      <trkpt lat="48.79696" lon="2.1633">
        <ele>125.19999694824</ele>
        <time>2015-02-03T14:56:54.000Z</time>
      </trkpt>
      <trkpt lat="48.79697" lon="2.16329">
        <ele>125</ele>
        <time>2015-02-03T14:56:56.000Z</time>
      </trkpt>
      <trkpt lat="48.79698" lon="2.16328">
        <ele>125</ele>
        <time>2015-02-03T14:56:57.000Z</time>
      </trkpt>
      <trkpt lat="48.79702" lon="2.16327">
        <ele>124.59999847412</ele>
        <time>2015-02-03T14:57:00.000Z</time>
      </trkpt>
      <trkpt lat="48.79704" lon="2.16327">
        <ele>124.40000152588</ele>
        <time>2015-02-03T14:57:02.000Z</time>
      </trkpt>
      <trkpt lat="48.79707" lon="2.16329">
        <ele>124.19999694824</ele>
        <time>2015-02-03T14:57:04.000Z</time>
      </trkpt>
      <trkpt lat="48.79709" lon="2.16329">
        <ele>123.80000305176</ele>
        <time>2015-02-03T14:57:06.000Z</time>
      </trkpt>
      <trkpt lat="48.7971" lon="2.16329">
        <ele>123.59999847412</ele>
        <time>2015-02-03T14:57:07.000Z</time>
      </trkpt>
      <trkpt lat="48.79714" lon="2.16328">
        <ele>122.80000305176</ele>
        <time>2015-02-03T14:57:11.000Z</time>
      </trkpt>
      <trkpt lat="48.79717" lon="2.16326">
        <ele>122.19999694824</ele>
        <time>2015-02-03T14:57:15.000Z</time>
      </trkpt>
      <trkpt lat="48.79718" lon="2.16324">
        <ele>122</ele>
        <time>2015-02-03T14:57:17.000Z</time>
      </trkpt>
      <trkpt lat="48.79721" lon="2.16322">
        <ele>122</ele>
        <time>2015-02-03T14:57:21.000Z</time>
      </trkpt>
      <trkpt lat="48.79722" lon="2.16322">
        <ele>122</ele>
        <time>2015-02-03T14:57:22.000Z</time>
      </trkpt>
      <trkpt lat="48.79723" lon="2.16321">
        <ele>121.80000305176</ele>
        <time>2015-02-03T14:57:24.000Z</time>
      </trkpt>
      <trkpt lat="48.79726" lon="2.16321">
        <ele>121.59999847412</ele>
        <time>2015-02-03T14:57:29.000Z</time>
      </trkpt>
      <trkpt lat="48.79732" lon="2.1632">
        <ele>121.19999694824</ele>
        <time>2015-02-03T14:57:36.000Z</time>
      </trkpt>
      <trkpt lat="48.79736" lon="2.16319">
        <ele>120.80000305176</ele>
        <time>2015-02-03T14:57:41.000Z</time>
      </trkpt>
      <trkpt lat="48.79738" lon="2.16318">
        <ele>120.59999847412</ele>
        <time>2015-02-03T14:57:43.000Z</time>
      </trkpt>
      <trkpt lat="48.79743" lon="2.1632">
        <ele>120.19999694824</ele>
        <time>2015-02-03T14:57:48.000Z</time>
      </trkpt>
      <trkpt lat="48.79745" lon="2.1632">
        <ele>120</ele>
        <time>2015-02-03T14:57:51.000Z</time>
      </trkpt>
      <trkpt lat="48.79747" lon="2.1632">
        <ele>120</ele>
        <time>2015-02-03T14:57:53.000Z</time>
      </trkpt>
      <trkpt lat="48.79749" lon="2.1632">
        <ele>119.59999847412</ele>
        <time>2015-02-03T14:57:56.000Z</time>
      </trkpt>
      <trkpt lat="48.79749" lon="2.16321">
        <ele>119.59999847412</ele>
        <time>2015-02-03T14:57:57.000Z</time>
      </trkpt>
      <trkpt lat="48.7975" lon="2.16321">
        <ele>119.40000152588</ele>
        <time>2015-02-03T14:57:58.000Z</time>
      </trkpt>
      <trkpt lat="48.79755" lon="2.16325">
        <ele>119.40000152588</ele>
        <time>2015-02-03T14:58:04.000Z</time>
      </trkpt>
      <trkpt lat="48.79757" lon="2.16327">
        <ele>119.40000152588</ele>
        <time>2015-02-03T14:58:06.000Z</time>
      </trkpt>
      <trkpt lat="48.79761" lon="2.1633">
        <ele>119.80000305176</ele>
        <time>2015-02-03T14:58:13.000Z</time>
      </trkpt>
      <trkpt lat="48.79767" lon="2.16335">
        <ele>120</ele>
        <time>2015-02-03T14:58:20.000Z</time>
      </trkpt>
      <trkpt lat="48.79768" lon="2.16336">
        <ele>120</ele>
        <time>2015-02-03T14:58:21.000Z</time>
      </trkpt>
      <trkpt lat="48.79775" lon="2.16345">
        <ele>119.80000305176</ele>
        <time>2015-02-03T14:58:28.000Z</time>
      </trkpt>
      <trkpt lat="48.79778" lon="2.1635">
        <ele>120</ele>
        <time>2015-02-03T14:58:34.000Z</time>
      </trkpt>
      <trkpt lat="48.79779" lon="2.16351">
        <ele>120</ele>
        <time>2015-02-03T14:58:35.000Z</time>
      </trkpt>
      <trkpt lat="48.79781" lon="2.16353">
        <ele>120.19999694824</ele>
        <time>2015-02-03T14:58:43.000Z</time>
      </trkpt>
      <trkpt lat="48.79784" lon="2.1636">
        <ele>120.40000152588</ele>
        <time>2015-02-03T14:58:50.000Z</time>
      </trkpt>
      <trkpt lat="48.79788" lon="2.16366">
        <ele>120.59999847412</ele>
        <time>2015-02-03T14:58:58.000Z</time>
      </trkpt>
      <trkpt lat="48.7979" lon="2.16369">
        <ele>120.80000305176</ele>
        <time>2015-02-03T14:59:01.000Z</time>
      </trkpt>
      <trkpt lat="48.79792" lon="2.16372">
        <ele>120.80000305176</ele>
        <time>2015-02-03T14:59:04.000Z</time>
      </trkpt>
      <trkpt lat="48.79793" lon="2.16375">
        <ele>121</ele>
        <time>2015-02-03T14:59:07.000Z</time>
      </trkpt>
      <trkpt lat="48.79795" lon="2.16376">
        <ele>121</ele>
        <time>2015-02-03T14:59:09.000Z</time>
      </trkpt>
      <trkpt lat="48.79798" lon="2.16381">
        <ele>121.40000152588</ele>
        <time>2015-02-03T14:59:15.000Z</time>
      </trkpt>
      <trkpt lat="48.79801" lon="2.16389">
        <ele>121.59999847412</ele>
        <time>2015-02-03T14:59:20.000Z</time>
      </trkpt>
      <trkpt lat="48.79802" lon="2.1639">
        <ele>121.80000305176</ele>
        <time>2015-02-03T14:59:21.000Z</time>
      </trkpt>
      <trkpt lat="48.79801" lon="2.16391">
        <ele>121.80000305176</ele>
        <time>2015-02-03T14:59:22.000Z</time>
      </trkpt>
      <trkpt lat="48.79802" lon="2.16396">
        <ele>122</ele>
        <time>2015-02-03T14:59:25.000Z</time>
      </trkpt>
      <trkpt lat="48.79802" lon="2.16397">
        <ele>122</ele>
        <time>2015-02-03T14:59:26.000Z</time>
      </trkpt>
      <trkpt lat="48.79802" lon="2.16398">
        <ele>122</ele>
        <time>2015-02-03T14:59:27.000Z</time>
      </trkpt>
      <trkpt lat="48.79805" lon="2.16403">
        <ele>122.19999694824</ele>
        <time>2015-02-03T14:59:32.000Z</time>
      </trkpt>
      <trkpt lat="48.79808" lon="2.16406">
        <ele>122.40000152588</ele>
        <time>2015-02-03T14:59:40.000Z</time>
      </trkpt>
      <trkpt lat="48.7981" lon="2.16411">
        <ele>122.59999847412</ele>
        <time>2015-02-03T14:59:44.000Z</time>
      </trkpt>
      <trkpt lat="48.7981" lon="2.16412">
        <ele>122.80000305176</ele>
        <time>2015-02-03T14:59:45.000Z</time>
      </trkpt>
      <trkpt lat="48.79812" lon="2.16417">
        <ele>122.80000305176</ele>
        <time>2015-02-03T14:59:49.000Z</time>
      </trkpt>
      <trkpt lat="48.79813" lon="2.16424">
        <ele>123</ele>
        <time>2015-02-03T14:59:54.000Z</time>
      </trkpt>
      <trkpt lat="48.79814" lon="2.1643">
        <ele>123.19999694824</ele>
        <time>2015-02-03T14:59:58.000Z</time>
      </trkpt>
      <trkpt lat="48.79816" lon="2.16437">
        <ele>123.80000305176</ele>
        <time>2015-02-03T15:00:03.000Z</time>
      </trkpt>
      <trkpt lat="48.79817" lon="2.16439">
        <ele>124</ele>
        <time>2015-02-03T15:00:04.000Z</time>
      </trkpt>
      <trkpt lat="48.79819" lon="2.16446">
        <ele>124.19999694824</ele>
        <time>2015-02-03T15:00:09.000Z</time>
      </trkpt>
      <trkpt lat="48.79819" lon="2.16449">
        <ele>124.40000152588</ele>
        <time>2015-02-03T15:00:12.000Z</time>
      </trkpt>
      <trkpt lat="48.79819" lon="2.16451">
        <ele>124.40000152588</ele>
        <time>2015-02-03T15:00:13.000Z</time>
      </trkpt>
      <trkpt lat="48.79821" lon="2.16455">
        <ele>124.59999847412</ele>
        <time>2015-02-03T15:00:16.000Z</time>
      </trkpt>
      <trkpt lat="48.79821" lon="2.16456">
        <ele>124.59999847412</ele>
        <time>2015-02-03T15:00:17.000Z</time>
      </trkpt>
      <trkpt lat="48.79822" lon="2.1646">
        <ele>124.59999847412</ele>
        <time>2015-02-03T15:00:20.000Z</time>
      </trkpt>
      <trkpt lat="48.79822" lon="2.16462">
        <ele>124.80000305176</ele>
        <time>2015-02-03T15:00:21.000Z</time>
      </trkpt>
      <trkpt lat="48.79824" lon="2.16465">
        <ele>124.80000305176</ele>
        <time>2015-02-03T15:00:24.000Z</time>
      </trkpt>
      <trkpt lat="48.79826" lon="2.16469">
        <ele>125</ele>
        <time>2015-02-03T15:00:27.000Z</time>
      </trkpt>
      <trkpt lat="48.79827" lon="2.1647">
        <ele>125</ele>
        <time>2015-02-03T15:00:28.000Z</time>
      </trkpt>
      <trkpt lat="48.7983" lon="2.16477">
        <ele>125.19999694824</ele>
        <time>2015-02-03T15:00:34.000Z</time>
      </trkpt>
      <trkpt lat="48.7983" lon="2.16479">
        <ele>125.19999694824</ele>
        <time>2015-02-03T15:00:35.000Z</time>
      </trkpt>
      <trkpt lat="48.79834" lon="2.16486">
        <ele>125.40000152588</ele>
        <time>2015-02-03T15:00:40.000Z</time>
      </trkpt>
      <trkpt lat="48.79836" lon="2.16491">
        <ele>125.59999847412</ele>
        <time>2015-02-03T15:00:43.000Z</time>
      </trkpt>
      <trkpt lat="48.79837" lon="2.16494">
        <ele>125.80000305176</ele>
        <time>2015-02-03T15:00:45.000Z</time>
      </trkpt>
      <trkpt lat="48.79837" lon="2.16497">
        <ele>125.80000305176</ele>
        <time>2015-02-03T15:00:47.000Z</time>
      </trkpt>
      <trkpt lat="48.79839" lon="2.165">
        <ele>126</ele>
        <time>2015-02-03T15:00:49.000Z</time>
      </trkpt>
      <trkpt lat="48.7984" lon="2.16505">
        <ele>126</ele>
        <time>2015-02-03T15:00:52.000Z</time>
      </trkpt>
      <trkpt lat="48.79841" lon="2.1651">
        <ele>126.19999694824</ele>
        <time>2015-02-03T15:00:55.000Z</time>
      </trkpt>
      <trkpt lat="48.79843" lon="2.16515">
        <ele>126.40000152588</ele>
        <time>2015-02-03T15:00:58.000Z</time>
      </trkpt>
      <trkpt lat="48.79844" lon="2.16516">
        <ele>126.40000152588</ele>
        <time>2015-02-03T15:00:59.000Z</time>
      </trkpt>
      <trkpt lat="48.79846" lon="2.16521">
        <ele>126.80000305176</ele>
        <time>2015-02-03T15:01:02.000Z</time>
      </trkpt>
      <trkpt lat="48.79848" lon="2.16527">
        <ele>126.80000305176</ele>
        <time>2015-02-03T15:01:06.000Z</time>
      </trkpt>
      <trkpt lat="48.79848" lon="2.16528">
        <ele>126.80000305176</ele>
        <time>2015-02-03T15:01:07.000Z</time>
      </trkpt>
      <trkpt lat="48.79848" lon="2.16531">
        <ele>127</ele>
        <time>2015-02-03T15:01:09.000Z</time>
      </trkpt>
      <trkpt lat="48.79849" lon="2.16535">
        <ele>127.19999694824</ele>
        <time>2015-02-03T15:01:12.000Z</time>
      </trkpt>
      <trkpt lat="48.7985" lon="2.16537">
        <ele>127.19999694824</ele>
        <time>2015-02-03T15:01:13.000Z</time>
      </trkpt>
      <trkpt lat="48.7985" lon="2.16538">
        <ele>127.19999694824</ele>
        <time>2015-02-03T15:01:14.000Z</time>
      </trkpt>
      <trkpt lat="48.79851" lon="2.16542">
        <ele>127.40000152588</ele>
        <time>2015-02-03T15:01:17.000Z</time>
      </trkpt>
      <trkpt lat="48.79851" lon="2.16544">
        <ele>127.40000152588</ele>
        <time>2015-02-03T15:01:18.000Z</time>
      </trkpt>
      <trkpt lat="48.79855" lon="2.1655">
        <ele>127.59999847412</ele>
        <time>2015-02-03T15:01:23.000Z</time>
      </trkpt>
      <trkpt lat="48.79856" lon="2.16551">
        <ele>127.59999847412</ele>
        <time>2015-02-03T15:01:24.000Z</time>
      </trkpt>
      <trkpt lat="48.79857" lon="2.16552">
        <ele>127.59999847412</ele>
        <time>2015-02-03T15:01:25.000Z</time>
      </trkpt>
      <trkpt lat="48.79864" lon="2.16558">
        <ele>127.80000305176</ele>
        <time>2015-02-03T15:01:31.000Z</time>
      </trkpt>
      <trkpt lat="48.79868" lon="2.16567">
        <ele>128</ele>
        <time>2015-02-03T15:01:37.000Z</time>
      </trkpt>
      <trkpt lat="48.79868" lon="2.1657">
        <ele>128.19999694824</ele>
        <time>2015-02-03T15:01:39.000Z</time>
      </trkpt>
      <trkpt lat="48.79869" lon="2.16572">
        <ele>128.19999694824</ele>
        <time>2015-02-03T15:01:40.000Z</time>
      </trkpt>
      <trkpt lat="48.79871" lon="2.16579">
        <ele>128.60000610352</ele>
        <time>2015-02-03T15:01:44.000Z</time>
      </trkpt>
      <trkpt lat="48.79871" lon="2.16582">
        <ele>128.60000610352</ele>
        <time>2015-02-03T15:01:46.000Z</time>
      </trkpt>
      <trkpt lat="48.7987" lon="2.16595">
        <ele>129</ele>
        <time>2015-02-03T15:01:54.000Z</time>
      </trkpt>
      <trkpt lat="48.79869" lon="2.16596">
        <ele>129.19999694824</ele>
        <time>2015-02-03T15:01:55.000Z</time>
      </trkpt>
      <trkpt lat="48.79866" lon="2.16609">
        <ele>130</ele>
        <time>2015-02-03T15:02:04.000Z</time>
      </trkpt>
      <trkpt lat="48.79865" lon="2.16612">
        <ele>130</ele>
        <time>2015-02-03T15:02:06.000Z</time>
      </trkpt>
      <trkpt lat="48.79863" lon="2.16619">
        <ele>130.60000610352</ele>
        <time>2015-02-03T15:02:11.000Z</time>
      </trkpt>
      <trkpt lat="48.79861" lon="2.16629">
        <ele>131</ele>
        <time>2015-02-03T15:02:20.000Z</time>
      </trkpt>
      <trkpt lat="48.7986" lon="2.16633">
        <ele>131</ele>
        <time>2015-02-03T15:02:27.000Z</time>
      </trkpt>
      <trkpt lat="48.79859" lon="2.16635">
        <ele>131.19999694824</ele>
        <time>2015-02-03T15:02:29.000Z</time>
      </trkpt>
      <trkpt lat="48.79859" lon="2.16642">
        <ele>131.19999694824</ele>
        <time>2015-02-03T15:02:35.000Z</time>
      </trkpt>
      <trkpt lat="48.79856" lon="2.16652">
        <ele>131.39999389648</ele>
        <time>2015-02-03T15:02:44.000Z</time>
      </trkpt>
      <trkpt lat="48.79853" lon="2.16658">
        <ele>132</ele>
        <time>2015-02-03T15:02:50.000Z</time>
      </trkpt>
      <trkpt lat="48.79852" lon="2.16659">
        <ele>132.19999694824</ele>
        <time>2015-02-03T15:02:51.000Z</time>
      </trkpt>
      <trkpt lat="48.7985" lon="2.16661">
        <ele>133</ele>
        <time>2015-02-03T15:02:56.000Z</time>
      </trkpt>
      <trkpt lat="48.7985" lon="2.16662">
        <ele>133.39999389648</ele>
        <time>2015-02-03T15:02:58.000Z</time>
      </trkpt>
      <trkpt lat="48.79848" lon="2.16666">
        <ele>134.39999389648</ele>
        <time>2015-02-03T15:03:04.000Z</time>
      </trkpt>
      <trkpt lat="48.79847" lon="2.16665">
        <ele>134.60000610352</ele>
        <time>2015-02-03T15:03:06.000Z</time>
      </trkpt>
      <trkpt lat="48.79845" lon="2.16668">
        <ele>135.39999389648</ele>
        <time>2015-02-03T15:03:11.000Z</time>
      </trkpt>
      <trkpt lat="48.79845" lon="2.16668">
        <ele>135.60000610352</ele>
        <time>2015-02-03T15:03:12.000Z</time>
      </trkpt>
      <trkpt lat="48.79843" lon="2.1667">
        <ele>136.60000610352</ele>
        <time>2015-02-03T15:03:17.000Z</time>
      </trkpt>
      <trkpt lat="48.79841" lon="2.16677">
        <ele>137.60000610352</ele>
        <time>2015-02-03T15:03:24.000Z</time>
      </trkpt>
      <trkpt lat="48.7984" lon="2.1668">
        <ele>138</ele>
        <time>2015-02-03T15:03:26.000Z</time>
      </trkpt>
      <trkpt lat="48.79838" lon="2.16688">
        <ele>138.60000610352</ele>
        <time>2015-02-03T15:03:32.000Z</time>
      </trkpt>
      <trkpt lat="48.79838" lon="2.16691">
        <ele>138.80000305176</ele>
        <time>2015-02-03T15:03:34.000Z</time>
      </trkpt>
      <trkpt lat="48.79837" lon="2.16696">
        <ele>139</ele>
        <time>2015-02-03T15:03:37.000Z</time>
      </trkpt>
      <trkpt lat="48.79836" lon="2.16697">
        <ele>139.19999694824</ele>
        <time>2015-02-03T15:03:38.000Z</time>
      </trkpt>
      <trkpt lat="48.79836" lon="2.16701">
        <ele>139.19999694824</ele>
        <time>2015-02-03T15:03:41.000Z</time>
      </trkpt>
      <trkpt lat="48.79835" lon="2.16706">
        <ele>139.39999389648</ele>
        <time>2015-02-03T15:03:44.000Z</time>
      </trkpt>
      <trkpt lat="48.79834" lon="2.16709">
        <ele>139.39999389648</ele>
        <time>2015-02-03T15:03:46.000Z</time>
      </trkpt>
      <trkpt lat="48.79834" lon="2.16713">
        <ele>139.39999389648</ele>
        <time>2015-02-03T15:03:49.000Z</time>
      </trkpt>
      <trkpt lat="48.79833" lon="2.16718">
        <ele>139.80000305176</ele>
        <time>2015-02-03T15:03:53.000Z</time>
      </trkpt>
      <trkpt lat="48.79833" lon="2.16721">
        <ele>140</ele>
        <time>2015-02-03T15:03:55.000Z</time>
      </trkpt>
      <trkpt lat="48.7983" lon="2.16733">
        <ele>140.60000610352</ele>
        <time>2015-02-03T15:04:03.000Z</time>
      </trkpt>
      <trkpt lat="48.79828" lon="2.16738">
        <ele>141</ele>
        <time>2015-02-03T15:04:07.000Z</time>
      </trkpt>
      <trkpt lat="48.79826" lon="2.16742">
        <ele>141.19999694824</ele>
        <time>2015-02-03T15:04:10.000Z</time>
      </trkpt>
      <trkpt lat="48.79823" lon="2.16753">
        <ele>141.39999389648</ele>
        <time>2015-02-03T15:04:18.000Z</time>
      </trkpt>
      <trkpt lat="48.79824" lon="2.16754">
        <ele>141.60000610352</ele>
        <time>2015-02-03T15:04:19.000Z</time>
      </trkpt>
      <trkpt lat="48.79823" lon="2.16759">
        <ele>141.80000305176</ele>
        <time>2015-02-03T15:04:23.000Z</time>
      </trkpt>
      <trkpt lat="48.79821" lon="2.16764">
        <ele>141.80000305176</ele>
        <time>2015-02-03T15:04:26.000Z</time>
      </trkpt>
      <trkpt lat="48.7982" lon="2.16769">
        <ele>142</ele>
        <time>2015-02-03T15:04:29.000Z</time>
      </trkpt>
      <trkpt lat="48.79819" lon="2.16771">
        <ele>142</ele>
        <time>2015-02-03T15:04:30.000Z</time>
      </trkpt>
      <trkpt lat="48.7982" lon="2.16772">
        <ele>142</ele>
        <time>2015-02-03T15:04:31.000Z</time>
      </trkpt>
      <trkpt lat="48.79819" lon="2.16777">
        <ele>142.19999694824</ele>
        <time>2015-02-03T15:04:35.000Z</time>
      </trkpt>
      <trkpt lat="48.79819" lon="2.16779">
        <ele>142.19999694824</ele>
        <time>2015-02-03T15:04:36.000Z</time>
      </trkpt>
      <trkpt lat="48.79819" lon="2.16784">
        <ele>142.19999694824</ele>
        <time>2015-02-03T15:04:40.000Z</time>
      </trkpt>
      <trkpt lat="48.79817" lon="2.16791">
        <ele>142.39999389648</ele>
        <time>2015-02-03T15:04:47.000Z</time>
      </trkpt>
      <trkpt lat="48.79814" lon="2.16799">
        <ele>142.19999694824</ele>
        <time>2015-02-03T15:04:54.000Z</time>
      </trkpt>
      <trkpt lat="48.79814" lon="2.16802">
        <ele>141.80000305176</ele>
        <time>2015-02-03T15:04:56.000Z</time>
      </trkpt>
      <trkpt lat="48.79814" lon="2.16805">
        <ele>141.39999389648</ele>
        <time>2015-02-03T15:04:59.000Z</time>
      </trkpt>
      <trkpt lat="48.79814" lon="2.16807">
        <ele>141.39999389648</ele>
        <time>2015-02-03T15:05:00.000Z</time>
      </trkpt>
      <trkpt lat="48.79814" lon="2.16813">
        <ele>141.80000305176</ele>
        <time>2015-02-03T15:05:04.000Z</time>
      </trkpt>
      <trkpt lat="48.79813" lon="2.1682">
        <ele>142</ele>
        <time>2015-02-03T15:05:10.000Z</time>
      </trkpt>
      <trkpt lat="48.79811" lon="2.1683">
        <ele>141.60000610352</ele>
        <time>2015-02-03T15:05:17.000Z</time>
      </trkpt>
      <trkpt lat="48.79811" lon="2.16835">
        <ele>141.60000610352</ele>
        <time>2015-02-03T15:05:20.000Z</time>
      </trkpt>
      <trkpt lat="48.79811" lon="2.16839">
        <ele>141.39999389648</ele>
        <time>2015-02-03T15:05:23.000Z</time>
      </trkpt>
      <trkpt lat="48.79811" lon="2.16842">
        <ele>141.19999694824</ele>
        <time>2015-02-03T15:05:25.000Z</time>
      </trkpt>
      <trkpt lat="48.7981" lon="2.16843">
        <ele>141.19999694824</ele>
        <time>2015-02-03T15:05:26.000Z</time>
      </trkpt>
      <trkpt lat="48.79809" lon="2.16846">
        <ele>140.80000305176</ele>
        <time>2015-02-03T15:05:28.000Z</time>
      </trkpt>
      <trkpt lat="48.79809" lon="2.16849">
        <ele>140.60000610352</ele>
        <time>2015-02-03T15:05:30.000Z</time>
      </trkpt>
      <trkpt lat="48.79808" lon="2.16852">
        <ele>140.39999389648</ele>
        <time>2015-02-03T15:05:32.000Z</time>
      </trkpt>
      <trkpt lat="48.79808" lon="2.16853">
        <ele>140.19999694824</ele>
        <time>2015-02-03T15:05:33.000Z</time>
      </trkpt>
      <trkpt lat="48.79808" lon="2.16856">
        <ele>140.19999694824</ele>
        <time>2015-02-03T15:05:35.000Z</time>
      </trkpt>
      <trkpt lat="48.79808" lon="2.16856">
        <ele>140.19999694824</ele>
        <time>2015-02-03T15:05:36.000Z</time>
      </trkpt>
      <trkpt lat="48.79808" lon="2.16858">
        <ele>140.19999694824</ele>
        <time>2015-02-03T15:05:37.000Z</time>
      </trkpt>
      <trkpt lat="48.79806" lon="2.16863">
        <ele>140</ele>
        <time>2015-02-03T15:05:40.000Z</time>
      </trkpt>
      <trkpt lat="48.79805" lon="2.16864">
        <ele>139.80000305176</ele>
        <time>2015-02-03T15:05:41.000Z</time>
      </trkpt>
      <trkpt lat="48.79803" lon="2.1687">
        <ele>139.39999389648</ele>
        <time>2015-02-03T15:05:45.000Z</time>
      </trkpt>
      <trkpt lat="48.79804" lon="2.16875">
        <ele>139</ele>
        <time>2015-02-03T15:05:52.000Z</time>
      </trkpt>
      <trkpt lat="48.79805" lon="2.16878">
        <ele>138.80000305176</ele>
        <time>2015-02-03T15:05:55.000Z</time>
      </trkpt>
      <trkpt lat="48.79803" lon="2.16883">
        <ele>138.60000610352</ele>
        <time>2015-02-03T15:05:58.000Z</time>
      </trkpt>
      <trkpt lat="48.79802" lon="2.1689">
        <ele>137.80000305176</ele>
        <time>2015-02-03T15:06:03.000Z</time>
      </trkpt>
      <trkpt lat="48.79801" lon="2.16893">
        <ele>137.80000305176</ele>
        <time>2015-02-03T15:06:05.000Z</time>
      </trkpt>
      <trkpt lat="48.79798" lon="2.16905">
        <ele>137.19999694824</ele>
        <time>2015-02-03T15:06:13.000Z</time>
      </trkpt>
      <trkpt lat="48.79796" lon="2.16917">
        <ele>136.80000305176</ele>
        <time>2015-02-03T15:06:20.000Z</time>
      </trkpt>
      <trkpt lat="48.79795" lon="2.1692">
        <ele>136.80000305176</ele>
        <time>2015-02-03T15:06:22.000Z</time>
      </trkpt>
      <trkpt lat="48.79794" lon="2.16922">
        <ele>136.80000305176</ele>
        <time>2015-02-03T15:06:24.000Z</time>
      </trkpt>
      <trkpt lat="48.79794" lon="2.16926">
        <ele>136.60000610352</ele>
        <time>2015-02-03T15:06:27.000Z</time>
      </trkpt>
      <trkpt lat="48.79794" lon="2.16928">
        <ele>136.60000610352</ele>
        <time>2015-02-03T15:06:28.000Z</time>
      </trkpt>
      <trkpt lat="48.79793" lon="2.16935">
        <ele>136.60000610352</ele>
        <time>2015-02-03T15:06:33.000Z</time>
      </trkpt>
      <trkpt lat="48.79791" lon="2.16948">
        <ele>136.60000610352</ele>
        <time>2015-02-03T15:06:41.000Z</time>
      </trkpt>
      <trkpt lat="48.79789" lon="2.16962">
        <ele>136.60000610352</ele>
        <time>2015-02-03T15:06:49.000Z</time>
      </trkpt>
      <trkpt lat="48.79787" lon="2.16977">
        <ele>136.60000610352</ele>
        <time>2015-02-03T15:06:57.000Z</time>
      </trkpt>
      <trkpt lat="48.79785" lon="2.16982">
        <ele>136.39999389648</ele>
        <time>2015-02-03T15:07:00.000Z</time>
      </trkpt>
      <trkpt lat="48.79784" lon="2.16989">
        <ele>136.19999694824</ele>
        <time>2015-02-03T15:07:04.000Z</time>
      </trkpt>
      <trkpt lat="48.79783" lon="2.16997">
        <ele>136.39999389648</ele>
        <time>2015-02-03T15:07:10.000Z</time>
      </trkpt>
      <trkpt lat="48.79784" lon="2.16999">
        <ele>136.19999694824</ele>
        <time>2015-02-03T15:07:12.000Z</time>
      </trkpt>
      <trkpt lat="48.79786" lon="2.17006">
        <ele>136</ele>
        <time>2015-02-03T15:07:17.000Z</time>
      </trkpt>
      <trkpt lat="48.79786" lon="2.17007">
        <ele>136</ele>
        <time>2015-02-03T15:07:18.000Z</time>
      </trkpt>
      <trkpt lat="48.79784" lon="2.1701">
        <ele>136</ele>
        <time>2015-02-03T15:07:21.000Z</time>
      </trkpt>
      <trkpt lat="48.79783" lon="2.17012">
        <ele>136</ele>
        <time>2015-02-03T15:07:22.000Z</time>
      </trkpt>
      <trkpt lat="48.79783" lon="2.17013">
        <ele>136</ele>
        <time>2015-02-03T15:07:23.000Z</time>
      </trkpt>
      <trkpt lat="48.7978" lon="2.17023">
        <ele>136</ele>
        <time>2015-02-03T15:07:28.000Z</time>
      </trkpt>
      <trkpt lat="48.7978" lon="2.17024">
        <ele>136</ele>
        <time>2015-02-03T15:07:29.000Z</time>
      </trkpt>
      <trkpt lat="48.79778" lon="2.17027">
        <ele>135.80000305176</ele>
        <time>2015-02-03T15:07:32.000Z</time>
      </trkpt>
      <trkpt lat="48.79777" lon="2.17028">
        <ele>135.60000610352</ele>
        <time>2015-02-03T15:07:34.000Z</time>
      </trkpt>
      <trkpt lat="48.79773" lon="2.17038">
        <ele>135.60000610352</ele>
        <time>2015-02-03T15:07:40.000Z</time>
      </trkpt>
      <trkpt lat="48.7977" lon="2.17046">
        <ele>135.60000610352</ele>
        <time>2015-02-03T15:07:45.000Z</time>
      </trkpt>
      <trkpt lat="48.79769" lon="2.17049">
        <ele>135.60000610352</ele>
        <time>2015-02-03T15:07:47.000Z</time>
      </trkpt>
      <trkpt lat="48.79768" lon="2.1705">
        <ele>135.60000610352</ele>
        <time>2015-02-03T15:07:48.000Z</time>
      </trkpt>
      <trkpt lat="48.79765" lon="2.17056">
        <ele>135.60000610352</ele>
        <time>2015-02-03T15:07:53.000Z</time>
      </trkpt>
      <trkpt lat="48.79765" lon="2.17058">
        <ele>135.60000610352</ele>
        <time>2015-02-03T15:07:54.000Z</time>
      </trkpt>
      <trkpt lat="48.79761" lon="2.17067">
        <ele>135.60000610352</ele>
        <time>2015-02-03T15:08:01.000Z</time>
      </trkpt>
      <trkpt lat="48.7976" lon="2.17071">
        <ele>135.39999389648</ele>
        <time>2015-02-03T15:08:10.000Z</time>
      </trkpt>
      <trkpt lat="48.79758" lon="2.17079">
        <ele>135.39999389648</ele>
        <time>2015-02-03T15:08:17.000Z</time>
      </trkpt>
      <trkpt lat="48.79757" lon="2.17088">
        <ele>135.39999389648</ele>
        <time>2015-02-03T15:08:24.000Z</time>
      </trkpt>
      <trkpt lat="48.79756" lon="2.17093">
        <ele>135.39999389648</ele>
        <time>2015-02-03T15:08:28.000Z</time>
      </trkpt>
      <trkpt lat="48.79756" lon="2.17098">
        <ele>135.39999389648</ele>
        <time>2015-02-03T15:08:31.000Z</time>
      </trkpt>
      <trkpt lat="48.79756" lon="2.17104">
        <ele>135.39999389648</ele>
        <time>2015-02-03T15:08:35.000Z</time>
      </trkpt>
      <trkpt lat="48.79755" lon="2.1711">
        <ele>135.39999389648</ele>
        <time>2015-02-03T15:08:38.000Z</time>
      </trkpt>
      <trkpt lat="48.79753" lon="2.1712">
        <ele>135.39999389648</ele>
        <time>2015-02-03T15:08:44.000Z</time>
      </trkpt>
      <trkpt lat="48.79749" lon="2.17129">
        <ele>135.19999694824</ele>
        <time>2015-02-03T15:08:49.000Z</time>
      </trkpt>
      <trkpt lat="48.79749" lon="2.17132">
        <ele>135</ele>
        <time>2015-02-03T15:08:51.000Z</time>
      </trkpt>
      <trkpt lat="48.79749" lon="2.17138">
        <ele>134.80000305176</ele>
        <time>2015-02-03T15:08:56.000Z</time>
      </trkpt>
      <trkpt lat="48.79748" lon="2.17143">
        <ele>134.80000305176</ele>
        <time>2015-02-03T15:08:59.000Z</time>
      </trkpt>
      <trkpt lat="48.79748" lon="2.17146">
        <ele>134.60000610352</ele>
        <time>2015-02-03T15:09:01.000Z</time>
      </trkpt>
      <trkpt lat="48.79746" lon="2.17157">
        <ele>134.80000305176</ele>
        <time>2015-02-03T15:09:08.000Z</time>
      </trkpt>
      <trkpt lat="48.79743" lon="2.17169">
        <ele>134.60000610352</ele>
        <time>2015-02-03T15:09:15.000Z</time>
      </trkpt>
      <trkpt lat="48.7974" lon="2.1718">
        <ele>134.80000305176</ele>
        <time>2015-02-03T15:09:21.000Z</time>
      </trkpt>
      <trkpt lat="48.79738" lon="2.17186">
        <ele>134.80000305176</ele>
        <time>2015-02-03T15:09:26.000Z</time>
      </trkpt>
      <trkpt lat="48.79733" lon="2.17193">
        <ele>134.80000305176</ele>
        <time>2015-02-03T15:09:33.000Z</time>
      </trkpt>
      <trkpt lat="48.79729" lon="2.17201">
        <ele>134.80000305176</ele>
        <time>2015-02-03T15:09:40.000Z</time>
      </trkpt>
      <trkpt lat="48.79724" lon="2.17208">
        <ele>135</ele>
        <time>2015-02-03T15:09:46.000Z</time>
      </trkpt>
      <trkpt lat="48.79724" lon="2.17209">
        <ele>135</ele>
        <time>2015-02-03T15:09:47.000Z</time>
      </trkpt>
      <trkpt lat="48.7972" lon="2.17214">
        <ele>135.19999694824</ele>
        <time>2015-02-03T15:09:51.000Z</time>
      </trkpt>
      <trkpt lat="48.79716" lon="2.17223">
        <ele>135.39999389648</ele>
        <time>2015-02-03T15:09:58.000Z</time>
      </trkpt>
      <trkpt lat="48.79714" lon="2.17229">
        <ele>135.60000610352</ele>
        <time>2015-02-03T15:10:02.000Z</time>
      </trkpt>
      <trkpt lat="48.79713" lon="2.17231">
        <ele>135.80000305176</ele>
        <time>2015-02-03T15:10:03.000Z</time>
      </trkpt>
      <trkpt lat="48.79712" lon="2.17235">
        <ele>136</ele>
        <time>2015-02-03T15:10:05.000Z</time>
      </trkpt>
      <trkpt lat="48.7971" lon="2.17245">
        <ele>136.19999694824</ele>
        <time>2015-02-03T15:10:10.000Z</time>
      </trkpt>
      <trkpt lat="48.7971" lon="2.17247">
        <ele>136.19999694824</ele>
        <time>2015-02-03T15:10:11.000Z</time>
      </trkpt>
      <trkpt lat="48.79709" lon="2.17257">
        <ele>136.39999389648</ele>
        <time>2015-02-03T15:10:18.000Z</time>
      </trkpt>
      <trkpt lat="48.79708" lon="2.17268">
        <ele>136.60000610352</ele>
        <time>2015-02-03T15:10:25.000Z</time>
      </trkpt>
      <trkpt lat="48.79708" lon="2.17276">
        <ele>136.80000305176</ele>
        <time>2015-02-03T15:10:30.000Z</time>
      </trkpt>
      <trkpt lat="48.79708" lon="2.17277">
        <ele>136.80000305176</ele>
        <time>2015-02-03T15:10:31.000Z</time>
      </trkpt>
      <trkpt lat="48.79708" lon="2.17286">
        <ele>137</ele>
        <time>2015-02-03T15:10:36.000Z</time>
      </trkpt>
      <trkpt lat="48.79708" lon="2.17289">
        <ele>137</ele>
        <time>2015-02-03T15:10:38.000Z</time>
      </trkpt>
      <trkpt lat="48.79708" lon="2.17302">
        <ele>137.19999694824</ele>
        <time>2015-02-03T15:10:46.000Z</time>
      </trkpt>
      <trkpt lat="48.79708" lon="2.17314">
        <ele>137</ele>
        <time>2015-02-03T15:10:52.000Z</time>
      </trkpt>
      <trkpt lat="48.79707" lon="2.17324">
        <ele>137</ele>
        <time>2015-02-03T15:10:58.000Z</time>
      </trkpt>
      <trkpt lat="48.79707" lon="2.17326">
        <ele>137</ele>
        <time>2015-02-03T15:10:59.000Z</time>
      </trkpt>
      <trkpt lat="48.79703" lon="2.17338">
        <ele>136.80000305176</ele>
        <time>2015-02-03T15:11:06.000Z</time>
      </trkpt>
      <trkpt lat="48.79701" lon="2.17342">
        <ele>136.80000305176</ele>
        <time>2015-02-03T15:11:08.000Z</time>
      </trkpt>
      <trkpt lat="48.79694" lon="2.17356">
        <ele>136.80000305176</ele>
        <time>2015-02-03T15:11:17.000Z</time>
      </trkpt>
      <trkpt lat="48.79689" lon="2.17365">
        <ele>137.19999694824</ele>
        <time>2015-02-03T15:11:23.000Z</time>
      </trkpt>
      <trkpt lat="48.79687" lon="2.17376">
        <ele>137.19999694824</ele>
        <time>2015-02-03T15:11:30.000Z</time>
      </trkpt>
      <trkpt lat="48.79684" lon="2.17382">
        <ele>137</ele>
        <time>2015-02-03T15:11:35.000Z</time>
      </trkpt>
      <trkpt lat="48.79683" lon="2.17385">
        <ele>137.19999694824</ele>
        <time>2015-02-03T15:11:38.000Z</time>
      </trkpt>
      <trkpt lat="48.79681" lon="2.17391">
        <ele>137.19999694824</ele>
        <time>2015-02-03T15:11:44.000Z</time>
      </trkpt>
      <trkpt lat="48.7968" lon="2.17401">
        <ele>137.39999389648</ele>
        <time>2015-02-03T15:11:51.000Z</time>
      </trkpt>
      <trkpt lat="48.7968" lon="2.17403">
        <ele>137.39999389648</ele>
        <time>2015-02-03T15:11:52.000Z</time>
      </trkpt>
      <trkpt lat="48.7968" lon="2.17413">
        <ele>137.19999694824</ele>
        <time>2015-02-03T15:11:57.000Z</time>
      </trkpt>
      <trkpt lat="48.7968" lon="2.17422">
        <ele>136.80000305176</ele>
        <time>2015-02-03T15:12:02.000Z</time>
      </trkpt>
      <trkpt lat="48.79682" lon="2.17433">
        <ele>136.80000305176</ele>
        <time>2015-02-03T15:12:09.000Z</time>
      </trkpt>
      <trkpt lat="48.79684" lon="2.17444">
        <ele>136.39999389648</ele>
        <time>2015-02-03T15:12:15.000Z</time>
      </trkpt>
      <trkpt lat="48.79687" lon="2.17456">
        <ele>135.80000305176</ele>
        <time>2015-02-03T15:12:22.000Z</time>
      </trkpt>
      <trkpt lat="48.79688" lon="2.17458">
        <ele>135.80000305176</ele>
        <time>2015-02-03T15:12:23.000Z</time>
      </trkpt>
      <trkpt lat="48.7969" lon="2.17467">
        <ele>135.19999694824</ele>
        <time>2015-02-03T15:12:28.000Z</time>
      </trkpt>
      <trkpt lat="48.79692" lon="2.1747">
        <ele>135.19999694824</ele>
        <time>2015-02-03T15:12:30.000Z</time>
      </trkpt>
      <trkpt lat="48.79693" lon="2.17477">
        <ele>134.80000305176</ele>
        <time>2015-02-03T15:12:35.000Z</time>
      </trkpt>
      <trkpt lat="48.79694" lon="2.17478">
        <ele>134.80000305176</ele>
        <time>2015-02-03T15:12:36.000Z</time>
      </trkpt>
      <trkpt lat="48.79694" lon="2.17481">
        <ele>134.60000610352</ele>
        <time>2015-02-03T15:12:39.000Z</time>
      </trkpt>
      <trkpt lat="48.79695" lon="2.17484">
        <ele>134.60000610352</ele>
        <time>2015-02-03T15:12:41.000Z</time>
      </trkpt>
      <trkpt lat="48.79694" lon="2.17486">
        <ele>134.39999389648</ele>
        <time>2015-02-03T15:12:42.000Z</time>
      </trkpt>
      <trkpt lat="48.79693" lon="2.17495">
        <ele>134.19999694824</ele>
        <time>2015-02-03T15:12:50.000Z</time>
      </trkpt>
      <trkpt lat="48.79695" lon="2.17502">
        <ele>134.19999694824</ele>
        <time>2015-02-03T15:12:55.000Z</time>
      </trkpt>
      <trkpt lat="48.79693" lon="2.17515">
        <ele>134</ele>
        <time>2015-02-03T15:13:03.000Z</time>
      </trkpt>
      <trkpt lat="48.79692" lon="2.1752">
        <ele>134</ele>
        <time>2015-02-03T15:13:09.000Z</time>
      </trkpt>
      <trkpt lat="48.79692" lon="2.17529">
        <ele>134.19999694824</ele>
        <time>2015-02-03T15:13:15.000Z</time>
      </trkpt>
      <trkpt lat="48.79693" lon="2.17531">
        <ele>134.39999389648</ele>
        <time>2015-02-03T15:13:16.000Z</time>
      </trkpt>
      <trkpt lat="48.79695" lon="2.17536">
        <ele>134</ele>
        <time>2015-02-03T15:13:20.000Z</time>
      </trkpt>
      <trkpt lat="48.79696" lon="2.17537">
        <ele>134</ele>
        <time>2015-02-03T15:13:22.000Z</time>
      </trkpt>
      <trkpt lat="48.797" lon="2.17538">
        <ele>133.80000305176</ele>
        <time>2015-02-03T15:13:27.000Z</time>
      </trkpt>
      <trkpt lat="48.79701" lon="2.17539">
        <ele>133.60000610352</ele>
        <time>2015-02-03T15:13:28.000Z</time>
      </trkpt>
      <trkpt lat="48.79702" lon="2.17541">
        <ele>133.39999389648</ele>
        <time>2015-02-03T15:13:30.000Z</time>
      </trkpt>
      <trkpt lat="48.79702" lon="2.17544">
        <ele>133.19999694824</ele>
        <time>2015-02-03T15:13:32.000Z</time>
      </trkpt>
      <trkpt lat="48.79699" lon="2.17551">
        <ele>133</ele>
        <time>2015-02-03T15:13:39.000Z</time>
      </trkpt>
      <trkpt lat="48.79698" lon="2.17554">
        <ele>133</ele>
        <time>2015-02-03T15:13:42.000Z</time>
      </trkpt>
      <trkpt lat="48.79696" lon="2.17562">
        <ele>133.39999389648</ele>
        <time>2015-02-03T15:13:47.000Z</time>
      </trkpt>
      <trkpt lat="48.79696" lon="2.17567">
        <ele>133.19999694824</ele>
        <time>2015-02-03T15:13:51.000Z</time>
      </trkpt>
      <trkpt lat="48.79696" lon="2.1757">
        <ele>133</ele>
        <time>2015-02-03T15:13:53.000Z</time>
      </trkpt>
      <trkpt lat="48.79696" lon="2.17579">
        <ele>133</ele>
        <time>2015-02-03T15:13:59.000Z</time>
      </trkpt>
      <trkpt lat="48.79696" lon="2.17582">
        <ele>133</ele>
        <time>2015-02-03T15:14:01.000Z</time>
      </trkpt>
      <trkpt lat="48.79696" lon="2.17588">
        <ele>133</ele>
        <time>2015-02-03T15:14:06.000Z</time>
      </trkpt>
      <trkpt lat="48.79695" lon="2.1759">
        <ele>133</ele>
        <time>2015-02-03T15:14:08.000Z</time>
      </trkpt>
      <trkpt lat="48.79692" lon="2.17599">
        <ele>132.80000305176</ele>
        <time>2015-02-03T15:14:15.000Z</time>
      </trkpt>
      <trkpt lat="48.7969" lon="2.17605">
        <ele>132.60000610352</ele>
        <time>2015-02-03T15:14:20.000Z</time>
      </trkpt>
      <trkpt lat="48.79688" lon="2.17609">
        <ele>132.60000610352</ele>
        <time>2015-02-03T15:14:23.000Z</time>
      </trkpt>
      <trkpt lat="48.79686" lon="2.17615">
        <ele>132.80000305176</ele>
        <time>2015-02-03T15:14:27.000Z</time>
      </trkpt>
      <trkpt lat="48.79686" lon="2.17618">
        <ele>132.80000305176</ele>
        <time>2015-02-03T15:14:29.000Z</time>
      </trkpt>
      <trkpt lat="48.79683" lon="2.17623">
        <ele>132.80000305176</ele>
        <time>2015-02-03T15:14:32.000Z</time>
      </trkpt>
      <trkpt lat="48.79682" lon="2.17633">
        <ele>132.80000305176</ele>
        <time>2015-02-03T15:14:38.000Z</time>
      </trkpt>
      <trkpt lat="48.79681" lon="2.17642">
        <ele>133</ele>
        <time>2015-02-03T15:14:44.000Z</time>
      </trkpt>
      <trkpt lat="48.79679" lon="2.17651">
        <ele>133.39999389648</ele>
        <time>2015-02-03T15:14:50.000Z</time>
      </trkpt>
      <trkpt lat="48.79678" lon="2.17658">
        <ele>133.80000305176</ele>
        <time>2015-02-03T15:14:54.000Z</time>
      </trkpt>
      <trkpt lat="48.79678" lon="2.17662">
        <ele>134</ele>
        <time>2015-02-03T15:14:57.000Z</time>
      </trkpt>
      <trkpt lat="48.79678" lon="2.17665">
        <ele>134.19999694824</ele>
        <time>2015-02-03T15:14:59.000Z</time>
      </trkpt>
      <trkpt lat="48.79677" lon="2.17669">
        <ele>134.80000305176</ele>
        <time>2015-02-03T15:15:02.000Z</time>
      </trkpt>
      <trkpt lat="48.79677" lon="2.17673">
        <ele>134.80000305176</ele>
        <time>2015-02-03T15:15:05.000Z</time>
      </trkpt>
      <trkpt lat="48.79674" lon="2.17683">
        <ele>135</ele>
        <time>2015-02-03T15:15:11.000Z</time>
      </trkpt>
      <trkpt lat="48.79673" lon="2.17694">
        <ele>135.19999694824</ele>
        <time>2015-02-03T15:15:18.000Z</time>
      </trkpt>
      <trkpt lat="48.7967" lon="2.17699">
        <ele>135.19999694824</ele>
        <time>2015-02-03T15:15:21.000Z</time>
      </trkpt>
      <trkpt lat="48.79669" lon="2.17704">
        <ele>135.39999389648</ele>
        <time>2015-02-03T15:15:24.000Z</time>
      </trkpt>
      <trkpt lat="48.79669" lon="2.17705">
        <ele>135.60000610352</ele>
        <time>2015-02-03T15:15:25.000Z</time>
      </trkpt>
      <trkpt lat="48.79667" lon="2.17711">
        <ele>135.80000305176</ele>
        <time>2015-02-03T15:15:29.000Z</time>
      </trkpt>
      <trkpt lat="48.79664" lon="2.17718">
        <ele>136</ele>
        <time>2015-02-03T15:15:33.000Z</time>
      </trkpt>
      <trkpt lat="48.79662" lon="2.17729">
        <ele>136</ele>
        <time>2015-02-03T15:15:39.000Z</time>
      </trkpt>
      <trkpt lat="48.79661" lon="2.17737">
        <ele>136.39999389648</ele>
        <time>2015-02-03T15:15:44.000Z</time>
      </trkpt>
      <trkpt lat="48.79659" lon="2.17747">
        <ele>136.60000610352</ele>
        <time>2015-02-03T15:15:51.000Z</time>
      </trkpt>
      <trkpt lat="48.79657" lon="2.17755">
        <ele>136.60000610352</ele>
        <time>2015-02-03T15:15:57.000Z</time>
      </trkpt>
      <trkpt lat="48.79655" lon="2.17765">
        <ele>136.80000305176</ele>
        <time>2015-02-03T15:16:04.000Z</time>
      </trkpt>
      <trkpt lat="48.79654" lon="2.17767">
        <ele>136.80000305176</ele>
        <time>2015-02-03T15:16:05.000Z</time>
      </trkpt>
      <trkpt lat="48.79651" lon="2.17777">
        <ele>136.60000610352</ele>
        <time>2015-02-03T15:16:12.000Z</time>
      </trkpt>
      <trkpt lat="48.79651" lon="2.17779">
        <ele>136.60000610352</ele>
        <time>2015-02-03T15:16:13.000Z</time>
      </trkpt>
      <trkpt lat="48.7965" lon="2.17786">
        <ele>136.60000610352</ele>
        <time>2015-02-03T15:16:17.000Z</time>
      </trkpt>
      <trkpt lat="48.7965" lon="2.17788">
        <ele>136.60000610352</ele>
        <time>2015-02-03T15:16:18.000Z</time>
      </trkpt>
      <trkpt lat="48.79648" lon="2.17795">
        <ele>136.60000610352</ele>
        <time>2015-02-03T15:16:23.000Z</time>
      </trkpt>
      <trkpt lat="48.79647" lon="2.17799">
        <ele>136.60000610352</ele>
        <time>2015-02-03T15:16:25.000Z</time>
      </trkpt>
      <trkpt lat="48.79646" lon="2.17803">
        <ele>136.39999389648</ele>
        <time>2015-02-03T15:16:28.000Z</time>
      </trkpt>
      <trkpt lat="48.79644" lon="2.17807">
        <ele>136.60000610352</ele>
        <time>2015-02-03T15:16:31.000Z</time>
      </trkpt>
      <trkpt lat="48.79642" lon="2.17816">
        <ele>136.60000610352</ele>
        <time>2015-02-03T15:16:37.000Z</time>
      </trkpt>
      <trkpt lat="48.79641" lon="2.17822">
        <ele>136.39999389648</ele>
        <time>2015-02-03T15:16:41.000Z</time>
      </trkpt>
      <trkpt lat="48.79641" lon="2.17824">
        <ele>136.39999389648</ele>
        <time>2015-02-03T15:16:43.000Z</time>
      </trkpt>
      <trkpt lat="48.79641" lon="2.17833">
        <ele>136.19999694824</ele>
        <time>2015-02-03T15:16:49.000Z</time>
      </trkpt>
      <trkpt lat="48.79641" lon="2.17838">
        <ele>136.19999694824</ele>
        <time>2015-02-03T15:16:52.000Z</time>
      </trkpt>
      <trkpt lat="48.79641" lon="2.17841">
        <ele>136.19999694824</ele>
        <time>2015-02-03T15:16:54.000Z</time>
      </trkpt>
      <trkpt lat="48.79641" lon="2.17843">
        <ele>136</ele>
        <time>2015-02-03T15:16:55.000Z</time>
      </trkpt>
      <trkpt lat="48.79641" lon="2.17849">
        <ele>135.60000610352</ele>
        <time>2015-02-03T15:16:59.000Z</time>
      </trkpt>
      <trkpt lat="48.79637" lon="2.17856">
        <ele>135.39999389648</ele>
        <time>2015-02-03T15:17:05.000Z</time>
      </trkpt>
      <trkpt lat="48.79637" lon="2.17863">
        <ele>135.19999694824</ele>
        <time>2015-02-03T15:17:09.000Z</time>
      </trkpt>
      <trkpt lat="48.79636" lon="2.17865">
        <ele>135.19999694824</ele>
        <time>2015-02-03T15:17:11.000Z</time>
      </trkpt>
      <trkpt lat="48.79634" lon="2.17869">
        <ele>135</ele>
        <time>2015-02-03T15:17:13.000Z</time>
      </trkpt>
      <trkpt lat="48.79633" lon="2.17873">
        <ele>135</ele>
        <time>2015-02-03T15:17:16.000Z</time>
      </trkpt>
      <trkpt lat="48.79632" lon="2.17879">
        <ele>134.80000305176</ele>
        <time>2015-02-03T15:17:20.000Z</time>
      </trkpt>
      <trkpt lat="48.79631" lon="2.17884">
        <ele>134.39999389648</ele>
        <time>2015-02-03T15:17:24.000Z</time>
      </trkpt>
      <trkpt lat="48.79631" lon="2.17885">
        <ele>134.39999389648</ele>
        <time>2015-02-03T15:17:25.000Z</time>
      </trkpt>
      <trkpt lat="48.7963" lon="2.17891">
        <ele>134</ele>
        <time>2015-02-03T15:17:29.000Z</time>
      </trkpt>
      <trkpt lat="48.79629" lon="2.17897">
        <ele>133.60000610352</ele>
        <time>2015-02-03T15:17:33.000Z</time>
      </trkpt>
      <trkpt lat="48.79628" lon="2.179">
        <ele>133.39999389648</ele>
        <time>2015-02-03T15:17:35.000Z</time>
      </trkpt>
      <trkpt lat="48.79627" lon="2.17911">
        <ele>133</ele>
        <time>2015-02-03T15:17:42.000Z</time>
      </trkpt>
      <trkpt lat="48.79626" lon="2.17918">
        <ele>132.60000610352</ele>
        <time>2015-02-03T15:17:47.000Z</time>
      </trkpt>
      <trkpt lat="48.79625" lon="2.1792">
        <ele>132.60000610352</ele>
        <time>2015-02-03T15:17:48.000Z</time>
      </trkpt>
      <trkpt lat="48.79625" lon="2.17927">
        <ele>131.80000305176</ele>
        <time>2015-02-03T15:17:54.000Z</time>
      </trkpt>
      <trkpt lat="48.79624" lon="2.17932">
        <ele>131.60000610352</ele>
        <time>2015-02-03T15:17:57.000Z</time>
      </trkpt>
      <trkpt lat="48.79624" lon="2.17938">
        <ele>131.19999694824</ele>
        <time>2015-02-03T15:18:00.000Z</time>
      </trkpt>
      <trkpt lat="48.79624" lon="2.1794">
        <ele>131.19999694824</ele>
        <time>2015-02-03T15:18:01.000Z</time>
      </trkpt>
      <trkpt lat="48.79623" lon="2.17949">
        <ele>130.39999389648</ele>
        <time>2015-02-03T15:18:07.000Z</time>
      </trkpt>
      <trkpt lat="48.79623" lon="2.17952">
        <ele>130.19999694824</ele>
        <time>2015-02-03T15:18:09.000Z</time>
      </trkpt>
      <trkpt lat="48.79622" lon="2.17962">
        <ele>129.80000305176</ele>
        <time>2015-02-03T15:18:15.000Z</time>
      </trkpt>
      <trkpt lat="48.79621" lon="2.17969">
        <ele>129.39999389648</ele>
        <time>2015-02-03T15:18:19.000Z</time>
      </trkpt>
      <trkpt lat="48.79621" lon="2.1797">
        <ele>129.19999694824</ele>
        <time>2015-02-03T15:18:20.000Z</time>
      </trkpt>
      <trkpt lat="48.79622" lon="2.17973">
        <ele>129</ele>
        <time>2015-02-03T15:18:22.000Z</time>
      </trkpt>
      <trkpt lat="48.79622" lon="2.17986">
        <ele>128.60000610352</ele>
        <time>2015-02-03T15:18:29.000Z</time>
      </trkpt>
      <trkpt lat="48.79621" lon="2.17992">
        <ele>128.19999694824</ele>
        <time>2015-02-03T15:18:33.000Z</time>
      </trkpt>
      <trkpt lat="48.7962" lon="2.17996">
        <ele>127.80000305176</ele>
        <time>2015-02-03T15:18:36.000Z</time>
      </trkpt>
      <trkpt lat="48.7962" lon="2.17998">
        <ele>127.59999847412</ele>
        <time>2015-02-03T15:18:37.000Z</time>
      </trkpt>
      <trkpt lat="48.79619" lon="2.18005">
        <ele>127.40000152588</ele>
        <time>2015-02-03T15:18:42.000Z</time>
      </trkpt>
      <trkpt lat="48.79619" lon="2.18009">
        <ele>127.19999694824</ele>
        <time>2015-02-03T15:18:44.000Z</time>
      </trkpt>
      <trkpt lat="48.79619" lon="2.18016">
        <ele>127</ele>
        <time>2015-02-03T15:18:48.000Z</time>
      </trkpt>
      <trkpt lat="48.7962" lon="2.18026">
        <ele>126.19999694824</ele>
        <time>2015-02-03T15:18:53.000Z</time>
      </trkpt>
      <trkpt lat="48.79621" lon="2.18028">
        <ele>126.19999694824</ele>
        <time>2015-02-03T15:18:54.000Z</time>
      </trkpt>
      <trkpt lat="48.7962" lon="2.1803">
        <ele>126</ele>
        <time>2015-02-03T15:18:55.000Z</time>
      </trkpt>
      <trkpt lat="48.79618" lon="2.18035">
        <ele>125.80000305176</ele>
        <time>2015-02-03T15:18:59.000Z</time>
      </trkpt>
      <trkpt lat="48.79616" lon="2.18041">
        <ele>125.19999694824</ele>
        <time>2015-02-03T15:19:03.000Z</time>
      </trkpt>
      <trkpt lat="48.79615" lon="2.18043">
        <ele>125</ele>
        <time>2015-02-03T15:19:04.000Z</time>
      </trkpt>
      <trkpt lat="48.79614" lon="2.18046">
        <ele>124.59999847412</ele>
        <time>2015-02-03T15:19:07.000Z</time>
      </trkpt>
      <trkpt lat="48.79614" lon="2.18051">
        <ele>124.40000152588</ele>
        <time>2015-02-03T15:19:10.000Z</time>
      </trkpt>
      <trkpt lat="48.79614" lon="2.18055">
        <ele>124</ele>
        <time>2015-02-03T15:19:12.000Z</time>
      </trkpt>
      <trkpt lat="48.79613" lon="2.1806">
        <ele>123.80000305176</ele>
        <time>2015-02-03T15:19:15.000Z</time>
      </trkpt>
      <trkpt lat="48.79613" lon="2.18062">
        <ele>123.59999847412</ele>
        <time>2015-02-03T15:19:16.000Z</time>
      </trkpt>
      <trkpt lat="48.79609" lon="2.18071">
        <ele>123</ele>
        <time>2015-02-03T15:19:22.000Z</time>
      </trkpt>
      <trkpt lat="48.79608" lon="2.18073">
        <ele>122.80000305176</ele>
        <time>2015-02-03T15:19:23.000Z</time>
      </trkpt>
      <trkpt lat="48.79607" lon="2.18074">
        <ele>122.80000305176</ele>
        <time>2015-02-03T15:19:24.000Z</time>
      </trkpt>
      <trkpt lat="48.79606" lon="2.1808">
        <ele>122.19999694824</ele>
        <time>2015-02-03T15:19:28.000Z</time>
      </trkpt>
      <trkpt lat="48.79605" lon="2.18083">
        <ele>121.80000305176</ele>
        <time>2015-02-03T15:19:30.000Z</time>
      </trkpt>
      <trkpt lat="48.79604" lon="2.18086">
        <ele>121.40000152588</ele>
        <time>2015-02-03T15:19:33.000Z</time>
      </trkpt>
      <trkpt lat="48.79603" lon="2.18088">
        <ele>121.19999694824</ele>
        <time>2015-02-03T15:19:34.000Z</time>
      </trkpt>
      <trkpt lat="48.79602" lon="2.18089">
        <ele>121.19999694824</ele>
        <time>2015-02-03T15:19:36.000Z</time>
      </trkpt>
      <trkpt lat="48.79601" lon="2.18086">
        <ele>121</ele>
        <time>2015-02-03T15:19:39.000Z</time>
      </trkpt>
      <trkpt lat="48.79598" lon="2.18086">
        <ele>121.19999694824</ele>
        <time>2015-02-03T15:19:45.000Z</time>
      </trkpt>
      <trkpt lat="48.79594" lon="2.18091">
        <ele>120.80000305176</ele>
        <time>2015-02-03T15:19:49.000Z</time>
      </trkpt>
      <trkpt lat="48.79593" lon="2.18094">
        <ele>120.59999847412</ele>
        <time>2015-02-03T15:19:51.000Z</time>
      </trkpt>
      <trkpt lat="48.7959" lon="2.18105">
        <ele>120.40000152588</ele>
        <time>2015-02-03T15:19:58.000Z</time>
      </trkpt>
      <trkpt lat="48.7959" lon="2.18106">
        <ele>120.19999694824</ele>
        <time>2015-02-03T15:20:00.000Z</time>
      </trkpt>
      <trkpt lat="48.79588" lon="2.18109">
        <ele>119.80000305176</ele>
        <time>2015-02-03T15:20:05.000Z</time>
      </trkpt>
      <trkpt lat="48.79584" lon="2.18115">
        <ele>119.80000305176</ele>
        <time>2015-02-03T15:20:12.000Z</time>
      </trkpt>
      <trkpt lat="48.79581" lon="2.18118">
        <ele>119.80000305176</ele>
        <time>2015-02-03T15:20:15.000Z</time>
      </trkpt>
      <trkpt lat="48.79581" lon="2.18119">
        <ele>119.80000305176</ele>
        <time>2015-02-03T15:20:16.000Z</time>
      </trkpt>
      <trkpt lat="48.7958" lon="2.18123">
        <ele>119.80000305176</ele>
        <time>2015-02-03T15:20:18.000Z</time>
      </trkpt>
      <trkpt lat="48.79577" lon="2.1813">
        <ele>119.80000305176</ele>
        <time>2015-02-03T15:20:25.000Z</time>
      </trkpt>
      <trkpt lat="48.79577" lon="2.1813">
        <ele>119.40000152588</ele>
        <time>2015-02-03T15:20:31.000Z</time>
      </trkpt>
      <trkpt lat="48.79577" lon="2.18131">
        <ele>119.40000152588</ele>
        <time>2015-02-03T15:20:42.000Z</time>
      </trkpt>
      <trkpt lat="48.79577" lon="2.18132">
        <ele>119.40000152588</ele>
        <time>2015-02-03T15:20:49.000Z</time>
      </trkpt>
      <trkpt lat="48.79575" lon="2.18136">
        <ele>119.19999694824</ele>
        <time>2015-02-03T15:21:04.000Z</time>
      </trkpt>
      <trkpt lat="48.79573" lon="2.18143">
        <ele>118.59999847412</ele>
        <time>2015-02-03T15:21:09.000Z</time>
      </trkpt>
      <trkpt lat="48.79573" lon="2.18144">
        <ele>118.40000152588</ele>
        <time>2015-02-03T15:21:10.000Z</time>
      </trkpt>
      <trkpt lat="48.79571" lon="2.18157">
        <ele>117.59999847412</ele>
        <time>2015-02-03T15:21:17.000Z</time>
      </trkpt>
      <trkpt lat="48.7957" lon="2.18159">
        <ele>117.40000152588</ele>
        <time>2015-02-03T15:21:18.000Z</time>
      </trkpt>
      <trkpt lat="48.79567" lon="2.1817">
        <ele>116.59999847412</ele>
        <time>2015-02-03T15:21:26.000Z</time>
      </trkpt>
      <trkpt lat="48.79566" lon="2.18171">
        <ele>116.59999847412</ele>
        <time>2015-02-03T15:21:27.000Z</time>
      </trkpt>
      <trkpt lat="48.79567" lon="2.18174">
        <ele>116.40000152588</ele>
        <time>2015-02-03T15:21:30.000Z</time>
      </trkpt>
      <trkpt lat="48.79567" lon="2.18175">
        <ele>116.40000152588</ele>
        <time>2015-02-03T15:21:31.000Z</time>
      </trkpt>
      <trkpt lat="48.7957" lon="2.1818">
        <ele>116</ele>
        <time>2015-02-03T15:21:38.000Z</time>
      </trkpt>
      <trkpt lat="48.79575" lon="2.1819">
        <ele>115.80000305176</ele>
        <time>2015-02-03T15:21:46.000Z</time>
      </trkpt>
      <trkpt lat="48.79577" lon="2.18191">
        <ele>115.80000305176</ele>
        <time>2015-02-03T15:21:47.000Z</time>
      </trkpt>
      <trkpt lat="48.79579" lon="2.18195">
        <ele>115.59999847412</ele>
        <time>2015-02-03T15:21:51.000Z</time>
      </trkpt>
      <trkpt lat="48.7958" lon="2.18196">
        <ele>115.59999847412</ele>
        <time>2015-02-03T15:21:52.000Z</time>
      </trkpt>
      <trkpt lat="48.79581" lon="2.18197">
        <ele>115.40000152588</ele>
        <time>2015-02-03T15:21:53.000Z</time>
      </trkpt>
      <trkpt lat="48.79582" lon="2.18201">
        <ele>115.19999694824</ele>
        <time>2015-02-03T15:21:57.000Z</time>
      </trkpt>
      <trkpt lat="48.79582" lon="2.18202">
        <ele>115</ele>
        <time>2015-02-03T15:21:58.000Z</time>
      </trkpt>
      <trkpt lat="48.79583" lon="2.18203">
        <ele>115</ele>
        <time>2015-02-03T15:21:59.000Z</time>
      </trkpt>
      <trkpt lat="48.79585" lon="2.18209">
        <ele>114.80000305176</ele>
        <time>2015-02-03T15:22:03.000Z</time>
      </trkpt>
      <trkpt lat="48.79586" lon="2.1821">
        <ele>114.80000305176</ele>
        <time>2015-02-03T15:22:04.000Z</time>
      </trkpt>
      <trkpt lat="48.7959" lon="2.18217">
        <ele>114.59999847412</ele>
        <time>2015-02-03T15:22:11.000Z</time>
      </trkpt>
      <trkpt lat="48.79595" lon="2.18222">
        <ele>114.40000152588</ele>
        <time>2015-02-03T15:22:16.000Z</time>
      </trkpt>
      <trkpt lat="48.79596" lon="2.18224">
        <ele>114.19999694824</ele>
        <time>2015-02-03T15:22:18.000Z</time>
      </trkpt>
      <trkpt lat="48.79605" lon="2.18236">
        <ele>113.80000305176</ele>
        <time>2015-02-03T15:22:28.000Z</time>
      </trkpt>
      <trkpt lat="48.79609" lon="2.18243">
        <ele>113.59999847412</ele>
        <time>2015-02-03T15:22:35.000Z</time>
      </trkpt>
      <trkpt lat="48.79614" lon="2.18255">
        <ele>113.40000152588</ele>
        <time>2015-02-03T15:22:44.000Z</time>
      </trkpt>
      <trkpt lat="48.79617" lon="2.18263">
        <ele>113.19999694824</ele>
        <time>2015-02-03T15:22:50.000Z</time>
      </trkpt>
      <trkpt lat="48.79617" lon="2.18264">
        <ele>113.19999694824</ele>
        <time>2015-02-03T15:22:51.000Z</time>
      </trkpt>
      <trkpt lat="48.79621" lon="2.18279">
        <ele>112.40000152588</ele>
        <time>2015-02-03T15:23:01.000Z</time>
      </trkpt>
      <trkpt lat="48.79622" lon="2.18282">
        <ele>112.19999694824</ele>
        <time>2015-02-03T15:23:03.000Z</time>
      </trkpt>
      <trkpt lat="48.79625" lon="2.18292">
        <ele>111.80000305176</ele>
        <time>2015-02-03T15:23:10.000Z</time>
      </trkpt>
      <trkpt lat="48.79627" lon="2.18299">
        <ele>111.80000305176</ele>
        <time>2015-02-03T15:23:16.000Z</time>
      </trkpt>
      <trkpt lat="48.79627" lon="2.18303">
        <ele>111.59999847412</ele>
        <time>2015-02-03T15:23:19.000Z</time>
      </trkpt>
      <trkpt lat="48.79628" lon="2.1831">
        <ele>111.40000152588</ele>
        <time>2015-02-03T15:23:23.000Z</time>
      </trkpt>
      <trkpt lat="48.7963" lon="2.18316">
        <ele>111.19999694824</ele>
        <time>2015-02-03T15:23:27.000Z</time>
      </trkpt>
      <trkpt lat="48.79631" lon="2.18325">
        <ele>111.19999694824</ele>
        <time>2015-02-03T15:23:33.000Z</time>
      </trkpt>
      <trkpt lat="48.79634" lon="2.18334">
        <ele>110.80000305176</ele>
        <time>2015-02-03T15:23:39.000Z</time>
      </trkpt>
      <trkpt lat="48.79637" lon="2.18345">
        <ele>110.59999847412</ele>
        <time>2015-02-03T15:23:46.000Z</time>
      </trkpt>
      <trkpt lat="48.79638" lon="2.18353">
        <ele>110.19999694824</ele>
        <time>2015-02-03T15:23:51.000Z</time>
      </trkpt>
      <trkpt lat="48.79638" lon="2.18357">
        <ele>110</ele>
        <time>2015-02-03T15:23:53.000Z</time>
      </trkpt>
      <trkpt lat="48.79639" lon="2.18358">
        <ele>109.80000305176</ele>
        <time>2015-02-03T15:23:54.000Z</time>
      </trkpt>
      <trkpt lat="48.79639" lon="2.18361">
        <ele>109.80000305176</ele>
        <time>2015-02-03T15:23:56.000Z</time>
      </trkpt>
      <trkpt lat="48.7964" lon="2.18368">
        <ele>109.40000152588</ele>
        <time>2015-02-03T15:24:00.000Z</time>
      </trkpt>
      <trkpt lat="48.79641" lon="2.18372">
        <ele>109.19999694824</ele>
        <time>2015-02-03T15:24:03.000Z</time>
      </trkpt>
      <trkpt lat="48.79642" lon="2.18376">
        <ele>109</ele>
        <time>2015-02-03T15:24:05.000Z</time>
      </trkpt>
      <trkpt lat="48.79642" lon="2.18377">
        <ele>109</ele>
        <time>2015-02-03T15:24:06.000Z</time>
      </trkpt>
      <trkpt lat="48.79644" lon="2.18387">
        <ele>108.59999847412</ele>
        <time>2015-02-03T15:24:13.000Z</time>
      </trkpt>
      <trkpt lat="48.79645" lon="2.18393">
        <ele>108.40000152588</ele>
        <time>2015-02-03T15:24:18.000Z</time>
      </trkpt>
      <trkpt lat="48.79647" lon="2.18405">
        <ele>108</ele>
        <time>2015-02-03T15:24:26.000Z</time>
      </trkpt>
      <trkpt lat="48.79647" lon="2.18407">
        <ele>108</ele>
        <time>2015-02-03T15:24:27.000Z</time>
      </trkpt>
      <trkpt lat="48.79648" lon="2.18418">
        <ele>107.59999847412</ele>
        <time>2015-02-03T15:24:35.000Z</time>
      </trkpt>
      <trkpt lat="48.7965" lon="2.18423">
        <ele>107.59999847412</ele>
        <time>2015-02-03T15:24:38.000Z</time>
      </trkpt>
      <trkpt lat="48.7965" lon="2.18428">
        <ele>107.40000152588</ele>
        <time>2015-02-03T15:24:41.000Z</time>
      </trkpt>
      <trkpt lat="48.79652" lon="2.1844">
        <ele>107</ele>
        <time>2015-02-03T15:24:48.000Z</time>
      </trkpt>
      <trkpt lat="48.79653" lon="2.18442">
        <ele>107</ele>
        <time>2015-02-03T15:24:49.000Z</time>
      </trkpt>
      <trkpt lat="48.79655" lon="2.18452">
        <ele>106.80000305176</ele>
        <time>2015-02-03T15:24:55.000Z</time>
      </trkpt>
      <trkpt lat="48.79655" lon="2.18453">
        <ele>106.59999847412</ele>
        <time>2015-02-03T15:24:56.000Z</time>
      </trkpt>
      <trkpt lat="48.79656" lon="2.18457">
        <ele>106.59999847412</ele>
        <time>2015-02-03T15:24:59.000Z</time>
      </trkpt>
      <trkpt lat="48.79658" lon="2.18465">
        <ele>106.40000152588</ele>
        <time>2015-02-03T15:25:04.000Z</time>
      </trkpt>
      <trkpt lat="48.7966" lon="2.18476">
        <ele>106</ele>
        <time>2015-02-03T15:25:11.000Z</time>
      </trkpt>
      <trkpt lat="48.7966" lon="2.18478">
        <ele>106</ele>
        <time>2015-02-03T15:25:12.000Z</time>
      </trkpt>
      <trkpt lat="48.79662" lon="2.18484">
        <ele>106</ele>
        <time>2015-02-03T15:25:16.000Z</time>
      </trkpt>
      <trkpt lat="48.79663" lon="2.1849">
        <ele>105.80000305176</ele>
        <time>2015-02-03T15:25:20.000Z</time>
      </trkpt>
      <trkpt lat="48.79665" lon="2.185">
        <ele>105.40000152588</ele>
        <time>2015-02-03T15:25:27.000Z</time>
      </trkpt>
      <trkpt lat="48.79666" lon="2.18503">
        <ele>105.40000152588</ele>
        <time>2015-02-03T15:25:29.000Z</time>
      </trkpt>
      <trkpt lat="48.79667" lon="2.18511">
        <ele>105.19999694824</ele>
        <time>2015-02-03T15:25:34.000Z</time>
      </trkpt>
      <trkpt lat="48.7967" lon="2.1852">
        <ele>105.19999694824</ele>
        <time>2015-02-03T15:25:41.000Z</time>
      </trkpt>
      <trkpt lat="48.79671" lon="2.18526">
        <ele>104.80000305176</ele>
        <time>2015-02-03T15:25:45.000Z</time>
      </trkpt>
      <trkpt lat="48.79671" lon="2.18531">
        <ele>104.59999847412</ele>
        <time>2015-02-03T15:25:48.000Z</time>
      </trkpt>
      <trkpt lat="48.79672" lon="2.18533">
        <ele>104.59999847412</ele>
        <time>2015-02-03T15:25:50.000Z</time>
      </trkpt>
      <trkpt lat="48.79674" lon="2.18538">
        <ele>104.59999847412</ele>
        <time>2015-02-03T15:25:54.000Z</time>
      </trkpt>
      <trkpt lat="48.79674" lon="2.18543">
        <ele>104.59999847412</ele>
        <time>2015-02-03T15:25:57.000Z</time>
      </trkpt>
      <trkpt lat="48.79675" lon="2.18547">
        <ele>104.59999847412</ele>
        <time>2015-02-03T15:26:00.000Z</time>
      </trkpt>
      <trkpt lat="48.79676" lon="2.18549">
        <ele>104.80000305176</ele>
        <time>2015-02-03T15:26:02.000Z</time>
      </trkpt>
      <trkpt lat="48.79676" lon="2.18551">
        <ele>104.80000305176</ele>
        <time>2015-02-03T15:26:04.000Z</time>
      </trkpt>
      <trkpt lat="48.79676" lon="2.18552">
        <ele>104.40000152588</ele>
        <time>2015-02-03T15:26:08.000Z</time>
      </trkpt>
      <trkpt lat="48.79679" lon="2.18555">
        <ele>104.40000152588</ele>
        <time>2015-02-03T15:26:17.000Z</time>
      </trkpt>
      <trkpt lat="48.79685" lon="2.18559">
        <ele>104.19999694824</ele>
        <time>2015-02-03T15:26:24.000Z</time>
      </trkpt>
      <trkpt lat="48.79688" lon="2.18561">
        <ele>104</ele>
        <time>2015-02-03T15:26:27.000Z</time>
      </trkpt>
      <trkpt lat="48.79693" lon="2.18561">
        <ele>104</ele>
        <time>2015-02-03T15:26:31.000Z</time>
      </trkpt>
      <trkpt lat="48.79694" lon="2.18561">
        <ele>104</ele>
        <time>2015-02-03T15:26:32.000Z</time>
      </trkpt>
      <trkpt lat="48.797" lon="2.18559">
        <ele>104</ele>
        <time>2015-02-03T15:26:37.000Z</time>
      </trkpt>
      <trkpt lat="48.79701" lon="2.18559">
        <ele>103.80000305176</ele>
        <time>2015-02-03T15:26:38.000Z</time>
      </trkpt>
      <trkpt lat="48.79704" lon="2.18558">
        <ele>103.80000305176</ele>
        <time>2015-02-03T15:26:40.000Z</time>
      </trkpt>
      <trkpt lat="48.79709" lon="2.18557">
        <ele>103.59999847412</ele>
        <time>2015-02-03T15:26:44.000Z</time>
      </trkpt>
      <trkpt lat="48.79716" lon="2.18557">
        <ele>103.40000152588</ele>
        <time>2015-02-03T15:26:51.000Z</time>
      </trkpt>
      <trkpt lat="48.79716" lon="2.18559">
        <ele>103.40000152588</ele>
        <time>2015-02-03T15:26:52.000Z</time>
      </trkpt>
      <trkpt lat="48.79717" lon="2.18566">
        <ele>103.59999847412</ele>
        <time>2015-02-03T15:26:57.000Z</time>
      </trkpt>
      <trkpt lat="48.7972" lon="2.18578">
        <ele>103.19999694824</ele>
        <time>2015-02-03T15:27:04.000Z</time>
      </trkpt>
      <trkpt lat="48.7972" lon="2.18581">
        <ele>103.19999694824</ele>
        <time>2015-02-03T15:27:06.000Z</time>
      </trkpt>
      <trkpt lat="48.79723" lon="2.18588">
        <ele>103.19999694824</ele>
        <time>2015-02-03T15:27:11.000Z</time>
      </trkpt>
      <trkpt lat="48.79724" lon="2.18589">
        <ele>103.19999694824</ele>
        <time>2015-02-03T15:27:12.000Z</time>
      </trkpt>
      <trkpt lat="48.79726" lon="2.18607">
        <ele>103</ele>
        <time>2015-02-03T15:27:22.000Z</time>
      </trkpt>
      <trkpt lat="48.79727" lon="2.1861">
        <ele>103</ele>
        <time>2015-02-03T15:27:24.000Z</time>
      </trkpt>
      <trkpt lat="48.79727" lon="2.18616">
        <ele>103</ele>
        <time>2015-02-03T15:27:27.000Z</time>
      </trkpt>
      <trkpt lat="48.79729" lon="2.18628">
        <ele>103</ele>
        <time>2015-02-03T15:27:33.000Z</time>
      </trkpt>
      <trkpt lat="48.7973" lon="2.18636">
        <ele>102.80000305176</ele>
        <time>2015-02-03T15:27:37.000Z</time>
      </trkpt>
      <trkpt lat="48.79731" lon="2.18647">
        <ele>102.59999847412</ele>
        <time>2015-02-03T15:27:43.000Z</time>
      </trkpt>
      <trkpt lat="48.79731" lon="2.18661">
        <ele>102.59999847412</ele>
        <time>2015-02-03T15:27:51.000Z</time>
      </trkpt>
      <trkpt lat="48.79731" lon="2.18674">
        <ele>102.80000305176</ele>
        <time>2015-02-03T15:27:58.000Z</time>
      </trkpt>
      <trkpt lat="48.79731" lon="2.18686">
        <ele>103</ele>
        <time>2015-02-03T15:28:05.000Z</time>
      </trkpt>
      <trkpt lat="48.79732" lon="2.18704">
        <ele>103.19999694824</ele>
        <time>2015-02-03T15:28:15.000Z</time>
      </trkpt>
      <trkpt lat="48.79733" lon="2.18718">
        <ele>103.59999847412</ele>
        <time>2015-02-03T15:28:23.000Z</time>
      </trkpt>
      <trkpt lat="48.79733" lon="2.18721">
        <ele>103.59999847412</ele>
        <time>2015-02-03T15:28:25.000Z</time>
      </trkpt>
      <trkpt lat="48.79734" lon="2.18728">
        <ele>103.80000305176</ele>
        <time>2015-02-03T15:28:29.000Z</time>
      </trkpt>
      <trkpt lat="48.79734" lon="2.18735">
        <ele>104</ele>
        <time>2015-02-03T15:28:33.000Z</time>
      </trkpt>
      <trkpt lat="48.79735" lon="2.18748">
        <ele>104.40000152588</ele>
        <time>2015-02-03T15:28:41.000Z</time>
      </trkpt>
      <trkpt lat="48.79735" lon="2.18753">
        <ele>104.80000305176</ele>
        <time>2015-02-03T15:28:44.000Z</time>
      </trkpt>
      <trkpt lat="48.79736" lon="2.1876">
        <ele>105.19999694824</ele>
        <time>2015-02-03T15:28:48.000Z</time>
      </trkpt>
      <trkpt lat="48.79736" lon="2.18777">
        <ele>105.59999847412</ele>
        <time>2015-02-03T15:28:57.000Z</time>
      </trkpt>
      <trkpt lat="48.79736" lon="2.18783">
        <ele>105.80000305176</ele>
        <time>2015-02-03T15:29:01.000Z</time>
      </trkpt>
      <trkpt lat="48.79735" lon="2.18785">
        <ele>106</ele>
        <time>2015-02-03T15:29:03.000Z</time>
      </trkpt>
      <trkpt lat="48.79735" lon="2.18786">
        <ele>106</ele>
        <time>2015-02-03T15:29:04.000Z</time>
      </trkpt>
      <trkpt lat="48.79735" lon="2.18794">
        <ele>106.40000152588</ele>
        <time>2015-02-03T15:29:09.000Z</time>
      </trkpt>
      <trkpt lat="48.79734" lon="2.18795">
        <ele>106.40000152588</ele>
        <time>2015-02-03T15:29:10.000Z</time>
      </trkpt>
      <trkpt lat="48.79734" lon="2.188">
        <ele>106.80000305176</ele>
        <time>2015-02-03T15:29:13.000Z</time>
      </trkpt>
      <trkpt lat="48.79734" lon="2.18808">
        <ele>107.40000152588</ele>
        <time>2015-02-03T15:29:18.000Z</time>
      </trkpt>
      <trkpt lat="48.79734" lon="2.18817">
        <ele>107.80000305176</ele>
        <time>2015-02-03T15:29:23.000Z</time>
      </trkpt>
      <trkpt lat="48.79733" lon="2.18824">
        <ele>108.40000152588</ele>
        <time>2015-02-03T15:29:28.000Z</time>
      </trkpt>
      <trkpt lat="48.79734" lon="2.18832">
        <ele>108.80000305176</ele>
        <time>2015-02-03T15:29:34.000Z</time>
      </trkpt>
      <trkpt lat="48.79734" lon="2.18833">
        <ele>109</ele>
        <time>2015-02-03T15:29:35.000Z</time>
      </trkpt>
      <trkpt lat="48.79734" lon="2.18839">
        <ele>109.40000152588</ele>
        <time>2015-02-03T15:29:41.000Z</time>
      </trkpt>
      <trkpt lat="48.79734" lon="2.18846">
        <ele>109.19999694824</ele>
        <time>2015-02-03T15:29:45.000Z</time>
      </trkpt>
      <trkpt lat="48.79734" lon="2.1885">
        <ele>109.40000152588</ele>
        <time>2015-02-03T15:29:48.000Z</time>
      </trkpt>
      <trkpt lat="48.79734" lon="2.18865">
        <ele>110</ele>
        <time>2015-02-03T15:29:57.000Z</time>
      </trkpt>
      <trkpt lat="48.79733" lon="2.18869">
        <ele>110.19999694824</ele>
        <time>2015-02-03T15:30:00.000Z</time>
      </trkpt>
      <trkpt lat="48.79732" lon="2.18872">
        <ele>110.40000152588</ele>
        <time>2015-02-03T15:30:03.000Z</time>
      </trkpt>
      <trkpt lat="48.79731" lon="2.18877">
        <ele>110.59999847412</ele>
        <time>2015-02-03T15:30:07.000Z</time>
      </trkpt>
      <trkpt lat="48.79731" lon="2.18882">
        <ele>110.80000305176</ele>
        <time>2015-02-03T15:30:10.000Z</time>
      </trkpt>
      <trkpt lat="48.79731" lon="2.18885">
        <ele>111</ele>
        <time>2015-02-03T15:30:13.000Z</time>
      </trkpt>
      <trkpt lat="48.7973" lon="2.18888">
        <ele>111.19999694824</ele>
        <time>2015-02-03T15:30:17.000Z</time>
      </trkpt>
      <trkpt lat="48.79731" lon="2.18889">
        <ele>111.40000152588</ele>
        <time>2015-02-03T15:30:25.000Z</time>
      </trkpt>
      <trkpt lat="48.79732" lon="2.1889">
        <ele>111.59999847412</ele>
        <time>2015-02-03T15:30:35.000Z</time>
      </trkpt>
      <trkpt lat="48.79735" lon="2.18892">
        <ele>111.40000152588</ele>
        <time>2015-02-03T15:30:42.000Z</time>
      </trkpt>
      <trkpt lat="48.79736" lon="2.18894">
        <ele>111.40000152588</ele>
        <time>2015-02-03T15:30:48.000Z</time>
      </trkpt>
      <trkpt lat="48.79737" lon="2.18897">
        <ele>111.19999694824</ele>
        <time>2015-02-03T15:30:54.000Z</time>
      </trkpt>
      <trkpt lat="48.79738" lon="2.18903">
        <ele>111.59999847412</ele>
        <time>2015-02-03T15:31:01.000Z</time>
      </trkpt>
      <trkpt lat="48.79738" lon="2.18908">
        <ele>112</ele>
        <time>2015-02-03T15:31:05.000Z</time>
      </trkpt>
      <trkpt lat="48.79738" lon="2.18913">
        <ele>112.19999694824</ele>
        <time>2015-02-03T15:31:08.000Z</time>
      </trkpt>
      <trkpt lat="48.79738" lon="2.18917">
        <ele>112.40000152588</ele>
        <time>2015-02-03T15:31:11.000Z</time>
      </trkpt>
      <trkpt lat="48.79737" lon="2.1892">
        <ele>112.40000152588</ele>
        <time>2015-02-03T15:31:14.000Z</time>
      </trkpt>
      <trkpt lat="48.79737" lon="2.18922">
        <ele>112.40000152588</ele>
        <time>2015-02-03T15:31:15.000Z</time>
      </trkpt>
      <trkpt lat="48.79737" lon="2.18931">
        <ele>113</ele>
        <time>2015-02-03T15:31:21.000Z</time>
      </trkpt>
      <trkpt lat="48.79737" lon="2.18936">
        <ele>113</ele>
        <time>2015-02-03T15:31:24.000Z</time>
      </trkpt>
      <trkpt lat="48.79737" lon="2.18939">
        <ele>113</ele>
        <time>2015-02-03T15:31:27.000Z</time>
      </trkpt>
      <trkpt lat="48.79737" lon="2.18949">
        <ele>113</ele>
        <time>2015-02-03T15:31:33.000Z</time>
      </trkpt>
      <trkpt lat="48.79736" lon="2.18959">
        <ele>113.40000152588</ele>
        <time>2015-02-03T15:31:40.000Z</time>
      </trkpt>
      <trkpt lat="48.79736" lon="2.18968">
        <ele>113.40000152588</ele>
        <time>2015-02-03T15:31:45.000Z</time>
      </trkpt>
      <trkpt lat="48.79736" lon="2.1897">
        <ele>113.40000152588</ele>
        <time>2015-02-03T15:31:46.000Z</time>
      </trkpt>
      <trkpt lat="48.79735" lon="2.18981">
        <ele>113.59999847412</ele>
        <time>2015-02-03T15:31:53.000Z</time>
      </trkpt>
      <trkpt lat="48.79735" lon="2.18994">
        <ele>113.80000305176</ele>
        <time>2015-02-03T15:32:00.000Z</time>
      </trkpt>
      <trkpt lat="48.79735" lon="2.18996">
        <ele>113.80000305176</ele>
        <time>2015-02-03T15:32:01.000Z</time>
      </trkpt>
      <trkpt lat="48.79735" lon="2.19004">
        <ele>113.80000305176</ele>
        <time>2015-02-03T15:32:06.000Z</time>
      </trkpt>
      <trkpt lat="48.79736" lon="2.19018">
        <ele>114</ele>
        <time>2015-02-03T15:32:14.000Z</time>
      </trkpt>
      <trkpt lat="48.79736" lon="2.19023">
        <ele>114</ele>
        <time>2015-02-03T15:32:17.000Z</time>
      </trkpt>
      <trkpt lat="48.79736" lon="2.1903">
        <ele>114.40000152588</ele>
        <time>2015-02-03T15:32:21.000Z</time>
      </trkpt>
      <trkpt lat="48.79735" lon="2.19039">
        <ele>114.59999847412</ele>
        <time>2015-02-03T15:32:27.000Z</time>
      </trkpt>
      <trkpt lat="48.79734" lon="2.19042">
        <ele>114.59999847412</ele>
        <time>2015-02-03T15:32:29.000Z</time>
      </trkpt>
      <trkpt lat="48.79734" lon="2.1905">
        <ele>114.80000305176</ele>
        <time>2015-02-03T15:32:34.000Z</time>
      </trkpt>
      <trkpt lat="48.79734" lon="2.19057">
        <ele>114.80000305176</ele>
        <time>2015-02-03T15:32:38.000Z</time>
      </trkpt>
      <trkpt lat="48.79734" lon="2.19061">
        <ele>115</ele>
        <time>2015-02-03T15:32:40.000Z</time>
      </trkpt>
      <trkpt lat="48.79734" lon="2.19064">
        <ele>115</ele>
        <time>2015-02-03T15:32:42.000Z</time>
      </trkpt>
      <trkpt lat="48.79734" lon="2.19074">
        <ele>115.19999694824</ele>
        <time>2015-02-03T15:32:48.000Z</time>
      </trkpt>
      <trkpt lat="48.79734" lon="2.19085">
        <ele>115.19999694824</ele>
        <time>2015-02-03T15:32:53.000Z</time>
      </trkpt>
      <trkpt lat="48.79735" lon="2.19086">
        <ele>115.19999694824</ele>
        <time>2015-02-03T15:32:54.000Z</time>
      </trkpt>
      <trkpt lat="48.79735" lon="2.19094">
        <ele>115.19999694824</ele>
        <time>2015-02-03T15:32:58.000Z</time>
      </trkpt>
      <trkpt lat="48.79735" lon="2.19107">
        <ele>115.19999694824</ele>
        <time>2015-02-03T15:33:05.000Z</time>
      </trkpt>
      <trkpt lat="48.79735" lon="2.19113">
        <ele>115.40000152588</ele>
        <time>2015-02-03T15:33:09.000Z</time>
      </trkpt>
      <trkpt lat="48.79735" lon="2.19119">
        <ele>115.40000152588</ele>
        <time>2015-02-03T15:33:12.000Z</time>
      </trkpt>
      <trkpt lat="48.79735" lon="2.19133">
        <ele>115.40000152588</ele>
        <time>2015-02-03T15:33:20.000Z</time>
      </trkpt>
      <trkpt lat="48.79734" lon="2.19139">
        <ele>115.19999694824</ele>
        <time>2015-02-03T15:33:26.000Z</time>
      </trkpt>
      <trkpt lat="48.79734" lon="2.19139">
        <ele>115.19999694824</ele>
        <time>2015-02-03T15:33:28.000Z</time>
      </trkpt>
      <trkpt lat="48.79733" lon="2.19144">
        <ele>115.19999694824</ele>
        <time>2015-02-03T15:33:36.000Z</time>
      </trkpt>
      <trkpt lat="48.79731" lon="2.19148">
        <ele>115</ele>
        <time>2015-02-03T15:33:42.000Z</time>
      </trkpt>
      <trkpt lat="48.79731" lon="2.1915">
        <ele>115</ele>
        <time>2015-02-03T15:33:48.000Z</time>
      </trkpt>
      <trkpt lat="48.79732" lon="2.19154">
        <ele>115</ele>
        <time>2015-02-03T15:33:56.000Z</time>
      </trkpt>
      <trkpt lat="48.79734" lon="2.19157">
        <ele>114.80000305176</ele>
        <time>2015-02-03T15:34:09.000Z</time>
      </trkpt>
      <trkpt lat="48.79734" lon="2.19166">
        <ele>114.59999847412</ele>
        <time>2015-02-03T15:34:16.000Z</time>
      </trkpt>
      <trkpt lat="48.79733" lon="2.19182">
        <ele>114.19999694824</ele>
        <time>2015-02-03T15:34:26.000Z</time>
      </trkpt>
      <trkpt lat="48.79734" lon="2.1919">
        <ele>114</ele>
        <time>2015-02-03T15:34:31.000Z</time>
      </trkpt>
      <trkpt lat="48.79734" lon="2.19195">
        <ele>114</ele>
        <time>2015-02-03T15:34:34.000Z</time>
      </trkpt>
      <trkpt lat="48.79734" lon="2.19204">
        <ele>113.59999847412</ele>
        <time>2015-02-03T15:34:40.000Z</time>
      </trkpt>
      <trkpt lat="48.79735" lon="2.19216">
        <ele>113.40000152588</ele>
        <time>2015-02-03T15:34:47.000Z</time>
      </trkpt>
      <trkpt lat="48.79735" lon="2.19229">
        <ele>113</ele>
        <time>2015-02-03T15:34:55.000Z</time>
      </trkpt>
      <trkpt lat="48.79735" lon="2.19232">
        <ele>113</ele>
        <time>2015-02-03T15:34:57.000Z</time>
      </trkpt>
      <trkpt lat="48.79736" lon="2.19242">
        <ele>112.80000305176</ele>
        <time>2015-02-03T15:35:03.000Z</time>
      </trkpt>
      <trkpt lat="48.79736" lon="2.19245">
        <ele>112.59999847412</ele>
        <time>2015-02-03T15:35:05.000Z</time>
      </trkpt>
      <trkpt lat="48.79736" lon="2.19252">
        <ele>112.59999847412</ele>
        <time>2015-02-03T15:35:09.000Z</time>
      </trkpt>
      <trkpt lat="48.79738" lon="2.19264">
        <ele>112.40000152588</ele>
        <time>2015-02-03T15:35:16.000Z</time>
      </trkpt>
      <trkpt lat="48.79738" lon="2.19266">
        <ele>112.40000152588</ele>
        <time>2015-02-03T15:35:17.000Z</time>
      </trkpt>
      <trkpt lat="48.79738" lon="2.19276">
        <ele>112.40000152588</ele>
        <time>2015-02-03T15:35:23.000Z</time>
      </trkpt>
      <trkpt lat="48.79738" lon="2.19278">
        <ele>112.40000152588</ele>
        <time>2015-02-03T15:35:25.000Z</time>
      </trkpt>
      <trkpt lat="48.79739" lon="2.19283">
        <ele>112.19999694824</ele>
        <time>2015-02-03T15:35:28.000Z</time>
      </trkpt>
      <trkpt lat="48.79739" lon="2.19287">
        <ele>112.19999694824</ele>
        <time>2015-02-03T15:35:30.000Z</time>
      </trkpt>
      <trkpt lat="48.79739" lon="2.19295">
        <ele>112</ele>
        <time>2015-02-03T15:35:35.000Z</time>
      </trkpt>
      <trkpt lat="48.7974" lon="2.19306">
        <ele>111.80000305176</ele>
        <time>2015-02-03T15:35:42.000Z</time>
      </trkpt>
      <trkpt lat="48.79741" lon="2.19307">
        <ele>111.80000305176</ele>
        <time>2015-02-03T15:35:43.000Z</time>
      </trkpt>
      <trkpt lat="48.79742" lon="2.1931">
        <ele>112</ele>
        <time>2015-02-03T15:35:45.000Z</time>
      </trkpt>
      <trkpt lat="48.79742" lon="2.19315">
        <ele>111.80000305176</ele>
        <time>2015-02-03T15:35:48.000Z</time>
      </trkpt>
      <trkpt lat="48.79742" lon="2.19321">
        <ele>111.59999847412</ele>
        <time>2015-02-03T15:35:52.000Z</time>
      </trkpt>
      <trkpt lat="48.79742" lon="2.19327">
        <ele>111.80000305176</ele>
        <time>2015-02-03T15:35:55.000Z</time>
      </trkpt>
      <trkpt lat="48.79743" lon="2.19331">
        <ele>111.80000305176</ele>
        <time>2015-02-03T15:35:58.000Z</time>
      </trkpt>
      <trkpt lat="48.79743" lon="2.19336">
        <ele>111.80000305176</ele>
        <time>2015-02-03T15:36:01.000Z</time>
      </trkpt>
      <trkpt lat="48.79743" lon="2.19348">
        <ele>112</ele>
        <time>2015-02-03T15:36:08.000Z</time>
      </trkpt>
      <trkpt lat="48.79743" lon="2.19351">
        <ele>111.80000305176</ele>
        <time>2015-02-03T15:36:10.000Z</time>
      </trkpt>
      <trkpt lat="48.79742" lon="2.19365">
        <ele>111.80000305176</ele>
        <time>2015-02-03T15:36:18.000Z</time>
      </trkpt>
      <trkpt lat="48.79743" lon="2.19376">
        <ele>111.80000305176</ele>
        <time>2015-02-03T15:36:24.000Z</time>
      </trkpt>
      <trkpt lat="48.79743" lon="2.19386">
        <ele>111.59999847412</ele>
        <time>2015-02-03T15:36:30.000Z</time>
      </trkpt>
      <trkpt lat="48.79742" lon="2.19387">
        <ele>111.40000152588</ele>
        <time>2015-02-03T15:36:31.000Z</time>
      </trkpt>
      <trkpt lat="48.79742" lon="2.19393">
        <ele>111.40000152588</ele>
        <time>2015-02-03T15:36:35.000Z</time>
      </trkpt>
      <trkpt lat="48.79743" lon="2.19397">
        <ele>111.40000152588</ele>
        <time>2015-02-03T15:36:37.000Z</time>
      </trkpt>
      <trkpt lat="48.79743" lon="2.19403">
        <ele>111.40000152588</ele>
        <time>2015-02-03T15:36:41.000Z</time>
      </trkpt>
      <trkpt lat="48.79743" lon="2.19409">
        <ele>111.59999847412</ele>
        <time>2015-02-03T15:36:45.000Z</time>
      </trkpt>
      <trkpt lat="48.79743" lon="2.19415">
        <ele>111.59999847412</ele>
        <time>2015-02-03T15:36:49.000Z</time>
      </trkpt>
      <trkpt lat="48.79743" lon="2.19428">
        <ele>111.80000305176</ele>
        <time>2015-02-03T15:36:57.000Z</time>
      </trkpt>
      <trkpt lat="48.79744" lon="2.19436">
        <ele>111.80000305176</ele>
        <time>2015-02-03T15:37:02.000Z</time>
      </trkpt>
      <trkpt lat="48.79744" lon="2.19438">
        <ele>111.80000305176</ele>
        <time>2015-02-03T15:37:03.000Z</time>
      </trkpt>
      <trkpt lat="48.79745" lon="2.19443">
        <ele>111.80000305176</ele>
        <time>2015-02-03T15:37:08.000Z</time>
      </trkpt>
      <trkpt lat="48.79745" lon="2.19443">
        <ele>111.80000305176</ele>
        <time>2015-02-03T15:37:09.000Z</time>
      </trkpt>
      <trkpt lat="48.79745" lon="2.19451">
        <ele>112.19999694824</ele>
        <time>2015-02-03T15:37:14.000Z</time>
      </trkpt>
      <trkpt lat="48.79745" lon="2.19452">
        <ele>112.40000152588</ele>
        <time>2015-02-03T15:37:15.000Z</time>
      </trkpt>
      <trkpt lat="48.79745" lon="2.1946">
        <ele>112.40000152588</ele>
        <time>2015-02-03T15:37:20.000Z</time>
      </trkpt>
      <trkpt lat="48.79744" lon="2.19461">
        <ele>112.40000152588</ele>
        <time>2015-02-03T15:37:21.000Z</time>
      </trkpt>
      <trkpt lat="48.79744" lon="2.19466">
        <ele>112.59999847412</ele>
        <time>2015-02-03T15:37:24.000Z</time>
      </trkpt>
      <trkpt lat="48.79745" lon="2.19469">
        <ele>112.59999847412</ele>
        <time>2015-02-03T15:37:28.000Z</time>
      </trkpt>
      <trkpt lat="48.79744" lon="2.19481">
        <ele>112.80000305176</ele>
        <time>2015-02-03T15:37:33.000Z</time>
      </trkpt>
      <trkpt lat="48.79744" lon="2.19486">
        <ele>113</ele>
        <time>2015-02-03T15:37:36.000Z</time>
      </trkpt>
      <trkpt lat="48.79743" lon="2.19487">
        <ele>113</ele>
        <time>2015-02-03T15:37:37.000Z</time>
      </trkpt>
      <trkpt lat="48.79743" lon="2.19495">
        <ele>113.19999694824</ele>
        <time>2015-02-03T15:37:42.000Z</time>
      </trkpt>
      <trkpt lat="48.79742" lon="2.195">
        <ele>113.19999694824</ele>
        <time>2015-02-03T15:37:44.000Z</time>
      </trkpt>
      <trkpt lat="48.79741" lon="2.19506">
        <ele>113.19999694824</ele>
        <time>2015-02-03T15:37:47.000Z</time>
      </trkpt>
      <trkpt lat="48.79741" lon="2.19521">
        <ele>113.40000152588</ele>
        <time>2015-02-03T15:37:55.000Z</time>
      </trkpt>
      <trkpt lat="48.7974" lon="2.19531">
        <ele>113.59999847412</ele>
        <time>2015-02-03T15:38:02.000Z</time>
      </trkpt>
      <trkpt lat="48.79741" lon="2.19538">
        <ele>113.59999847412</ele>
        <time>2015-02-03T15:38:07.000Z</time>
      </trkpt>
      <trkpt lat="48.79741" lon="2.19541">
        <ele>113.59999847412</ele>
        <time>2015-02-03T15:38:09.000Z</time>
      </trkpt>
      <trkpt lat="48.79742" lon="2.19552">
        <ele>113.80000305176</ele>
        <time>2015-02-03T15:38:16.000Z</time>
      </trkpt>
      <trkpt lat="48.79743" lon="2.19562">
        <ele>114</ele>
        <time>2015-02-03T15:38:23.000Z</time>
      </trkpt>
      <trkpt lat="48.79743" lon="2.19564">
        <ele>114</ele>
        <time>2015-02-03T15:38:24.000Z</time>
      </trkpt>
      <trkpt lat="48.79743" lon="2.19572">
        <ele>114</ele>
        <time>2015-02-03T15:38:29.000Z</time>
      </trkpt>
      <trkpt lat="48.79743" lon="2.19579">
        <ele>114</ele>
        <time>2015-02-03T15:38:33.000Z</time>
      </trkpt>
      <trkpt lat="48.79743" lon="2.19582">
        <ele>114</ele>
        <time>2015-02-03T15:38:35.000Z</time>
      </trkpt>
      <trkpt lat="48.79743" lon="2.19591">
        <ele>114</ele>
        <time>2015-02-03T15:38:40.000Z</time>
      </trkpt>
      <trkpt lat="48.79743" lon="2.19591">
        <ele>114</ele>
        <time>2015-02-03T15:38:41.000Z</time>
      </trkpt>
      <trkpt lat="48.79742" lon="2.19598">
        <ele>114.19999694824</ele>
        <time>2015-02-03T15:38:46.000Z</time>
      </trkpt>
      <trkpt lat="48.79742" lon="2.19602">
        <ele>114.40000152588</ele>
        <time>2015-02-03T15:38:50.000Z</time>
      </trkpt>
      <trkpt lat="48.79742" lon="2.19604">
        <ele>114.40000152588</ele>
        <time>2015-02-03T15:38:52.000Z</time>
      </trkpt>
      <trkpt lat="48.79743" lon="2.19614">
        <ele>114.40000152588</ele>
        <time>2015-02-03T15:38:57.000Z</time>
      </trkpt>
      <trkpt lat="48.79743" lon="2.19625">
        <ele>114.59999847412</ele>
        <time>2015-02-03T15:39:04.000Z</time>
      </trkpt>
      <trkpt lat="48.79743" lon="2.19627">
        <ele>114.59999847412</ele>
        <time>2015-02-03T15:39:05.000Z</time>
      </trkpt>
      <trkpt lat="48.79745" lon="2.19633">
        <ele>114.59999847412</ele>
        <time>2015-02-03T15:39:09.000Z</time>
      </trkpt>
      <trkpt lat="48.79747" lon="2.19639">
        <ele>114.59999847412</ele>
        <time>2015-02-03T15:39:12.000Z</time>
      </trkpt>
      <trkpt lat="48.79747" lon="2.1965">
        <ele>114.80000305176</ele>
        <time>2015-02-03T15:39:18.000Z</time>
      </trkpt>
      <trkpt lat="48.79747" lon="2.19664">
        <ele>114.80000305176</ele>
        <time>2015-02-03T15:39:26.000Z</time>
      </trkpt>
      <trkpt lat="48.79748" lon="2.1967">
        <ele>114.80000305176</ele>
        <time>2015-02-03T15:39:30.000Z</time>
      </trkpt>
      <trkpt lat="48.7975" lon="2.19674">
        <ele>114.59999847412</ele>
        <time>2015-02-03T15:39:33.000Z</time>
      </trkpt>
      <trkpt lat="48.79758" lon="2.19687">
        <ele>114.40000152588</ele>
        <time>2015-02-03T15:39:43.000Z</time>
      </trkpt>
      <trkpt lat="48.79764" lon="2.19697">
        <ele>114.40000152588</ele>
        <time>2015-02-03T15:39:52.000Z</time>
      </trkpt>
      <trkpt lat="48.79771" lon="2.19709">
        <ele>114.40000152588</ele>
        <time>2015-02-03T15:40:01.000Z</time>
      </trkpt>
      <trkpt lat="48.7978" lon="2.19722">
        <ele>114.59999847412</ele>
        <time>2015-02-03T15:40:12.000Z</time>
      </trkpt>
      <trkpt lat="48.79786" lon="2.19732">
        <ele>114.59999847412</ele>
        <time>2015-02-03T15:40:20.000Z</time>
      </trkpt>
      <trkpt lat="48.7979" lon="2.19739">
        <ele>114.59999847412</ele>
        <time>2015-02-03T15:40:26.000Z</time>
      </trkpt>
      <trkpt lat="48.79792" lon="2.1974">
        <ele>114.59999847412</ele>
        <time>2015-02-03T15:40:27.000Z</time>
      </trkpt>
      <trkpt lat="48.79794" lon="2.19745">
        <ele>114.80000305176</ele>
        <time>2015-02-03T15:40:30.000Z</time>
      </trkpt>
      <trkpt lat="48.79794" lon="2.19746">
        <ele>114.80000305176</ele>
        <time>2015-02-03T15:40:31.000Z</time>
      </trkpt>
      <trkpt lat="48.79795" lon="2.19749">
        <ele>114.80000305176</ele>
        <time>2015-02-03T15:40:33.000Z</time>
      </trkpt>
      <trkpt lat="48.79795" lon="2.19751">
        <ele>114.80000305176</ele>
        <time>2015-02-03T15:40:35.000Z</time>
      </trkpt>
      <trkpt lat="48.79799" lon="2.19763">
        <ele>114.80000305176</ele>
        <time>2015-02-03T15:40:43.000Z</time>
      </trkpt>
      <trkpt lat="48.79803" lon="2.19775">
        <ele>114.80000305176</ele>
        <time>2015-02-03T15:40:52.000Z</time>
      </trkpt>
      <trkpt lat="48.79807" lon="2.19787">
        <ele>115</ele>
        <time>2015-02-03T15:41:01.000Z</time>
      </trkpt>
      <trkpt lat="48.79811" lon="2.19797">
        <ele>115</ele>
        <time>2015-02-03T15:41:08.000Z</time>
      </trkpt>
      <trkpt lat="48.79811" lon="2.198">
        <ele>115</ele>
        <time>2015-02-03T15:41:10.000Z</time>
      </trkpt>
      <trkpt lat="48.79813" lon="2.19811">
        <ele>115.19999694824</ele>
        <time>2015-02-03T15:41:17.000Z</time>
      </trkpt>
      <trkpt lat="48.79816" lon="2.19825">
        <ele>115</ele>
        <time>2015-02-03T15:41:26.000Z</time>
      </trkpt>
      <trkpt lat="48.79818" lon="2.19839">
        <ele>115.19999694824</ele>
        <time>2015-02-03T15:41:36.000Z</time>
      </trkpt>
      <trkpt lat="48.7982" lon="2.1985">
        <ele>115.19999694824</ele>
        <time>2015-02-03T15:41:44.000Z</time>
      </trkpt>
      <trkpt lat="48.7982" lon="2.19854">
        <ele>115.19999694824</ele>
        <time>2015-02-03T15:41:48.000Z</time>
      </trkpt>
      <trkpt lat="48.7982" lon="2.19857">
        <ele>115.19999694824</ele>
        <time>2015-02-03T15:41:52.000Z</time>
      </trkpt>
      <trkpt lat="48.7982" lon="2.19857">
        <ele>115.40000152588</ele>
        <time>2015-02-03T15:41:59.000Z</time>
      </trkpt>
      <trkpt lat="48.7982" lon="2.19858">
        <ele>115.59999847412</ele>
        <time>2015-02-03T15:42:11.000Z</time>
      </trkpt>
      <trkpt lat="48.79821" lon="2.19857">
        <ele>115.59999847412</ele>
        <time>2015-02-03T15:42:19.000Z</time>
      </trkpt>
      <trkpt lat="48.79821" lon="2.19857">
        <ele>115.59999847412</ele>
        <time>2015-02-03T15:42:29.000Z</time>
      </trkpt>
      <trkpt lat="48.79821" lon="2.19857">
        <ele>115.59999847412</ele>
        <time>2015-02-03T15:42:39.000Z</time>
      </trkpt>
      <trkpt lat="48.79825" lon="2.19856">
        <ele>115.59999847412</ele>
        <time>2015-02-03T15:42:47.000Z</time>
      </trkpt>
      <trkpt lat="48.79831" lon="2.19853">
        <ele>115.40000152588</ele>
        <time>2015-02-03T15:42:54.000Z</time>
      </trkpt>
      <trkpt lat="48.79837" lon="2.19849">
        <ele>115.40000152588</ele>
        <time>2015-02-03T15:43:02.000Z</time>
      </trkpt>
      <trkpt lat="48.79843" lon="2.19845">
        <ele>115.40000152588</ele>
        <time>2015-02-03T15:43:11.000Z</time>
      </trkpt>
      <trkpt lat="48.79848" lon="2.19841">
        <ele>115.40000152588</ele>
        <time>2015-02-03T15:43:18.000Z</time>
      </trkpt>
      <trkpt lat="48.79851" lon="2.19839">
        <ele>115.40000152588</ele>
        <time>2015-02-03T15:43:24.000Z</time>
      </trkpt>
      <trkpt lat="48.79857" lon="2.19838">
        <ele>115.40000152588</ele>
        <time>2015-02-03T15:43:30.000Z</time>
      </trkpt>
      <trkpt lat="48.7986" lon="2.19837">
        <ele>115.19999694824</ele>
        <time>2015-02-03T15:43:34.000Z</time>
      </trkpt>
      <trkpt lat="48.79861" lon="2.19837">
        <ele>115.19999694824</ele>
        <time>2015-02-03T15:43:35.000Z</time>
      </trkpt>
      <trkpt lat="48.79867" lon="2.19835">
        <ele>114.59999847412</ele>
        <time>2015-02-03T15:43:42.000Z</time>
      </trkpt>
      <trkpt lat="48.79869" lon="2.19834">
        <ele>114.59999847412</ele>
        <time>2015-02-03T15:43:44.000Z</time>
      </trkpt>
      <trkpt lat="48.79874" lon="2.19831">
        <ele>114</ele>
        <time>2015-02-03T15:43:50.000Z</time>
      </trkpt>
      <trkpt lat="48.79875" lon="2.1983">
        <ele>114</ele>
        <time>2015-02-03T15:43:51.000Z</time>
      </trkpt>
      <trkpt lat="48.79882" lon="2.19822">
        <ele>113.19999694824</ele>
        <time>2015-02-03T15:44:01.000Z</time>
      </trkpt>
      <trkpt lat="48.79885" lon="2.19818">
        <ele>113</ele>
        <time>2015-02-03T15:44:05.000Z</time>
      </trkpt>
      <trkpt lat="48.79888" lon="2.19814">
        <ele>112.59999847412</ele>
        <time>2015-02-03T15:44:09.000Z</time>
      </trkpt>
      <trkpt lat="48.79889" lon="2.19813">
        <ele>112.59999847412</ele>
        <time>2015-02-03T15:44:11.000Z</time>
      </trkpt>
      <trkpt lat="48.79893" lon="2.19813">
        <ele>112.19999694824</ele>
        <time>2015-02-03T15:44:15.000Z</time>
      </trkpt>
      <trkpt lat="48.79895" lon="2.19813">
        <ele>112.59999847412</ele>
        <time>2015-02-03T15:44:19.000Z</time>
      </trkpt>
      <trkpt lat="48.79896" lon="2.19812">
        <ele>112.59999847412</ele>
        <time>2015-02-03T15:44:20.000Z</time>
      </trkpt>
      <trkpt lat="48.79901" lon="2.19809">
        <ele>113</ele>
        <time>2015-02-03T15:44:25.000Z</time>
      </trkpt>
      <trkpt lat="48.79904" lon="2.19807">
        <ele>113.19999694824</ele>
        <time>2015-02-03T15:44:28.000Z</time>
      </trkpt>
      <trkpt lat="48.7991" lon="2.19805">
        <ele>113.19999694824</ele>
        <time>2015-02-03T15:44:34.000Z</time>
      </trkpt>
      <trkpt lat="48.79914" lon="2.19799">
        <ele>113.40000152588</ele>
        <time>2015-02-03T15:44:41.000Z</time>
      </trkpt>
      <trkpt lat="48.79914" lon="2.19798">
        <ele>113.40000152588</ele>
        <time>2015-02-03T15:44:42.000Z</time>
      </trkpt>
      <trkpt lat="48.79916" lon="2.19796">
        <ele>113.40000152588</ele>
        <time>2015-02-03T15:44:44.000Z</time>
      </trkpt>
      <trkpt lat="48.79918" lon="2.19793">
        <ele>113.40000152588</ele>
        <time>2015-02-03T15:44:48.000Z</time>
      </trkpt>
      <trkpt lat="48.7992" lon="2.19791">
        <ele>113.40000152588</ele>
        <time>2015-02-03T15:44:51.000Z</time>
      </trkpt>
      <trkpt lat="48.79922" lon="2.19789">
        <ele>113.19999694824</ele>
        <time>2015-02-03T15:44:55.000Z</time>
      </trkpt>
      <trkpt lat="48.79928" lon="2.19786">
        <ele>113</ele>
        <time>2015-02-03T15:45:02.000Z</time>
      </trkpt>
      <trkpt lat="48.79932" lon="2.19783">
        <ele>113</ele>
        <time>2015-02-03T15:45:07.000Z</time>
      </trkpt>
      <trkpt lat="48.79937" lon="2.19779">
        <ele>112.80000305176</ele>
        <time>2015-02-03T15:45:13.000Z</time>
      </trkpt>
      <trkpt lat="48.79939" lon="2.19778">
        <ele>112.80000305176</ele>
        <time>2015-02-03T15:45:15.000Z</time>
      </trkpt>
      <trkpt lat="48.7994" lon="2.19778">
        <ele>113</ele>
        <time>2015-02-03T15:45:18.000Z</time>
      </trkpt>
      <trkpt lat="48.79945" lon="2.19774">
        <ele>113</ele>
        <time>2015-02-03T15:45:26.000Z</time>
      </trkpt>
      <trkpt lat="48.7995" lon="2.19771">
        <ele>113.19999694824</ele>
        <time>2015-02-03T15:45:33.000Z</time>
      </trkpt>
      <trkpt lat="48.79955" lon="2.19766">
        <ele>113.19999694824</ele>
        <time>2015-02-03T15:45:38.000Z</time>
      </trkpt>
      <trkpt lat="48.7996" lon="2.19762">
        <ele>113.19999694824</ele>
        <time>2015-02-03T15:45:43.000Z</time>
      </trkpt>
      <trkpt lat="48.79963" lon="2.19761">
        <ele>113.19999694824</ele>
        <time>2015-02-03T15:45:48.000Z</time>
      </trkpt>
      <trkpt lat="48.79967" lon="2.19758">
        <ele>113.19999694824</ele>
        <time>2015-02-03T15:45:52.000Z</time>
      </trkpt>
      <trkpt lat="48.79969" lon="2.19757">
        <ele>113.40000152588</ele>
        <time>2015-02-03T15:45:54.000Z</time>
      </trkpt>
      <trkpt lat="48.79976" lon="2.19754">
        <ele>113.59999847412</ele>
        <time>2015-02-03T15:46:00.000Z</time>
      </trkpt>
      <trkpt lat="48.79979" lon="2.19752">
        <ele>113.59999847412</ele>
        <time>2015-02-03T15:46:04.000Z</time>
      </trkpt>
      <trkpt lat="48.7998" lon="2.19751">
        <ele>113.59999847412</ele>
        <time>2015-02-03T15:46:06.000Z</time>
      </trkpt>
      <trkpt lat="48.79983" lon="2.1975">
        <ele>113.59999847412</ele>
        <time>2015-02-03T15:46:09.000Z</time>
      </trkpt>
      <trkpt lat="48.79987" lon="2.19747">
        <ele>113.80000305176</ele>
        <time>2015-02-03T15:46:13.000Z</time>
      </trkpt>
      <trkpt lat="48.79988" lon="2.19745">
        <ele>114</ele>
        <time>2015-02-03T15:46:15.000Z</time>
      </trkpt>
      <trkpt lat="48.79991" lon="2.19743">
        <ele>114</ele>
        <time>2015-02-03T15:46:18.000Z</time>
      </trkpt>
      <trkpt lat="48.79993" lon="2.19741">
        <ele>113.80000305176</ele>
        <time>2015-02-03T15:46:20.000Z</time>
      </trkpt>
      <trkpt lat="48.79999" lon="2.19738">
        <ele>114</ele>
        <time>2015-02-03T15:46:26.000Z</time>
      </trkpt>
      <trkpt lat="48.8" lon="2.19736">
        <ele>114</ele>
        <time>2015-02-03T15:46:28.000Z</time>
      </trkpt>
      <trkpt lat="48.80001" lon="2.19734">
        <ele>114</ele>
        <time>2015-02-03T15:46:32.000Z</time>
      </trkpt>
      <trkpt lat="48.80007" lon="2.1973">
        <ele>114.19999694824</ele>
        <time>2015-02-03T15:46:37.000Z</time>
      </trkpt>
      <trkpt lat="48.80014" lon="2.19727">
        <ele>114.40000152588</ele>
        <time>2015-02-03T15:46:43.000Z</time>
      </trkpt>
      <trkpt lat="48.80015" lon="2.19726">
        <ele>114.40000152588</ele>
        <time>2015-02-03T15:46:44.000Z</time>
      </trkpt>
      <trkpt lat="48.80023" lon="2.1972">
        <ele>114.40000152588</ele>
        <time>2015-02-03T15:46:51.000Z</time>
      </trkpt>
      <trkpt lat="48.80027" lon="2.19715">
        <ele>114.59999847412</ele>
        <time>2015-02-03T15:46:57.000Z</time>
      </trkpt>
      <trkpt lat="48.80027" lon="2.19715">
        <ele>114.80000305176</ele>
        <time>2015-02-03T15:46:58.000Z</time>
      </trkpt>
      <trkpt lat="48.80031" lon="2.19712">
        <ele>114.80000305176</ele>
        <time>2015-02-03T15:47:03.000Z</time>
      </trkpt>
      <trkpt lat="48.80035" lon="2.19709">
        <ele>115</ele>
        <time>2015-02-03T15:47:09.000Z</time>
      </trkpt>
      <trkpt lat="48.80036" lon="2.19709">
        <ele>115</ele>
        <time>2015-02-03T15:47:10.000Z</time>
      </trkpt>
      <trkpt lat="48.80037" lon="2.19708">
        <ele>115</ele>
        <time>2015-02-03T15:47:11.000Z</time>
      </trkpt>
      <trkpt lat="48.80041" lon="2.19705">
        <ele>115.19999694824</ele>
        <time>2015-02-03T15:47:16.000Z</time>
      </trkpt>
      <trkpt lat="48.80044" lon="2.19702">
        <ele>115.19999694824</ele>
        <time>2015-02-03T15:47:19.000Z</time>
      </trkpt>
      <trkpt lat="48.80046" lon="2.197">
        <ele>115.40000152588</ele>
        <time>2015-02-03T15:47:23.000Z</time>
      </trkpt>
      <trkpt lat="48.80048" lon="2.19698">
        <ele>115.40000152588</ele>
        <time>2015-02-03T15:47:25.000Z</time>
      </trkpt>
      <trkpt lat="48.80054" lon="2.19693">
        <ele>115.59999847412</ele>
        <time>2015-02-03T15:47:32.000Z</time>
      </trkpt>
      <trkpt lat="48.80055" lon="2.19692">
        <ele>115.80000305176</ele>
        <time>2015-02-03T15:47:34.000Z</time>
      </trkpt>
      <trkpt lat="48.80057" lon="2.19689">
        <ele>115.80000305176</ele>
        <time>2015-02-03T15:47:37.000Z</time>
      </trkpt>
      <trkpt lat="48.80058" lon="2.19688">
        <ele>115.80000305176</ele>
        <time>2015-02-03T15:47:40.000Z</time>
      </trkpt>
      <trkpt lat="48.8006" lon="2.19685">
        <ele>116</ele>
        <time>2015-02-03T15:47:42.000Z</time>
      </trkpt>
      <trkpt lat="48.80061" lon="2.19683">
        <ele>116.19999694824</ele>
        <time>2015-02-03T15:47:45.000Z</time>
      </trkpt>
      <trkpt lat="48.80065" lon="2.19681">
        <ele>116.40000152588</ele>
        <time>2015-02-03T15:47:49.000Z</time>
      </trkpt>
      <trkpt lat="48.80065" lon="2.19678">
        <ele>116.40000152588</ele>
        <time>2015-02-03T15:47:51.000Z</time>
      </trkpt>
      <trkpt lat="48.80066" lon="2.19675">
        <ele>116.59999847412</ele>
        <time>2015-02-03T15:47:54.000Z</time>
      </trkpt>
      <trkpt lat="48.80067" lon="2.19674">
        <ele>116.59999847412</ele>
        <time>2015-02-03T15:47:55.000Z</time>
      </trkpt>
      <trkpt lat="48.8007" lon="2.1967">
        <ele>116.80000305176</ele>
        <time>2015-02-03T15:47:59.000Z</time>
      </trkpt>
      <trkpt lat="48.80073" lon="2.19665">
        <ele>117</ele>
        <time>2015-02-03T15:48:04.000Z</time>
      </trkpt>
      <trkpt lat="48.80074" lon="2.19665">
        <ele>117</ele>
        <time>2015-02-03T15:48:05.000Z</time>
      </trkpt>
      <trkpt lat="48.80077" lon="2.19664">
        <ele>117.19999694824</ele>
        <time>2015-02-03T15:48:08.000Z</time>
      </trkpt>
      <trkpt lat="48.80079" lon="2.19663">
        <ele>117.19999694824</ele>
        <time>2015-02-03T15:48:10.000Z</time>
      </trkpt>
      <trkpt lat="48.80083" lon="2.19661">
        <ele>117.40000152588</ele>
        <time>2015-02-03T15:48:13.000Z</time>
      </trkpt>
      <trkpt lat="48.80086" lon="2.19658">
        <ele>117.80000305176</ele>
        <time>2015-02-03T15:48:16.000Z</time>
      </trkpt>
      <trkpt lat="48.80086" lon="2.19657">
        <ele>117.80000305176</ele>
        <time>2015-02-03T15:48:17.000Z</time>
      </trkpt>
      <trkpt lat="48.80088" lon="2.19656">
        <ele>118</ele>
        <time>2015-02-03T15:48:18.000Z</time>
      </trkpt>
      <trkpt lat="48.80089" lon="2.19655">
        <ele>118</ele>
        <time>2015-02-03T15:48:20.000Z</time>
      </trkpt>
      <trkpt lat="48.80092" lon="2.19653">
        <ele>118.19999694824</ele>
        <time>2015-02-03T15:48:22.000Z</time>
      </trkpt>
      <trkpt lat="48.80097" lon="2.1965">
        <ele>118.59999847412</ele>
        <time>2015-02-03T15:48:26.000Z</time>
      </trkpt>
      <trkpt lat="48.80098" lon="2.19649">
        <ele>118.59999847412</ele>
        <time>2015-02-03T15:48:27.000Z</time>
      </trkpt>
      <trkpt lat="48.80103" lon="2.19646">
        <ele>118.80000305176</ele>
        <time>2015-02-03T15:48:31.000Z</time>
      </trkpt>
      <trkpt lat="48.80106" lon="2.19645">
        <ele>119</ele>
        <time>2015-02-03T15:48:33.000Z</time>
      </trkpt>
      <trkpt lat="48.80109" lon="2.19644">
        <ele>119</ele>
        <time>2015-02-03T15:48:36.000Z</time>
      </trkpt>
      <trkpt lat="48.8011" lon="2.19643">
        <ele>119.19999694824</ele>
        <time>2015-02-03T15:48:38.000Z</time>
      </trkpt>
      <trkpt lat="48.80113" lon="2.19641">
        <ele>119.19999694824</ele>
        <time>2015-02-03T15:48:40.000Z</time>
      </trkpt>
      <trkpt lat="48.80117" lon="2.19639">
        <ele>119.59999847412</ele>
        <time>2015-02-03T15:48:43.000Z</time>
      </trkpt>
      <trkpt lat="48.80119" lon="2.19637">
        <ele>119.80000305176</ele>
        <time>2015-02-03T15:48:45.000Z</time>
      </trkpt>
      <trkpt lat="48.8012" lon="2.19637">
        <ele>119.80000305176</ele>
        <time>2015-02-03T15:48:46.000Z</time>
      </trkpt>
      <trkpt lat="48.80123" lon="2.19636">
        <ele>119.80000305176</ele>
        <time>2015-02-03T15:48:49.000Z</time>
      </trkpt>
      <trkpt lat="48.80127" lon="2.19633">
        <ele>120.19999694824</ele>
        <time>2015-02-03T15:48:52.000Z</time>
      </trkpt>
      <trkpt lat="48.80129" lon="2.19632">
        <ele>120.19999694824</ele>
        <time>2015-02-03T15:48:54.000Z</time>
      </trkpt>
      <trkpt lat="48.80136" lon="2.19626">
        <ele>120.59999847412</ele>
        <time>2015-02-03T15:49:01.000Z</time>
      </trkpt>
      <trkpt lat="48.80143" lon="2.19621">
        <ele>121</ele>
        <time>2015-02-03T15:49:07.000Z</time>
      </trkpt>
      <trkpt lat="48.80144" lon="2.1962">
        <ele>121</ele>
        <time>2015-02-03T15:49:08.000Z</time>
      </trkpt>
      <trkpt lat="48.80145" lon="2.19619">
        <ele>121.19999694824</ele>
        <time>2015-02-03T15:49:09.000Z</time>
      </trkpt>
      <trkpt lat="48.80149" lon="2.19616">
        <ele>121.40000152588</ele>
        <time>2015-02-03T15:49:14.000Z</time>
      </trkpt>
      <trkpt lat="48.80155" lon="2.1961">
        <ele>121.80000305176</ele>
        <time>2015-02-03T15:49:20.000Z</time>
      </trkpt>
      <trkpt lat="48.80159" lon="2.19607">
        <ele>122</ele>
        <time>2015-02-03T15:49:23.000Z</time>
      </trkpt>
      <trkpt lat="48.80161" lon="2.19605">
        <ele>122.19999694824</ele>
        <time>2015-02-03T15:49:25.000Z</time>
      </trkpt>
      <trkpt lat="48.80161" lon="2.19602">
        <ele>122.19999694824</ele>
        <time>2015-02-03T15:49:26.000Z</time>
      </trkpt>
      <trkpt lat="48.80166" lon="2.19596">
        <ele>122.59999847412</ele>
        <time>2015-02-03T15:49:31.000Z</time>
      </trkpt>
      <trkpt lat="48.80172" lon="2.19594">
        <ele>123</ele>
        <time>2015-02-03T15:49:36.000Z</time>
      </trkpt>
      <trkpt lat="48.80173" lon="2.19594">
        <ele>123</ele>
        <time>2015-02-03T15:49:37.000Z</time>
      </trkpt>
      <trkpt lat="48.80175" lon="2.19593">
        <ele>123.19999694824</ele>
        <time>2015-02-03T15:49:39.000Z</time>
      </trkpt>
      <trkpt lat="48.8018" lon="2.19587">
        <ele>123.59999847412</ele>
        <time>2015-02-03T15:49:44.000Z</time>
      </trkpt>
      <trkpt lat="48.80186" lon="2.19582">
        <ele>124</ele>
        <time>2015-02-03T15:49:50.000Z</time>
      </trkpt>
      <trkpt lat="48.80191" lon="2.19577">
        <ele>124.19999694824</ele>
        <time>2015-02-03T15:49:55.000Z</time>
      </trkpt>
      <trkpt lat="48.80196" lon="2.19572">
        <ele>124.59999847412</ele>
        <time>2015-02-03T15:50:01.000Z</time>
      </trkpt>
      <trkpt lat="48.80201" lon="2.19569">
        <ele>124.80000305176</ele>
        <time>2015-02-03T15:50:05.000Z</time>
      </trkpt>
      <trkpt lat="48.80201" lon="2.19568">
        <ele>124.80000305176</ele>
        <time>2015-02-03T15:50:06.000Z</time>
      </trkpt>
      <trkpt lat="48.80204" lon="2.19567">
        <ele>124.80000305176</ele>
        <time>2015-02-03T15:50:08.000Z</time>
      </trkpt>
      <trkpt lat="48.80209" lon="2.19564">
        <ele>125.19999694824</ele>
        <time>2015-02-03T15:50:13.000Z</time>
      </trkpt>
      <trkpt lat="48.80209" lon="2.19562">
        <ele>125.19999694824</ele>
        <time>2015-02-03T15:50:14.000Z</time>
      </trkpt>
      <trkpt lat="48.80213" lon="2.19559">
        <ele>125.59999847412</ele>
        <time>2015-02-03T15:50:18.000Z</time>
      </trkpt>
      <trkpt lat="48.80214" lon="2.19558">
        <ele>125.59999847412</ele>
        <time>2015-02-03T15:50:19.000Z</time>
      </trkpt>
      <trkpt lat="48.80221" lon="2.19553">
        <ele>125.80000305176</ele>
        <time>2015-02-03T15:50:25.000Z</time>
      </trkpt>
      <trkpt lat="48.80226" lon="2.1955">
        <ele>126</ele>
        <time>2015-02-03T15:50:30.000Z</time>
      </trkpt>
      <trkpt lat="48.80227" lon="2.19549">
        <ele>126</ele>
        <time>2015-02-03T15:50:31.000Z</time>
      </trkpt>
      <trkpt lat="48.80234" lon="2.19545">
        <ele>126.19999694824</ele>
        <time>2015-02-03T15:50:37.000Z</time>
      </trkpt>
      <trkpt lat="48.80236" lon="2.19543">
        <ele>126.19999694824</ele>
        <time>2015-02-03T15:50:39.000Z</time>
      </trkpt>
      <trkpt lat="48.80237" lon="2.19543">
        <ele>126.19999694824</ele>
        <time>2015-02-03T15:50:40.000Z</time>
      </trkpt>
      <trkpt lat="48.80237" lon="2.19542">
        <ele>126.19999694824</ele>
        <time>2015-02-03T15:50:41.000Z</time>
      </trkpt>
      <trkpt lat="48.80239" lon="2.1954">
        <ele>126.40000152588</ele>
        <time>2015-02-03T15:50:43.000Z</time>
      </trkpt>
      <trkpt lat="48.80242" lon="2.19536">
        <ele>126.80000305176</ele>
        <time>2015-02-03T15:50:48.000Z</time>
      </trkpt>
      <trkpt lat="48.80244" lon="2.19535">
        <ele>126.80000305176</ele>
        <time>2015-02-03T15:50:49.000Z</time>
      </trkpt>
      <trkpt lat="48.80247" lon="2.19533">
        <ele>127</ele>
        <time>2015-02-03T15:50:52.000Z</time>
      </trkpt>
      <trkpt lat="48.80248" lon="2.19532">
        <ele>127</ele>
        <time>2015-02-03T15:50:54.000Z</time>
      </trkpt>
      <trkpt lat="48.80252" lon="2.1953">
        <ele>127.19999694824</ele>
        <time>2015-02-03T15:50:57.000Z</time>
      </trkpt>
      <trkpt lat="48.80254" lon="2.1953">
        <ele>127.19999694824</ele>
        <time>2015-02-03T15:50:59.000Z</time>
      </trkpt>
      <trkpt lat="48.80257" lon="2.19529">
        <ele>127.40000152588</ele>
        <time>2015-02-03T15:51:01.000Z</time>
      </trkpt>
      <trkpt lat="48.80258" lon="2.19529">
        <ele>127.40000152588</ele>
        <time>2015-02-03T15:51:02.000Z</time>
      </trkpt>
      <trkpt lat="48.8026" lon="2.19528">
        <ele>127.40000152588</ele>
        <time>2015-02-03T15:51:04.000Z</time>
      </trkpt>
      <trkpt lat="48.80265" lon="2.19525">
        <ele>127.59999847412</ele>
        <time>2015-02-03T15:51:08.000Z</time>
      </trkpt>
      <trkpt lat="48.8027" lon="2.19521">
        <ele>127.80000305176</ele>
        <time>2015-02-03T15:51:13.000Z</time>
      </trkpt>
      <trkpt lat="48.80275" lon="2.19517">
        <ele>128</ele>
        <time>2015-02-03T15:51:18.000Z</time>
      </trkpt>
      <trkpt lat="48.80276" lon="2.19516">
        <ele>128.19999694824</ele>
        <time>2015-02-03T15:51:19.000Z</time>
      </trkpt>
      <trkpt lat="48.8028" lon="2.19513">
        <ele>128.39999389648</ele>
        <time>2015-02-03T15:51:22.000Z</time>
      </trkpt>
      <trkpt lat="48.80284" lon="2.19509">
        <ele>128.80000305176</ele>
        <time>2015-02-03T15:51:26.000Z</time>
      </trkpt>
      <trkpt lat="48.80291" lon="2.19504">
        <ele>129.39999389648</ele>
        <time>2015-02-03T15:51:32.000Z</time>
      </trkpt>
      <trkpt lat="48.80292" lon="2.19503">
        <ele>129.39999389648</ele>
        <time>2015-02-03T15:51:33.000Z</time>
      </trkpt>
      <trkpt lat="48.80296" lon="2.195">
        <ele>130.19999694824</ele>
        <time>2015-02-03T15:51:37.000Z</time>
      </trkpt>
      <trkpt lat="48.803" lon="2.19498">
        <ele>130.39999389648</ele>
        <time>2015-02-03T15:51:40.000Z</time>
      </trkpt>
      <trkpt lat="48.80301" lon="2.19498">
        <ele>130.60000610352</ele>
        <time>2015-02-03T15:51:41.000Z</time>
      </trkpt>
      <trkpt lat="48.80304" lon="2.19496">
        <ele>130.80000305176</ele>
        <time>2015-02-03T15:51:43.000Z</time>
      </trkpt>
      <trkpt lat="48.80305" lon="2.19493">
        <ele>131.19999694824</ele>
        <time>2015-02-03T15:51:46.000Z</time>
      </trkpt>
      <trkpt lat="48.80308" lon="2.19491">
        <ele>131.19999694824</ele>
        <time>2015-02-03T15:51:48.000Z</time>
      </trkpt>
      <trkpt lat="48.8031" lon="2.19489">
        <ele>131.60000610352</ele>
        <time>2015-02-03T15:51:50.000Z</time>
      </trkpt>
      <trkpt lat="48.80317" lon="2.19481">
        <ele>132.60000610352</ele>
        <time>2015-02-03T15:51:57.000Z</time>
      </trkpt>
      <trkpt lat="48.80318" lon="2.19481">
        <ele>132.80000305176</ele>
        <time>2015-02-03T15:51:58.000Z</time>
      </trkpt>
      <trkpt lat="48.80322" lon="2.19478">
        <ele>133.19999694824</ele>
        <time>2015-02-03T15:52:02.000Z</time>
      </trkpt>
      <trkpt lat="48.80326" lon="2.19477">
        <ele>133.60000610352</ele>
        <time>2015-02-03T15:52:05.000Z</time>
      </trkpt>
      <trkpt lat="48.80327" lon="2.19476">
        <ele>133.80000305176</ele>
        <time>2015-02-03T15:52:07.000Z</time>
      </trkpt>
      <trkpt lat="48.8033" lon="2.19474">
        <ele>134</ele>
        <time>2015-02-03T15:52:10.000Z</time>
      </trkpt>
      <trkpt lat="48.80329" lon="2.19474">
        <ele>134</ele>
        <time>2015-02-03T15:52:11.000Z</time>
      </trkpt>
      <trkpt lat="48.80331" lon="2.19472">
        <ele>134.19999694824</ele>
        <time>2015-02-03T15:52:13.000Z</time>
      </trkpt>
      <trkpt lat="48.8033" lon="2.19472">
        <ele>134.80000305176</ele>
        <time>2015-02-03T15:52:17.000Z</time>
      </trkpt>
      <trkpt lat="48.80334" lon="2.19469">
        <ele>135.39999389648</ele>
        <time>2015-02-03T15:52:24.000Z</time>
      </trkpt>
      <trkpt lat="48.80335" lon="2.19468">
        <ele>135.19999694824</ele>
        <time>2015-02-03T15:52:32.000Z</time>
      </trkpt>
      <trkpt lat="48.80336" lon="2.19466">
        <ele>135.19999694824</ele>
        <time>2015-02-03T15:52:43.000Z</time>
      </trkpt>
      <trkpt lat="48.80336" lon="2.19465">
        <ele>135.19999694824</ele>
        <time>2015-02-03T15:52:52.000Z</time>
      </trkpt>
      <trkpt lat="48.80337" lon="2.19465">
        <ele>135.39999389648</ele>
        <time>2015-02-03T15:53:01.000Z</time>
      </trkpt>
      <trkpt lat="48.80337" lon="2.19463">
        <ele>134.80000305176</ele>
        <time>2015-02-03T15:53:08.000Z</time>
      </trkpt>
      <trkpt lat="48.80337" lon="2.19461">
        <ele>134.80000305176</ele>
        <time>2015-02-03T15:53:18.000Z</time>
      </trkpt>
      <trkpt lat="48.80336" lon="2.19454">
        <ele>134.80000305176</ele>
        <time>2015-02-03T15:53:30.000Z</time>
      </trkpt>
      <trkpt lat="48.8034" lon="2.19449">
        <ele>135.19999694824</ele>
        <time>2015-02-03T15:53:37.000Z</time>
      </trkpt>
      <trkpt lat="48.80347" lon="2.19445">
        <ele>135.60000610352</ele>
        <time>2015-02-03T15:53:45.000Z</time>
      </trkpt>
      <trkpt lat="48.80349" lon="2.19445">
        <ele>135.80000305176</ele>
        <time>2015-02-03T15:53:49.000Z</time>
      </trkpt>
      <trkpt lat="48.80351" lon="2.19445">
        <ele>135.80000305176</ele>
        <time>2015-02-03T15:53:52.000Z</time>
      </trkpt>
      <trkpt lat="48.80356" lon="2.19443">
        <ele>136</ele>
        <time>2015-02-03T15:53:58.000Z</time>
      </trkpt>
      <trkpt lat="48.80357" lon="2.19443">
        <ele>136</ele>
        <time>2015-02-03T15:53:59.000Z</time>
      </trkpt>
      <trkpt lat="48.8036" lon="2.19443">
        <ele>136.19999694824</ele>
        <time>2015-02-03T15:54:04.000Z</time>
      </trkpt>
      <trkpt lat="48.80361" lon="2.19442">
        <ele>136.19999694824</ele>
        <time>2015-02-03T15:54:05.000Z</time>
      </trkpt>
      <trkpt lat="48.80368" lon="2.19438">
        <ele>136.80000305176</ele>
        <time>2015-02-03T15:54:12.000Z</time>
      </trkpt>
      <trkpt lat="48.8037" lon="2.19437">
        <ele>137</ele>
        <time>2015-02-03T15:54:15.000Z</time>
      </trkpt>
      <trkpt lat="48.80372" lon="2.19437">
        <ele>137.19999694824</ele>
        <time>2015-02-03T15:54:17.000Z</time>
      </trkpt>
      <trkpt lat="48.80378" lon="2.19434">
        <ele>137.80000305176</ele>
        <time>2015-02-03T15:54:23.000Z</time>
      </trkpt>
      <trkpt lat="48.80381" lon="2.19433">
        <ele>138.19999694824</ele>
        <time>2015-02-03T15:54:25.000Z</time>
      </trkpt>
      <trkpt lat="48.80383" lon="2.19432">
        <ele>138.60000610352</ele>
        <time>2015-02-03T15:54:29.000Z</time>
      </trkpt>
      <trkpt lat="48.80386" lon="2.19431">
        <ele>139.19999694824</ele>
        <time>2015-02-03T15:54:33.000Z</time>
      </trkpt>
      <trkpt lat="48.80388" lon="2.19429">
        <ele>139.60000610352</ele>
        <time>2015-02-03T15:54:36.000Z</time>
      </trkpt>
      <trkpt lat="48.80389" lon="2.19427">
        <ele>140.19999694824</ele>
        <time>2015-02-03T15:54:39.000Z</time>
      </trkpt>
      <trkpt lat="48.8039" lon="2.19424">
        <ele>140.60000610352</ele>
        <time>2015-02-03T15:54:41.000Z</time>
      </trkpt>
      <trkpt lat="48.8039" lon="2.1942">
        <ele>141.39999389648</ele>
        <time>2015-02-03T15:54:45.000Z</time>
      </trkpt>
      <trkpt lat="48.80391" lon="2.19422">
        <ele>141.60000610352</ele>
        <time>2015-02-03T15:54:47.000Z</time>
      </trkpt>
      <trkpt lat="48.80393" lon="2.19419">
        <ele>142.39999389648</ele>
        <time>2015-02-03T15:54:52.000Z</time>
      </trkpt>
      <trkpt lat="48.80392" lon="2.19418">
        <ele>142.39999389648</ele>
        <time>2015-02-03T15:54:53.000Z</time>
      </trkpt>
      <trkpt lat="48.80392" lon="2.19418">
        <ele>142.60000610352</ele>
        <time>2015-02-03T15:54:56.000Z</time>
      </trkpt>
      <trkpt lat="48.80393" lon="2.19418">
        <ele>142</ele>
        <time>2015-02-03T15:55:07.000Z</time>
      </trkpt>
      <trkpt lat="48.80398" lon="2.19415">
        <ele>142</ele>
        <time>2015-02-03T15:55:15.000Z</time>
      </trkpt>
      <trkpt lat="48.80396" lon="2.19409">
        <ele>142.60000610352</ele>
        <time>2015-02-03T15:55:21.000Z</time>
      </trkpt>
      <trkpt lat="48.80392" lon="2.19402">
        <ele>142.60000610352</ele>
        <time>2015-02-03T15:55:26.000Z</time>
      </trkpt>
      <trkpt lat="48.80392" lon="2.19401">
        <ele>142.60000610352</ele>
        <time>2015-02-03T15:55:27.000Z</time>
      </trkpt>
      <trkpt lat="48.80391" lon="2.19396">
        <ele>142.80000305176</ele>
        <time>2015-02-03T15:55:31.000Z</time>
      </trkpt>
      <trkpt lat="48.80391" lon="2.19392">
        <ele>142.80000305176</ele>
        <time>2015-02-03T15:55:33.000Z</time>
      </trkpt>
      <trkpt lat="48.80392" lon="2.19391">
        <ele>142.80000305176</ele>
        <time>2015-02-03T15:55:34.000Z</time>
      </trkpt>
      <trkpt lat="48.80395" lon="2.19388">
        <ele>143</ele>
        <time>2015-02-03T15:55:38.000Z</time>
      </trkpt>
      <trkpt lat="48.80396" lon="2.19388">
        <ele>143</ele>
        <time>2015-02-03T15:55:39.000Z</time>
      </trkpt>
      <trkpt lat="48.80399" lon="2.19387">
        <ele>142.80000305176</ele>
        <time>2015-02-03T15:55:44.000Z</time>
      </trkpt>
      <trkpt lat="48.80402" lon="2.1939">
        <ele>142.60000610352</ele>
        <time>2015-02-03T15:55:50.000Z</time>
      </trkpt>
      <trkpt lat="48.80405" lon="2.19394">
        <ele>142.60000610352</ele>
        <time>2015-02-03T15:55:56.000Z</time>
      </trkpt>
      <trkpt lat="48.80408" lon="2.19397">
        <ele>142.39999389648</ele>
        <time>2015-02-03T15:56:02.000Z</time>
      </trkpt>
      <trkpt lat="48.8041" lon="2.19401">
        <ele>142</ele>
        <time>2015-02-03T15:56:08.000Z</time>
      </trkpt>
      <trkpt lat="48.80413" lon="2.19405">
        <ele>141.80000305176</ele>
        <time>2015-02-03T15:56:14.000Z</time>
      </trkpt>
      <trkpt lat="48.80414" lon="2.1941">
        <ele>141.80000305176</ele>
        <time>2015-02-03T15:56:21.000Z</time>
      </trkpt>
      <trkpt lat="48.80415" lon="2.19416">
        <ele>141.60000610352</ele>
        <time>2015-02-03T15:56:27.000Z</time>
      </trkpt>
      <trkpt lat="48.80419" lon="2.19423">
        <ele>141.39999389648</ele>
        <time>2015-02-03T15:56:34.000Z</time>
      </trkpt>
      <trkpt lat="48.80419" lon="2.19424">
        <ele>141.39999389648</ele>
        <time>2015-02-03T15:56:35.000Z</time>
      </trkpt>
      <trkpt lat="48.80421" lon="2.19427">
        <ele>141.19999694824</ele>
        <time>2015-02-03T15:56:37.000Z</time>
      </trkpt>
      <trkpt lat="48.80423" lon="2.1943">
        <ele>141.19999694824</ele>
        <time>2015-02-03T15:56:40.000Z</time>
      </trkpt>
      <trkpt lat="48.80427" lon="2.19433">
        <ele>141.19999694824</ele>
        <time>2015-02-03T15:56:44.000Z</time>
      </trkpt>
      <trkpt lat="48.80429" lon="2.19435">
        <ele>141.19999694824</ele>
        <time>2015-02-03T15:56:47.000Z</time>
      </trkpt>
      <trkpt lat="48.80431" lon="2.19436">
        <ele>141.19999694824</ele>
        <time>2015-02-03T15:56:48.000Z</time>
      </trkpt>
      <trkpt lat="48.80432" lon="2.19436">
        <ele>141.19999694824</ele>
        <time>2015-02-03T15:56:49.000Z</time>
      </trkpt>
      <trkpt lat="48.8044" lon="2.19437">
        <ele>141</ele>
        <time>2015-02-03T15:56:56.000Z</time>
      </trkpt>
      <trkpt lat="48.80441" lon="2.19437">
        <ele>140.80000305176</ele>
        <time>2015-02-03T15:56:57.000Z</time>
      </trkpt>
      <trkpt lat="48.80444" lon="2.19437">
        <ele>140.60000610352</ele>
        <time>2015-02-03T15:57:00.000Z</time>
      </trkpt>
      <trkpt lat="48.80448" lon="2.19436">
        <ele>140.39999389648</ele>
        <time>2015-02-03T15:57:04.000Z</time>
      </trkpt>
      <trkpt lat="48.80449" lon="2.19436">
        <ele>140.19999694824</ele>
        <time>2015-02-03T15:57:05.000Z</time>
      </trkpt>
      <trkpt lat="48.80456" lon="2.19435">
        <ele>140</ele>
        <time>2015-02-03T15:57:11.000Z</time>
      </trkpt>
      <trkpt lat="48.80457" lon="2.19433">
        <ele>139.80000305176</ele>
        <time>2015-02-03T15:57:13.000Z</time>
      </trkpt>
      <trkpt lat="48.80458" lon="2.19433">
        <ele>139.80000305176</ele>
        <time>2015-02-03T15:57:14.000Z</time>
      </trkpt>
      <trkpt lat="48.80462" lon="2.19433">
        <ele>139.80000305176</ele>
        <time>2015-02-03T15:57:17.000Z</time>
      </trkpt>
      <trkpt lat="48.8047" lon="2.19433">
        <ele>139.60000610352</ele>
        <time>2015-02-03T15:57:23.000Z</time>
      </trkpt>
      <trkpt lat="48.80471" lon="2.19432">
        <ele>139.60000610352</ele>
        <time>2015-02-03T15:57:24.000Z</time>
      </trkpt>
      <trkpt lat="48.80474" lon="2.19431">
        <ele>139.39999389648</ele>
        <time>2015-02-03T15:57:27.000Z</time>
      </trkpt>
      <trkpt lat="48.80477" lon="2.1943">
        <ele>139.39999389648</ele>
        <time>2015-02-03T15:57:30.000Z</time>
      </trkpt>
      <trkpt lat="48.80477" lon="2.1943">
        <ele>139.19999694824</ele>
        <time>2015-02-03T15:57:31.000Z</time>
      </trkpt>
      <trkpt lat="48.80478" lon="2.1943">
        <ele>139.19999694824</ele>
        <time>2015-02-03T15:57:32.000Z</time>
      </trkpt>
      <trkpt lat="48.80481" lon="2.19429">
        <ele>139.19999694824</ele>
        <time>2015-02-03T15:57:35.000Z</time>
      </trkpt>
      <trkpt lat="48.80482" lon="2.19429">
        <ele>139.19999694824</ele>
        <time>2015-02-03T15:57:38.000Z</time>
      </trkpt>
      <trkpt lat="48.80484" lon="2.19427">
        <ele>139</ele>
        <time>2015-02-03T15:57:47.000Z</time>
      </trkpt>
      <trkpt lat="48.80488" lon="2.19425">
        <ele>139.19999694824</ele>
        <time>2015-02-03T15:57:54.000Z</time>
      </trkpt>
      <trkpt lat="48.80491" lon="2.19421">
        <ele>139.19999694824</ele>
        <time>2015-02-03T15:58:02.000Z</time>
      </trkpt>
      <trkpt lat="48.80496" lon="2.19419">
        <ele>139.19999694824</ele>
        <time>2015-02-03T15:58:08.000Z</time>
      </trkpt>
      <trkpt lat="48.80498" lon="2.19418">
        <ele>139</ele>
        <time>2015-02-03T15:58:12.000Z</time>
      </trkpt>
      <trkpt lat="48.80504" lon="2.19418">
        <ele>138.80000305176</ele>
        <time>2015-02-03T15:58:19.000Z</time>
      </trkpt>
      <trkpt lat="48.80509" lon="2.19419">
        <ele>138.60000610352</ele>
        <time>2015-02-03T15:58:25.000Z</time>
      </trkpt>
      <trkpt lat="48.8051" lon="2.19419">
        <ele>138.60000610352</ele>
        <time>2015-02-03T15:58:26.000Z</time>
      </trkpt>
      <trkpt lat="48.80513" lon="2.19421">
        <ele>138.19999694824</ele>
        <time>2015-02-03T15:58:30.000Z</time>
      </trkpt>
      <trkpt lat="48.80517" lon="2.19422">
        <ele>137.80000305176</ele>
        <time>2015-02-03T15:58:34.000Z</time>
      </trkpt>
      <trkpt lat="48.80523" lon="2.19424">
        <ele>137.19999694824</ele>
        <time>2015-02-03T15:58:39.000Z</time>
      </trkpt>
      <trkpt lat="48.80525" lon="2.19424">
        <ele>137.19999694824</ele>
        <time>2015-02-03T15:58:40.000Z</time>
      </trkpt>
      <trkpt lat="48.8053" lon="2.19428">
        <ele>136.39999389648</ele>
        <time>2015-02-03T15:58:45.000Z</time>
      </trkpt>
      <trkpt lat="48.8053" lon="2.19428">
        <ele>136.39999389648</ele>
        <time>2015-02-03T15:58:46.000Z</time>
      </trkpt>
      <trkpt lat="48.80532" lon="2.19431">
        <ele>136.19999694824</ele>
        <time>2015-02-03T15:58:48.000Z</time>
      </trkpt>
      <trkpt lat="48.80533" lon="2.19432">
        <ele>136</ele>
        <time>2015-02-03T15:58:49.000Z</time>
      </trkpt>
      <trkpt lat="48.80533" lon="2.19433">
        <ele>136</ele>
        <time>2015-02-03T15:58:50.000Z</time>
      </trkpt>
      <trkpt lat="48.80537" lon="2.19442">
        <ele>135.80000305176</ele>
        <time>2015-02-03T15:58:56.000Z</time>
      </trkpt>
      <trkpt lat="48.80537" lon="2.19443">
        <ele>135.80000305176</ele>
        <time>2015-02-03T15:58:57.000Z</time>
      </trkpt>
      <trkpt lat="48.80537" lon="2.19443">
        <ele>135.80000305176</ele>
        <time>2015-02-03T15:58:58.000Z</time>
      </trkpt>
      <trkpt lat="48.80539" lon="2.19448">
        <ele>135.80000305176</ele>
        <time>2015-02-03T15:59:01.000Z</time>
      </trkpt>
      <trkpt lat="48.8054" lon="2.19449">
        <ele>135.80000305176</ele>
        <time>2015-02-03T15:59:03.000Z</time>
      </trkpt>
      <trkpt lat="48.80543" lon="2.19452">
        <ele>136</ele>
        <time>2015-02-03T15:59:05.000Z</time>
      </trkpt>
      <trkpt lat="48.80544" lon="2.19452">
        <ele>136</ele>
        <time>2015-02-03T15:59:06.000Z</time>
      </trkpt>
      <trkpt lat="48.80549" lon="2.19454">
        <ele>136.39999389648</ele>
        <time>2015-02-03T15:59:11.000Z</time>
      </trkpt>
      <trkpt lat="48.80551" lon="2.19456">
        <ele>136.39999389648</ele>
        <time>2015-02-03T15:59:13.000Z</time>
      </trkpt>
      <trkpt lat="48.80555" lon="2.1946">
        <ele>136.60000610352</ele>
        <time>2015-02-03T15:59:18.000Z</time>
      </trkpt>
      <trkpt lat="48.80558" lon="2.19463">
        <ele>136.80000305176</ele>
        <time>2015-02-03T15:59:22.000Z</time>
      </trkpt>
      <trkpt lat="48.8056" lon="2.19464">
        <ele>137</ele>
        <time>2015-02-03T15:59:24.000Z</time>
      </trkpt>
      <trkpt lat="48.8056" lon="2.19465">
        <ele>137.19999694824</ele>
        <time>2015-02-03T15:59:25.000Z</time>
      </trkpt>
      <trkpt lat="48.80563" lon="2.19468">
        <ele>137.39999389648</ele>
        <time>2015-02-03T15:59:30.000Z</time>
      </trkpt>
      <trkpt lat="48.80564" lon="2.1947">
        <ele>137.39999389648</ele>
        <time>2015-02-03T15:59:32.000Z</time>
      </trkpt>
      <trkpt lat="48.80568" lon="2.19475">
        <ele>138</ele>
        <time>2015-02-03T15:59:38.000Z</time>
      </trkpt>
      <trkpt lat="48.80568" lon="2.19476">
        <ele>138</ele>
        <time>2015-02-03T15:59:39.000Z</time>
      </trkpt>
      <trkpt lat="48.80569" lon="2.19477">
        <ele>138.19999694824</ele>
        <time>2015-02-03T15:59:40.000Z</time>
      </trkpt>
      <trkpt lat="48.80571" lon="2.19482">
        <ele>138.39999389648</ele>
        <time>2015-02-03T15:59:44.000Z</time>
      </trkpt>
      <trkpt lat="48.80578" lon="2.19489">
        <ele>138.60000610352</ele>
        <time>2015-02-03T15:59:50.000Z</time>
      </trkpt>
      <trkpt lat="48.80581" lon="2.19491">
        <ele>138.60000610352</ele>
        <time>2015-02-03T15:59:53.000Z</time>
      </trkpt>
      <trkpt lat="48.80583" lon="2.19493">
        <ele>138.39999389648</ele>
        <time>2015-02-03T15:59:55.000Z</time>
      </trkpt>
      <trkpt lat="48.80584" lon="2.19495">
        <ele>138.39999389648</ele>
        <time>2015-02-03T15:59:57.000Z</time>
      </trkpt>
      <trkpt lat="48.80589" lon="2.19498">
        <ele>138</ele>
        <time>2015-02-03T16:00:01.000Z</time>
      </trkpt>
      <trkpt lat="48.80591" lon="2.195">
        <ele>137.80000305176</ele>
        <time>2015-02-03T16:00:04.000Z</time>
      </trkpt>
      <trkpt lat="48.80592" lon="2.195">
        <ele>137.80000305176</ele>
        <time>2015-02-03T16:00:07.000Z</time>
      </trkpt>
      <trkpt lat="48.80593" lon="2.19502">
        <ele>137.80000305176</ele>
        <time>2015-02-03T16:00:09.000Z</time>
      </trkpt>
      <trkpt lat="48.80594" lon="2.19504">
        <ele>137.80000305176</ele>
        <time>2015-02-03T16:00:14.000Z</time>
      </trkpt>
      <trkpt lat="48.80597" lon="2.19505">
        <ele>137.60000610352</ele>
        <time>2015-02-03T16:00:17.000Z</time>
      </trkpt>
      <trkpt lat="48.80601" lon="2.19509">
        <ele>137.19999694824</ele>
        <time>2015-02-03T16:00:23.000Z</time>
      </trkpt>
      <trkpt lat="48.80601" lon="2.19511">
        <ele>137</ele>
        <time>2015-02-03T16:00:26.000Z</time>
      </trkpt>
      <trkpt lat="48.80603" lon="2.19513">
        <ele>136.80000305176</ele>
        <time>2015-02-03T16:00:29.000Z</time>
      </trkpt>
      <trkpt lat="48.80605" lon="2.19518">
        <ele>136.19999694824</ele>
        <time>2015-02-03T16:00:35.000Z</time>
      </trkpt>
      <trkpt lat="48.80605" lon="2.19519">
        <ele>136</ele>
        <time>2015-02-03T16:00:37.000Z</time>
      </trkpt>
      <trkpt lat="48.80606" lon="2.19525">
        <ele>135.60000610352</ele>
        <time>2015-02-03T16:00:42.000Z</time>
      </trkpt>
      <trkpt lat="48.80608" lon="2.19528">
        <ele>135.39999389648</ele>
        <time>2015-02-03T16:00:49.000Z</time>
      </trkpt>
      <trkpt lat="48.80613" lon="2.1953">
        <ele>135.19999694824</ele>
        <time>2015-02-03T16:00:53.000Z</time>
      </trkpt>
      <trkpt lat="48.80617" lon="2.19531">
        <ele>135</ele>
        <time>2015-02-03T16:00:57.000Z</time>
      </trkpt>
      <trkpt lat="48.80618" lon="2.19531">
        <ele>134.80000305176</ele>
        <time>2015-02-03T16:00:59.000Z</time>
      </trkpt>
      <trkpt lat="48.80625" lon="2.19534">
        <ele>134.19999694824</ele>
        <time>2015-02-03T16:01:07.000Z</time>
      </trkpt>
      <trkpt lat="48.80626" lon="2.19535">
        <ele>134.19999694824</ele>
        <time>2015-02-03T16:01:08.000Z</time>
      </trkpt>
      <trkpt lat="48.80628" lon="2.19537">
        <ele>133.80000305176</ele>
        <time>2015-02-03T16:01:11.000Z</time>
      </trkpt>
      <trkpt lat="48.8063" lon="2.19538">
        <ele>133.60000610352</ele>
        <time>2015-02-03T16:01:13.000Z</time>
      </trkpt>
      <trkpt lat="48.80634" lon="2.1954">
        <ele>133.39999389648</ele>
        <time>2015-02-03T16:01:17.000Z</time>
      </trkpt>
      <trkpt lat="48.80635" lon="2.1954">
        <ele>133.39999389648</ele>
        <time>2015-02-03T16:01:18.000Z</time>
      </trkpt>
      <trkpt lat="48.80636" lon="2.19541">
        <ele>133.19999694824</ele>
        <time>2015-02-03T16:01:19.000Z</time>
      </trkpt>
      <trkpt lat="48.80637" lon="2.19542">
        <ele>133.19999694824</ele>
        <time>2015-02-03T16:01:21.000Z</time>
      </trkpt>
      <trkpt lat="48.80639" lon="2.19543">
        <ele>133</ele>
        <time>2015-02-03T16:01:23.000Z</time>
      </trkpt>
      <trkpt lat="48.8064" lon="2.19543">
        <ele>132.80000305176</ele>
        <time>2015-02-03T16:01:24.000Z</time>
      </trkpt>
      <trkpt lat="48.80644" lon="2.19545">
        <ele>132.39999389648</ele>
        <time>2015-02-03T16:01:29.000Z</time>
      </trkpt>
      <trkpt lat="48.80646" lon="2.19546">
        <ele>132.19999694824</ele>
        <time>2015-02-03T16:01:31.000Z</time>
      </trkpt>
      <trkpt lat="48.80648" lon="2.19546">
        <ele>131.80000305176</ele>
        <time>2015-02-03T16:01:35.000Z</time>
      </trkpt>
      <trkpt lat="48.80649" lon="2.19546">
        <ele>131.80000305176</ele>
        <time>2015-02-03T16:01:36.000Z</time>
      </trkpt>
      <trkpt lat="48.8065" lon="2.19547">
        <ele>131.80000305176</ele>
        <time>2015-02-03T16:01:37.000Z</time>
      </trkpt>
      <trkpt lat="48.80652" lon="2.19547">
        <ele>131.60000610352</ele>
        <time>2015-02-03T16:01:40.000Z</time>
      </trkpt>
      <trkpt lat="48.80653" lon="2.19547">
        <ele>131.39999389648</ele>
        <time>2015-02-03T16:01:41.000Z</time>
      </trkpt>
      <trkpt lat="48.80659" lon="2.19549">
        <ele>131</ele>
        <time>2015-02-03T16:01:46.000Z</time>
      </trkpt>
      <trkpt lat="48.8066" lon="2.19549">
        <ele>131</ele>
        <time>2015-02-03T16:01:47.000Z</time>
      </trkpt>
      <trkpt lat="48.80662" lon="2.1955">
        <ele>130.60000610352</ele>
        <time>2015-02-03T16:01:49.000Z</time>
      </trkpt>
      <trkpt lat="48.80662" lon="2.1955">
        <ele>130.60000610352</ele>
        <time>2015-02-03T16:01:50.000Z</time>
      </trkpt>
      <trkpt lat="48.80665" lon="2.19551">
        <ele>130.19999694824</ele>
        <time>2015-02-03T16:01:53.000Z</time>
      </trkpt>
      <trkpt lat="48.8067" lon="2.19551">
        <ele>129.80000305176</ele>
        <time>2015-02-03T16:01:58.000Z</time>
      </trkpt>
      <trkpt lat="48.80673" lon="2.19553">
        <ele>129.60000610352</ele>
        <time>2015-02-03T16:02:01.000Z</time>
      </trkpt>
      <trkpt lat="48.80673" lon="2.19553">
        <ele>129.60000610352</ele>
        <time>2015-02-03T16:02:02.000Z</time>
      </trkpt>
      <trkpt lat="48.80675" lon="2.19553">
        <ele>129.39999389648</ele>
        <time>2015-02-03T16:02:03.000Z</time>
      </trkpt>
      <trkpt lat="48.80679" lon="2.19554">
        <ele>129</ele>
        <time>2015-02-03T16:02:08.000Z</time>
      </trkpt>
      <trkpt lat="48.80683" lon="2.19555">
        <ele>128.60000610352</ele>
        <time>2015-02-03T16:02:10.000Z</time>
      </trkpt>
      <trkpt lat="48.80687" lon="2.19556">
        <ele>128.19999694824</ele>
        <time>2015-02-03T16:02:14.000Z</time>
      </trkpt>
      <trkpt lat="48.80693" lon="2.19555">
        <ele>127.80000305176</ele>
        <time>2015-02-03T16:02:18.000Z</time>
      </trkpt>
      <trkpt lat="48.80695" lon="2.19555">
        <ele>127.59999847412</ele>
        <time>2015-02-03T16:02:19.000Z</time>
      </trkpt>
      <trkpt lat="48.80696" lon="2.19556">
        <ele>127.40000152588</ele>
        <time>2015-02-03T16:02:20.000Z</time>
      </trkpt>
      <trkpt lat="48.80701" lon="2.19557">
        <ele>127</ele>
        <time>2015-02-03T16:02:24.000Z</time>
      </trkpt>
      <trkpt lat="48.80703" lon="2.19556">
        <ele>126.59999847412</ele>
        <time>2015-02-03T16:02:28.000Z</time>
      </trkpt>
      <trkpt lat="48.80705" lon="2.19557">
        <ele>126.40000152588</ele>
        <time>2015-02-03T16:02:29.000Z</time>
      </trkpt>
      <trkpt lat="48.80706" lon="2.19557">
        <ele>126.19999694824</ele>
        <time>2015-02-03T16:02:30.000Z</time>
      </trkpt>
      <trkpt lat="48.8071" lon="2.19556">
        <ele>125.59999847412</ele>
        <time>2015-02-03T16:02:35.000Z</time>
      </trkpt>
      <trkpt lat="48.80711" lon="2.19556">
        <ele>125.40000152588</ele>
        <time>2015-02-03T16:02:36.000Z</time>
      </trkpt>
      <trkpt lat="48.80713" lon="2.19557">
        <ele>125.19999694824</ele>
        <time>2015-02-03T16:02:38.000Z</time>
      </trkpt>
      <trkpt lat="48.80715" lon="2.19557">
        <ele>124.80000305176</ele>
        <time>2015-02-03T16:02:40.000Z</time>
      </trkpt>
      <trkpt lat="48.80716" lon="2.19557">
        <ele>124.59999847412</ele>
        <time>2015-02-03T16:02:41.000Z</time>
      </trkpt>
      <trkpt lat="48.80718" lon="2.19557">
        <ele>124.40000152588</ele>
        <time>2015-02-03T16:02:43.000Z</time>
      </trkpt>
      <trkpt lat="48.80724" lon="2.19558">
        <ele>123.59999847412</ele>
        <time>2015-02-03T16:02:49.000Z</time>
      </trkpt>
      <trkpt lat="48.80726" lon="2.19559">
        <ele>123.19999694824</ele>
        <time>2015-02-03T16:02:51.000Z</time>
      </trkpt>
      <trkpt lat="48.80727" lon="2.1956">
        <ele>123</ele>
        <time>2015-02-03T16:02:52.000Z</time>
      </trkpt>
      <trkpt lat="48.8073" lon="2.1956">
        <ele>122.40000152588</ele>
        <time>2015-02-03T16:02:55.000Z</time>
      </trkpt>
      <trkpt lat="48.80732" lon="2.19559">
        <ele>122.19999694824</ele>
        <time>2015-02-03T16:02:57.000Z</time>
      </trkpt>
      <trkpt lat="48.80733" lon="2.1956">
        <ele>122</ele>
        <time>2015-02-03T16:02:58.000Z</time>
      </trkpt>
      <trkpt lat="48.80736" lon="2.19561">
        <ele>121.40000152588</ele>
        <time>2015-02-03T16:03:01.000Z</time>
      </trkpt>
      <trkpt lat="48.80738" lon="2.19561">
        <ele>121.19999694824</ele>
        <time>2015-02-03T16:03:03.000Z</time>
      </trkpt>
      <trkpt lat="48.80739" lon="2.19562">
        <ele>121</ele>
        <time>2015-02-03T16:03:05.000Z</time>
      </trkpt>
      <trkpt lat="48.80741" lon="2.19562">
        <ele>120.80000305176</ele>
        <time>2015-02-03T16:03:07.000Z</time>
      </trkpt>
      <trkpt lat="48.80746" lon="2.19562">
        <ele>120</ele>
        <time>2015-02-03T16:03:13.000Z</time>
      </trkpt>
      <trkpt lat="48.80747" lon="2.19562">
        <ele>119.80000305176</ele>
        <time>2015-02-03T16:03:14.000Z</time>
      </trkpt>
      <trkpt lat="48.80747" lon="2.19562">
        <ele>119.80000305176</ele>
        <time>2015-02-03T16:03:15.000Z</time>
      </trkpt>
      <trkpt lat="48.8075" lon="2.19562">
        <ele>119</ele>
        <time>2015-02-03T16:03:20.000Z</time>
      </trkpt>
      <trkpt lat="48.80754" lon="2.19563">
        <ele>118.40000152588</ele>
        <time>2015-02-03T16:03:25.000Z</time>
      </trkpt>
      <trkpt lat="48.80755" lon="2.19563">
        <ele>118.19999694824</ele>
        <time>2015-02-03T16:03:26.000Z</time>
      </trkpt>
      <trkpt lat="48.80755" lon="2.19563">
        <ele>117.80000305176</ele>
        <time>2015-02-03T16:03:28.000Z</time>
      </trkpt>
      <trkpt lat="48.80758" lon="2.19562">
        <ele>117.40000152588</ele>
        <time>2015-02-03T16:03:32.000Z</time>
      </trkpt>
      <trkpt lat="48.80764" lon="2.19563">
        <ele>116.80000305176</ele>
        <time>2015-02-03T16:03:39.000Z</time>
      </trkpt>
      <trkpt lat="48.80765" lon="2.19563">
        <ele>116.59999847412</ele>
        <time>2015-02-03T16:03:40.000Z</time>
      </trkpt>
      <trkpt lat="48.80766" lon="2.19564">
        <ele>116.59999847412</ele>
        <time>2015-02-03T16:03:42.000Z</time>
      </trkpt>
      <trkpt lat="48.80769" lon="2.19564">
        <ele>116</ele>
        <time>2015-02-03T16:03:46.000Z</time>
      </trkpt>
      <trkpt lat="48.80772" lon="2.19564">
        <ele>115.59999847412</ele>
        <time>2015-02-03T16:03:50.000Z</time>
      </trkpt>
      <trkpt lat="48.80774" lon="2.19563">
        <ele>115.59999847412</ele>
        <time>2015-02-03T16:03:52.000Z</time>
      </trkpt>
      <trkpt lat="48.80781" lon="2.19562">
        <ele>114.59999847412</ele>
        <time>2015-02-03T16:03:59.000Z</time>
      </trkpt>
      <trkpt lat="48.80783" lon="2.19562">
        <ele>114.40000152588</ele>
        <time>2015-02-03T16:04:01.000Z</time>
      </trkpt>
      <trkpt lat="48.80789" lon="2.19563">
        <ele>113.80000305176</ele>
        <time>2015-02-03T16:04:08.000Z</time>
      </trkpt>
      <trkpt lat="48.8079" lon="2.19564">
        <ele>113.59999847412</ele>
        <time>2015-02-03T16:04:09.000Z</time>
      </trkpt>
      <trkpt lat="48.80793" lon="2.19563">
        <ele>113.40000152588</ele>
        <time>2015-02-03T16:04:11.000Z</time>
      </trkpt>
      <trkpt lat="48.80794" lon="2.19564">
        <ele>113</ele>
        <time>2015-02-03T16:04:13.000Z</time>
      </trkpt>
      <trkpt lat="48.80797" lon="2.19564">
        <ele>112.59999847412</ele>
        <time>2015-02-03T16:04:16.000Z</time>
      </trkpt>
      <trkpt lat="48.80803" lon="2.19565">
        <ele>112.19999694824</ele>
        <time>2015-02-03T16:04:21.000Z</time>
      </trkpt>
      <trkpt lat="48.80809" lon="2.19567">
        <ele>111.40000152588</ele>
        <time>2015-02-03T16:04:26.000Z</time>
      </trkpt>
      <trkpt lat="48.80811" lon="2.19568">
        <ele>111.19999694824</ele>
        <time>2015-02-03T16:04:28.000Z</time>
      </trkpt>
      <trkpt lat="48.80818" lon="2.1957">
        <ele>110.59999847412</ele>
        <time>2015-02-03T16:04:35.000Z</time>
      </trkpt>
      <trkpt lat="48.80819" lon="2.1957">
        <ele>110.40000152588</ele>
        <time>2015-02-03T16:04:36.000Z</time>
      </trkpt>
      <trkpt lat="48.80823" lon="2.19571">
        <ele>109.80000305176</ele>
        <time>2015-02-03T16:04:41.000Z</time>
      </trkpt>
      <trkpt lat="48.80825" lon="2.19571">
        <ele>109.40000152588</ele>
        <time>2015-02-03T16:04:43.000Z</time>
      </trkpt>
      <trkpt lat="48.80826" lon="2.19571">
        <ele>109.40000152588</ele>
        <time>2015-02-03T16:04:44.000Z</time>
      </trkpt>
      <trkpt lat="48.80828" lon="2.19571">
        <ele>109.19999694824</ele>
        <time>2015-02-03T16:04:46.000Z</time>
      </trkpt>
      <trkpt lat="48.80829" lon="2.19571">
        <ele>108.80000305176</ele>
        <time>2015-02-03T16:04:47.000Z</time>
      </trkpt>
      <trkpt lat="48.8083" lon="2.19571">
        <ele>108.59999847412</ele>
        <time>2015-02-03T16:04:49.000Z</time>
      </trkpt>
      <trkpt lat="48.80832" lon="2.1957">
        <ele>108.40000152588</ele>
        <time>2015-02-03T16:04:54.000Z</time>
      </trkpt>
      <trkpt lat="48.80833" lon="2.1957">
        <ele>108.19999694824</ele>
        <time>2015-02-03T16:04:55.000Z</time>
      </trkpt>
      <trkpt lat="48.80839" lon="2.19565">
        <ele>107.59999847412</ele>
        <time>2015-02-03T16:05:01.000Z</time>
      </trkpt>
      <trkpt lat="48.8084" lon="2.19565">
        <ele>107.59999847412</ele>
        <time>2015-02-03T16:05:02.000Z</time>
      </trkpt>
      <trkpt lat="48.80842" lon="2.19563">
        <ele>107.40000152588</ele>
        <time>2015-02-03T16:05:05.000Z</time>
      </trkpt>
      <trkpt lat="48.80849" lon="2.19562">
        <ele>107.40000152588</ele>
        <time>2015-02-03T16:05:12.000Z</time>
      </trkpt>
      <trkpt lat="48.80849" lon="2.19561">
        <ele>107.40000152588</ele>
        <time>2015-02-03T16:05:13.000Z</time>
      </trkpt>
      <trkpt lat="48.80851" lon="2.19564">
        <ele>107.19999694824</ele>
        <time>2015-02-03T16:05:16.000Z</time>
      </trkpt>
      <trkpt lat="48.80851" lon="2.19564">
        <ele>107.19999694824</ele>
        <time>2015-02-03T16:05:17.000Z</time>
      </trkpt>
      <trkpt lat="48.80852" lon="2.19569">
        <ele>107.19999694824</ele>
        <time>2015-02-03T16:05:22.000Z</time>
      </trkpt>
      <trkpt lat="48.80856" lon="2.19572">
        <ele>106.80000305176</ele>
        <time>2015-02-03T16:05:27.000Z</time>
      </trkpt>
      <trkpt lat="48.80859" lon="2.19572">
        <ele>106.19999694824</ele>
        <time>2015-02-03T16:05:32.000Z</time>
      </trkpt>
      <trkpt lat="48.8086" lon="2.19572">
        <ele>106</ele>
        <time>2015-02-03T16:05:33.000Z</time>
      </trkpt>
      <trkpt lat="48.80865" lon="2.19573">
        <ele>105.40000152588</ele>
        <time>2015-02-03T16:05:38.000Z</time>
      </trkpt>
      <trkpt lat="48.80865" lon="2.19574">
        <ele>105.19999694824</ele>
        <time>2015-02-03T16:05:39.000Z</time>
      </trkpt>
      <trkpt lat="48.80868" lon="2.19574">
        <ele>105.19999694824</ele>
        <time>2015-02-03T16:05:42.000Z</time>
      </trkpt>
      <trkpt lat="48.80869" lon="2.19575">
        <ele>105</ele>
        <time>2015-02-03T16:05:44.000Z</time>
      </trkpt>
      <trkpt lat="48.80871" lon="2.19575">
        <ele>104.80000305176</ele>
        <time>2015-02-03T16:05:46.000Z</time>
      </trkpt>
      <trkpt lat="48.80874" lon="2.19575">
        <ele>104.80000305176</ele>
        <time>2015-02-03T16:05:52.000Z</time>
      </trkpt>
      <trkpt lat="48.80875" lon="2.19575">
        <ele>104</ele>
        <time>2015-02-03T16:05:58.000Z</time>
      </trkpt>
      <trkpt lat="48.80876" lon="2.19575">
        <ele>104</ele>
        <time>2015-02-03T16:05:59.000Z</time>
      </trkpt>
      <trkpt lat="48.80882" lon="2.19575">
        <ele>103.59999847412</ele>
        <time>2015-02-03T16:06:05.000Z</time>
      </trkpt>
      <trkpt lat="48.80887" lon="2.19577">
        <ele>103.40000152588</ele>
        <time>2015-02-03T16:06:11.000Z</time>
      </trkpt>
      <trkpt lat="48.80892" lon="2.19577">
        <ele>103</ele>
        <time>2015-02-03T16:06:15.000Z</time>
      </trkpt>
      <trkpt lat="48.80897" lon="2.19573">
        <ele>103</ele>
        <time>2015-02-03T16:06:19.000Z</time>
      </trkpt>
      <trkpt lat="48.80905" lon="2.19569">
        <ele>102.59999847412</ele>
        <time>2015-02-03T16:06:25.000Z</time>
      </trkpt>
      <trkpt lat="48.80914" lon="2.19564">
        <ele>102.19999694824</ele>
        <time>2015-02-03T16:06:31.000Z</time>
      </trkpt>
      <trkpt lat="48.80915" lon="2.19563">
        <ele>102.19999694824</ele>
        <time>2015-02-03T16:06:32.000Z</time>
      </trkpt>
      <trkpt lat="48.80916" lon="2.19561">
        <ele>102</ele>
        <time>2015-02-03T16:06:33.000Z</time>
      </trkpt>
      <trkpt lat="48.80918" lon="2.19558">
        <ele>101.59999847412</ele>
        <time>2015-02-03T16:06:37.000Z</time>
      </trkpt>
      <trkpt lat="48.80924" lon="2.19545">
        <ele>101</ele>
        <time>2015-02-03T16:06:45.000Z</time>
      </trkpt>
      <trkpt lat="48.80925" lon="2.19542">
        <ele>100.80000305176</ele>
        <time>2015-02-03T16:06:47.000Z</time>
      </trkpt>
      <trkpt lat="48.80926" lon="2.19541">
        <ele>100.59999847412</ele>
        <time>2015-02-03T16:06:49.000Z</time>
      </trkpt>
      <trkpt lat="48.80927" lon="2.19537">
        <ele>100.40000152588</ele>
        <time>2015-02-03T16:06:52.000Z</time>
      </trkpt>
      <trkpt lat="48.80928" lon="2.19535">
        <ele>100</ele>
        <time>2015-02-03T16:06:54.000Z</time>
      </trkpt>
      <trkpt lat="48.80929" lon="2.19534">
        <ele>99.800003051758</ele>
        <time>2015-02-03T16:06:55.000Z</time>
      </trkpt>
      <trkpt lat="48.80929" lon="2.19532">
        <ele>99.800003051758</ele>
        <time>2015-02-03T16:06:57.000Z</time>
      </trkpt>
      <trkpt lat="48.80932" lon="2.19527">
        <ele>99.199996948242</ele>
        <time>2015-02-03T16:07:01.000Z</time>
      </trkpt>
      <trkpt lat="48.80934" lon="2.19522">
        <ele>98.800003051758</ele>
        <time>2015-02-03T16:07:05.000Z</time>
      </trkpt>
      <trkpt lat="48.80934" lon="2.1952">
        <ele>98.599998474121</ele>
        <time>2015-02-03T16:07:06.000Z</time>
      </trkpt>
      <trkpt lat="48.80934" lon="2.19519">
        <ele>98.599998474121</ele>
        <time>2015-02-03T16:07:07.000Z</time>
      </trkpt>
      <trkpt lat="48.80937" lon="2.19514">
        <ele>97.800003051758</ele>
        <time>2015-02-03T16:07:12.000Z</time>
      </trkpt>
      <trkpt lat="48.8094" lon="2.1951">
        <ele>97.199996948242</ele>
        <time>2015-02-03T16:07:17.000Z</time>
      </trkpt>
      <trkpt lat="48.80942" lon="2.19507">
        <ele>97</ele>
        <time>2015-02-03T16:07:19.000Z</time>
      </trkpt>
      <trkpt lat="48.80943" lon="2.19505">
        <ele>96.800003051758</ele>
        <time>2015-02-03T16:07:21.000Z</time>
      </trkpt>
      <trkpt lat="48.80944" lon="2.19503">
        <ele>96.400001525879</ele>
        <time>2015-02-03T16:07:23.000Z</time>
      </trkpt>
      <trkpt lat="48.80947" lon="2.19499">
        <ele>96</ele>
        <time>2015-02-03T16:07:27.000Z</time>
      </trkpt>
      <trkpt lat="48.8095" lon="2.19495">
        <ele>95.599998474121</ele>
        <time>2015-02-03T16:07:30.000Z</time>
      </trkpt>
      <trkpt lat="48.80951" lon="2.19492">
        <ele>95.400001525879</ele>
        <time>2015-02-03T16:07:33.000Z</time>
      </trkpt>
      <trkpt lat="48.80956" lon="2.19485">
        <ele>94.599998474121</ele>
        <time>2015-02-03T16:07:39.000Z</time>
      </trkpt>
      <trkpt lat="48.80957" lon="2.19485">
        <ele>94.400001525879</ele>
        <time>2015-02-03T16:07:40.000Z</time>
      </trkpt>
      <trkpt lat="48.80961" lon="2.19483">
        <ele>94.199996948242</ele>
        <time>2015-02-03T16:07:43.000Z</time>
      </trkpt>
      <trkpt lat="48.80961" lon="2.1948">
        <ele>94</ele>
        <time>2015-02-03T16:07:45.000Z</time>
      </trkpt>
      <trkpt lat="48.80961" lon="2.19479">
        <ele>93.800003051758</ele>
        <time>2015-02-03T16:07:46.000Z</time>
      </trkpt>
      <trkpt lat="48.80962" lon="2.19474">
        <ele>93.400001525879</ele>
        <time>2015-02-03T16:07:50.000Z</time>
      </trkpt>
      <trkpt lat="48.80963" lon="2.19469">
        <ele>93</ele>
        <time>2015-02-03T16:07:54.000Z</time>
      </trkpt>
      <trkpt lat="48.80966" lon="2.19463">
        <ele>92.400001525879</ele>
        <time>2015-02-03T16:07:59.000Z</time>
      </trkpt>
      <trkpt lat="48.80967" lon="2.19462">
        <ele>92.199996948242</ele>
        <time>2015-02-03T16:08:00.000Z</time>
      </trkpt>
      <trkpt lat="48.80967" lon="2.19461">
        <ele>92</ele>
        <time>2015-02-03T16:08:01.000Z</time>
      </trkpt>
      <trkpt lat="48.80966" lon="2.19453">
        <ele>91.400001525879</ele>
        <time>2015-02-03T16:08:06.000Z</time>
      </trkpt>
      <trkpt lat="48.80967" lon="2.19452">
        <ele>91.199996948242</ele>
        <time>2015-02-03T16:08:07.000Z</time>
      </trkpt>
      <trkpt lat="48.80977" lon="2.19451">
        <ele>90.599998474121</ele>
        <time>2015-02-03T16:08:11.000Z</time>
      </trkpt>
      <trkpt lat="48.80983" lon="2.19448">
        <ele>90.199996948242</ele>
        <time>2015-02-03T16:08:14.000Z</time>
      </trkpt>
      <trkpt lat="48.80986" lon="2.19445">
        <ele>90</ele>
        <time>2015-02-03T16:08:17.000Z</time>
      </trkpt>
      <trkpt lat="48.80995" lon="2.1944">
        <ele>89.599998474121</ele>
        <time>2015-02-03T16:08:20.000Z</time>
      </trkpt>
      <trkpt lat="48.80997" lon="2.19438">
        <ele>89.199996948242</ele>
        <time>2015-02-03T16:08:22.000Z</time>
      </trkpt>
      <trkpt lat="48.80998" lon="2.19437">
        <ele>89.199996948242</ele>
        <time>2015-02-03T16:08:23.000Z</time>
      </trkpt>
      <trkpt lat="48.80999" lon="2.19436">
        <ele>89</ele>
        <time>2015-02-03T16:08:24.000Z</time>
      </trkpt>
      <trkpt lat="48.81001" lon="2.19435">
        <ele>88.400001525879</ele>
        <time>2015-02-03T16:08:26.000Z</time>
      </trkpt>
      <trkpt lat="48.81003" lon="2.19433">
        <ele>88</ele>
        <time>2015-02-03T16:08:28.000Z</time>
      </trkpt>
      <trkpt lat="48.81002" lon="2.19434">
        <ele>87.800003051758</ele>
        <time>2015-02-03T16:08:29.000Z</time>
      </trkpt>
      <trkpt lat="48.81017" lon="2.19358">
        <ele>84.400001525879</ele>
        <time>2015-02-03T16:09:12.000Z</time>
      </trkpt>
      <trkpt lat="48.81029" lon="2.19366">
        <ele>84.199996948242</ele>
        <time>2015-02-03T16:09:13.000Z</time>
      </trkpt>
      <trkpt lat="48.81021" lon="2.19353">
        <ele>83.800003051758</ele>
        <time>2015-02-03T16:09:17.000Z</time>
      </trkpt>
      <trkpt lat="48.81019" lon="2.19346">
        <ele>83.800003051758</ele>
        <time>2015-02-03T16:09:18.000Z</time>
      </trkpt>
      <trkpt lat="48.81019" lon="2.19345">
        <ele>83.800003051758</ele>
        <time>2015-02-03T16:09:19.000Z</time>
      </trkpt>
      <trkpt lat="48.81016" lon="2.19342">
        <ele>83.599998474121</ele>
        <time>2015-02-03T16:09:21.000Z</time>
      </trkpt>
      <trkpt lat="48.81015" lon="2.19341">
        <ele>83.599998474121</ele>
        <time>2015-02-03T16:09:22.000Z</time>
      </trkpt>
      <trkpt lat="48.81015" lon="2.19341">
        <ele>83.400001525879</ele>
        <time>2015-02-03T16:09:24.000Z</time>
      </trkpt>
      <trkpt lat="48.81015" lon="2.19339">
        <ele>83</ele>
        <time>2015-02-03T16:09:33.000Z</time>
      </trkpt>
      <trkpt lat="48.81019" lon="2.19342">
        <ele>83</ele>
        <time>2015-02-03T16:09:43.000Z</time>
      </trkpt>
      <trkpt lat="48.81019" lon="2.19342">
        <ele>83</ele>
        <time>2015-02-03T16:09:50.000Z</time>
      </trkpt>
      <trkpt lat="48.81016" lon="2.19342">
        <ele>83</ele>
        <time>2015-02-03T16:09:58.000Z</time>
      </trkpt>
      <trkpt lat="48.81014" lon="2.19339">
        <ele>82.800003051758</ele>
        <time>2015-02-03T16:10:04.000Z</time>
      </trkpt>
      <trkpt lat="48.81012" lon="2.19336">
        <ele>82.599998474121</ele>
        <time>2015-02-03T16:10:07.000Z</time>
      </trkpt>
      <trkpt lat="48.81011" lon="2.19331">
        <ele>82.599998474121</ele>
        <time>2015-02-03T16:10:11.000Z</time>
      </trkpt>
      <trkpt lat="48.81012" lon="2.19322">
        <ele>81.800003051758</ele>
        <time>2015-02-03T16:10:19.000Z</time>
      </trkpt>
      <trkpt lat="48.81012" lon="2.1932">
        <ele>81.599998474121</ele>
        <time>2015-02-03T16:10:21.000Z</time>
      </trkpt>
      <trkpt lat="48.81014" lon="2.19317">
        <ele>81.400001525879</ele>
        <time>2015-02-03T16:10:24.000Z</time>
      </trkpt>
      <trkpt lat="48.81016" lon="2.19311">
        <ele>81</ele>
        <time>2015-02-03T16:10:30.000Z</time>
      </trkpt>
      <trkpt lat="48.81016" lon="2.19304">
        <ele>80.800003051758</ele>
        <time>2015-02-03T16:10:34.000Z</time>
      </trkpt>
      <trkpt lat="48.81017" lon="2.19303">
        <ele>80.800003051758</ele>
        <time>2015-02-03T16:10:35.000Z</time>
      </trkpt>
      <trkpt lat="48.8102" lon="2.19297">
        <ele>80.599998474121</ele>
        <time>2015-02-03T16:10:40.000Z</time>
      </trkpt>
      <trkpt lat="48.81022" lon="2.19293">
        <ele>80.400001525879</ele>
        <time>2015-02-03T16:10:43.000Z</time>
      </trkpt>
      <trkpt lat="48.81023" lon="2.19288">
        <ele>80.599998474121</ele>
        <time>2015-02-03T16:10:47.000Z</time>
      </trkpt>
      <trkpt lat="48.81025" lon="2.19284">
        <ele>80.800003051758</ele>
        <time>2015-02-03T16:10:50.000Z</time>
      </trkpt>
      <trkpt lat="48.81026" lon="2.19277">
        <ele>81</ele>
        <time>2015-02-03T16:10:56.000Z</time>
      </trkpt>
      <trkpt lat="48.81027" lon="2.1927">
        <ele>81.199996948242</ele>
        <time>2015-02-03T16:11:00.000Z</time>
      </trkpt>
      <trkpt lat="48.81027" lon="2.1927">
        <ele>81.199996948242</ele>
        <time>2015-02-03T16:11:01.000Z</time>
      </trkpt>
      <trkpt lat="48.8103" lon="2.19268">
        <ele>81.199996948242</ele>
        <time>2015-02-03T16:11:05.000Z</time>
      </trkpt>
      <trkpt lat="48.8103" lon="2.19268">
        <ele>81.599998474121</ele>
        <time>2015-02-03T16:11:07.000Z</time>
      </trkpt>
      <trkpt lat="48.81031" lon="2.19268">
        <ele>81.599998474121</ele>
        <time>2015-02-03T16:11:08.000Z</time>
      </trkpt>
      <trkpt lat="48.81035" lon="2.19269">
        <ele>81.400001525879</ele>
        <time>2015-02-03T16:11:14.000Z</time>
      </trkpt>
      <trkpt lat="48.812" lon="2.18865">
        <ele>190.80000305176</ele>
        <time>2015-02-03T16:20:26.000Z</time>
      </trkpt>
      <trkpt lat="48.812" lon="2.18863">
        <ele>190.80000305176</ele>
        <time>2015-02-03T16:20:27.000Z</time>
      </trkpt>
      <trkpt lat="48.812" lon="2.18861">
        <ele>191</ele>
        <time>2015-02-03T16:20:29.000Z</time>
      </trkpt>
      <trkpt lat="48.81199" lon="2.1886">
        <ele>191</ele>
        <time>2015-02-03T16:20:31.000Z</time>
      </trkpt>
      <trkpt lat="48.81197" lon="2.18858">
        <ele>191</ele>
        <time>2015-02-03T16:20:34.000Z</time>
      </trkpt>
    </trkseg>
  </trk>
</gpx>